# Wetter Temperatur Luftdruck Luftfeuchtigkeit Sichtweite Windgeschwindigkeit Windrichtung Zeit
1 Clouds 9 1006 93 10000 10.8 180 05:21 02.10.2022
2 Clouds 8 1008 95 10000 11.32 180 01:20 02.10.2022
3 Mist 9 1008 97 2900 11.83 180 00:38 02.10.2022
4 Mist 9 1009 95 4200 11.32 180 23:28 01.10.2022
5 Clouds 9 1009 95 8000 11.83 170 21:58 01.10.2022
6 Clouds 9 1009 97 4300 12.35 170 19:21 01.10.2022
7 Clouds 10 1007 95 8000 11.32 160 17:46 01.10.2022
8 Rain 10 1010 95 6000 10.8 150 15:32 01.10.2022
9 Rain 10 1010 95 5000 10.29 150 14:18 01.10.2022
10 Rain 10 1011 92 10000 8.23 160 12:34 01.10.2022
11 Rain 10 1012 91 10000 4.12 160 11:23 01.10.2022
12 Rain 10 1012 88 10000 3.09 160 10:53 01.10.2022
13 Rain 10 1013 87 10000 3.09 150 10:30 01.10.2022
14 Drizzle 10 1012 84 10000 3.6 140 09:25 01.10.2022
15 Clouds 11 1013 83 10000 4.63 120 08:27 01.10.2022
16 Rain 12 1015 80 10000 5.14 110 03:50 01.10.2022
17 Drizzle 12 1015 79 10000 4.63 110 03:22 01.10.2022
18 Rain 11 1018 78 10000 3.6 120 23:21 30.09.2022
19 Rain 10 1019 80 10000 3.09 160 22:19 30.09.2022
20 Clouds 9 1019 81 10000 4.12 150 20:57 30.09.2022
21 Clouds 9 1019 81 10000 3.6 140 20:30 30.09.2022
22 Rain 9 1019 81 10000 3.6 150 18:45 30.09.2022
23 Rain 9 1020 84 10000 5.66 160 16:55 30.09.2022
24 Clouds 8 1022 82 10000 6.17 160 14:49 30.09.2022
25 Rain 9 1023 79 10000 4.63 140 12:51 30.09.2022
26 Rain 9 1022 82 10000 5.14 150 11:56 30.09.2022
27 Clouds 9 1023 77 10000 4.63 150 09:45 30.09.2022
28 Clouds 9 1023 79 10000 7.2 150 08:19 30.09.2022
29 Rain 9 1023 87 10000 11.32 150 04:21 30.09.2022
30 Rain 9 1021 90 10000 11.32 160 02:21 30.09.2022
31 Rain 10 1020 95 10000 9.77 150 22:23 29.09.2022
32 Clouds 10 1018 94 9000 8.75 160 21:25 29.09.2022
33 Rain 10 1018 95 7000 8.75 160 19:58 29.09.2022
34 Rain 9 1017 95 6000 8.75 150 18:30 29.09.2022
35 Rain 9 1017 95 6000 8.75 150 18:30 29.09.2022
36 Rain 9 1016 94 5000 9.77 170 16:29 29.09.2022
37 Rain 10 1017 95 8000 10.29 170 15:37 29.09.2022
38 Drizzle 10 1017 94 9000 9.26 180 14:59 29.09.2022
39 Rain 12 1015 93 10000 9.26 190 12:54 29.09.2022
40 Rain 14 1013 95 7000 7.72 10 08:51 29.09.2022
41 Clouds 15 1014 87 10000 10.8 360 05:35 29.09.2022
42 Clouds 14 1014 90 10000 10.29 360 02:37 29.09.2022
43 Rain 13 1016 94 7000 8.75 10 23:29 28.09.2022
44 Rain 13 1016 95 3300 9.77 10 22:23 28.09.2022
45 Rain 13 1017 94 3500 9.26 360 21:28 28.09.2022
46 Clouds 13 1016 93 10000 7.72 10 19:58 28.09.2022
47 Clouds 13 1017 93 9000 8.75 20 17:19 28.09.2022
48 Rain 14 1018 82 10000 10.29 10 14:45 28.09.2022
49 Rain 14 1019 82 10000 8.23 10 12:31 28.09.2022
50 Clouds 13 1021 86 10000 7.72 350 10:22 28.09.2022
51 Clouds 14 1020 81 10000 7.2 360 08:25 28.09.2022
52 Clouds 16 1021 73 10000 8.75 360 06:42 28.09.2022
53 Clouds 15 1023 72 10000 7.72 360 01:50 28.09.2022
54 Rain 15 1025 67 10000 7.72 360 01:27 28.09.2022
55 Rain 13 1024 77 10000 6.17 20 22:50 27.09.2022
56 Rain 13 1024 78 10000 5.66 20 21:24 27.09.2022
57 Clouds 12 1024 79 10000 6.69 20 20:36 27.09.2022
58 Clouds 12 1023 80 10000 5.66 20 19:47 27.09.2022
59 Clouds 12 1023 82 10000 6.17 20 17:55 27.09.2022
60 Clouds 12 1024 82 10000 5.66 20 17:32 27.09.2022
61 Clouds 11 1024 78 10000 3.09 20 15:24 27.09.2022
62 Clouds 10 1024 80 10000 4.12 20 14:33 27.09.2022
63 Clouds 10 1025 82 10000 4.12 10 12:40 27.09.2022
64 Clouds 11 1026 81 10000 4.63 30 10:53 27.09.2022
65 Clouds 13 1026 72 10000 3.09 360 08:46 27.09.2022
66 Clouds 17 1028 48 10000 6.17 340 05:49 27.09.2022
67 Clouds 17 1029 51 10000 7.72 360 01:43 27.09.2022
68 Clouds 16 1030 55 10000 6.69 10 00:50 27.09.2022
69 Clouds 15 1028 70 10000 5.66 20 23:25 26.09.2022
70 Clouds 13 1028 84 10000 5.66 10 22:19 26.09.2022
71 Clouds 11 1027 89 10000 3.09 30 20:27 26.09.2022
72 Clouds 11 1026 87 10000 4.12 360 19:24 26.09.2022
73 Clouds 9 1026 86 10000 1.54 30 18:30 26.09.2022
74 Clouds 9 1029 87 10000 2.06 10 15:52 26.09.2022
75 Clouds 8 1027 90 10000 3.6 20 13:28 26.09.2022
76 Clouds 8 1026 88 10000 2.06 30 11:29 26.09.2022
77 Clouds 9 1026 86 10000 1.03 40 10:37 26.09.2022
78 Clouds 9 1026 86 10000 1.03 40 10:19 26.09.2022
79 Clouds 9 1026 84 10000 1.03 60 09:53 26.09.2022
80 Clouds 9 1026 83 10000 1.03 170 09:22 26.09.2022
81 Clouds 15 1025 62 10000 2.57 200 06:21 26.09.2022
82 Clouds 12 1030 71 10000 4.63 200 02:41 26.09.2022
83 Clouds 11 1028 79 10000 1.03 30 23:26 25.09.2022
84 Clouds 6 1028 96 10000 1.54 30 21:48 25.09.2022
85 Clouds 5 1027 94 10000 1.54 80 21:25 25.09.2022
86 Clouds 5 1023 89 10000 2.06 50 20:38 25.09.2022
87 Clouds 5 1022 88 10000 1.03 50 19:30 25.09.2022
88 Clouds 5 1024 88 10000 0.51 80 18:34 25.09.2022
89 Clouds 5 1024 87 6000 1.03 350 17:49 25.09.2022
90 Clouds 5 1027 89 10000 1.03 110 16:22 25.09.2022
91 Clouds 6 1027 87 10000 0.51 170 15:35 25.09.2022
92 Clouds 7 1027 84 10000 1.54 120 14:21 25.09.2022
93 Clouds 8 1027 80 10000 3.09 70 12:44 25.09.2022
94 Clouds 10 1026 85 10000 3.6 130 10:20 25.09.2022
95 Clouds 11 1025 86 10000 5.14 140 08:23 25.09.2022
96 Clouds 13 1025 80 10000 7.2 160 05:31 25.09.2022
97 Clouds 11 1023 77 10000 9.77 180 00:36 25.09.2022
98 Clouds 11 1022 80 10000 9.77 160 22:34 24.09.2022
99 Clouds 10 1022 84 10000 9.77 160 20:45 24.09.2022
100 Clouds 10 1021 86 10000 9.77 170 19:21 24.09.2022
101 Clouds 10 1019 94 10000 10.29 180 16:59 24.09.2022
102 Clouds 10 1019 94 10000 10.8 180 16:23 24.09.2022
103 Clouds 10 1019 94 10000 10.8 180 16:23 24.09.2022
104 Clouds 10 1018 95 10000 12.35 170 15:19 24.09.2022
105 Clouds 11 1016 95 7000 9.77 180 13:23 24.09.2022
106 Clouds 11 1016 95 9000 9.77 190 12:40 24.09.2022
107 Clouds 12 1015 98 6000 9.77 180 10:19 24.09.2022
108 Clouds 12 1012 95 10000 10.29 180 09:23 24.09.2022
109 Mist 12 1012 95 5000 9.77 190 08:43 24.09.2022
110 Clouds 13 1010 90 10000 8.75 180 06:26 24.09.2022
111 Clouds 14 1010 89 10000 7.2 220 04:34 24.09.2022
112 Clouds 12 1010 97 10000 8.75 200 23:48 23.09.2022
113 Clouds 12 1010 96 10000 7.2 190 22:24 23.09.2022
114 Clouds 11 1009 96 10000 9.77 200 21:26 23.09.2022
115 Clouds 11 1009 96 10000 9.26 190 20:55 23.09.2022
116 Clouds 11 1009 96 10000 10.8 200 19:46 23.09.2022
117 Mist 11 1010 97 2100 10.8 190 18:24 23.09.2022
118 Clouds 12 1013 97 6000 11.32 200 13:44 23.09.2022
119 Mist 12 1013 97 5000 7.72 230 10:26 23.09.2022
120 Clouds 12 1014 97 10000 7.72 230 08:56 23.09.2022
121 Rain 12 1015 97 5000 11.32 180 04:56 23.09.2022
122 Drizzle 11 1019 96 8000 12.35 170 23:30 22.09.2022
123 Clouds 11 1019 97 9000 11.83 170 22:29 22.09.2022
124 Rain 11 1020 97 10000 11.32 170 21:47 22.09.2022
125 Rain 11 1021 97 8000 12.35 170 20:44 22.09.2022
126 Mist 10 1020 95 3800 12.35 180 19:20 22.09.2022
127 Rain 10 1022 96 10000 10.8 170 16:23 22.09.2022
128 Mist 10 1024 95 5000 9.26 170 11:36 22.09.2022
129 Clouds 10 1024 92 10000 10.8 170 10:20 22.09.2022
130 Clouds 10 1024 92 10000 9.77 160 08:22 22.09.2022
131 Haze 10 1024 90 5000 10.29 160 06:27 22.09.2022
132 Clouds 11 1024 89 10000 8.75 170 02:39 22.09.2022
133 Mist 9 1023 97 3500 9.77 160 22:32 21.09.2022
134 Mist 9 1023 97 5000 9.26 160 21:38 21.09.2022
135 Clouds 9 1021 96 10000 10.29 170 19:30 21.09.2022
136 Clouds 10 1020 97 8000 9.77 180 17:46 21.09.2022
137 Clouds 10 1020 95 9000 9.77 180 16:22 21.09.2022
138 Clouds 10 1021 95 10000 8.75 180 13:57 21.09.2022
139 Clouds 10 1019 95 7000 10.29 180 12:19 21.09.2022
140 Mist 10 1019 96 5000 9.77 180 11:28 21.09.2022
141 Rain 11 1018 93 7000 10.29 190 09:47 21.09.2022
142 Clouds 11 1017 94 6000 10.8 190 08:53 21.09.2022
143 Mist 11 1016 93 3900 10.29 180 06:20 21.09.2022
144 Rain 13 1015 83 10000 8.23 170 02:44 21.09.2022
145 Rain 13 1015 83 10000 6.69 160 02:23 21.09.2022
146 Clouds 13 1015 85 10000 6.69 170 00:34 21.09.2022
147 Clouds 14 1014 91 10000 1.54 40 22:41 20.09.2022
148 Clouds 11 1013 94 10000 1.54 270 20:45 20.09.2022
149 Clouds 12 1012 93 10000 3.6 50 19:30 20.09.2022
150 Rain 12 1013 93 10000 5.14 20 16:18 20.09.2022
151 Clouds 12 1015 91 10000 5.14 360 14:45 20.09.2022
152 Clouds 12 1015 91 10000 6.17 360 12:58 20.09.2022
153 Clouds 14 1014 89 10000 5.14 360 09:19 20.09.2022
154 Clouds 14 1013 86 10000 6.17 350 08:26 20.09.2022
155 Rain 16 1013 79 10000 8.23 350 04:50 20.09.2022
156 Clouds 16 1012 80 10000 8.75 360 03:48 20.09.2022
157 Clouds 14 1015 88 10000 6.69 360 22:55 19.09.2022
158 Clouds 13 1014 91 10000 7.2 350 21:40 19.09.2022
159 Clouds 13 1014 92 10000 7.72 360 20:50 19.09.2022
160 Clouds 13 1014 92 10000 6.69 360 20:30 19.09.2022
161 Clouds 13 1014 93 10000 3.6 340 17:44 19.09.2022
162 Clouds 14 1014 94 10000 5.66 10 14:54 19.09.2022
163 Clouds 14 1013 92 10000 6.69 360 13:18 19.09.2022
164 Clouds 15 1015 90 10000 6.17 350 11:25 19.09.2022
165 Clouds 15 1014 90 10000 6.69 10 08:51 19.09.2022
166 Clouds 14 1013 87 10000 9.26 10 06:42 19.09.2022
167 Clouds 14 1015 78 10000 9.26 10 01:54 19.09.2022
168 Rain 11 1018 89 10000 9.26 360 23:22 18.09.2022
169 Clouds 12 1017 76 10000 9.77 20 21:43 18.09.2022
170 Rain 12 1016 78 10000 8.75 10 20:24 18.09.2022
171 Clouds 12 1017 75 10000 7.72 10 18:18 18.09.2022
172 Clouds 12 1018 73 10000 7.72 10 17:37 18.09.2022
173 Clouds 11 1019 76 10000 5.14 20 15:44 18.09.2022
174 Clouds 11 1020 78 10000 5.14 30 13:50 18.09.2022
175 Clouds 12 1021 78 10000 4.63 40 12:35 18.09.2022
176 Clouds 12 1021 77 10000 6.17 30 10:55 18.09.2022
177 Clouds 16 1022 62 10000 8.75 360 04:26 18.09.2022
178 Clouds 15 1024 60 10000 6.69 350 01:25 18.09.2022
179 Clouds 15 1024 66 10000 6.17 340 00:23 18.09.2022
180 Clouds 11 1022 82 10000 5.14 30 21:40 17.09.2022
181 Clouds 10 1021 85 10000 5.14 30 19:43 17.09.2022
182 Clouds 10 1021 85 10000 5.14 30 19:43 17.09.2022
183 Clouds 11 1022 83 10000 4.63 30 18:57 17.09.2022
184 Clouds 11 1022 83 10000 4.63 30 18:57 17.09.2022
185 Clouds 11 1022 85 10000 5.14 40 16:18 17.09.2022
186 Clouds 11 1022 83 10000 5.14 30 13:56 17.09.2022
187 Clouds 11 1021 85 10000 5.14 30 10:57 17.09.2022
188 Clouds 12 1021 83 10000 5.66 360 08:55 17.09.2022
189 Clouds 14 1020 75 10000 5.66 350 06:25 17.09.2022
190 Clouds 13 1021 71 10000 6.69 360 00:20 17.09.2022
191 Clouds 11 1018 89 10000 4.63 30 22:52 16.09.2022
192 Clouds 8 1021 93 10000 3.6 20 21:22 16.09.2022
193 Clouds 6 1022 87 10000 4.63 360 19:50 16.09.2022
194 Clouds 6 1022 87 10000 3.6 40 16:56 16.09.2022
195 Clouds 5 1017 85 10000 2.57 30 15:26 16.09.2022
196 Clouds 6 1018 84 10000 1.54 60 13:57 16.09.2022
197 Clouds 7 1019 80 10000 3.09 140 11:31 16.09.2022
198 Clouds 9 1018 72 10000 4.63 150 08:19 16.09.2022
199 Clouds 10 1017 70 10000 5.14 150 07:19 16.09.2022
200 Clouds 11 1017 68 10000 6.17 160 06:47 16.09.2022
201 Clouds 12 1014 72 10000 7.72 160 02:40 16.09.2022
202 Clear 10 1014 81 10000 1.54 360 22:52 15.09.2022
203 Clear 6 1013 87 10000 2.06 40 21:18 15.09.2022
204 Clear 7 1012 81 10000 1.03 90 19:49 15.09.2022
205 Clear 7 1010 83 10000 1.54 340 18:29 15.09.2022
206 Clear 9 1009 82 10000 5.14 10 17:32 15.09.2022
207 Clear 9 1009 82 10000 5.14 360 16:42 15.09.2022
208 Clear 8 1010 81 10000 4.63 10 14:30 15.09.2022
209 Clear 8 1009 81 10000 4.12 20 12:21 15.09.2022
210 Clear 8 1008 76 10000 4.63 30 09:54 15.09.2022
211 Clear 10 1008 70 10000 6.17 350 07:50 15.09.2022
212 Clouds 12 1012 61 10000 7.72 350 03:52 15.09.2022
213 Clouds 10 1014 77 10000 4.63 20 23:44 14.09.2022
214 Clear 5 1018 87 10000 3.6 20 21:30 14.09.2022
215 Clear 2 1013 88 10000 2.06 40 19:34 14.09.2022
216 Clear 2 1014 88 10000 3.09 30 18:32 14.09.2022
217 Clear 3 1014 85 10000 2.06 40 16:46 14.09.2022
218 Clear 4 1018 86 10000 1.54 20 15:34 14.09.2022
219 Clouds 5 1020 84 10000 1.54 10 13:54 14.09.2022
220 Clouds 8 1021 73 10000 5.14 140 11:30 14.09.2022
221 Clouds 8 1021 72 10000 6.17 150 09:48 14.09.2022
222 Clouds 10 1020 67 10000 8.23 170 06:52 14.09.2022
223 Clouds 10 1020 68 10000 9.26 180 06:34 14.09.2022
224 Clouds 10 1020 68 10000 9.26 180 06:34 14.09.2022
225 Clouds 10 1020 68 10000 9.26 180 06:34 14.09.2022
226 Clouds 10 1018 72 10000 11.32 180 03:55 14.09.2022
227 Clouds 9 1019 73 10000 11.83 180 01:46 14.09.2022
228 Clouds 9 1019 74 10000 13.38 190 01:27 14.09.2022
229 Clouds 9 1018 75 10000 14.4 190 23:55 13.09.2022
230 Clouds 8 1018 77 8000 14.92 190 23:37 13.09.2022
231 Clouds 8 1018 77 8000 14.92 190 23:19 13.09.2022
232 Clouds 8 1018 81 9000 14.92 200 22:44 13.09.2022
233 Clouds 7 1016 87 10000 13.38 190 21:44 13.09.2022
234 Haze 7 1014 93 2500 13.38 210 19:32 13.09.2022
235 Haze 8 1011 87 2900 10.8 210 17:33 13.09.2022
236 Clouds 10 1009 65 10000 4.12 340 15:54 13.09.2022
237 Clouds 10 1009 65 10000 4.12 340 15:54 13.09.2022
238 Clear 10 1008 71 10000 4.12 320 14:31 13.09.2022
239 Clear 11 1006 66 10000 6.69 320 12:30 13.09.2022
240 Clear 13 1004 62 10000 6.69 330 08:34 13.09.2022
241 Clouds 15 1002 60 10000 9.26 330 04:32 13.09.2022
242 Clouds 15 1004 69 10000 7.2 340 23:37 12.09.2022
243 Clouds 14 1004 70 10000 7.2 330 22:49 12.09.2022
244 Clouds 12 1003 76 10000 6.17 350 21:36 12.09.2022
245 Clouds 12 1002 79 10000 6.69 10 20:25 12.09.2022
246 Clear 12 1000 74 10000 6.69 340 18:43 12.09.2022
247 Clear 13 997 81 10000 8.23 10 16:23 12.09.2022
248 Clouds 13 995 88 10000 4.12 10 13:41 12.09.2022
249 Clouds 12 993 92 10000 2.57 40 11:29 12.09.2022
250 Clouds 12 991 94 10000 1.03 310 09:45 12.09.2022
251 Rain 17 990 79 10000 4.63 360 04:49 12.09.2022
252 Rain 15 994 81 10000 1.54 360 03:33 12.09.2022
253 Rain 13 998 88 10000 3.09 360 23:23 11.09.2022
254 Clouds 11 1000 94 10000 1.54 320 21:59 11.09.2022
255 Rain 10 999 96 10000 1.54 340 20:47 11.09.2022
256 Clouds 10 1001 96 10000 3.09 30 19:53 11.09.2022
257 Clouds 10 1001 95 10000 2.06 40 19:22 11.09.2022
258 Rain 10 1002 96 10000 1.03 30 18:20 11.09.2022
259 Clouds 10 1005 96 10000 2.57 30 16:34 11.09.2022
260 Clouds 10 1007 93 10000 1.54 360 14:33 11.09.2022
261 Clouds 12 1009 91 10000 1.03 350 12:40 11.09.2022
262 Clouds 12 1011 85 10000 0.51 180 08:48 11.09.2022
263 Rain 14 1010 80 10000 3.6 160 06:56 11.09.2022
264 Clouds 15 1017 80 10000 2.06 30 00:50 11.09.2022
265 Clouds 13 1017 90 10000 1.54 30 22:55 10.09.2022
266 Clouds 10 1018 91 10000 2.06 240 21:25 10.09.2022
267 Clouds 10 1019 90 10000 1.03 130 19:47 10.09.2022
268 Clouds 10 1019 91 10000 2.06 230 19:28 10.09.2022
269 Clouds 10 1019 90 10000 2.57 220 18:51 10.09.2022
270 Rain 10 1022 85 10000 3.6 60 15:49 10.09.2022
271 Rain 11 1023 83 10000 3.09 90 14:42 10.09.2022
272 Clouds 11 1025 83 10000 1.54 80 12:52 10.09.2022
273 Clouds 12 1026 79 10000 2.06 50 10:58 10.09.2022
274 Clouds 12 1026 75 10000 1.54 80 09:37 10.09.2022
275 Rain 13 1026 72 10000 2.57 40 08:36 10.09.2022
276 Clouds 15 1026 66 10000 5.14 30 06:43 10.09.2022
277 Clouds 15 1027 71 10000 1.03 200 00:40 10.09.2022
278 Clouds 13 1027 82 10000 0.51 300 23:32 09.09.2022
279 Clouds 8 1026 91 10000 1.03 50 21:50 09.09.2022
280 Clouds 7 1027 94 10000 1.03 40 20:41 09.09.2022
281 Clouds 7 1026 93 10000 1.54 40 19:24 09.09.2022
282 Clouds 7 1027 93 10000 1.03 90 18:46 09.09.2022
283 Clouds 6 1028 91 10000 1.03 70 16:23 09.09.2022
284 Clouds 8 1028 86 10000 0.51 110 13:48 09.09.2022
285 Clouds 9 1028 84 10000 1.03 60 12:30 09.09.2022
286 Clouds 11 1028 80 10000 1.03 50 09:53 09.09.2022
287 Clouds 13 1026 79 10000 7.2 190 04:57 09.09.2022
288 Clear 13 1028 73 10000 4.12 220 02:54 09.09.2022
289 Clear 8 1029 93 10000 1.54 40 21:52 08.09.2022
290 Clear 8 1028 93 10000 1.54 360 20:51 08.09.2022
291 Clear 7 1028 93 10000 1.03 30 20:31 08.09.2022
292 Clear 8 1028 90 10000 1.03 60 19:49 08.09.2022
293 Clouds 5 1023 88 10000 1.03 60 17:48 08.09.2022
294 Clear 7 1026 90 10000 1.54 30 16:19 08.09.2022
295 Clouds 8 1026 85 10000 1.54 140 14:40 08.09.2022
296 Clouds 7 1026 89 10000 1.54 240 13:26 08.09.2022
297 Clouds 8 1026 87 10000 1.54 100 11:39 08.09.2022
298 Clouds 9 1026 86 10000 1.54 50 10:48 08.09.2022
299 Clouds 11 1024 82 10000 4.12 180 07:57 08.09.2022
300 Clouds 13 1024 68 10000 4.63 150 06:41 08.09.2022
301 Clouds 14 1024 66 10000 3.6 170 02:36 08.09.2022
302 Clouds 14 1025 68 10000 3.6 170 02:18 08.09.2022
303 Clouds 12 1024 81 10000 1.03 350 00:27 08.09.2022
304 Clouds 9 1024 95 10000 2.06 30 22:42 07.09.2022
305 Clouds 7 1023 95 10000 1.03 360 21:42 07.09.2022
306 Clouds 7 1023 95 10000 1.03 360 21:42 07.09.2022
307 Clouds 7 1021 93 6000 1.03 270 20:42 07.09.2022
308 Clouds 7 1021 92 10000 1.03 40 19:40 07.09.2022
309 Rain 7 1019 89 10000 1.54 50 17:49 07.09.2022
310 Clouds 8 1022 81 10000 2.06 40 12:52 07.09.2022
311 Clouds 7 1018 83 10000 2.57 10 10:47 07.09.2022
312 Clear 9 1016 77 10000 3.6 360 08:38 07.09.2022
313 Clouds 11 1015 66 10000 5.66 360 06:57 07.09.2022
314 Clear 12 1016 58 10000 5.66 360 02:46 07.09.2022
315 Clear 9 1015 77 10000 4.12 20 22:44 06.09.2022
316 Clear 7 1015 75 10000 2.06 360 21:39 06.09.2022
317 Clouds 6 1015 74 10000 2.06 10 20:24 06.09.2022
318 Clouds 6 1014 69 10000 2.06 20 18:45 06.09.2022
319 Clouds 5 1014 71 10000 1.54 30 18:21 06.09.2022
320 Clouds 4 1015 87 10000 1.54 20 17:21 06.09.2022
321 Clouds 6 1015 75 10000 2.06 20 16:37 06.09.2022
322 Clouds 7 1012 76 10000 4.12 10 14:59 06.09.2022
323 Clouds 7 1012 81 10000 4.12 30 13:45 06.09.2022
324 Clouds 7 1012 81 10000 4.63 30 13:22 06.09.2022
325 Clouds 5 1015 81 10000 3.6 30 11:54 06.09.2022
326 Clouds 5 1015 75 10000 1.54 20 10:41 06.09.2022
327 Clouds 4 1012 80 10000 1.03 200 08:41 06.09.2022
328 Clouds 6 1011 73 10000 2.57 160 07:37 06.09.2022
329 Clouds 8 1010 73 10000 10.29 200 02:43 06.09.2022
330 Clouds 6 1008 80 10000 11.83 200 23:22 05.09.2022
331 Clouds 5 1006 71 10000 13.38 180 21:52 05.09.2022
332 Clouds 5 1005 78 10000 14.92 180 20:32 05.09.2022
333 Clouds 5 1003 79 10000 14.4 170 19:19 05.09.2022
334 Clouds 5 1001 72 8000 16.46 190 18:45 05.09.2022
335 Clouds 6 1002 73 10000 13.89 180 18:21 05.09.2022
336 Clouds 6 1002 65 10000 14.92 180 16:35 05.09.2022
337 Clouds 5 1002 72 10000 15.95 180 15:46 05.09.2022
338 Clouds 6 1000 80 10000 16.46 160 13:25 05.09.2022
339 Clouds 5 1000 86 10000 14.92 160 12:26 05.09.2022
340 Rain 7 998 91 10000 12.86 160 09:19 05.09.2022
341 Rain 8 997 87 10000 12.35 150 06:40 05.09.2022
342 Clouds 11 1000 81 10000 1.54 170 01:56 05.09.2022
343 Clouds 9 1002 90 8000 1.54 320 22:44 04.09.2022
344 Clouds 9 1002 91 10000 1.54 360 22:26 04.09.2022
345 Clouds 8 1001 90 10000 2.06 50 20:43 04.09.2022
346 Clouds 8 1002 88 10000 1.54 50 19:29 04.09.2022
347 Clouds 9 1002 85 10000 5.66 140 17:50 04.09.2022
348 Clouds 10 1002 86 10000 7.2 170 16:28 04.09.2022
349 Clouds 11 1002 67 10000 2.06 320 14:27 04.09.2022
350 Clear 12 1002 64 10000 5.66 340 12:57 04.09.2022
351 Clear 12 1001 63 10000 4.63 330 11:52 04.09.2022
352 Clear 12 1001 63 10000 9.26 340 09:56 04.09.2022
353 Clear 13 1000 67 10000 10.29 350 07:27 04.09.2022
354 Clear 14 1001 63 10000 9.26 350 04:00 04.09.2022
355 Clear 13 1004 62 10000 7.72 340 23:40 03.09.2022
356 Clear 12 1005 65 10000 6.69 340 22:21 03.09.2022
357 Clear 11 1004 65 10000 4.63 310 21:23 03.09.2022
358 Clear 11 1004 78 10000 6.17 320 18:59 03.09.2022
359 Clear 11 1005 77 10000 3.6 320 17:26 03.09.2022
360 Clear 12 1006 80 10000 3.6 330 16:27 03.09.2022
361 Clear 12 1006 79 10000 4.63 340 14:44 03.09.2022
362 Clear 12 1006 85 10000 7.2 330 13:55 03.09.2022
363 Clear 12 1006 81 10000 6.69 330 11:51 03.09.2022
364 Clear 12 1005 86 10000 3.6 340 09:56 03.09.2022
365 Clouds 13 1005 84 10000 7.72 340 08:26 03.09.2022
366 Clouds 14 1004 87 10000 7.2 340 06:53 03.09.2022
367 Clouds 14 1006 90 10000 7.72 340 04:31 03.09.2022
368 Drizzle 13 1010 94 10000 11.32 350 23:49 02.09.2022
369 Clouds 13 1010 93 10000 11.32 340 22:39 02.09.2022
370 Clouds 13 1010 93 10000 11.83 350 20:59 02.09.2022
371 Haze 13 1010 93 4000 11.32 350 20:27 02.09.2022
372 Clouds 13 1011 90 10000 10.29 340 18:59 02.09.2022
373 Clouds 13 1011 89 10000 10.8 350 18:27 02.09.2022
374 Clouds 13 1012 86 10000 11.83 350 17:36 02.09.2022
375 Clouds 13 1013 86 10000 12.86 350 16:45 02.09.2022
376 Rain 13 1016 87 10000 10.29 340 13:51 02.09.2022
377 Clouds 13 1018 85 10000 8.75 350 11:47 02.09.2022
378 Clouds 13 1019 83 10000 9.26 350 09:49 02.09.2022
379 Clouds 13 1019 83 10000 8.75 340 08:56 02.09.2022
380 Clouds 14 1019 83 10000 9.26 330 07:24 02.09.2022
381 Clouds 14 1019 84 10000 9.26 340 06:35 02.09.2022
382 Rain 15 1022 85 10000 8.23 350 02:37 02.09.2022
383 Clouds 13 1023 88 10000 9.26 360 22:26 01.09.2022
384 Clouds 13 1023 89 10000 8.23 350 21:40 01.09.2022
385 Clouds 13 1023 89 10000 8.23 350 21:21 01.09.2022
386 Clouds 13 1023 89 10000 9.26 350 20:37 01.09.2022
387 Clouds 13 1023 88 10000 9.77 360 18:49 01.09.2022
388 Clouds 13 1023 89 10000 10.29 360 17:21 01.09.2022
389 Clouds 13 1024 88 10000 8.23 350 15:34 01.09.2022
390 Clouds 13 1024 89 10000 7.2 350 13:55 01.09.2022
391 Clouds 13 1025 88 10000 7.72 350 12:57 01.09.2022
392 Clouds 13 1025 88 10000 8.75 360 11:52 01.09.2022
393 Clouds 13 1026 88 10000 8.23 350 11:30 01.09.2022
394 Clouds 13 1026 87 10000 9.26 350 09:49 01.09.2022
395 Clouds 13 1025 88 10000 7.72 350 07:50 01.09.2022
396 Clouds 14 1024 86 10000 8.75 360 06:21 01.09.2022
397 Clouds 14 1027 82 10000 9.26 360 01:31 01.09.2022
398 Clouds 14 1027 82 10000 9.26 360 01:31 01.09.2022
399 Clouds 14 1027 82 10000 9.26 360 01:31 01.09.2022
400 Clouds 14 1027 85 10000 7.72 340 23:19 31.08.2022
401 Clouds 12 1026 88 10000 7.2 350 21:20 31.08.2022
402 Clouds 12 1025 85 10000 7.72 350 19:23 31.08.2022
403 Clouds 13 1025 88 10000 9.26 340 17:25 31.08.2022
404 Clouds 13 1026 85 10000 8.75 350 15:39 31.08.2022
405 Clouds 13 1026 87 10000 7.72 340 13:38 31.08.2022
406 Clouds 13 1027 86 10000 7.72 350 12:19 31.08.2022
407 Clouds 13 1027 82 10000 9.77 350 09:39 31.08.2022
408 Clouds 13 1026 82 10000 9.26 350 08:32 31.08.2022
409 Clouds 14 1027 77 10000 9.26 350 03:41 31.08.2022
410 Clouds 12 1030 81 10000 5.66 30 22:42 30.08.2022
411 Clouds 11 1029 81 10000 6.17 20 21:33 30.08.2022
412 Clouds 10 1029 87 10000 7.2 10 20:38 30.08.2022
413 Clouds 11 1029 86 10000 4.63 30 17:25 30.08.2022
414 Clear 10 1030 84 10000 4.63 30 14:41 30.08.2022
415 Clear 10 1031 79 10000 3.6 40 12:54 30.08.2022
416 Clear 9 1031 86 10000 3.6 40 11:20 30.08.2022
417 Clear 9 1031 86 10000 4.63 10 10:35 30.08.2022
418 Clear 12 1030 72 10000 6.17 350 06:49 30.08.2022
419 Clear 13 1031 68 10000 6.17 10 01:45 30.08.2022
420 Clear 6 1035 87 10000 3.09 40 22:47 29.08.2022
421 Clear 5 1035 87 10000 2.57 40 22:18 29.08.2022
422 Clear 4 1035 93 10000 2.57 40 21:23 29.08.2022
423 Clear 5 1035 87 10000 2.06 20 19:42 29.08.2022
424 Clear 6 1035 93 10000 1.54 40 17:42 29.08.2022
425 Clear 4 1031 88 10000 1.54 40 17:24 29.08.2022
426 Clear 5 1031 88 10000 2.06 30 15:41 29.08.2022
427 Clear 5 1033 88 10000 1.54 30 14:18 29.08.2022
428 Clear 6 1034 84 10000 0.51 30 12:34 29.08.2022
429 Clear 6 1034 86 10000 1.54 30 10:49 29.08.2022
430 Clouds 8 1034 80 10000 3.09 70 09:30 29.08.2022
431 Clouds 10 1034 75 10000 2.57 90 08:27 29.08.2022
432 Clouds 12 1036 67 10000 3.6 170 02:42 29.08.2022
433 Clouds 10 1035 72 10000 2.06 140 23:50 28.08.2022
434 Clouds 8 1035 79 10000 4.12 140 21:57 28.08.2022
435 Clouds 7 1035 79 10000 4.63 140 21:31 28.08.2022
436 Clouds 8 1034 74 10000 3.6 130 20:24 28.08.2022
437 Clouds 9 1033 67 10000 5.66 140 18:38 28.08.2022
438 Clouds 9 1033 66 10000 5.66 140 18:19 28.08.2022
439 Clouds 9 1033 72 10000 6.17 150 16:55 28.08.2022
440 Clouds 10 1034 77 10000 8.23 150 15:42 28.08.2022
441 Clouds 9 1033 85 10000 8.23 150 13:34 28.08.2022
442 Clouds 9 1034 87 10000 9.26 170 12:31 28.08.2022
443 Clouds 10 1033 86 10000 8.75 160 10:27 28.08.2022
444 Clouds 10 1033 86 10000 9.77 160 09:38 28.08.2022
445 Clouds 10 1032 83 10000 8.75 160 08:31 28.08.2022
446 Clouds 10 1031 80 10000 9.77 170 07:32 28.08.2022
447 Clouds 10 1029 90 10000 7.72 160 01:00 28.08.2022
448 Clouds 9 1029 94 7000 9.26 170 00:20 28.08.2022
449 Clouds 9 1028 90 9000 8.23 170 22:27 27.08.2022
450 Clouds 10 1026 85 10000 8.23 160 20:49 27.08.2022
451 Clouds 9 1025 89 10000 7.72 170 19:37 27.08.2022
452 Clouds 9 1024 85 10000 7.72 180 16:34 27.08.2022
453 Clouds 9 1024 81 10000 7.72 180 15:31 27.08.2022
454 Clouds 9 1024 83 10000 4.63 170 13:57 27.08.2022
455 Clouds 9 1023 86 10000 7.2 180 12:22 27.08.2022
456 Clouds 9 1022 87 10000 6.69 170 10:30 27.08.2022
457 Clouds 10 1022 83 10000 5.66 170 09:39 27.08.2022
458 Clouds 11 1020 80 10000 7.2 170 06:55 27.08.2022
459 Clouds 12 1018 77 10000 7.2 170 02:27 27.08.2022
460 Clouds 11 1017 80 10000 8.75 170 23:49 26.08.2022
461 Clouds 10 1017 82 10000 9.26 180 21:59 26.08.2022
462 Clouds 10 1015 85 10000 9.26 180 20:23 26.08.2022
463 Clouds 10 1014 82 10000 10.29 190 18:32 26.08.2022
464 Clouds 10 1014 83 10000 12.35 190 16:40 26.08.2022
465 Clouds 10 1014 87 10000 12.86 190 15:26 26.08.2022
466 Clouds 10 1013 89 10000 11.83 190 13:26 26.08.2022
467 Clouds 10 1013 89 10000 11.32 170 12:34 26.08.2022
468 Clouds 10 1013 87 10000 11.83 180 11:22 26.08.2022
469 Clouds 11 1012 91 10000 11.83 180 09:53 26.08.2022
470 Clouds 11 1008 94 10000 12.35 170 04:56 26.08.2022
471 Mist 11 1006 96 4300 11.32 160 00:55 26.08.2022
472 Clouds 10 1005 95 6000 15.43 200 22:45 25.08.2022
473 Clouds 10 1005 96 10000 13.38 200 20:57 25.08.2022
474 Mist 10 1004 96 5000 12.86 190 19:47 25.08.2022
475 Rain 11 1003 96 6000 6.17 180 18:36 25.08.2022
476 Rain 11 1003 96 7000 4.12 160 17:32 25.08.2022
477 Rain 11 1003 95 8000 4.63 180 16:46 25.08.2022
478 Rain 10 1004 95 10000 2.06 160 15:37 25.08.2022
479 Clouds 10 1005 95 10000 2.06 190 14:30 25.08.2022
480 Rain 11 1007 93 9000 0.51 90 11:34 25.08.2022
481 Rain 11 1007 93 10000 2.06 20 10:45 25.08.2022
482 Rain 12 1008 92 10000 3.6 240 08:41 25.08.2022
483 Clouds 14 1010 75 10000 4.12 190 04:40 25.08.2022
484 Clouds 14 1014 86 10000 4.12 10 23:56 24.08.2022
485 Clouds 13 1014 91 10000 1.54 30 23:25 24.08.2022
486 Mist 12 1014 95 2400 0.51 340 21:59 24.08.2022
487 Mist 11 1014 94 4200 1.54 170 21:31 24.08.2022
488 Clouds 12 1014 94 10000 3.6 190 20:18 24.08.2022
489 Clouds 13 1013 89 10000 3.09 340 17:32 24.08.2022
490 Clouds 13 1013 90 10000 2.57 350 16:22 24.08.2022
491 Clouds 13 1013 89 10000 5.14 350 15:40 24.08.2022
492 Clouds 13 1013 88 10000 8.23 360 12:52 24.08.2022
493 Clouds 13 1013 87 10000 6.69 350 11:22 24.08.2022
494 Clouds 13 1012 87 10000 6.69 350 09:19 24.08.2022
495 Clouds 13 1011 84 10000 12.35 350 06:52 24.08.2022
496 Clouds 13 1011 74 10000 12.86 340 01:43 24.08.2022
497 Clouds 11 1011 75 10000 14.92 360 22:51 23.08.2022
498 Clouds 12 1011 73 10000 15.95 10 22:21 23.08.2022
499 Clouds 11 1011 76 10000 13.38 20 21:21 23.08.2022
500 Clouds 11 1011 79 10000 11.83 10 19:28 23.08.2022
501 Clouds 11 1011 81 10000 11.83 10 18:21 23.08.2022
502 Clouds 12 1011 85 10000 12.35 10 17:31 23.08.2022
503 Clouds 12 1011 88 10000 11.83 20 16:31 23.08.2022
504 Clouds 12 1012 89 10000 11.32 10 14:54 23.08.2022
505 Clouds 12 1013 89 10000 8.75 20 13:25 23.08.2022
506 Clouds 12 1013 88 10000 7.72 20 11:19 23.08.2022
507 Clouds 13 1013 88 10000 8.75 10 10:33 23.08.2022
508 Clouds 12 1013 89 10000 6.69 20 09:46 23.08.2022
509 Clouds 12 1013 88 10000 6.17 20 08:47 23.08.2022
510 Clouds 12 1012 88 10000 6.69 20 08:19 23.08.2022
511 Clouds 12 1013 87 10000 6.17 20 07:33 23.08.2022
512 Clouds 13 1013 86 10000 6.69 360 06:25 23.08.2022
513 Clouds 13 1015 86 10000 1.03 250 01:52 23.08.2022
514 Clouds 11 1015 89 10000 3.09 200 00:27 23.08.2022
515 Clouds 11 1016 91 10000 3.09 180 23:32 22.08.2022
516 Clouds 10 1015 92 10000 4.63 210 22:25 22.08.2022
517 Clouds 10 1015 92 10000 4.63 200 20:58 22.08.2022
518 Clouds 10 1014 92 10000 5.66 180 19:46 22.08.2022
519 Clouds 10 1014 93 10000 5.66 180 18:38 22.08.2022
520 Clouds 10 1014 94 10000 6.17 180 16:23 22.08.2022
521 Clouds 10 1014 94 10000 7.2 180 15:36 22.08.2022
522 Clouds 11 1014 95 10000 7.2 170 12:55 22.08.2022
523 Clouds 11 1013 92 10000 6.69 170 09:57 22.08.2022
524 Drizzle 14 1011 86 10000 5.14 150 07:21 22.08.2022
525 Clouds 15 1011 81 10000 4.63 10 02:42 22.08.2022
526 Clouds 15 1012 85 10000 5.66 30 00:37 22.08.2022
527 Rain 13 1012 89 10000 5.14 20 23:34 21.08.2022
528 Clouds 12 1012 91 10000 5.14 30 21:57 21.08.2022
529 Clouds 12 1012 90 10000 6.17 30 21:21 21.08.2022
530 Clouds 12 1012 89 10000 6.69 20 20:21 21.08.2022
531 Clouds 12 1012 87 10000 7.72 350 19:18 21.08.2022
532 Clouds 12 1012 87 10000 6.17 350 16:52 21.08.2022
533 Clouds 12 1012 86 10000 7.72 350 15:53 21.08.2022
534 Clouds 13 1012 89 10000 8.75 360 14:59 21.08.2022
535 Clouds 13 1012 88 10000 7.72 340 13:51 21.08.2022
536 Clouds 13 1012 90 10000 8.23 350 12:57 21.08.2022
537 Clouds 14 1010 90 10000 10.29 360 10:48 21.08.2022
538 Clouds 14 1009 89 10000 8.23 350 09:21 21.08.2022
539 Clouds 14 1010 89 10000 8.23 350 08:56 21.08.2022
540 Clouds 14 1009 90 10000 7.72 340 08:38 21.08.2022
541 Clouds 14 1009 90 10000 8.23 350 07:26 21.08.2022
542 Rain 15 1009 92 10000 8.75 350 02:52 21.08.2022
543 Clouds 14 1010 92 10000 8.75 10 23:44 20.08.2022
544 Clouds 13 1009 93 10000 8.23 10 22:23 20.08.2022
545 Clouds 13 1009 93 10000 8.23 360 21:22 20.08.2022
546 Clouds 13 1009 91 10000 9.77 340 19:58 20.08.2022
547 Clouds 13 1009 92 10000 9.77 340 19:39 20.08.2022
548 Clouds 13 1009 92 10000 9.26 340 18:27 20.08.2022
549 Clouds 13 1009 92 10000 8.23 340 17:25 20.08.2022
550 Rain 13 1009 92 10000 9.26 350 16:23 20.08.2022
551 Clouds 13 1008 95 10000 8.75 340 14:35 20.08.2022
552 Haze 15 1008 96 3000 6.69 340 12:19 20.08.2022
553 Clouds 15 1008 95 10000 8.75 340 11:42 20.08.2022
554 Mist 15 1008 97 3800 8.23 350 09:20 20.08.2022
555 Mist 15 1007 96 3100 5.14 30 07:31 20.08.2022
556 Clouds 15 1006 89 10000 6.69 10 05:48 20.08.2022
557 Mist 15 1008 95 3000 10.29 350 00:58 20.08.2022
558 Clouds 15 1007 95 9000 7.2 20 23:51 19.08.2022
559 Rain 15 1007 95 10000 8.75 10 22:45 19.08.2022
560 Rain 16 1007 93 7000 8.75 10 21:30 19.08.2022
561 Rain 17 1008 86 10000 12.35 10 19:40 19.08.2022
562 Rain 17 1010 86 10000 9.26 10 16:28 19.08.2022
563 Rain 17 1012 93 10000 9.26 20 13:56 19.08.2022
564 Rain 17 1014 94 10000 8.75 10 12:19 19.08.2022
565 Rain 17 1015 95 5000 7.2 20 10:39 19.08.2022
566 Drizzle 17 1015 96 10000 6.17 20 08:48 19.08.2022
567 Rain 17 1015 96 2500 5.14 20 04:43 19.08.2022
568 Rain 16 1017 97 1900 5.14 20 00:42 19.08.2022
569 Mist 16 1017 97 1900 5.14 20 00:19 19.08.2022
570 Drizzle 16 1016 96 8000 9.26 360 22:58 18.08.2022
571 Haze 16 1016 97 4400 11.32 360 22:26 18.08.2022
572 Drizzle 16 1016 96 4200 11.83 350 21:50 18.08.2022
573 Rain 16 1015 97 2800 9.77 350 20:55 18.08.2022
574 Haze 16 1014 97 2000 8.75 340 19:39 18.08.2022
575 Haze 16 1014 97 2000 8.75 340 19:20 18.08.2022
576 Rain 16 1012 96 2500 11.83 340 17:38 18.08.2022
577 Rain 16 1013 95 2300 12.35 350 16:18 18.08.2022
578 Rain 16 1011 95 4000 11.83 360 14:22 18.08.2022
579 Rain 16 1011 95 4600 12.35 360 13:44 18.08.2022
580 Haze 16 1011 95 4600 12.35 360 13:44 18.08.2022
581 Haze 16 1011 94 3600 13.38 360 12:30 18.08.2022
582 Rain 16 1011 94 4800 11.83 360 11:20 18.08.2022
583 Rain 16 1011 92 10000 12.86 360 09:43 18.08.2022
584 Rain 17 1010 94 8000 11.32 10 07:27 18.08.2022
585 Rain 16 1011 94 9000 11.32 10 06:30 18.08.2022
586 Rain 16 1014 93 4500 7.72 10 02:22 18.08.2022
587 Rain 15 1015 90 9000 6.17 20 22:47 17.08.2022
588 Drizzle 14 1015 93 10000 3.6 10 20:30 17.08.2022
589 Clouds 14 1015 92 10000 3.6 360 19:59 17.08.2022
590 Rain 14 1016 93 10000 3.09 10 18:37 17.08.2022
591 Rain 14 1018 91 10000 7.2 10 17:21 17.08.2022
592 Rain 15 1019 92 10000 4.63 20 16:20 17.08.2022
593 Rain 15 1020 92 10000 4.63 360 14:41 17.08.2022
594 Clouds 15 1020 91 10000 8.75 360 12:30 17.08.2022
595 Drizzle 15 1020 91 10000 7.2 10 11:25 17.08.2022
596 Rain 15 1019 91 10000 7.72 10 09:22 17.08.2022
597 Rain 16 1018 89 10000 10.29 10 06:34 17.08.2022
598 Rain 15 1018 90 10000 10.29 10 01:22 17.08.2022
599 Rain 15 1018 87 10000 8.75 10 23:27 16.08.2022
600 Rain 14 1018 87 10000 7.72 20 21:33 16.08.2022
601 Rain 13 1018 88 10000 6.17 20 20:22 16.08.2022
602 Drizzle 13 1018 88 10000 7.2 360 19:27 16.08.2022
603 Rain 13 1019 87 10000 8.23 10 17:56 16.08.2022
604 Rain 13 1020 86 10000 7.2 10 16:55 16.08.2022
605 Rain 13 1020 86 10000 7.2 360 15:45 16.08.2022
606 Rain 14 1020 80 10000 6.69 360 14:54 16.08.2022
607 Rain 15 1021 78 10000 8.75 10 14:36 16.08.2022
608 Rain 15 1022 72 10000 5.14 10 12:33 16.08.2022
609 Rain 15 1022 73 10000 4.63 350 10:23 16.08.2022
610 Rain 16 1022 73 10000 6.69 10 08:54 16.08.2022
611 Rain 15 1022 72 10000 6.17 10 08:21 16.08.2022
612 Rain 16 1022 67 10000 8.23 350 06:32 16.08.2022
613 Rain 14 1024 76 10000 8.23 10 23:56 15.08.2022
614 Rain 13 1024 78 10000 8.23 10 22:23 15.08.2022
615 Clouds 13 1024 79 10000 7.72 10 21:50 15.08.2022
616 Clouds 13 1023 80 10000 3.6 20 20:32 15.08.2022
617 Rain 12 1023 81 10000 4.63 350 19:59 15.08.2022
618 Clouds 11 1024 84 10000 4.12 360 17:59 15.08.2022
619 Rain 10 1025 80 10000 3.09 30 16:25 15.08.2022
620 Rain 9 1025 86 10000 4.63 360 15:52 15.08.2022
621 Clouds 8 1025 90 10000 3.09 20 13:50 15.08.2022
622 Clouds 8 1025 86 10000 2.06 20 11:24 15.08.2022
623 Clouds 10 1025 86 10000 3.09 10 09:40 15.08.2022
624 Clouds 11 1024 81 10000 4.63 350 07:32 15.08.2022
625 Clouds 13 1024 75 10000 5.14 360 04:34 15.08.2022
626 Clouds 12 1026 79 10000 2.57 10 00:33 15.08.2022
627 Clouds 10 1025 83 10000 3.09 30 22:30 14.08.2022
628 Clouds 10 1024 81 10000 4.63 360 21:37 14.08.2022
629 Clouds 10 1023 80 10000 5.14 20 19:47 14.08.2022
630 Clouds 10 1023 79 10000 5.66 360 18:53 14.08.2022
631 Clouds 10 1023 78 10000 6.17 360 18:18 14.08.2022
632 Clouds 10 1023 78 10000 8.23 360 16:50 14.08.2022
633 Clouds 11 1023 77 10000 8.23 350 15:48 14.08.2022
634 Clouds 11 1022 79 10000 8.75 360 14:19 14.08.2022
635 Clouds 11 1021 77 10000 9.26 360 13:49 14.08.2022
636 Clouds 11 1022 76 10000 10.8 360 13:19 14.08.2022
637 Clouds 11 1022 78 10000 9.26 350 11:56 14.08.2022
638 Clouds 11 1022 77 10000 8.23 350 10:40 14.08.2022
639 Clouds 11 1021 75 10000 8.75 360 08:50 14.08.2022
640 Clouds 11 1021 77 10000 8.75 360 06:21 14.08.2022
641 Clouds 12 1022 78 10000 10.29 360 02:47 14.08.2022
642 Clouds 10 1024 83 10000 7.2 20 23:49 13.08.2022
643 Clouds 9 1024 86 10000 6.69 30 22:52 13.08.2022
644 Clouds 7 1024 89 10000 6.17 20 20:58 13.08.2022
645 Clouds 8 1023 90 10000 5.66 30 20:28 13.08.2022
646 Clouds 8 1023 90 10000 5.66 30 19:24 13.08.2022
647 Clouds 7 1022 91 10000 4.12 10 17:40 13.08.2022
648 Clear 5 1026 93 10000 3.09 10 15:23 13.08.2022
649 Clear 5 1026 87 10000 3.6 360 14:26 13.08.2022
650 Clear 5 1026 87 10000 3.09 10 13:38 13.08.2022
651 Clear 5 1026 87 10000 1.54 360 11:52 13.08.2022
652 Clear 5 1023 83 10000 1.54 30 09:58 13.08.2022
653 Clear 7 1021 79 10000 1.03 220 08:23 13.08.2022
654 Clear 7 1021 79 10000 1.03 220 08:23 13.08.2022
655 Clear 11 1021 62 10000 3.6 220 04:21 13.08.2022
656 Clouds 8 1022 88 10000 3.09 360 23:52 12.08.2022
657 Clouds 8 1023 76 10000 5.14 230 21:42 12.08.2022
658 Clouds 6 1022 78 10000 6.17 230 20:51 12.08.2022
659 Clouds 6 1022 78 10000 7.2 190 19:39 12.08.2022
660 Clouds 6 1021 80 10000 7.72 200 18:46 12.08.2022
661 Clouds 5 1022 88 10000 1.79 264 16:37 12.08.2022
662 Clouds 5 1022 91 10000 1.54 60 15:41 12.08.2022
663 Clouds 5 1021 89 10000 2.06 40 14:29 12.08.2022
664 Clouds 5 1020 89 10000 2.06 40 12:53 12.08.2022
665 Clouds 5 1020 89 10000 2.06 40 12:53 12.08.2022
666 Clear 5 1020 88 10000 1.54 50 10:35 12.08.2022
667 Clouds 6 1019 86 10000 1.54 190 07:47 12.08.2022
668 Clouds 9 1018 78 10000 3.09 200 06:38 12.08.2022
669 Clouds 9 1020 84 10000 2.06 190 02:33 12.08.2022
670 Clouds 8 1021 90 10000 1.54 330 00:24 12.08.2022
671 Clouds 8 1021 91 10000 1.54 30 23:35 11.08.2022
672 Clouds 6 1021 92 10000 5.14 180 22:26 11.08.2022
673 Clouds 6 1020 92 10000 5.66 180 21:40 11.08.2022
674 Clouds 6 1020 92 10000 5.14 170 20:51 11.08.2022
675 Clouds 7 1019 91 10000 6.69 160 20:19 11.08.2022
676 Clouds 6 1019 92 10000 8.75 190 19:32 11.08.2022
677 Haze 6 1020 93 4400 8.75 160 17:48 11.08.2022
678 Rain 6 1019 94 10000 3.13 209 16:35 11.08.2022
679 Haze 5 1019 94 4500 7.72 190 15:24 11.08.2022
680 Clouds 6 1018 90 10000 4.63 150 13:37 11.08.2022
681 Haze 6 1021 91 3400 6.69 140 10:27 11.08.2022
682 Clouds 8 1019 85 10000 8.75 180 07:38 11.08.2022
683 Clouds 8 1019 88 10000 9.77 180 03:52 11.08.2022
684 Rain 7 1020 90 6000 10.8 180 00:37 11.08.2022
685 Clouds 6 1019 86 10000 10.8 180 22:32 10.08.2022
686 Clouds 7 1018 80 10000 9.77 180 21:25 10.08.2022
687 Clouds 6 1018 81 10000 11.32 180 20:55 10.08.2022
688 Clouds 7 1016 81 10000 8.23 160 19:27 10.08.2022
689 Clouds 6 1016 79 10000 9.26 160 18:22 10.08.2022
690 Clouds 6 1016 83 10000 9.26 150 16:36 10.08.2022
691 Clouds 6 1015 87 10000 8.23 170 13:36 10.08.2022
692 Clouds 6 1015 89 10000 8.23 170 12:44 10.08.2022
693 Clouds 7 1013 89 10000 8.75 170 09:25 10.08.2022
694 Clouds 7 1013 88 10000 8.23 180 08:34 10.08.2022
695 Clouds 7 1012 88 10000 7.72 170 07:19 10.08.2022
696 Clouds 8 1012 78 10000 7.72 170 03:28 10.08.2022
697 Clouds 6 1013 86 9000 8.75 160 23:51 09.08.2022
698 Clouds 7 1012 75 10000 8.75 170 23:24 09.08.2022
699 Clouds 6 1012 75 10000 9.77 180 21:36 09.08.2022
700 Clouds 6 1011 79 10000 10.29 170 20:36 09.08.2022
701 Clouds 6 1010 80 10000 10.8 170 18:45 09.08.2022
702 Clouds 6 1011 79 10000 10.8 180 17:31 09.08.2022
703 Clouds 7 1011 78 10000 10.8 170 16:42 09.08.2022
704 Clouds 7 1011 78 10000 10.8 180 15:58 09.08.2022
705 Clouds 7 1012 83 10000 11.83 170 13:51 09.08.2022
706 Rain 8 1012 85 10000 11.83 160 10:39 09.08.2022
707 Rain 8 1012 91 7000 13.38 160 08:51 09.08.2022
708 Rain 8 1011 92 10000 12.86 150 07:54 09.08.2022
709 Rain 9 1013 96 3200 11.32 160 04:28 09.08.2022
710 Rain 9 1013 97 5000 12.35 170 23:46 08.08.2022
711 Rain 8 1013 97 3000 12.86 180 22:56 08.08.2022
712 Rain 8 1013 96 3900 12.35 180 22:22 08.08.2022
713 Rain 8 1013 95 2400 14.92 190 21:27 08.08.2022
714 Rain 7 1012 95 4900 14.92 180 19:51 08.08.2022
715 Rain 7 1012 95 4900 13.38 180 18:58 08.08.2022
716 Rain 7 1013 93 9000 14.4 180 16:47 08.08.2022
717 Rain 7 1014 91 10000 13.89 180 15:40 08.08.2022
718 Rain 7 1014 91 10000 13.89 170 14:29 08.08.2022
719 Rain 7 1015 95 4900 13.89 170 12:27 08.08.2022
720 Rain 7 1015 93 5000 14.4 170 09:48 08.08.2022
721 Clouds 7 1014 94 10000 14.92 170 06:54 08.08.2022
722 Rain 8 1013 95 5000 15.95 170 03:31 08.08.2022
723 Rain 6 1013 94 7000 16.98 180 22:42 07.08.2022
724 Haze 6 1012 95 4800 16.46 180 21:40 07.08.2022
725 Rain 6 1011 94 4000 15.95 180 20:26 07.08.2022
726 Rain 6 1011 94 4000 15.95 180 20:26 07.08.2022
727 Rain 6 1010 95 3800 15.95 180 19:57 07.08.2022
728 Rain 7 1009 95 3500 16.98 190 19:39 07.08.2022
729 Rain 7 1008 95 1500 18.01 190 18:36 07.08.2022
730 Rain 7 1007 94 1900 20.06 200 16:55 07.08.2022
731 Rain 7 1007 94 2300 19.03 200 16:35 07.08.2022
732 Haze 7 1007 92 3800 19.55 200 15:23 07.08.2022
733 Haze 8 1006 89 4100 16.98 200 13:34 07.08.2022
734 Clouds 9 1005 92 8000 12.35 190 11:58 07.08.2022
735 Clouds 14 1005 82 10000 4.12 340 10:34 07.08.2022
736 Clouds 14 1001 87 10000 6.17 340 07:38 07.08.2022
737 Clouds 15 1001 80 10000 8.23 340 03:32 07.08.2022
738 Clear 14 1002 80 10000 6.69 360 01:45 07.08.2022
739 Clouds 12 998 92 10000 5.66 40 22:25 06.08.2022
740 Clouds 12 998 93 10000 5.66 20 21:18 06.08.2022
741 Clouds 13 997 93 10000 5.14 360 19:41 06.08.2022
742 Clouds 13 996 93 10000 7.72 340 18:30 06.08.2022
743 Clouds 13 996 93 10000 9.77 340 17:33 06.08.2022
744 Rain 13 996 93 10000 8.75 330 14:48 06.08.2022
745 Clouds 14 996 95 2800 12.35 350 13:49 06.08.2022
746 Haze 14 997 95 4300 13.38 360 11:59 06.08.2022
747 Rain 13 998 94 10000 14.92 350 10:33 06.08.2022
748 Rain 14 999 91 10000 12.86 360 08:40 06.08.2022
749 Clouds 14 1001 89 10000 13.38 350 03:53 06.08.2022
750 Clouds 13 1006 88 10000 10.8 10 23:54 05.08.2022
751 Clouds 13 1006 90 10000 10.29 360 22:33 05.08.2022
752 Drizzle 12 1006 93 10000 9.77 10 19:59 05.08.2022
753 Clouds 13 1007 93 3000 10.8 10 18:47 05.08.2022
754 Clouds 13 1007 92 10000 11.83 10 18:27 05.08.2022
755 Clouds 13 1008 93 10000 11.83 10 16:50 05.08.2022
756 Drizzle 13 1008 92 9000 12.35 10 15:23 05.08.2022
757 Clouds 13 1009 90 10000 10.8 10 14:32 05.08.2022
758 Clouds 13 1010 89 10000 10.29 10 13:25 05.08.2022
759 Clouds 13 1011 87 10000 9.77 20 12:44 05.08.2022
760 Clouds 13 1013 86 10000 10.8 360 10:55 05.08.2022
761 Clouds 13 1013 88 10000 12.86 350 08:36 05.08.2022
762 Clouds 13 1013 87 10000 11.32 360 07:23 05.08.2022
763 Clouds 13 1018 86 10000 11.83 360 01:28 05.08.2022
764 Clouds 12 1019 88 10000 12.86 10 22:33 04.08.2022
765 Clouds 12 1018 86 10000 10.8 20 21:27 04.08.2022
766 Clouds 12 1018 88 10000 9.77 30 20:45 04.08.2022
767 Clouds 12 1018 87 10000 9.77 20 19:49 04.08.2022
768 Clouds 12 1018 86 10000 10.29 20 18:51 04.08.2022
769 Clouds 12 1018 86 10000 11.32 360 18:32 04.08.2022
770 Clouds 12 1020 84 10000 9.77 350 14:39 04.08.2022
771 Clouds 12 1020 83 10000 10.8 360 13:22 04.08.2022
772 Clouds 12 1020 86 10000 8.75 360 11:37 04.08.2022
773 Clouds 13 1019 87 10000 10.8 10 07:56 04.08.2022
774 Clouds 13 1018 86 10000 11.32 360 07:26 04.08.2022
775 Clouds 14 1020 80 10000 8.75 10 02:38 04.08.2022
776 Clouds 13 1021 85 10000 8.23 350 23:52 03.08.2022
777 Clouds 13 1021 86 10000 9.26 360 23:33 03.08.2022
778 Clouds 12 1021 89 10000 7.2 360 21:26 03.08.2022
779 Clouds 12 1020 90 10000 7.72 10 19:56 03.08.2022
780 Clouds 12 1020 89 10000 7.72 20 18:40 03.08.2022
781 Clear 11 1020 88 10000 5.66 20 16:27 03.08.2022
782 Clear 11 1020 89 10000 6.17 20 15:53 03.08.2022
783 Clear 12 1019 89 10000 5.14 30 13:32 03.08.2022
784 Clear 13 1018 90 10000 6.69 10 09:55 03.08.2022
785 Clouds 13 1016 87 10000 7.72 10 07:21 03.08.2022
786 Clouds 14 1015 85 10000 9.26 360 04:22 03.08.2022
787 Clouds 14 1015 86 10000 9.26 340 03:22 03.08.2022
788 Clouds 13 1015 89 10000 9.26 340 00:46 03.08.2022
789 Clouds 13 1014 90 10000 7.6 24 22:33 02.08.2022
790 Clouds 13 1014 92 10000 9.77 330 21:50 02.08.2022
791 Clouds 13 1014 92 10000 11.32 340 20:27 02.08.2022
792 Clouds 13 1014 90 5000 11.83 350 16:52 02.08.2022
793 Rain 13 1015 89 6000 11.83 340 14:33 02.08.2022
794 Clouds 13 1015 87 10000 11.32 350 10:44 02.08.2022
795 Clouds 13 1015 89 10000 10.29 350 08:38 02.08.2022
796 Clouds 13 1015 86 10000 10.8 350 07:51 02.08.2022
797 Clouds 13 1016 84 10000 13.38 350 04:57 02.08.2022
798 Clouds 13 1016 83 10000 11.83 330 03:30 02.08.2022
799 Clouds 12 1017 84 10000 10.29 340 23:26 01.08.2022
800 Clouds 12 1018 81 10000 9.77 340 21:49 01.08.2022
801 Clouds 12 1018 81 10000 8.75 350 20:27 01.08.2022
802 Clouds 12 1018 81 10000 9.77 360 19:21 01.08.2022
803 Clouds 11 1018 81 10000 8.23 350 17:22 01.08.2022
804 Clouds 11 1019 78 10000 10.29 340 16:48 01.08.2022
805 Clouds 11 1019 79 10000 9.26 20 15:46 01.08.2022
806 Clouds 11 1019 76 10000 9.26 360 15:19 01.08.2022
807 Clouds 11 1019 75 10000 7.72 350 13:39 01.08.2022
808 Clear 11 1019 71 10000 7.2 340 11:38 01.08.2022
809 Clear 11 1019 78 10000 5.14 360 09:38 01.08.2022
810 Clear 10 1019 78 10000 4.63 360 08:18 01.08.2022
811 Clear 12 1018 65 10000 5.66 340 04:44 01.08.2022
812 Clouds 11 1019 75 10000 5.66 10 02:31 01.08.2022
813 Clouds 7 1020 90 10000 3.09 30 22:54 31.07.2022
814 Clouds 7 1020 91 10000 3.09 40 22:36 31.07.2022
815 Clear 6 1019 90 10000 2.57 20 20:46 31.07.2022
816 Clouds 4 1019 93 10000 2.57 30 18:52 31.07.2022
817 Clear 5 1017 84 10000 2.57 30 17:34 31.07.2022
818 Clear 6 1017 74 10000 3.09 30 15:30 31.07.2022
819 Clear 4 1017 93 10000 2.57 40 13:21 31.07.2022
820 Clear 5 1012 88 10000 2.06 40 11:44 31.07.2022
821 Clear 6 1010 86 10000 1.54 60 09:18 31.07.2022
822 Clouds 9 1009 76 10000 11.32 200 06:31 31.07.2022
823 Clouds 9 1006 83 9000 15.43 200 02:31 31.07.2022
824 Haze 6 1004 92 5000 17.49 210 23:23 30.07.2022
825 Rain 6 1001 93 2700 16.98 210 21:55 30.07.2022
826 Rain 6 1001 92 1800 17.49 220 21:37 30.07.2022
827 Rain 6 999 92 3200 18.52 220 20:38 30.07.2022
828 Rain 6 998 93 2400 17.49 200 19:57 30.07.2022
829 Rain 6 998 95 1900 11.32 180 18:23 30.07.2022
830 Rain 11 996 89 10000 6.17 30 16:44 30.07.2022
831 Haze 11 997 91 5000 6.69 10 15:34 30.07.2022
832 Rain 11 998 90 10000 8.75 10 14:26 30.07.2022
833 Rain 12 999 82 10000 11.83 360 12:43 30.07.2022
834 Rain 13 1000 80 10000 11.32 10 11:55 30.07.2022
835 Rain 13 1001 83 10000 8.75 20 10:20 30.07.2022
836 Clouds 13 1002 83 10000 9.26 10 09:42 30.07.2022
837 Clouds 12 1003 85 10000 9.26 10 07:44 30.07.2022
838 Rain 12 1009 93 10000 7.2 10 02:34 30.07.2022
839 Rain 12 1010 93 4800 4.63 10 01:21 30.07.2022
840 Clouds 10 1011 91 10000 1.03 170 21:39 29.07.2022
841 Clouds 11 1011 89 10000 1.54 20 20:58 29.07.2022
842 Clouds 11 1011 88 10000 2.57 20 19:48 29.07.2022
843 Clouds 12 1011 88 10000 4.12 350 17:40 29.07.2022
844 Clouds 12 1010 87 10000 8.23 330 14:53 29.07.2022
845 Clouds 12 1009 84 10000 8.75 330 12:58 29.07.2022
846 Clouds 12 1008 79 10000 7.2 350 09:49 29.07.2022
847 Clouds 12 1008 79 10000 7.2 350 08:48 29.07.2022
848 Clouds 12 1007 78 10000 7.72 360 07:39 29.07.2022
849 Clouds 14 1003 72 10000 6.17 340 01:46 29.07.2022
850 Clouds 11 1000 87 10000 4.63 360 21:57 28.07.2022
851 Clouds 11 1000 89 10000 1.54 360 20:55 28.07.2022
852 Clouds 11 999 89 10000 1.03 70 20:27 28.07.2022
853 Clouds 10 998 88 10000 0.45 278 19:42 28.07.2022
854 Clouds 11 998 89 10000 1.03 330 18:27 28.07.2022
855 Clouds 11 998 89 10000 2.06 350 17:43 28.07.2022
856 Clouds 11 997 87 10000 3.09 350 16:41 28.07.2022
857 Clouds 11 996 85 10000 2.57 330 14:58 28.07.2022
858 Clouds 12 996 88 10000 3.09 350 12:51 28.07.2022
859 Clouds 12 994 89 10000 3.6 360 09:45 28.07.2022
860 Clouds 13 993 86 10000 5.14 330 06:24 28.07.2022
861 Clouds 13 993 85 10000 6.69 330 05:26 28.07.2022
862 Rain 12 993 93 10000 10.8 360 00:45 28.07.2022
863 Clouds 12 993 89 10000 9.26 10 22:34 27.07.2022
864 Clouds 12 994 91 10000 5.14 20 20:56 27.07.2022
865 Rain 12 995 92 8000 8.23 20 19:34 27.07.2022
866 Rain 12 997 89 10000 6.17 10 17:38 27.07.2022
867 Rain 12 998 86 10000 10.29 350 15:52 27.07.2022
868 Clouds 12 999 89 10000 7.2 350 14:55 27.07.2022
869 Clouds 12 999 89 10000 7.2 350 14:33 27.07.2022
870 Clouds 12 998 88 10000 6.69 350 12:49 27.07.2022
871 Clouds 13 997 93 10000 6.17 340 07:53 27.07.2022
872 Clouds 13 996 94 10000 7.72 360 06:19 27.07.2022
873 Rain 11 996 94 10000 6.17 190 00:48 27.07.2022
874 Drizzle 10 994 95 10000 9.26 190 22:26 26.07.2022
875 Clouds 11 993 95 7000 8.75 180 21:20 26.07.2022
876 Rain 11 992 96 7000 8.75 180 20:25 26.07.2022
877 Rain 11 991 96 3200 8.23 170 18:42 26.07.2022
878 Rain 11 991 96 2000 6.69 150 17:58 26.07.2022
879 Clouds 11 991 95 7000 6.69 170 15:59 26.07.2022
880 Clouds 11 991 96 10000 5.66 170 15:18 26.07.2022
881 Clouds 12 992 95 8000 6.17 170 13:20 26.07.2022
882 Rain 12 992 94 4400 3.09 220 11:20 26.07.2022
883 Rain 12 992 93 10000 5.14 220 08:55 26.07.2022
884 Clouds 16 992 83 10000 3.09 180 05:49 26.07.2022
885 Clouds 14 997 92 10000 5.66 10 00:37 26.07.2022
886 Rain 12 999 94 10000 6.69 30 22:53 25.07.2022
887 Clouds 11 999 93 10000 5.66 30 22:25 25.07.2022
888 Rain 11 999 92 10000 4.12 50 21:41 25.07.2022
889 Clouds 11 1000 92 10000 7.72 40 20:41 25.07.2022
890 Clouds 11 1001 93 8000 6.17 40 19:33 25.07.2022
891 Clouds 11 1003 91 10000 7.2 40 18:18 25.07.2022
892 Clouds 11 1004 92 10000 7.2 40 17:27 25.07.2022
893 Rain 10 1007 94 5000 2.06 10 14:44 25.07.2022
894 Rain 10 1010 93 8000 2.06 30 12:22 25.07.2022
895 Rain 10 1012 91 10000 4.63 50 09:50 25.07.2022
896 Rain 10 1016 83 10000 5.14 50 04:25 25.07.2022
897 Clouds 7 1020 93 10000 3.09 50 23:54 24.07.2022
898 Rain 6 1021 94 10000 0.51 240 22:59 24.07.2022
899 Clouds 6 1021 95 10000 1.03 40 22:29 24.07.2022
900 Rain 5 1020 95 10000 1.54 70 21:19 24.07.2022
901 Rain 5 1018 91 10000 1.54 60 20:50 24.07.2022
902 Clouds 5 1017 91 10000 1.54 340 20:26 24.07.2022
903 Clouds 5 1020 92 10000 1.03 70 18:46 24.07.2022
904 Clouds 6 1020 90 10000 1.54 40 16:29 24.07.2022
905 Clouds 6 1020 90 10000 2.06 20 15:50 24.07.2022
906 Clouds 5 1024 93 10000 1.54 20 14:35 24.07.2022
907 Clouds 6 1025 93 10000 1.03 50 12:54 24.07.2022
908 Rain 6 1025 92 10000 1.03 360 11:40 24.07.2022
909 Rain 7 1026 92 10000 1.03 360 11:18 24.07.2022
910 Clouds 7 1026 90 10000 1.03 290 08:33 24.07.2022
911 Clouds 8 1026 88 10000 1.54 210 07:52 24.07.2022
912 Clouds 10 1026 81 10000 2.57 210 06:18 24.07.2022
913 Clouds 8 1030 94 10000 3.09 360 01:27 24.07.2022
914 Clouds 5 1033 93 10000 2.06 30 22:21 23.07.2022
915 Clouds 4 1033 100 10000 2.06 20 20:28 23.07.2022
916 Clouds 4 1033 93 10000 2.06 30 18:51 23.07.2022
917 Clouds 3 1034 93 10000 1.54 30 17:29 23.07.2022
918 Clouds 3 1034 93 10000 1.54 20 16:35 23.07.2022
919 Clouds 4 1035 93 10000 1.54 50 15:31 23.07.2022
920 Clouds 4 1035 100 10000 1.54 60 14:59 23.07.2022
921 Clouds 4 1035 93 10000 1.54 30 14:28 23.07.2022
922 Clouds 4 1035 93 10000 1.03 60 13:36 23.07.2022
923 Clouds 6 1032 88 10000 0.51 350 10:49 23.07.2022
924 Clouds 6 1033 87 10000 2.06 110 10:21 23.07.2022
925 Clouds 7 1032 84 10000 2.57 130 08:39 23.07.2022
926 Clouds 10 1032 73 10000 2.57 210 03:40 23.07.2022
927 Clouds 9 1034 78 10000 2.57 160 01:33 23.07.2022
928 Clouds 5 1034 86 10000 2.06 130 22:56 22.07.2022
929 Clouds 6 1033 83 10000 3.09 140 20:56 22.07.2022
930 Clouds 6 1031 82 10000 6.17 160 19:41 22.07.2022
931 Clouds 7 1028 84 10000 1.34 211 18:28 22.07.2022
932 Clouds 7 1032 79 10000 6.17 170 16:55 22.07.2022
933 Clouds 8 1031 74 10000 8.23 160 14:54 22.07.2022
934 Clouds 8 1030 81 10000 9.77 170 11:22 22.07.2022
935 Clouds 8 1030 87 10000 8.75 170 09:26 22.07.2022
936 Clouds 8 1029 87 10000 9.26 180 08:37 22.07.2022
937 Clouds 9 1028 85 10000 9.26 180 06:59 22.07.2022
938 Clouds 9 1027 84 10000 13.38 190 02:25 22.07.2022
939 Clouds 8 1026 90 10000 11.83 180 22:43 21.07.2022
940 Haze 8 1025 89 3900 12.86 190 21:34 21.07.2022
941 Rain 9 1023 79 7000 12.86 190 19:28 21.07.2022
942 Clouds 9 1023 77 7000 13.38 190 17:41 21.07.2022
943 Clouds 9 1022 78 7000 13.38 190 17:19 21.07.2022
944 Clouds 9 1022 80 7000 13.89 190 15:22 21.07.2022
945 Clouds 9 1022 81 6000 14.4 190 14:37 21.07.2022
946 Haze 9 1020 84 5000 14.4 190 12:28 21.07.2022
947 Haze 9 1019 82 5000 16.46 190 11:19 21.07.2022
948 Haze 9 1017 81 3300 20.06 200 09:38 21.07.2022
949 Drizzle 9 1015 81 2800 21.09 200 08:52 21.07.2022
950 Haze 8 1014 81 2100 22.12 200 07:50 21.07.2022
951 Rain 8 1010 86 1300 24.18 200 05:47 21.07.2022
952 Haze 8 1006 87 1400 23.15 220 00:43 21.07.2022
953 Rain 7 1005 93 4300 4.63 250 22:22 20.07.2022
954 Rain 8 1004 93 7000 2.06 340 20:59 20.07.2022
955 Rain 8 1003 94 6000 1.54 330 19:53 20.07.2022
956 Rain 8 1003 94 4200 1.54 320 19:25 20.07.2022
957 Rain 8 1004 94 5000 1.54 320 18:51 20.07.2022
958 Rain 8 1004 94 4000 2.06 300 18:22 20.07.2022
959 Rain 8 1005 92 7000 8.75 220 16:45 20.07.2022
960 Rain 8 1006 91 6000 12.86 210 15:32 20.07.2022
961 Rain 9 1006 92 7000 12.86 200 14:20 20.07.2022
962 Rain 9 1006 92 7000 12.86 200 14:20 20.07.2022
963 Rain 9 1007 95 5000 9.77 180 11:37 20.07.2022
964 Rain 9 1008 94 10000 11.83 190 09:41 20.07.2022
965 Rain 11 1011 95 1900 8.75 190 03:49 20.07.2022
966 Clouds 13 1013 95 10000 1.03 90 00:51 20.07.2022
967 Rain 12 1013 96 10000 2.06 10 23:41 19.07.2022
968 Clouds 12 1013 95 10000 3.09 360 22:33 19.07.2022
969 Rain 12 1013 95 10000 2.57 360 21:35 19.07.2022
970 Rain 12 1013 95 10000 3.6 10 20:48 19.07.2022
971 Clouds 12 1013 94 10000 3.6 360 19:21 19.07.2022
972 Drizzle 12 1013 95 4700 3.6 360 18:31 19.07.2022
973 Mist 12 1013 95 3400 5.14 10 17:46 19.07.2022
974 Rain 13 1013 93 10000 7.2 360 14:57 19.07.2022
975 Rain 12 1014 94 8000 4.12 30 11:58 19.07.2022
976 Rain 12 1014 94 7000 4.12 40 11:18 19.07.2022
977 Rain 12 1014 92 3600 2.57 360 09:26 19.07.2022
978 Rain 12 1014 91 3300 8.23 330 08:39 19.07.2022
979 Clouds 15 1013 85 10000 8.23 10 07:19 19.07.2022
980 Clouds 15 1013 84 10000 9.26 10 05:48 19.07.2022
981 Clouds 15 1013 83 10000 11.32 360 04:56 19.07.2022
982 Clouds 15 1014 83 10000 10.8 360 01:50 19.07.2022
983 Clouds 14 1015 84 10000 11.32 360 23:50 18.07.2022
984 Clouds 14 1014 84 10000 12.35 360 23:19 18.07.2022
985 Clouds 13 1014 84 10000 12.35 360 22:22 18.07.2022
986 Clouds 13 1014 84 10000 11.83 350 20:52 18.07.2022
987 Clouds 13 1014 84 10000 13.89 360 19:33 18.07.2022
988 Clouds 13 1014 82 10000 13.38 360 17:53 18.07.2022
989 Clouds 13 1016 84 10000 14.4 360 16:28 18.07.2022
990 Clouds 13 1016 83 10000 14.92 360 15:19 18.07.2022
991 Clouds 12 1017 84 10000 13.38 360 13:26 18.07.2022
992 Clouds 13 1018 79 10000 11.83 350 11:31 18.07.2022
993 Clouds 12 1019 84 10000 12.86 350 09:53 18.07.2022
994 Clouds 13 1019 84 10000 12.35 350 07:48 18.07.2022
995 Clouds 14 1020 76 10000 9.77 340 02:34 18.07.2022
996 Clouds 12 1022 83 10000 11.32 360 22:55 17.07.2022
997 Clouds 12 1022 87 10000 9.77 350 22:28 17.07.2022
998 Haze 12 1022 89 4300 10.8 340 21:26 17.07.2022
999 Clouds 12 1021 86 10000 10.8 350 20:44 17.07.2022
1000 Clouds 12 1022 84 10000 10.8 350 19:49 17.07.2022
1001 Clouds 12 1021 83 10000 10.29 350 19:20 17.07.2022
1002 Clouds 12 1022 82 10000 9.26 350 17:39 17.07.2022
1003 Clouds 12 1023 77 10000 10.8 340 16:53 17.07.2022
1004 Clouds 12 1022 76 10000 10.29 340 16:28 17.07.2022
1005 Clouds 12 1022 73 10000 10.29 350 15:37 17.07.2022
1006 Clouds 12 1022 75 10000 11.83 340 13:51 17.07.2022
1007 Clouds 12 1023 75 10000 9.77 340 12:42 17.07.2022
1008 Clouds 12 1024 72 10000 9.77 340 10:19 17.07.2022
1009 Clouds 11 1022 72 10000 12.86 360 06:59 17.07.2022
1010 Clouds 11 1022 74 10000 10.29 350 02:34 17.07.2022
1011 Clouds 11 1022 74 10000 10.29 350 02:34 17.07.2022
1012 Clouds 10 1022 85 10000 7.2 30 23:23 16.07.2022
1013 Clouds 8 1022 87 10000 7.2 20 22:20 16.07.2022
1014 Clouds 8 1022 81 10000 7.2 30 20:29 16.07.2022
1015 Clouds 7 1020 83 10000 5.66 10 18:54 16.07.2022
1016 Clear 7 1020 84 10000 3.13 179 17:38 16.07.2022
1017 Clear 4 1021 93 10000 3.6 20 15:54 16.07.2022
1018 Clear 5 1019 93 10000 2.06 40 12:26 16.07.2022
1019 Clouds 5 1015 85 10000 1.03 30 10:18 16.07.2022
1020 Clouds 5 1014 84 10000 1.03 360 09:25 16.07.2022
1021 Clear 6 1014 78 10000 3.09 160 08:40 16.07.2022
1022 Clouds 7 1012 80 10000 4.12 190 06:59 16.07.2022
1023 Clouds 9 1010 72 10000 4.12 220 03:33 16.07.2022
1024 Clouds 7 1010 93 10000 2.57 10 00:23 16.07.2022
1025 Clouds 9 1011 76 10000 2.57 250 22:54 15.07.2022
1026 Clouds 9 1011 66 10000 5.14 190 21:55 15.07.2022
1027 Clouds 5 1005 85 10000 5.66 200 20:40 15.07.2022
1028 Clouds 6 1004 87 10000 5.66 190 18:55 15.07.2022
1029 Clouds 6 1006 92 10000 6.17 200 18:22 15.07.2022
1030 Clouds 6 1006 92 10000 6.17 200 16:46 15.07.2022
1031 Clouds 7 1005 92 9000 5.14 170 13:58 15.07.2022
1032 Clouds 7 1004 92 10000 5.66 180 12:28 15.07.2022
1033 Rain 8 1003 92 5000 5.14 160 10:52 15.07.2022
1034 Clouds 9 1002 83 10000 1.54 140 07:48 15.07.2022
1035 Clouds 11 1001 74 10000 4.63 170 02:51 15.07.2022
1036 Clouds 9 1002 84 10000 6.69 180 00:39 15.07.2022
1037 Clouds 8 1001 88 10000 8.75 170 22:56 14.07.2022
1038 Clouds 8 1001 84 10000 6.69 180 22:19 14.07.2022
1039 Clouds 8 1000 83 10000 8.23 170 21:39 14.07.2022
1040 Clouds 8 1000 83 10000 8.23 170 21:19 14.07.2022
1041 Clouds 8 1000 86 10000 9.26 170 20:42 14.07.2022
1042 Clouds 8 999 84 10000 7.2 170 20:18 14.07.2022
1043 Clouds 9 999 77 10000 8.23 150 17:59 14.07.2022
1044 Clouds 9 999 79 10000 9.26 160 16:19 14.07.2022
1045 Clouds 9 1000 77 10000 8.75 160 14:55 14.07.2022
1046 Clouds 10 1000 76 10000 8.23 150 13:51 14.07.2022
1047 Clouds 10 1001 75 10000 8.75 150 12:34 14.07.2022
1048 Clouds 10 1000 75 10000 7.2 140 11:26 14.07.2022
1049 Clouds 10 1001 74 10000 8.23 150 10:51 14.07.2022
1050 Clouds 11 1002 73 10000 4.63 140 08:52 14.07.2022
1051 Clouds 12 1002 72 10000 6.69 150 04:44 14.07.2022
1052 Clouds 14 1002 78 10000 2.57 330 01:18 14.07.2022
1053 Clouds 14 1002 80 10000 4.12 310 00:50 14.07.2022
1054 Clear 11 1001 87 10000 4.63 10 22:30 13.07.2022
1055 Clear 11 1001 85 10000 5.14 10 21:38 13.07.2022
1056 Clouds 12 1001 83 10000 6.69 340 20:38 13.07.2022
1057 Clouds 12 999 83 10000 7.2 350 18:26 13.07.2022
1058 Clouds 12 999 83 10000 6.69 360 17:31 13.07.2022
1059 Clouds 12 999 83 10000 7.72 360 16:19 13.07.2022
1060 Clear 13 998 83 10000 7.72 340 13:57 13.07.2022
1061 Clouds 13 997 83 10000 9.26 340 11:36 13.07.2022
1062 Clouds 13 997 83 10000 8.23 350 10:44 13.07.2022
1063 Clouds 13 996 84 10000 9.77 350 09:49 13.07.2022
1064 Clouds 13 996 83 10000 10.8 350 09:20 13.07.2022
1065 Clear 14 996 80 10000 9.77 340 05:21 13.07.2022
1066 Clouds 14 996 78 10000 8.75 340 00:49 13.07.2022
1067 Clouds 14 994 78 10000 7.2 330 23:21 12.07.2022
1068 Clouds 13 993 76 10000 8.23 340 21:49 12.07.2022
1069 Clouds 13 992 75 10000 6.17 350 20:54 12.07.2022
1070 Clouds 13 992 76 10000 7.72 350 20:36 12.07.2022
1071 Rain 13 990 78 10000 5.66 350 18:53 12.07.2022
1072 Rain 13 989 78 10000 8.23 330 17:32 12.07.2022
1073 Clouds 13 988 86 10000 12.86 340 15:37 12.07.2022
1074 Clouds 12 988 86 10000 9.77 330 13:44 12.07.2022
1075 Clouds 12 988 89 10000 9.77 340 11:59 12.07.2022
1076 Clouds 13 989 90 10000 10.8 340 10:46 12.07.2022
1077 Clouds 13 989 91 10000 9.77 350 09:19 12.07.2022
1078 Clouds 13 989 91 9000 7.2 340 07:57 12.07.2022
1079 Rain 14 990 94 10000 6.69 20 05:54 12.07.2022
1080 Clouds 14 991 94 7000 7.2 360 05:35 12.07.2022
1081 Rain 13 995 90 10000 7.2 40 01:43 12.07.2022
1082 Rain 12 1002 89 10000 6.69 30 22:52 11.07.2022
1083 Rain 12 1004 89 10000 2.57 40 21:44 11.07.2022
1084 Rain 11 1006 90 10000 3.6 50 20:33 11.07.2022
1085 Rain 11 1007 91 7000 4.12 30 19:32 11.07.2022
1086 Rain 10 1009 92 4500 2.06 280 18:32 11.07.2022
1087 Rain 10 1011 92 10000 1.54 40 17:36 11.07.2022
1088 Rain 9 1015 92 4500 2.06 200 15:46 11.07.2022
1089 Rain 10 1019 90 10000 2.06 30 13:39 11.07.2022
1090 Drizzle 10 1020 90 10000 0.51 230 11:38 11.07.2022
1091 Rain 9 1021 92 6000 2.06 230 10:18 11.07.2022
1092 Drizzle 9 1022 91 6000 2.57 250 09:41 11.07.2022
1093 Drizzle 10 1022 88 10000 0.51 190 08:33 11.07.2022
1094 Clouds 11 1024 78 10000 5.14 110 03:23 11.07.2022
1095 Rain 10 1026 79 10000 3.09 130 00:20 11.07.2022
1096 Rain 9 1026 79 10000 4.12 120 22:56 10.07.2022
1097 Rain 8 1026 81 10000 3.6 130 21:41 10.07.2022
1098 Rain 8 1026 81 10000 1.54 140 20:47 10.07.2022
1099 Rain 9 1025 78 10000 2.57 140 19:50 10.07.2022
1100 Rain 8 1026 79 10000 2.57 140 18:48 10.07.2022
1101 Rain 9 1024 77 10000 2.06 120 17:37 10.07.2022
1102 Rain 9 1024 77 10000 2.06 130 16:45 10.07.2022
1103 Clouds 9 1025 78 10000 3.6 130 15:25 10.07.2022
1104 Rain 9 1025 80 10000 4.12 150 14:21 10.07.2022
1105 Clouds 9 1024 74 10000 3.09 130 12:28 10.07.2022
1106 Clouds 9 1023 73 10000 5.66 140 10:20 10.07.2022
1107 Rain 9 1023 74 10000 5.14 140 08:45 10.07.2022
1108 Rain 9 1023 74 10000 5.14 140 08:45 10.07.2022
1109 Clouds 9 1021 73 10000 7.2 140 07:30 10.07.2022
1110 Clouds 10 1020 73 10000 8.75 170 01:33 10.07.2022
1111 Rain 7 1018 74 10000 9.26 160 22:51 09.07.2022
1112 Rain 7 1018 79 10000 8.23 160 22:24 09.07.2022
1113 Rain 8 1016 76 10000 11.32 170 20:50 09.07.2022
1114 Rain 8 1014 83 10000 11.83 170 18:38 09.07.2022
1115 Clouds 8 1013 84 10000 11.83 170 17:45 09.07.2022
1116 Clouds 8 1012 87 10000 11.83 170 16:44 09.07.2022
1117 Clouds 9 1011 91 10000 10.8 170 15:41 09.07.2022
1118 Clouds 9 1010 90 10000 9.77 180 14:43 09.07.2022
1119 Rain 9 1009 91 7000 9.26 180 13:50 09.07.2022
1120 Rain 9 1008 90 7000 10.29 180 12:48 09.07.2022
1121 Rain 9 1006 89 4000 11.32 190 11:32 09.07.2022
1122 Clouds 11 1005 80 10000 12.86 190 10:23 09.07.2022
1123 Clouds 14 999 79 10000 5.14 220 07:54 09.07.2022
1124 Clouds 15 996 75 10000 6.69 330 05:37 09.07.2022
1125 Clouds 15 994 76 10000 8.75 330 03:29 09.07.2022
1126 Clouds 14 991 79 10000 9.77 330 23:18 08.07.2022
1127 Clouds 14 991 82 10000 8.23 330 21:59 08.07.2022
1128 Clouds 14 990 81 10000 9.77 340 20:55 08.07.2022
1129 Clouds 14 990 85 10000 10.8 340 20:24 08.07.2022
1130 Clouds 15 989 88 10000 10.29 330 18:29 08.07.2022
1131 Clouds 15 989 88 10000 10.29 330 18:29 08.07.2022
1132 Clouds 15 989 87 10000 12.86 340 17:21 08.07.2022
1133 Clouds 15 991 89 9000 13.89 340 14:55 08.07.2022
1134 Clouds 15 992 89 9000 12.35 350 13:56 08.07.2022
1135 Clouds 15 991 93 10000 10.29 340 12:28 08.07.2022
1136 Clouds 15 992 93 10000 12.35 360 10:37 08.07.2022
1137 Clouds 15 993 93 10000 9.77 360 08:51 08.07.2022
1138 Clouds 15 994 96 7000 7.72 10 06:54 08.07.2022
1139 Rain 13 998 96 3400 2.57 190 02:53 08.07.2022
1140 Rain 10 1002 96 2700 1.54 20 23:41 07.07.2022
1141 Mist 8 1003 95 2300 1.54 360 22:40 07.07.2022
1142 Rain 8 1006 93 7000 1.03 120 20:56 07.07.2022
1143 Rain 8 1009 92 10000 1.54 10 18:37 07.07.2022
1144 Rain 8 1010 92 10000 3.09 40 17:41 07.07.2022
1145 Clouds 8 1011 89 10000 2.06 30 15:22 07.07.2022
1146 Rain 8 1015 88 10000 2.06 40 13:26 07.07.2022
1147 Rain 9 1016 87 10000 1.54 80 12:39 07.07.2022
1148 Rain 9 1016 87 10000 1.54 80 12:19 07.07.2022
1149 Rain 9 1016 87 10000 3.09 30 11:30 07.07.2022
1150 Clouds 9 1017 89 10000 3.6 360 10:43 07.07.2022
1151 Clouds 9 1018 89 10000 3.6 360 10:25 07.07.2022
1152 Rain 9 1019 88 10000 3.09 360 07:40 07.07.2022
1153 Clouds 12 1020 80 10000 1.54 30 04:42 07.07.2022
1154 Clouds 8 1027 85 10000 2.79 15 23:37 06.07.2022
1155 Clouds 6 1026 93 10000 3.09 30 23:19 06.07.2022
1156 Clouds 6 1026 93 10000 3.09 30 22:56 06.07.2022
1157 Clouds 6 1026 93 10000 2.57 20 22:38 06.07.2022
1158 Clouds 5 1026 100 10000 2.57 10 21:30 06.07.2022
1159 Clouds 5 1026 100 10000 1.54 20 19:38 06.07.2022
1160 Clouds 5 1026 100 10000 3.09 20 18:29 06.07.2022
1161 Clouds 6 1026 93 10000 2.06 50 16:19 06.07.2022
1162 Clouds 6 1026 93 10000 2.57 40 14:58 06.07.2022
1163 Clouds 6 1026 93 10000 1.54 30 12:42 06.07.2022
1164 Clouds 5 1024 86 10000 1.54 40 11:49 06.07.2022
1165 Clouds 6 1024 85 10000 1.54 30 10:20 06.07.2022
1166 Clouds 8 1023 81 9000 1.54 360 08:26 06.07.2022
1167 Clouds 9 1022 76 10000 2.57 150 07:23 06.07.2022
1168 Clouds 11 1021 68 10000 4.12 150 05:31 06.07.2022
1169 Clouds 10 1019 84 10000 7.2 150 22:48 05.07.2022
1170 Clouds 10 1018 86 10000 8.75 160 21:59 05.07.2022
1171 Clouds 10 1016 95 10000 6.17 190 20:41 05.07.2022
1172 Clouds 11 1018 87 10000 5.66 210 19:43 05.07.2022
1173 Fog 8 1016 93 3800 1.03 20 19:22 05.07.2022
1174 Clouds 8 1010 90 10000 1.54 40 17:48 05.07.2022
1175 Clouds 10 1011 91 10000 2.06 40 16:55 05.07.2022
1176 Clouds 11 1011 94 10000 3.6 360 15:37 05.07.2022
1177 Clouds 11 1010 94 10000 4.12 20 14:31 05.07.2022
1178 Clouds 12 1009 94 10000 5.14 20 12:47 05.07.2022
1179 Clouds 11 1010 94 10000 5.14 10 11:49 05.07.2022
1180 Clouds 12 1011 93 10000 8.75 10 10:40 05.07.2022
1181 Rain 12 1011 92 10000 6.17 360 09:23 05.07.2022
1182 Clouds 13 1011 84 10000 5.66 350 07:52 05.07.2022
1183 Clouds 12 1013 85 10000 7.72 350 05:29 05.07.2022
1184 Clouds 13 1014 81 10000 5.66 340 04:24 05.07.2022
1185 Clouds 13 1018 85 10000 9.77 20 00:26 05.07.2022
1186 Clouds 13 1018 87 10000 8.75 10 23:31 04.07.2022
1187 Rain 13 1018 88 10000 8.75 10 22:47 04.07.2022
1188 Clouds 13 1018 87 10000 8.23 10 21:46 04.07.2022
1189 Clouds 12 1019 83 10000 9.26 340 20:53 04.07.2022
1190 Clouds 12 1019 84 10000 9.77 350 20:34 04.07.2022
1191 Clouds 13 1019 86 10000 9.26 350 19:55 04.07.2022
1192 Clouds 13 1019 87 10000 8.75 350 19:35 04.07.2022
1193 Clouds 13 1020 85 10000 7.72 10 17:58 04.07.2022
1194 Clouds 13 1021 84 10000 8.23 20 15:58 04.07.2022
1195 Clouds 13 1021 86 10000 8.23 30 15:33 04.07.2022
1196 Clouds 12 1022 86 10000 9.26 30 13:29 04.07.2022
1197 Clouds 12 1022 87 10000 7.72 20 12:30 04.07.2022
1198 Clouds 11 1023 90 10000 5.14 10 10:34 04.07.2022
1199 Clouds 11 1023 91 10000 6.17 10 09:52 04.07.2022
1200 Clouds 11 1022 88 10000 5.14 350 07:37 04.07.2022
1201 Clouds 12 1023 80 10000 4.63 360 04:48 04.07.2022
1202 Clear 10 1026 88 10000 4.12 150 00:39 04.07.2022
1203 Clouds 8 1027 93 10000 2.57 30 22:59 03.07.2022
1204 Clear 7 1025 87 10000 2.06 30 20:58 03.07.2022
1205 Clear 7 1024 93 10000 2.06 20 20:31 03.07.2022
1206 Clear 7 1023 93 10000 2.06 30 19:27 03.07.2022
1207 Clear 7 1023 93 10000 2.57 20 18:43 03.07.2022
1208 Clear 9 1023 87 10000 2.57 330 17:43 03.07.2022
1209 Clear 9 1021 87 10000 2.57 340 15:54 03.07.2022
1210 Clear 8 1021 93 10000 2.57 10 14:59 03.07.2022
1211 Clear 8 1021 93 10000 3.09 350 14:18 03.07.2022
1212 Clear 9 1020 87 10000 2.57 10 13:48 03.07.2022
1213 Clear 10 1020 87 10000 4.63 360 12:33 03.07.2022
1214 Clear 10 1020 87 10000 4.63 360 11:28 03.07.2022
1215 Clear 10 1020 87 10000 3.6 30 10:38 03.07.2022
1216 Clear 9 1017 86 10000 4.12 30 09:31 03.07.2022
1217 Clear 10 1016 84 10000 4.63 20 07:35 03.07.2022
1218 Clear 13 1016 72 10000 5.66 340 03:46 03.07.2022
1219 Clear 12 1018 81 10000 5.14 30 00:21 03.07.2022
1220 Clear 10 1018 83 10000 4.12 30 22:33 02.07.2022
1221 Clear 9 1017 83 10000 4.12 40 20:58 02.07.2022
1222 Clear 10 1016 83 10000 4.12 30 19:52 02.07.2022
1223 Clear 10 1016 83 10000 3.6 40 19:20 02.07.2022
1224 Clouds 10 1017 81 10000 4.12 20 17:41 02.07.2022
1225 Clouds 11 1017 80 10000 4.12 30 16:53 02.07.2022
1226 Clouds 10 1017 85 10000 4.12 30 14:40 02.07.2022
1227 Clouds 11 1017 87 10000 4.12 30 12:21 02.07.2022
1228 Clouds 11 1018 85 10000 4.12 30 11:26 02.07.2022
1229 Clouds 11 1018 83 10000 3.6 30 10:39 02.07.2022
1230 Clear 11 1018 81 10000 3.6 30 09:18 02.07.2022
1231 Clear 10 1018 79 10000 3.6 10 08:20 02.07.2022
1232 Clear 11 1017 81 10000 5.14 20 07:27 02.07.2022
1233 Clear 10 1019 83 10000 2.57 340 01:53 02.07.2022
1234 Clear 8 1021 81 10000 2.06 20 23:59 01.07.2022
1235 Clear 5 1020 93 10000 2.06 40 22:41 01.07.2022
1236 Clear 5 1020 93 10000 2.57 40 21:48 01.07.2022
1237 Clear 5 1019 93 10000 2.57 40 21:28 01.07.2022
1238 Clear 5 1019 93 10000 1.54 60 20:40 01.07.2022
1239 Clear 5 1019 93 10000 1.03 30 19:46 01.07.2022
1240 Clear 6 1018 87 10000 2.06 20 17:53 01.07.2022
1241 Clear 6 1017 87 10000 3.09 360 16:22 01.07.2022
1242 Clear 6 1016 87 10000 2.06 10 13:55 01.07.2022
1243 Clear 9 1015 76 10000 1.54 330 12:41 01.07.2022
1244 Clouds 9 1012 77 10000 3.09 360 10:20 01.07.2022
1245 Clouds 9 1011 74 10000 3.6 350 09:47 01.07.2022
1246 Clouds 10 1010 74 10000 3.6 320 05:25 01.07.2022
1247 Clouds 10 1012 86 10000 2.57 160 00:42 01.07.2022
1248 Clouds 7 1012 91 10000 5.14 180 23:22 30.06.2022
1249 Clouds 7 1011 86 10000 4.63 160 22:44 30.06.2022
1250 Clouds 7 1010 86 10000 4.63 170 22:25 30.06.2022
1251 Clouds 7 1010 89 10000 4.63 170 21:45 30.06.2022
1252 Rain 7 1010 88 10000 8.75 170 20:30 30.06.2022
1253 Rain 7 1010 89 10000 10.29 170 19:54 30.06.2022
1254 Rain 8 1009 89 10000 11.32 170 19:26 30.06.2022
1255 Clouds 8 1009 90 10000 11.32 180 18:42 30.06.2022
1256 Rain 10 1008 84 10000 9.77 180 17:44 30.06.2022
1257 Clouds 10 1007 84 10000 9.77 190 16:55 30.06.2022
1258 Clouds 14 1008 67 10000 4.92 217 15:44 30.06.2022
1259 Clouds 13 1005 77 10000 5.66 340 13:49 30.06.2022
1260 Clouds 14 1004 70 10000 7.2 310 12:36 30.06.2022
1261 Clouds 14 1003 71 10000 6.69 30 11:55 30.06.2022
1262 Clouds 12 1004 81 10000 5.66 30 09:55 30.06.2022
1263 Clouds 12 1003 80 10000 6.17 30 09:35 30.06.2022
1264 Clouds 12 1003 86 10000 7.2 10 08:19 30.06.2022
1265 Clouds 11 1003 87 10000 8.75 10 07:24 30.06.2022
1266 Clouds 12 1005 84 10000 8.23 20 02:38 30.06.2022
1267 Clouds 9 1008 97 10000 4.63 20 23:36 29.06.2022
1268 Clouds 6 1010 93 10000 5.14 20 22:41 29.06.2022
1269 Clear 5 1010 93 10000 3.6 30 21:58 29.06.2022
1270 Clear 5 1010 100 10000 2.57 30 20:34 29.06.2022
1271 Clear 5 1010 100 10000 2.57 40 19:55 29.06.2022
1272 Clear 6 1010 100 10000 1.54 350 17:55 29.06.2022
1273 Clear 5 1010 100 10000 1.54 360 16:51 29.06.2022
1274 Clear 5 1010 100 10000 1.54 360 16:51 29.06.2022
1275 Clear 7 1010 93 10000 0.51 310 15:33 29.06.2022
1276 Clouds 6 1010 93 10000 1.54 30 13:36 29.06.2022
1277 Clouds 7 1010 87 10000 2.06 20 12:24 29.06.2022
1278 Clouds 8 1010 87 10000 1.03 360 09:43 29.06.2022
1279 Clouds 8 1009 81 10000 1.54 30 09:21 29.06.2022
1280 Clouds 11 1007 79 10000 4.12 340 06:27 29.06.2022
1281 Clouds 12 1008 84 10000 5.14 330 02:21 29.06.2022
1282 Clouds 12 1008 91 10000 4.63 40 00:38 29.06.2022
1283 Clouds 12 1008 92 10000 3.09 40 23:55 28.06.2022
1284 Clouds 11 1008 94 10000 4.63 40 22:48 28.06.2022
1285 Clouds 11 1009 94 10000 5.14 30 21:55 28.06.2022
1286 Clouds 11 1009 94 10000 4.63 20 21:33 28.06.2022
1287 Clouds 11 1009 95 10000 4.63 350 20:57 28.06.2022
1288 Clouds 10 1009 95 10000 4.12 340 19:50 28.06.2022
1289 Clouds 10 1009 96 10000 1.54 30 19:24 28.06.2022
1290 Clouds 11 1010 96 10000 1.03 30 18:37 28.06.2022
1291 Clouds 10 1011 96 10000 1.54 350 16:35 28.06.2022
1292 Clouds 10 1011 96 10000 2.06 20 15:54 28.06.2022
1293 Rain 10 1012 95 5000 1.03 30 14:22 28.06.2022
1294 Rain 10 1013 95 10000 2.06 40 13:55 28.06.2022
1295 Rain 10 1013 96 6000 1.03 110 13:32 28.06.2022
1296 Mist 9 1014 95 2900 4.12 180 11:58 28.06.2022
1297 Drizzle 9 1014 95 10000 5.14 180 09:50 28.06.2022
1298 Clouds 9 1015 95 7000 4.63 170 08:54 28.06.2022
1299 Drizzle 9 1014 94 3500 4.63 180 07:58 28.06.2022
1300 Rain 9 1014 94 6000 4.12 180 07:19 28.06.2022
1301 Rain 10 1016 95 2500 6.17 180 02:41 28.06.2022
1302 Drizzle 11 1017 93 3700 1.54 360 23:48 27.06.2022
1303 Rain 11 1017 93 10000 2.57 120 22:56 27.06.2022
1304 Clouds 11 1016 92 10000 3.6 190 21:39 27.06.2022
1305 Clouds 11 1016 92 10000 3.6 190 21:18 27.06.2022
1306 Clouds 11 1015 91 10000 2.06 150 19:54 27.06.2022
1307 Rain 11 1015 89 10000 4.63 200 18:45 27.06.2022
1308 Clouds 12 1015 85 10000 1.54 260 17:26 27.06.2022
1309 Clouds 12 1015 84 10000 3.6 10 15:43 27.06.2022
1310 Clouds 12 1016 84 10000 4.63 350 13:51 27.06.2022
1311 Clouds 12 1016 82 10000 6.69 10 12:57 27.06.2022
1312 Clouds 12 1016 83 10000 5.14 350 10:51 27.06.2022
1313 Clouds 13 1016 82 10000 7.72 350 09:43 27.06.2022
1314 Clouds 12 1016 83 10000 8.75 10 08:40 27.06.2022
1315 Clouds 12 1014 82 10000 10.29 360 07:39 27.06.2022
1316 Clouds 13 1014 73 10000 8.75 10 05:19 27.06.2022
1317 Clouds 13 1016 74 10000 8.75 360 01:21 27.06.2022
1318 Clouds 12 1016 91 10000 7.72 10 22:48 26.06.2022
1319 Clouds 11 1016 91 10000 6.69 30 21:23 26.06.2022
1320 Clouds 11 1016 90 10000 4.63 40 20:28 26.06.2022
1321 Clouds 10 1017 90 10000 5.66 30 18:33 26.06.2022
1322 Clouds 10 1017 95 10000 3.6 20 17:38 26.06.2022
1323 Clear 10 1018 99 10000 3.09 10 15:35 26.06.2022
1324 Clear 9 1020 93 10000 2.57 10 13:59 26.06.2022
1325 Clear 9 1020 93 10000 3.09 360 13:23 26.06.2022
1326 Clear 9 1018 89 10000 3.09 20 11:39 26.06.2022
1327 Clear 9 1018 93 10000 4.63 20 10:42 26.06.2022
1328 Clear 10 1017 92 10000 3.6 20 09:55 26.06.2022
1329 Clear 12 1016 90 10000 3.09 30 07:47 26.06.2022
1330 Clouds 14 1015 84 10000 3.6 350 05:26 26.06.2022
1331 Clouds 14 1016 88 10000 5.14 340 00:36 26.06.2022
1332 Clouds 14 1016 89 10000 5.14 340 00:18 26.06.2022
1333 Clouds 13 1016 91 10000 5.14 360 23:29 25.06.2022
1334 Clouds 13 1015 91 10000 4.12 10 22:42 25.06.2022
1335 Clouds 13 1015 91 10000 4.63 10 22:24 25.06.2022
1336 Clouds 13 1015 90 10000 4.12 360 21:21 25.06.2022
1337 Clouds 13 1014 90 10000 5.66 340 20:36 25.06.2022
1338 Clouds 13 1014 91 10000 5.14 10 19:56 25.06.2022
1339 Clouds 13 1013 90 10000 5.14 350 18:22 25.06.2022
1340 Clouds 13 1014 90 10000 5.66 330 17:26 25.06.2022
1341 Clouds 13 1014 90 10000 6.69 330 16:26 25.06.2022
1342 Clouds 13 1014 89 10000 7.72 330 14:29 25.06.2022
1343 Clouds 14 1013 90 10000 7.2 360 12:45 25.06.2022
1344 Clouds 14 1013 90 10000 7.72 360 11:55 25.06.2022
1345 Clouds 13 1013 91 10000 6.69 360 09:24 25.06.2022
1346 Clouds 13 1013 92 10000 5.66 360 08:49 25.06.2022
1347 Clouds 13 1012 92 10000 7.72 360 08:20 25.06.2022
1348 Clouds 13 1012 92 6000 7.72 10 06:26 25.06.2022
1349 Clouds 14 1014 76 10000 7.72 10 00:44 25.06.2022
1350 Clouds 14 1014 76 10000 7.72 10 00:44 25.06.2022
1351 Clouds 14 1014 76 10000 7.72 10 00:44 25.06.2022
1352 Clouds 14 1014 77 10000 5.14 20 23:46 24.06.2022
1353 Rain 13 1014 74 10000 4.12 10 22:22 24.06.2022
1354 Rain 13 1014 75 10000 4.12 360 21:22 24.06.2022
1355 Clouds 13 1015 75 10000 5.14 20 20:23 24.06.2022
1356 Rain 12 1015 78 10000 4.12 10 19:24 24.06.2022
1357 Clouds 12 1015 78 10000 5.14 20 18:50 24.06.2022
1358 Clouds 12 1015 78 10000 4.12 20 18:31 24.06.2022
1359 Clouds 12 1015 78 10000 5.14 10 17:46 24.06.2022
1360 Clouds 12 1016 78 10000 6.69 10 16:32 24.06.2022
1361 Clouds 12 1017 74 10000 5.66 360 14:29 24.06.2022
1362 Clouds 13 1017 76 10000 5.66 350 13:55 24.06.2022
1363 Clouds 12 1018 78 10000 5.14 360 12:28 24.06.2022
1364 Clouds 12 1018 77 10000 5.14 10 11:40 24.06.2022
1365 Clouds 11 1019 75 10000 4.63 10 10:26 24.06.2022
1366 Clouds 12 1019 77 10000 4.12 20 09:41 24.06.2022
1367 Clouds 12 1019 77 10000 5.14 20 08:53 24.06.2022
1368 Rain 12 1019 76 10000 5.14 30 07:33 24.06.2022
1369 Rain 12 1019 75 10000 6.17 20 06:42 24.06.2022
1370 Rain 12 1019 75 10000 6.17 20 06:18 24.06.2022
1371 Rain 13 1020 71 10000 8.75 10 03:33 24.06.2022
1372 Clouds 8 1022 87 10000 4.63 20 22:59 23.06.2022
1373 Clouds 8 1022 88 10000 4.12 30 22:40 23.06.2022
1374 Clouds 8 1022 89 10000 4.63 20 20:58 23.06.2022
1375 Clouds 8 1021 91 10000 5.14 10 20:35 23.06.2022
1376 Clouds 9 1021 90 10000 4.63 50 19:34 23.06.2022
1377 Clouds 8 1022 91 10000 3.09 40 17:53 23.06.2022
1378 Clouds 8 1023 90 10000 3.09 50 17:23 23.06.2022
1379 Clouds 9 1023 89 10000 3.6 60 15:57 23.06.2022
1380 Clouds 9 1024 89 10000 4.63 50 15:24 23.06.2022
1381 Clouds 9 1024 89 10000 5.14 20 13:45 23.06.2022
1382 Clouds 8 1025 90 10000 5.66 20 11:27 23.06.2022
1383 Clouds 8 1026 87 10000 3.09 30 10:37 23.06.2022
1384 Clouds 7 1025 92 10000 3.6 20 09:18 23.06.2022
1385 Clouds 10 1024 80 10000 3.09 30 03:39 23.06.2022
1386 Clouds 7 1027 95 10000 2.57 360 00:26 23.06.2022
1387 Clouds 6 1029 87 10000 2.06 20 23:41 22.06.2022
1388 Clouds 6 1029 87 10000 2.06 20 23:41 22.06.2022
1389 Clouds 4 1029 93 10000 3.6 10 22:41 22.06.2022
1390 Clouds 6 1027 94 10000 3.09 40 21:22 22.06.2022
1391 Clouds 4 1028 93 10000 2.57 50 20:43 22.06.2022
1392 Clouds 4 1028 93 10000 2.06 30 19:58 22.06.2022
1393 Clear 4 1028 93 10000 2.06 30 18:49 22.06.2022
1394 Clear 5 1028 93 10000 2.06 50 17:28 22.06.2022
1395 Clear 5 1028 93 10000 2.06 50 17:28 22.06.2022
1396 Clear 5 1028 93 10000 2.06 30 16:33 22.06.2022
1397 Clouds 5 1024 94 10000 1.54 20 15:27 22.06.2022
1398 Clouds 5 1025 94 10000 1.54 10 14:21 22.06.2022
1399 Clouds 5 1025 94 10000 1.54 70 13:42 22.06.2022
1400 Clouds 5 1025 94 10000 1.54 70 13:23 22.06.2022
1401 Clear 5 1025 93 10000 1.03 90 11:50 22.06.2022
1402 Clear 5 1025 93 10000 1.03 90 11:50 22.06.2022
1403 Clear 6 1025 91 10000 4.12 180 10:57 22.06.2022
1404 Clear 6 1025 91 10000 4.63 170 10:19 22.06.2022
1405 Clouds 7 1025 90 10000 4.63 170 08:37 22.06.2022
1406 Clouds 10 1023 84 10000 5.14 180 05:38 22.06.2022
1407 Clouds 10 1025 86 10000 5.66 170 01:39 22.06.2022
1408 Clouds 10 1025 89 10000 5.66 140 00:36 22.06.2022
1409 Clouds 8 1024 91 10000 5.66 180 22:37 21.06.2022
1410 Clouds 8 1023 92 10000 7.72 170 19:57 21.06.2022
1411 Clouds 8 1023 93 7000 7.2 180 18:36 21.06.2022
1412 Clouds 8 1023 93 6000 8.23 160 17:39 21.06.2022
1413 Clouds 9 1023 85 10000 9.26 170 14:22 21.06.2022
1414 Clouds 9 1023 83 10000 10.29 180 11:52 21.06.2022
1415 Clouds 9 1023 83 10000 10.8 180 10:19 21.06.2022
1416 Clouds 10 1023 80 10000 10.29 160 08:48 21.06.2022
1417 Clouds 10 1022 84 10000 9.77 160 07:35 21.06.2022
1418 Clouds 9 1024 85 10000 9.77 170 02:27 21.06.2022
1419 Clouds 8 1024 84 10000 10.8 160 23:26 20.06.2022
1420 Clouds 8 1024 89 10000 11.83 160 21:58 20.06.2022
1421 Clouds 8 1024 91 7000 10.8 170 21:30 20.06.2022
1422 Clouds 7 1022 88 10000 10.29 160 19:49 20.06.2022
1423 Clouds 7 1023 88 10000 10.8 170 18:53 20.06.2022
1424 Clouds 7 1023 87 10000 10.29 170 18:23 20.06.2022
1425 Clouds 7 1024 91 10000 9.26 160 17:36 20.06.2022
1426 Clouds 7 1023 86 3600 9.77 160 15:58 20.06.2022
1427 Clouds 8 1023 75 10000 11.83 160 13:34 20.06.2022
1428 Clouds 8 1024 74 10000 12.86 160 11:30 20.06.2022
1429 Clouds 8 1023 72 10000 12.35 160 09:48 20.06.2022
1430 Clouds 8 1023 74 10000 12.35 160 08:45 20.06.2022
1431 Clouds 8 1023 76 10000 11.83 160 06:49 20.06.2022
1432 Clouds 8 1021 82 10000 12.86 160 03:29 20.06.2022
1433 Clouds 8 1022 77 10000 14.4 160 00:37 20.06.2022
1434 Clouds 8 1021 77 10000 14.92 160 23:25 19.06.2022
1435 Clouds 8 1021 77 10000 14.4 160 22:19 19.06.2022
1436 Clouds 9 1021 77 10000 14.92 160 21:41 19.06.2022
1437 Clouds 9 1019 82 10000 12.86 160 20:46 19.06.2022
1438 Clouds 8 1019 89 10000 13.89 160 19:48 19.06.2022
1439 Clouds 8 1019 88 10000 13.89 170 19:24 19.06.2022
1440 Rain 8 1019 90 10000 13.89 170 18:31 19.06.2022
1441 Rain 8 1018 91 6000 12.86 170 17:39 19.06.2022
1442 Clouds 9 1018 89 10000 12.86 170 16:38 19.06.2022
1443 Clouds 8 1018 87 10000 12.86 170 15:44 19.06.2022
1444 Clouds 8 1018 88 10000 12.86 170 15:26 19.06.2022
1445 Clouds 9 1018 87 10000 13.38 170 14:30 19.06.2022
1446 Clouds 8 1018 88 10000 12.35 180 13:43 19.06.2022
1447 Clouds 9 1018 88 10000 12.86 170 11:53 19.06.2022
1448 Clouds 9 1017 87 10000 12.86 190 10:51 19.06.2022
1449 Clouds 10 1016 79 10000 11.32 180 08:55 19.06.2022
1450 Clouds 9 1016 77 10000 11.32 180 08:30 19.06.2022
1451 Clouds 9 1015 77 10000 9.26 180 06:48 19.06.2022
1452 Clouds 9 1016 86 10000 8.75 170 03:37 19.06.2022
1453 Clouds 9 1016 89 10000 9.26 170 00:28 19.06.2022
1454 Clouds 9 1015 89 10000 9.26 170 23:52 18.06.2022
1455 Clouds 9 1015 89 10000 9.26 160 23:34 18.06.2022
1456 Drizzle 9 1015 88 9000 9.26 170 21:54 18.06.2022
1457 Clouds 9 1014 86 10000 9.26 150 20:51 18.06.2022
1458 Clouds 9 1014 87 10000 9.77 160 20:18 18.06.2022
1459 Clouds 10 1015 79 10000 9.77 150 18:55 18.06.2022
1460 Clouds 10 1015 79 10000 9.77 160 18:30 18.06.2022
1461 Clouds 10 1015 80 10000 9.26 160 17:29 18.06.2022
1462 Clouds 10 1016 79 10000 11.32 170 15:46 18.06.2022
1463 Rain 10 1016 83 10000 11.32 160 14:50 18.06.2022
1464 Rain 10 1017 87 10000 10.8 160 13:58 18.06.2022
1465 Rain 10 1017 94 8000 10.29 170 12:28 18.06.2022
1466 Rain 11 1017 94 10000 8.75 180 10:59 18.06.2022
1467 Rain 11 1017 94 10000 8.75 180 09:39 18.06.2022
1468 Rain 11 1017 93 10000 7.2 180 08:40 18.06.2022
1469 Rain 11 1017 93 7000 6.17 190 07:34 18.06.2022
1470 Clouds 14 1016 91 10000 3.6 360 05:20 18.06.2022
1471 Clouds 14 1018 90 10000 5.66 10 01:50 18.06.2022
1472 Clouds 14 1019 90 10000 4.12 40 01:21 18.06.2022
1473 Clouds 13 1018 93 10000 3.6 10 00:23 18.06.2022
1474 Clouds 13 1018 93 10000 3.6 10 00:23 18.06.2022
1475 Clouds 12 1019 95 10000 2.06 10 23:37 17.06.2022
1476 Clouds 11 1020 99 10000 1.54 40 22:29 17.06.2022
1477 Clouds 10 1022 93 10000 1.54 40 20:29 17.06.2022
1478 Clouds 9 1022 93 10000 3.6 10 19:24 17.06.2022
1479 Clouds 9 1022 93 10000 3.6 10 19:24 17.06.2022
1480 Clouds 8 1023 93 10000 1.54 10 17:58 17.06.2022
1481 Clouds 8 1023 93 10000 2.57 360 16:44 17.06.2022
1482 Clouds 9 1023 93 10000 2.57 50 16:25 17.06.2022
1483 Clouds 9 1023 87 10000 1.54 60 15:40 17.06.2022
1484 Clouds 9 1021 88 10000 1.54 60 14:23 17.06.2022
1485 Clouds 10 1021 87 10000 1.03 80 13:58 17.06.2022
1486 Clouds 10 1021 87 10000 0.51 30 13:38 17.06.2022
1487 Clouds 10 1021 88 10000 1.03 360 12:28 17.06.2022
1488 Clouds 10 1021 88 10000 1.54 360 11:55 17.06.2022
1489 Clouds 10 1022 88 10000 2.06 350 11:33 17.06.2022
1490 Clouds 10 1022 86 10000 4.63 360 09:36 17.06.2022
1491 Clouds 10 1022 84 10000 2.06 30 08:26 17.06.2022
1492 Clouds 12 1020 84 7000 2.06 250 06:45 17.06.2022
1493 Clouds 14 1020 75 10000 3.09 160 03:59 17.06.2022
1494 Clouds 14 1020 78 10000 5.14 150 01:56 17.06.2022
1495 Clouds 12 1020 81 10000 5.66 150 23:47 16.06.2022
1496 Clouds 11 1019 84 10000 6.17 140 22:42 16.06.2022
1497 Clouds 12 1018 85 10000 6.69 150 21:22 16.06.2022
1498 Clouds 12 1017 85 10000 6.69 160 20:52 16.06.2022
1499 Clouds 12 1016 85 10000 7.72 160 20:33 16.06.2022
1500 Clouds 12 1015 87 9000 7.2 180 19:41 16.06.2022
1501 Clouds 12 1014 79 10000 4.63 240 18:24 16.06.2022
1502 Haze 13 1014 83 4400 1.03 330 17:42 16.06.2022
1503 Clouds 13 1013 80 10000 3.6 350 16:35 16.06.2022
1504 Clouds 14 1013 79 10000 4.63 350 15:22 16.06.2022
1505 Clouds 14 1013 76 10000 5.66 350 14:37 16.06.2022
1506 Clouds 14 1013 74 10000 5.14 350 13:20 16.06.2022
1507 Clouds 14 1012 78 10000 6.17 360 12:36 16.06.2022
1508 Clouds 14 1012 77 10000 5.66 350 11:49 16.06.2022
1509 Clouds 14 1012 75 10000 6.69 350 10:55 16.06.2022
1510 Clouds 14 1012 76 10000 7.2 350 09:53 16.06.2022
1511 Clouds 14 1011 76 10000 6.17 350 09:21 16.06.2022
1512 Clouds 14 1011 74 10000 8.23 360 08:28 16.06.2022
1513 Clouds 14 1010 74 10000 7.72 10 07:24 16.06.2022
1514 Rain 14 1010 71 10000 5.14 340 04:42 16.06.2022
1515 Clouds 16 1011 61 10000 8.75 310 02:20 16.06.2022
1516 Clouds 15 1011 61 10000 7.2 320 01:35 16.06.2022
1517 Clouds 15 1011 61 10000 7.2 320 01:35 16.06.2022
1518 Clouds 15 1011 66 10000 5.14 340 00:39 16.06.2022
1519 Clouds 15 1013 55 9000 5.14 320 23:43 15.06.2022
1520 Clouds 13 1013 67 10000 3.6 340 22:35 15.06.2022
1521 Clouds 14 1012 54 10000 3.09 350 21:22 15.06.2022
1522 Clouds 13 1012 62 10000 2.06 340 20:42 15.06.2022
1523 Clouds 13 1012 62 10000 2.06 340 20:23 15.06.2022
1524 Clouds 13 1012 58 10000 4.63 50 19:20 15.06.2022
1525 Clouds 11 1012 66 10000 4.12 40 17:56 15.06.2022
1526 Clouds 7 1013 87 10000 2.57 360 16:55 15.06.2022
1527 Clouds 7 1012 81 10000 1.03 360 15:36 15.06.2022
1528 Clouds 8 1012 76 10000 1.54 10 14:18 15.06.2022
1529 Clear 11 1011 62 10000 3.09 40 12:54 15.06.2022
1530 Clear 14 1011 51 10000 3.09 280 11:53 15.06.2022
1531 Clear 14 1009 51 10000 4.12 20 10:24 15.06.2022
1532 Clear 13 1009 58 10000 4.63 350 09:42 15.06.2022
1533 Clear 14 1008 54 10000 4.12 330 08:37 15.06.2022
1534 Clear 15 1007 47 10000 3.09 320 06:34 15.06.2022
1535 Clear 16 1006 39 10000 3.6 310 04:34 15.06.2022
1536 Clouds 13 1004 67 10000 4.12 330 01:54 15.06.2022
1537 Clouds 13 1004 65 10000 4.63 340 00:50 15.06.2022
1538 Clouds 13 1004 65 10000 5.66 350 23:39 14.06.2022
1539 Clouds 13 1003 65 10000 5.66 350 23:19 14.06.2022
1540 Clouds 13 1003 63 10000 7.2 330 22:21 14.06.2022
1541 Clouds 13 1002 65 10000 5.14 340 21:36 14.06.2022
1542 Clouds 13 1001 65 10000 5.14 340 20:54 14.06.2022
1543 Clouds 13 1001 66 10000 5.14 330 20:28 14.06.2022
1544 Clouds 13 1001 65 10000 10.8 320 19:18 14.06.2022
1545 Clouds 13 1001 66 10000 7.72 330 17:54 14.06.2022
1546 Clouds 13 1001 66 10000 5.66 340 16:43 14.06.2022
1547 Clouds 13 1000 65 10000 7.2 330 15:50 14.06.2022
1548 Clouds 13 1000 65 10000 7.72 340 15:24 14.06.2022
1549 Clouds 13 1000 68 10000 6.69 360 14:33 14.06.2022
1550 Clouds 13 1000 68 10000 5.66 350 13:42 14.06.2022
1551 Clouds 13 999 65 10000 5.14 340 12:44 14.06.2022
1552 Clouds 14 999 60 10000 5.66 330 11:38 14.06.2022
1553 Clouds 14 998 62 10000 9.26 310 10:47 14.06.2022
1554 Clouds 14 998 62 10000 8.75 300 10:20 14.06.2022
1555 Clouds 14 997 74 10000 3.6 340 08:48 14.06.2022
1556 Clouds 14 996 73 10000 7.72 340 07:34 14.06.2022
1557 Clouds 15 996 72 10000 9.26 350 05:28 14.06.2022
1558 Clouds 14 997 68 10000 10.29 340 02:58 14.06.2022
1559 Clouds 13 997 64 10000 9.77 360 00:53 14.06.2022
1560 Clouds 12 995 67 10000 6.69 350 23:39 13.06.2022
1561 Clouds 11 996 64 10000 7.2 330 22:26 13.06.2022
1562 Clouds 11 996 61 10000 5.14 340 21:50 13.06.2022
1563 Clouds 11 994 68 10000 6.17 330 20:42 13.06.2022
1564 Clouds 11 991 69 10000 5.14 340 19:35 13.06.2022
1565 Clouds 9 992 77 10000 3.6 350 18:28 13.06.2022
1566 Clouds 9 996 76 10000 4.12 30 17:47 13.06.2022
1567 Clouds 9 995 81 10000 4.63 20 16:52 13.06.2022
1568 Clear 8 995 81 10000 2.57 20 15:39 13.06.2022
1569 Clouds 11 995 76 10000 1.54 270 14:47 13.06.2022
1570 Clouds 13 993 58 10000 6.17 190 13:54 13.06.2022
1571 Clouds 8 990 77 10000 5.14 170 12:48 13.06.2022
1572 Clouds 9 988 78 10000 5.66 240 11:34 13.06.2022
1573 Clouds 10 985 80 10000 4.12 300 10:27 13.06.2022
1574 Clouds 11 985 71 10000 4.12 330 09:39 13.06.2022
1575 Clouds 12 982 72 10000 6.69 300 08:24 13.06.2022
1576 Clouds 12 979 75 10000 7.72 320 06:33 13.06.2022
1577 Rain 12 976 72 10000 10.8 320 03:28 13.06.2022
1578 Clouds 13 979 64 10000 9.83 46 01:38 13.06.2022
1579 Rain 11 979 75 10000 10.8 330 00:22 13.06.2022
1580 Clouds 11 978 74 10000 9.26 330 23:29 12.06.2022
1581 Clouds 11 978 73 10000 8.75 330 22:23 12.06.2022
1582 Rain 10 978 74 10000 8.23 330 21:28 12.06.2022
1583 Clouds 11 977 72 10000 7.72 330 20:39 12.06.2022
1584 Clouds 10 978 80 9000 11.83 320 19:38 12.06.2022
1585 Clouds 11 977 79 10000 7.2 340 18:39 12.06.2022
1586 Clouds 12 979 69 10000 7.72 330 16:42 12.06.2022
1587 Clouds 12 978 75 10000 6.69 340 15:30 12.06.2022
1588 Clouds 12 980 80 10000 7.2 330 14:32 12.06.2022
1589 Rain 13 980 74 10000 8.23 340 13:55 12.06.2022
1590 Clouds 13 980 73 10000 8.75 350 12:58 12.06.2022
1591 Rain 13 981 80 10000 8.75 340 11:47 12.06.2022
1592 Clouds 14 980 82 10000 11.83 350 10:45 12.06.2022
1593 Rain 13 981 87 10000 11.32 350 09:25 12.06.2022
1594 Clouds 12 981 89 10000 9.77 350 08:48 12.06.2022
1595 Rain 13 982 85 10000 14.92 360 07:40 12.06.2022
1596 Clouds 13 984 87 8000 11.32 350 05:38 12.06.2022
1597 Rain 13 985 92 10000 10.29 10 03:38 12.06.2022
1598 Clouds 12 987 90 9000 10.8 30 01:43 12.06.2022
1599 Rain 12 989 89 10000 9.26 10 00:59 12.06.2022
1600 Rain 12 990 89 10000 8.23 20 00:26 12.06.2022
1601 Rain 12 990 89 10000 6.69 20 23:53 11.06.2022
1602 Rain 12 989 90 7000 7.2 20 22:40 11.06.2022
1603 Rain 11 990 91 7000 7.2 20 22:21 11.06.2022
1604 Clouds 12 991 87 10000 5.14 330 20:55 11.06.2022
1605 Rain 12 990 85 10000 4.63 340 20:24 11.06.2022
1606 Rain 12 991 78 10000 6.17 330 19:26 11.06.2022
1607 Clouds 13 992 77 10000 7.2 340 18:36 11.06.2022
1608 Clouds 13 992 75 10000 7.72 330 17:52 11.06.2022
1609 Clouds 12 993 76 10000 6.17 330 17:29 11.06.2022
1610 Clouds 12 993 73 10000 7.2 330 16:59 11.06.2022
1611 Clouds 12 993 73 10000 7.72 330 16:38 11.06.2022
1612 Clouds 12 994 68 10000 8.23 330 15:45 11.06.2022
1613 Clouds 12 994 70 10000 7.72 330 15:45 11.06.2022
1614 Clear 12 995 69 10000 7.2 330 13:54 11.06.2022
1615 Clear 12 995 66 10000 7.72 330 13:25 11.06.2022
1616 Clear 12 994 70 10000 9.26 330 10:58 11.06.2022
1617 Clear 12 995 70 10000 7.72 330 10:22 11.06.2022
1618 Clear 12 994 69 10000 8.23 340 09:38 11.06.2022
1619 Clear 13 992 65 10000 6.17 340 07:52 11.06.2022
1620 Clear 13 991 65 10000 6.17 330 06:31 11.06.2022
1621 Clear 14 990 65 10000 5.14 340 05:22 11.06.2022
1622 Clouds 15 988 69 10000 8.75 330 01:53 11.06.2022
1623 Clouds 14 988 69 10000 8.75 340 01:34 11.06.2022
1624 Clouds 14 987 72 10000 7.2 340 00:34 11.06.2022
1625 Clouds 13 986 84 10000 11.83 340 22:35 10.06.2022
1626 Rain 13 987 84 10000 10.8 320 21:54 10.06.2022
1627 Clouds 13 986 82 10000 11.83 340 20:55 10.06.2022
1628 Clouds 13 985 85 8000 9.26 350 20:36 10.06.2022
1629 Rain 13 984 87 8000 9.26 350 20:18 10.06.2022
1630 Rain 12 986 86 10000 10.29 340 19:18 10.06.2022
1631 Rain 12 987 86 7000 8.75 330 18:20 10.06.2022
1632 Clouds 13 987 85 10000 8.75 330 17:36 10.06.2022
1633 Rain 13 987 84 10000 8.75 330 16:58 10.06.2022
1634 Rain 13 988 81 10000 8.75 350 15:50 10.06.2022
1635 Clouds 13 988 81 10000 8.75 350 15:30 10.06.2022
1636 Clouds 12 988 88 7000 8.75 330 13:52 10.06.2022
1637 Thunderstorm 12 990 85 4400 7.72 340 12:41 10.06.2022
1638 Clouds 14 989 75 10000 11.83 340 11:40 10.06.2022
1639 Clouds 13 989 75 10000 13.89 330 10:43 10.06.2022
1640 Clouds 14 990 68 10000 13.89 340 09:44 10.06.2022
1641 Clear 14 990 68 10000 12.35 340 08:30 10.06.2022
1642 Clear 13 990 65 10000 9.26 330 07:20 10.06.2022
1643 Clear 13 990 64 10000 9.26 330 06:43 10.06.2022
1644 Clear 13 990 64 10000 9.26 330 06:24 10.06.2022
1645 Clear 15 987 66 10000 8.23 320 03:50 10.06.2022
1646 Clouds 15 988 72 7000 9.26 330 01:41 10.06.2022
1647 Clouds 14 987 74 10000 8.75 340 00:27 10.06.2022
1648 Clouds 14 987 78 10000 8.23 330 23:29 09.06.2022
1649 Clouds 13 986 85 10000 7.72 340 21:58 09.06.2022
1650 Clouds 13 985 89 7000 10.8 340 21:32 09.06.2022
1651 Clouds 13 985 86 7000 12.86 350 20:54 09.06.2022
1652 Rain 14 985 86 7000 12.86 350 20:54 09.06.2022
1653 Rain 13 985 84 10000 14.4 350 19:59 09.06.2022
1654 Rain 14 986 82 10000 12.86 350 18:54 09.06.2022
1655 Rain 14 987 80 10000 12.35 340 18:21 09.06.2022
1656 Clouds 13 988 83 10000 9.77 350 16:50 09.06.2022
1657 Clouds 12 988 87 10000 9.77 340 15:48 09.06.2022
1658 Clouds 13 989 74 10000 8.23 340 14:35 09.06.2022
1659 Clear 13 990 72 10000 9.26 340 13:51 09.06.2022
1660 Clear 13 990 72 10000 9.26 340 13:27 09.06.2022
1661 Clear 12 991 76 10000 7.72 330 11:54 09.06.2022
1662 Clear 12 990 78 10000 7.72 330 11:18 09.06.2022
1663 Clear 13 989 79 10000 7.72 330 09:43 09.06.2022
1664 Clear 13 988 79 10000 7.72 330 09:23 09.06.2022
1665 Clouds 13 988 82 10000 10.8 330 07:44 09.06.2022
1666 Clouds 13 988 83 10000 7.2 340 05:48 09.06.2022
1667 Rain 13 990 91 10000 9.77 10 02:38 09.06.2022
1668 Rain 13 993 88 10000 8.75 350 23:36 08.06.2022
1669 Rain 13 994 88 10000 7.2 20 22:58 08.06.2022
1670 Clouds 13 993 90 10000 8.75 10 22:26 08.06.2022
1671 Rain 13 994 90 10000 8.23 20 21:52 08.06.2022
1672 Clouds 13 994 87 10000 6.17 10 20:59 08.06.2022
1673 Clouds 14 994 88 10000 8.75 350 20:20 08.06.2022
1674 Clouds 14 994 90 10000 6.17 330 19:38 08.06.2022
1675 Clouds 13 995 89 10000 7.72 340 18:43 08.06.2022
1676 Thunderstorm 12 997 89 6000 10.29 340 16:54 08.06.2022
1677 Rain 14 998 86 10000 11.83 350 15:44 08.06.2022
1678 Clouds 14 998 83 10000 11.32 350 13:44 08.06.2022
1679 Clouds 14 1000 84 10000 11.32 340 11:52 08.06.2022
1680 Clouds 14 1000 83 10000 11.83 350 11:29 08.06.2022
1681 Clouds 16 1000 86 10000 12.35 350 09:55 08.06.2022
1682 Clouds 16 1000 85 10000 10.8 340 09:21 08.06.2022
1683 Clouds 16 1000 84 10000 9.26 340 08:22 08.06.2022
1684 Clouds 16 1000 83 10000 9.26 350 05:51 08.06.2022
1685 Clouds 16 1001 78 10000 9.26 350 03:52 08.06.2022
1686 Clouds 15 1003 83 10000 7.72 340 00:29 08.06.2022
1687 Clouds 15 1003 87 10000 8.23 340 23:27 07.06.2022
1688 Clouds 14 1003 86 10000 7.72 340 22:44 07.06.2022
1689 Clouds 15 1003 87 10000 9.26 340 22:23 07.06.2022
1690 Clouds 14 1003 88 10000 7.72 340 21:33 07.06.2022
1691 Clouds 15 1002 91 10000 7.2 340 20:58 07.06.2022
1692 Clouds 15 1002 91 10000 8.75 350 20:32 07.06.2022
1693 Clouds 14 1001 90 7000 6.17 10 19:38 07.06.2022
1694 Clouds 14 1001 88 10000 6.69 10 18:22 07.06.2022
1695 Clouds 14 1002 88 10000 7.2 360 17:25 07.06.2022
1696 Clouds 14 1002 89 10000 6.69 360 16:42 07.06.2022
1697 Clouds 13 1003 90 10000 5.14 30 15:47 07.06.2022
1698 Clouds 13 1002 90 10000 5.14 30 15:26 07.06.2022
1699 Clouds 13 1002 90 10000 5.14 30 15:26 07.06.2022
1700 Clouds 13 1002 90 10000 3.6 30 14:47 07.06.2022
1701 Clouds 13 1002 90 10000 4.63 20 14:29 07.06.2022
1702 Clouds 13 1001 92 10000 4.63 350 13:30 07.06.2022
1703 Mist 14 1002 93 2400 8.75 360 12:45 07.06.2022
1704 Clouds 14 1003 89 10000 10.8 10 11:37 07.06.2022
1705 Clouds 16 1003 75 10000 8.75 20 10:26 07.06.2022
1706 Clouds 15 1003 77 10000 8.75 20 08:49 07.06.2022
1707 Clouds 15 1004 74 10000 7.2 20 07:33 07.06.2022
1708 Clouds 15 1005 75 10000 10.8 10 05:58 07.06.2022
1709 Clouds 15 1007 78 10000 10.29 360 03:31 07.06.2022
1710 Drizzle 15 1009 87 7000 9.77 360 00:45 07.06.2022
1711 Clouds 15 1009 81 10000 11.32 360 23:41 06.06.2022
1712 Clouds 15 1009 81 10000 8.75 360 22:47 06.06.2022
1713 Clouds 14 1009 81 10000 7.72 20 21:56 06.06.2022
1714 Clouds 15 1009 81 10000 5.66 10 20:35 06.06.2022
1715 Clouds 14 1010 83 10000 5.66 20 19:24 06.06.2022
1716 Clouds 14 1010 85 10000 5.14 10 18:47 06.06.2022
1717 Clouds 14 1011 86 10000 4.63 20 17:55 06.06.2022
1718 Clouds 14 1012 86 10000 4.63 10 16:51 06.06.2022
1719 Clouds 14 1012 88 10000 3.6 40 15:44 06.06.2022
1720 Clouds 13 1013 88 10000 4.63 30 14:57 06.06.2022
1721 Clouds 14 1013 88 10000 4.12 30 13:43 06.06.2022
1722 Clouds 14 1013 88 10000 4.12 40 13:19 06.06.2022
1723 Clouds 14 1014 87 10000 4.12 30 12:33 06.06.2022
1724 Clouds 14 1014 86 10000 4.63 30 11:45 06.06.2022
1725 Clouds 14 1014 88 10000 6.17 10 09:51 06.06.2022
1726 Clouds 13 1014 88 10000 6.69 360 08:44 06.06.2022
1727 Clouds 13 1013 87 10000 5.14 20 07:44 06.06.2022
1728 Clouds 14 1014 85 10000 6.17 360 06:49 06.06.2022
1729 Clouds 15 1014 84 10000 7.72 360 04:38 06.06.2022
1730 Clouds 14 1014 86 10000 8.23 360 01:53 06.06.2022
1731 Clouds 14 1015 85 10000 8.23 360 00:57 06.06.2022
1732 Clouds 14 1015 85 10000 9.26 10 00:34 06.06.2022
1733 Rain 13 1014 83 10000 9.26 10 22:59 05.06.2022
1734 Clouds 13 1014 82 10000 7.72 360 22:19 05.06.2022
1735 Rain 13 1013 80 10000 8.75 10 20:23 05.06.2022
1736 Clouds 13 1013 80 10000 8.75 360 19:23 05.06.2022
1737 Clouds 13 1013 77 10000 5.66 20 18:18 05.06.2022
1738 Rain 13 1013 77 10000 4.12 30 17:38 05.06.2022
1739 Rain 12 1013 76 10000 4.12 30 17:38 05.06.2022
1740 Clouds 13 1014 74 10000 5.66 20 17:20 05.06.2022
1741 Rain 13 1014 73 10000 5.66 20 16:47 05.06.2022
1742 Clouds 13 1013 71 10000 6.17 10 15:25 05.06.2022
1743 Clouds 13 1014 71 10000 5.14 20 14:21 05.06.2022
1744 Clouds 12 1015 77 10000 4.12 30 11:58 05.06.2022
1745 Clouds 12 1014 73 10000 4.12 350 10:45 05.06.2022
1746 Clouds 12 1014 73 10000 4.63 20 10:24 05.06.2022
1747 Clouds 13 1014 75 10000 5.14 20 09:33 05.06.2022
1748 Rain 12 1014 74 10000 5.14 10 08:23 05.06.2022
1749 Rain 12 1014 75 10000 4.12 10 06:23 05.06.2022
1750 Clouds 13 1014 78 10000 4.63 10 05:19 05.06.2022
1751 Clouds 13 1016 87 10000 4.12 10 02:43 05.06.2022
1752 Clouds 10 1017 90 10000 5.14 340 01:23 05.06.2022
1753 Clouds 10 1017 90 10000 5.14 340 01:23 05.06.2022
1754 Clouds 8 1020 87 10000 3.09 20 22:51 04.06.2022
1755 Clouds 7 1020 87 10000 5.14 10 21:30 04.06.2022
1756 Clouds 6 1020 87 10000 2.57 30 19:27 04.06.2022
1757 Clouds 7 1020 87 10000 2.57 50 16:48 04.06.2022
1758 Clouds 6 1020 93 10000 3.09 20 16:20 04.06.2022
1759 Clouds 8 1021 93 10000 3.09 340 15:39 04.06.2022
1760 Clear 8 1019 87 10000 2.06 50 13:59 04.06.2022
1761 Clear 7 1019 90 10000 2.57 20 11:43 04.06.2022
1762 Clear 8 1019 87 10000 2.57 40 10:55 04.06.2022
1763 Clear 8 1019 88 10000 2.06 10 09:59 04.06.2022
1764 Clear 9 1019 88 10000 1.54 30 09:38 04.06.2022
1765 Clear 9 1018 86 10000 1.54 60 08:39 04.06.2022
1766 Clear 10 1017 82 10000 2.06 250 07:00 04.06.2022
1767 Clouds 13 1016 79 10000 3.09 230 04:29 04.06.2022
1768 Clouds 11 1016 87 10000 6.69 160 00:24 04.06.2022
1769 Clouds 9 1016 84 10000 5.14 180 23:19 03.06.2022
1770 Clouds 9 1014 84 10000 6.17 190 21:54 03.06.2022
1771 Clouds 9 1013 87 10000 7.2 190 20:42 03.06.2022
1772 Clouds 9 1012 87 10000 6.69 190 19:49 03.06.2022
1773 Clouds 9 1011 87 10000 8.23 170 16:59 03.06.2022
1774 Clouds 10 1010 86 10000 8.23 190 16:30 03.06.2022
1775 Clouds 9 1010 88 10000 9.26 170 14:47 03.06.2022
1776 Rain 10 1008 82 10000 9.26 180 12:26 03.06.2022
1777 Rain 11 1006 82 10000 10.29 180 09:58 03.06.2022
1778 Drizzle 11 1006 85 10000 9.26 180 09:29 03.06.2022
1779 Clouds 11 1003 83 10000 10.29 170 07:50 03.06.2022
1780 Clouds 11 1003 84 10000 8.75 180 07:19 03.06.2022
1781 Clouds 11 1003 86 10000 9.26 170 06:30 03.06.2022
1782 Clouds 11 1001 91 10000 8.23 170 04:35 03.06.2022
1783 Clouds 12 998 93 10000 9.77 190 00:21 03.06.2022
1784 Clouds 11 996 92 10000 7.2 180 22:35 02.06.2022
1785 Clouds 11 994 93 10000 7.2 190 20:58 02.06.2022
1786 Drizzle 10 993 94 10000 1.03 90 19:59 02.06.2022
1787 Clouds 11 993 94 10000 1.03 350 19:40 02.06.2022
1788 Clouds 11 993 94 10000 0.51 60 19:18 02.06.2022
1789 Clouds 12 991 88 10000 2.06 30 16:30 02.06.2022
1790 Clouds 13 990 88 10000 2.57 30 15:58 02.06.2022
1791 Clouds 13 989 90 10000 3.6 350 13:38 02.06.2022
1792 Clouds 13 989 91 10000 3.6 350 13:20 02.06.2022
1793 Clouds 13 988 90 10000 4.63 20 11:18 02.06.2022
1794 Clouds 12 988 93 10000 5.66 20 10:19 02.06.2022
1795 Clouds 12 988 93 10000 6.17 20 09:27 02.06.2022
1796 Clouds 11 988 93 10000 4.12 20 08:25 02.06.2022
1797 Rain 12 988 92 5000 5.14 330 06:50 02.06.2022
1798 Rain 15 989 85 10000 6.17 10 03:54 02.06.2022
1799 Rain 14 990 81 10000 8.23 350 02:22 02.06.2022
1800 Haze 14 993 89 5000 9.77 10 23:36 01.06.2022
1801 Clouds 14 993 89 10000 9.26 360 22:21 01.06.2022
1802 Haze 14 992 91 4500 8.75 350 21:26 01.06.2022
1803 Rain 14 991 90 3400 10.29 350 20:39 01.06.2022
1804 Rain 15 992 89 10000 11.32 340 19:52 01.06.2022
1805 Clouds 15 992 87 10000 10.8 350 18:58 01.06.2022
1806 Clouds 16 993 82 10000 11.32 340 17:40 01.06.2022
1807 Clouds 16 993 86 10000 13.38 350 16:33 01.06.2022
1808 Clouds 16 993 86 4200 11.83 360 14:52 01.06.2022
1809 Clouds 15 994 83 10000 13.89 360 13:44 01.06.2022
1810 Clouds 15 994 89 10000 8.75 330 12:25 01.06.2022
1811 Clouds 15 993 86 10000 10.29 10 09:36 01.06.2022
1812 Rain 14 993 85 10000 9.26 340 08:29 01.06.2022
1813 Clouds 16 991 81 10000 11.32 350 07:22 01.06.2022
1814 Rain 16 991 86 8000 13.38 340 05:22 01.06.2022
1815 Rain 16 990 90 10000 12.86 350 00:20 01.06.2022
1816 Rain 16 991 85 10000 11.32 340 22:59 31.05.2022
1817 Clouds 16 991 84 10000 11.83 340 22:33 31.05.2022
1818 Drizzle 16 991 91 10000 11.83 350 21:45 31.05.2022
1819 Clouds 16 991 91 10000 9.77 350 20:45 31.05.2022
1820 Clouds 16 991 91 10000 9.77 350 20:45 31.05.2022
1821 Clouds 16 991 91 10000 11.83 360 19:57 31.05.2022
1822 Rain 15 991 92 10000 10.8 20 18:50 31.05.2022
1823 Rain 15 992 91 10000 9.26 10 17:49 31.05.2022
1824 Rain 15 992 89 9000 10.8 20 16:53 31.05.2022
1825 Rain 14 994 85 10000 10.29 20 15:40 31.05.2022
1826 Rain 16 995 73 10000 7.2 20 13:45 31.05.2022
1827 Rain 16 997 74 10000 9.77 10 12:20 31.05.2022
1828 Clouds 16 999 81 10000 10.29 10 10:52 31.05.2022
1829 Rain 16 1000 87 10000 8.75 10 08:49 31.05.2022
1830 Clouds 16 999 85 10000 11.83 340 07:21 31.05.2022
1831 Clouds 17 1001 88 10000 11.83 340 04:53 31.05.2022
1832 Clouds 16 1001 89 10000 8.75 340 00:26 31.05.2022
1833 Clouds 16 1001 91 10000 9.77 340 23:26 30.05.2022
1834 Clouds 15 1001 90 10000 9.26 350 22:53 30.05.2022
1835 Rain 15 1000 92 4600 10.8 320 21:52 30.05.2022
1836 Rain 15 999 92 4600 10.8 320 21:32 30.05.2022
1837 Rain 15 999 92 10000 10.29 340 19:57 30.05.2022
1838 Clouds 15 998 94 7000 8.75 350 18:39 30.05.2022
1839 Rain 16 999 93 7000 6.69 350 17:24 30.05.2022
1840 Clouds 16 999 91 10000 10.29 350 16:40 30.05.2022
1841 Clouds 16 1000 93 10000 6.69 20 14:23 30.05.2022
1842 Rain 16 1001 94 10000 4.63 30 12:21 30.05.2022
1843 Rain 15 1001 94 10000 3.6 350 10:41 30.05.2022
1844 Rain 15 1002 94 10000 4.63 360 09:19 30.05.2022
1845 Rain 15 1002 94 10000 1.54 130 06:40 30.05.2022
1846 Rain 14 1002 96 10000 1.54 110 05:48 30.05.2022
1847 Rain 12 1007 95 10000 0.51 360 01:42 30.05.2022
1848 Rain 10 1009 94 10000 1.03 350 22:57 29.05.2022
1849 Rain 10 1009 94 10000 2.57 50 22:36 29.05.2022
1850 Rain 8 1010 93 10000 1.54 20 20:54 29.05.2022
1851 Rain 9 1013 87 10000 1.03 360 19:32 29.05.2022
1852 Rain 9 1013 87 10000 1.54 40 18:44 29.05.2022
1853 Clouds 9 1014 87 10000 1.03 30 17:31 29.05.2022
1854 Clouds 9 1015 81 10000 2.57 20 15:48 29.05.2022
1855 Clouds 9 1016 81 10000 2.06 20 14:57 29.05.2022
1856 Clouds 9 1017 87 10000 1.54 40 13:53 29.05.2022
1857 Clouds 9 1016 87 10000 2.06 40 11:41 29.05.2022
1858 Clouds 9 1017 87 10000 1.54 350 10:38 29.05.2022
1859 Clouds 9 1017 87 10000 1.03 20 08:51 29.05.2022
1860 Clouds 13 1018 80 10000 4.12 350 06:18 29.05.2022
1861 Clouds 14 1019 73 10000 4.12 350 04:45 29.05.2022
1862 Clouds 15 1019 72 10000 4.12 10 03:47 29.05.2022
1863 Clouds 13 1022 84 10000 5.14 40 23:50 28.05.2022
1864 Clouds 12 1022 84 10000 4.63 20 23:26 28.05.2022
1865 Clouds 10 1022 89 10000 4.63 10 22:36 28.05.2022
1866 Clouds 11 1021 87 10000 5.14 30 21:38 28.05.2022
1867 Clouds 12 1022 84 10000 6.17 20 19:49 28.05.2022
1868 Clouds 12 1022 84 10000 6.69 30 18:50 28.05.2022
1869 Clouds 12 1021 85 10000 6.17 20 17:37 28.05.2022
1870 Clouds 12 1022 84 10000 6.17 30 16:43 28.05.2022
1871 Clouds 12 1022 84 10000 6.17 20 15:43 28.05.2022
1872 Clouds 13 1023 82 10000 7.2 40 14:26 28.05.2022
1873 Clouds 13 1023 83 10000 6.17 30 12:51 28.05.2022
1874 Clouds 13 1023 81 10000 6.17 10 12:33 28.05.2022
1875 Clouds 13 1024 81 10000 7.72 360 11:21 28.05.2022
1876 Clouds 13 1024 81 10000 8.23 350 09:59 28.05.2022
1877 Clouds 13 1023 81 10000 8.75 360 09:21 28.05.2022
1878 Clouds 13 1023 84 10000 8.23 20 07:23 28.05.2022
1879 Clouds 13 1023 80 10000 7.72 10 05:36 28.05.2022
1880 Clouds 14 1024 77 10000 8.75 10 02:44 28.05.2022
1881 Clouds 12 1025 88 10000 6.69 30 00:33 28.05.2022
1882 Clouds 11 1026 87 10000 6.17 10 23:20 27.05.2022
1883 Clouds 9 1028 81 10000 4.12 30 21:46 27.05.2022
1884 Clouds 8 1026 94 10000 5.66 30 20:56 27.05.2022
1885 Clear 8 1026 95 10000 5.14 20 20:25 27.05.2022
1886 Clear 8 1027 87 10000 2.57 20 19:42 27.05.2022
1887 Clear 8 1026 98 10000 2.06 10 19:24 27.05.2022
1888 Clear 8 1028 93 10000 1.54 340 17:58 27.05.2022
1889 Clear 8 1028 93 10000 1.54 360 16:39 27.05.2022
1890 Clear 8 1029 93 10000 2.57 30 15:22 27.05.2022
1891 Clear 8 1029 93 10000 2.06 30 14:25 27.05.2022
1892 Clear 9 1029 87 10000 2.06 40 12:43 27.05.2022
1893 Clear 7 1028 89 10000 2.57 30 11:34 27.05.2022
1894 Clear 7 1028 86 8000 2.06 30 10:55 27.05.2022
1895 Clear 7 1028 88 9000 1.54 50 10:29 27.05.2022
1896 Clear 8 1026 86 10000 1.54 20 09:34 27.05.2022
1897 Clouds 9 1027 87 7000 1.03 220 07:52 27.05.2022
1898 Clouds 12 1026 77 10000 3.6 210 05:39 27.05.2022
1899 Clouds 12 1027 80 10000 4.63 170 02:26 27.05.2022
1900 Clouds 11 1028 82 10000 5.66 180 00:26 27.05.2022
1901 Clouds 10 1027 83 10000 6.17 190 22:35 26.05.2022
1902 Clouds 10 1026 83 9000 6.69 200 21:39 26.05.2022
1903 Clouds 10 1026 82 10000 6.69 190 20:30 26.05.2022
1904 Clouds 10 1026 78 10000 6.69 190 19:19 26.05.2022
1905 Clouds 10 1026 76 10000 6.17 190 17:51 26.05.2022
1906 Clouds 10 1026 76 10000 6.69 190 16:42 26.05.2022
1907 Clouds 10 1026 76 10000 5.66 180 15:45 26.05.2022
1908 Clouds 9 1026 74 10000 8.23 190 14:28 26.05.2022
1909 Drizzle 9 1026 86 10000 7.2 160 12:37 26.05.2022
1910 Clouds 9 1026 82 10000 7.72 170 11:23 26.05.2022
1911 Clouds 9 1025 84 10000 8.75 170 09:41 26.05.2022
1912 Clouds 9 1025 82 10000 8.75 170 09:23 26.05.2022
1913 Clouds 9 1025 81 10000 7.72 170 08:30 26.05.2022
1914 Clouds 10 1024 79 10000 7.2 150 04:41 26.05.2022
1915 Clouds 9 1024 85 10000 7.2 160 00:38 26.05.2022
1916 Rain 9 1024 86 10000 8.23 170 23:40 25.05.2022
1917 Clouds 9 1022 81 10000 8.23 160 21:56 25.05.2022
1918 Clouds 9 1022 80 10000 8.75 170 21:31 25.05.2022
1919 Clouds 9 1020 79 10000 8.75 160 20:35 25.05.2022
1920 Clouds 9 1020 79 10000 8.75 160 20:35 25.05.2022
1921 Clouds 9 1020 79 10000 8.23 160 19:24 25.05.2022
1922 Clouds 10 1019 75 10000 8.23 170 17:43 25.05.2022
1923 Clouds 10 1019 78 8000 8.75 160 16:38 25.05.2022
1924 Clouds 10 1020 79 10000 8.75 170 15:54 25.05.2022
1925 Clouds 11 1020 77 10000 9.26 170 14:51 25.05.2022
1926 Clouds 11 1019 76 10000 7.2 170 14:33 25.05.2022
1927 Clouds 11 1019 77 9000 7.72 160 13:45 25.05.2022
1928 Clouds 11 1020 82 10000 9.26 160 12:38 25.05.2022
1929 Clouds 12 1019 79 10000 7.72 160 10:43 25.05.2022
1930 Clouds 12 1019 78 10000 8.23 160 10:18 25.05.2022
1931 Clouds 12 1016 83 10000 4.02 230 08:37 25.05.2022
1932 Clear 10 1014 84 10000 2.68 233 07:23 25.05.2022
1933 Clear 15 1012 62 10000 1.03 320 04:22 25.05.2022
1934 Clear 11 1014 89 10000 3.09 350 00:19 25.05.2022
1935 Clear 11 1014 92 10000 3.09 350 23:43 24.05.2022
1936 Clear 10 1014 87 10000 3.09 20 22:32 24.05.2022
1937 Clear 8 1014 93 10000 3.09 10 21:40 24.05.2022
1938 Clear 8 1014 93 10000 3.09 10 21:20 24.05.2022
1939 Clear 9 1014 93 10000 3.09 30 19:48 24.05.2022
1940 Clear 9 1015 93 10000 4.12 360 18:54 24.05.2022
1941 Clear 9 1016 93 10000 4.12 10 16:45 24.05.2022
1942 Clear 9 1016 93 10000 4.12 20 16:23 24.05.2022
1943 Clear 9 1017 87 10000 2.57 30 14:58 24.05.2022
1944 Clear 9 1017 87 10000 2.57 30 14:21 24.05.2022
1945 Clouds 9 1017 87 10000 2.06 20 12:50 24.05.2022
1946 Clouds 9 1017 87 10000 2.06 20 12:50 24.05.2022
1947 Clouds 10 1017 87 10000 1.03 20 11:33 24.05.2022
1948 Clear 10 1014 85 10000 1.54 360 09:45 24.05.2022
1949 Clear 9 1014 89 10000 2.57 10 08:50 24.05.2022
1950 Clouds 12 1014 84 10000 1.54 320 06:57 24.05.2022
1951 Clouds 15 1014 76 10000 5.14 10 04:20 24.05.2022
1952 Clouds 15 1015 73 10000 7.2 10 02:37 24.05.2022
1953 Clouds 14 1016 74 10000 3.6 20 01:42 24.05.2022
1954 Clouds 12 1016 87 8000 1.54 340 23:33 23.05.2022
1955 Clouds 11 1016 90 10000 2.06 360 21:57 23.05.2022
1956 Clouds 11 1016 89 10000 2.06 20 21:39 23.05.2022
1957 Clouds 11 1015 89 10000 3.09 30 20:42 23.05.2022
1958 Clouds 11 1016 89 10000 3.6 30 19:33 23.05.2022
1959 Clouds 11 1016 89 10000 3.6 30 18:59 23.05.2022
1960 Clouds 11 1016 89 10000 3.09 30 18:35 23.05.2022
1961 Clouds 11 1017 87 10000 4.12 20 17:38 23.05.2022
1962 Clouds 12 1016 84 10000 5.66 30 15:37 23.05.2022
1963 Clouds 13 1016 81 10000 6.69 30 13:32 23.05.2022
1964 Clouds 12 1016 82 10000 7.72 30 11:36 23.05.2022
1965 Clear 12 1015 80 10000 8.23 40 10:43 23.05.2022
1966 Clear 12 1015 78 10000 6.69 20 09:40 23.05.2022
1967 Clear 12 1015 78 10000 7.2 360 08:38 23.05.2022
1968 Clear 12 1015 73 10000 5.14 350 06:47 23.05.2022
1969 Clear 12 1015 72 10000 5.14 350 06:23 23.05.2022
1970 Clouds 13 1015 69 10000 2.06 200 02:35 23.05.2022
1971 Clouds 14 1015 71 10000 3.09 190 01:48 23.05.2022
1972 Clouds 13 1014 71 10000 3.09 190 01:19 23.05.2022
1973 Clouds 10 1013 86 10000 5.14 180 22:47 22.05.2022
1974 Clouds 10 1013 86 9000 6.17 180 22:18 22.05.2022
1975 Clouds 10 1012 84 10000 6.69 180 21:49 22.05.2022
1976 Clouds 11 1010 85 8000 7.2 180 20:42 22.05.2022
1977 Clouds 11 1010 86 8000 7.2 180 20:20 22.05.2022
1978 Clouds 11 1009 82 10000 9.77 180 18:58 22.05.2022
1979 Clouds 11 1009 82 10000 9.77 180 18:31 22.05.2022
1980 Clouds 12 1008 84 10000 9.26 170 17:55 22.05.2022
1981 Clouds 11 1007 79 6000 6.69 220 16:51 22.05.2022
1982 Clouds 12 1006 73 10000 2.24 179 15:22 22.05.2022
1983 Clouds 13 1005 71 10000 3.6 30 14:36 22.05.2022
1984 Haze 12 1005 75 3500 1.54 340 12:54 22.05.2022
1985 Haze 11 1005 75 5000 1.54 10 12:24 22.05.2022
1986 Haze 12 1004 71 2100 1.03 310 10:38 22.05.2022
1987 Clear 13 1003 72 10000 3.09 10 09:29 22.05.2022
1988 Clouds 14 1002 71 10000 4.12 30 07:44 22.05.2022
1989 Clouds 14 1002 68 10000 4.63 340 06:41 22.05.2022
1990 Clouds 15 1002 66 10000 5.14 350 03:53 22.05.2022
1991 Clear 14 1003 69 10000 5.14 10 00:59 22.05.2022
1992 Clear 13 1003 69 10000 4.12 10 23:57 21.05.2022
1993 Clear 13 1003 69 10000 4.12 40 23:29 21.05.2022
1994 Clear 11 1004 76 8000 3.09 360 21:59 21.05.2022
1995 Clear 9 1004 83 10000 4.12 360 21:37 21.05.2022
1996 Clear 9 1006 87 10000 4.12 30 20:41 21.05.2022
1997 Clouds 8 1006 93 10000 3.6 10 19:55 21.05.2022
1998 Clouds 9 1006 93 10000 3.09 40 19:20 21.05.2022
1999 Clouds 9 1003 82 10000 2.57 140 17:23 21.05.2022
2000 Clouds 10 1003 79 10000 7.2 150 14:51 21.05.2022
2001 Clear 11 1003 74 10000 7.72 230 14:19 21.05.2022
2002 Clear 12 1002 66 10000 4.12 300 13:25 21.05.2022
2003 Clear 12 1002 64 10000 3.09 260 12:39 21.05.2022
2004 Clear 13 1002 60 10000 5.14 270 11:38 21.05.2022
2005 Clear 13 1001 61 10000 3.6 310 10:21 21.05.2022
2006 Clear 13 1000 61 10000 2.57 340 08:59 21.05.2022
2007 Clear 14 1000 62 10000 4.12 330 08:38 21.05.2022
2008 Clear 14 999 71 10000 1.79 11 06:20 21.05.2022
2009 Clouds 14 1002 67 10000 7.2 340 01:59 21.05.2022
2010 Clear 11 1005 71 10000 3.09 10 23:36 20.05.2022
2011 Clear 10 1004 74 10000 2.57 10 22:40 20.05.2022
2012 Clear 9 1004 77 10000 2.57 10 22:18 20.05.2022
2013 Clear 8 1003 81 10000 2.57 20 21:19 20.05.2022
2014 Clear 7 1005 78 10000 3.6 10 20:47 20.05.2022
2015 Clouds 6 1007 87 10000 3.09 20 19:47 20.05.2022
2016 Clouds 5 1007 87 10000 2.57 30 18:58 20.05.2022
2017 Clouds 6 1007 81 10000 1.54 50 18:23 20.05.2022
2018 Clouds 7 1005 81 10000 4.12 280 16:27 20.05.2022
2019 Clouds 7 1005 81 10000 4.12 280 15:54 20.05.2022
2020 Clouds 7 1005 79 10000 8.75 210 15:20 20.05.2022
2021 Clouds 8 1004 78 10000 9.26 220 14:27 20.05.2022
2022 Clouds 9 1004 82 10000 10.8 190 12:45 20.05.2022
2023 Clouds 9 1002 84 10000 12.35 190 10:48 20.05.2022
2024 Clouds 9 1000 91 10000 5.14 240 09:31 20.05.2022
2025 Rain 9 999 90 7000 7.72 180 08:27 20.05.2022
2026 Clouds 10 997 86 10000 3.6 280 06:43 20.05.2022
2027 Clouds 10 996 82 10000 12.35 200 05:40 20.05.2022
2028 Clouds 14 991 76 10000 6.69 330 02:52 20.05.2022
2029 Rain 13 994 84 10000 8.23 340 23:47 19.05.2022
2030 Rain 12 995 86 10000 6.17 340 22:37 19.05.2022
2031 Rain 12 996 89 10000 7.2 320 21:51 19.05.2022
2032 Rain 12 997 89 10000 6.69 320 21:24 19.05.2022
2033 Rain 12 998 87 4800 9.26 310 20:52 19.05.2022
2034 Clouds 14 998 81 10000 11.32 340 19:54 19.05.2022
2035 Clouds 14 999 76 10000 9.77 340 19:19 19.05.2022
2036 Clear 14 1000 75 10000 9.77 340 17:46 19.05.2022
2037 Clear 14 1001 73 10000 5.14 340 15:58 19.05.2022
2038 Clear 14 1002 75 10000 5.66 340 14:49 19.05.2022
2039 Clear 14 1002 77 10000 5.66 340 14:20 19.05.2022
2040 Clear 14 1002 78 10000 6.17 320 12:19 19.05.2022
2041 Clear 15 1001 75 10000 7.2 310 10:31 19.05.2022
2042 Clear 16 1000 76 10000 8.75 320 08:46 19.05.2022
2043 Clouds 16 999 85 10000 10.8 340 07:24 19.05.2022
2044 Rain 17 1001 86 10000 9.26 340 04:23 19.05.2022
2045 Clouds 17 1003 86 10000 13.89 340 01:28 19.05.2022
2046 Clouds 17 1003 87 10000 12.86 340 23:43 18.05.2022
2047 Clouds 17 1004 87 10000 12.35 330 22:44 18.05.2022
2048 Clouds 16 1004 87 10000 12.35 340 21:45 18.05.2022
2049 Clouds 16 1004 90 10000 11.83 350 21:24 18.05.2022
2050 Clouds 16 1004 90 10000 13.38 350 20:22 18.05.2022
2051 Clouds 16 1004 91 10000 12.35 360 19:18 18.05.2022
2052 Clouds 16 1006 92 10000 9.77 350 18:18 18.05.2022
2053 Clouds 16 1007 92 8000 8.23 350 17:40 18.05.2022
2054 Clouds 16 1006 92 8000 8.23 350 17:22 18.05.2022
2055 Clouds 16 1008 90 10000 7.2 360 15:58 18.05.2022
2056 Clouds 16 1008 90 10000 6.69 350 15:37 18.05.2022
2057 Clouds 16 1010 88 10000 5.66 20 14:25 18.05.2022
2058 Clouds 16 1010 90 10000 7.72 360 12:58 18.05.2022
2059 Clouds 16 1011 90 10000 8.75 10 12:39 18.05.2022
2060 Clouds 15 1011 88 10000 5.66 360 11:33 18.05.2022
2061 Clouds 15 1011 88 10000 6.69 360 10:49 18.05.2022
2062 Clear 16 1012 89 10000 6.69 350 08:27 18.05.2022
2063 Clear 16 1011 86 10000 8.23 350 07:28 18.05.2022
2064 Clear 18 1011 75 10000 7.2 20 04:26 18.05.2022
2065 Clear 17 1012 87 10000 6.17 30 00:52 18.05.2022
2066 Clear 14 1012 94 10000 5.14 350 23:41 17.05.2022
2067 Clear 12 1011 100 10000 3.09 360 21:23 17.05.2022
2068 Clouds 12 1013 94 10000 1.54 10 20:57 17.05.2022
2069 Clouds 12 1012 94 10000 1.54 30 19:45 17.05.2022
2070 Clouds 13 1012 94 10000 1.03 110 19:25 17.05.2022
2071 Clouds 12 1008 91 10000 2.57 180 17:49 17.05.2022
2072 Clouds 13 1009 90 10000 4.63 220 16:58 17.05.2022
2073 Clouds 13 1009 90 10000 4.63 230 16:29 17.05.2022
2074 Clouds 14 1009 91 10000 1.54 280 15:18 17.05.2022
2075 Clouds 15 1008 93 10000 3.6 20 14:29 17.05.2022
2076 Clouds 16 1007 92 10000 4.63 360 13:31 17.05.2022
2077 Clouds 16 1005 93 10000 8.23 350 10:51 17.05.2022
2078 Clouds 17 1005 93 10000 8.23 350 08:55 17.05.2022
2079 Clouds 17 1005 95 10000 8.23 360 07:59 17.05.2022
2080 Clouds 17 1004 94 10000 6.69 360 06:36 17.05.2022
2081 Clouds 18 1007 96 7000 8.23 10 02:27 17.05.2022
2082 Clouds 18 1008 94 10000 7.72 350 00:28 17.05.2022
2083 Clouds 17 1008 96 6000 7.2 10 22:41 16.05.2022
2084 Clouds 17 1007 95 10000 8.23 350 21:33 16.05.2022
2085 Clouds 17 1008 93 10000 8.23 350 20:46 16.05.2022
2086 Clouds 17 1008 91 10000 9.26 340 19:22 16.05.2022
2087 Clouds 16 1008 90 10000 10.29 340 17:58 16.05.2022
2088 Clouds 16 1008 93 10000 7.72 360 15:42 16.05.2022
2089 Clouds 16 1008 93 10000 6.17 20 13:49 16.05.2022
2090 Clouds 16 1008 93 10000 6.17 360 12:50 16.05.2022
2091 Clouds 16 1008 93 10000 5.14 10 10:52 16.05.2022
2092 Clouds 16 1008 94 10000 6.69 10 08:55 16.05.2022
2093 Clouds 16 1007 92 10000 4.12 20 06:33 16.05.2022
2094 Clouds 16 1007 93 10000 2.57 220 02:38 16.05.2022
2095 Clouds 14 1006 97 7000 0.51 350 23:19 15.05.2022
2096 Clouds 13 1006 97 10000 1.03 40 22:29 15.05.2022
2097 Clouds 13 1005 97 10000 1.03 20 21:39 15.05.2022
2098 Mist 13 1005 97 5000 1.03 350 20:53 15.05.2022
2099 Clouds 13 1004 97 7000 1.03 30 19:28 15.05.2022
2100 Clouds 14 1004 96 7000 2.06 230 17:51 15.05.2022
2101 Mist 14 1005 96 5000 1.03 200 15:56 15.05.2022
2102 Drizzle 14 1005 96 5000 1.54 10 13:50 15.05.2022
2103 Clouds 14 1006 96 10000 1.03 70 12:23 15.05.2022
2104 Rain 14 1006 96 10000 1.03 20 11:38 15.05.2022
2105 Clouds 14 1006 95 10000 1.03 20 10:23 15.05.2022
2106 Rain 14 1006 95 9000 1.54 180 08:32 15.05.2022
2107 Rain 15 1005 94 5000 1.03 230 06:58 15.05.2022
2108 Rain 15 1005 93 10000 1.54 350 05:33 15.05.2022
2109 Rain 16 1008 90 10000 2.06 30 00:49 15.05.2022
2110 Clouds 15 1008 93 10000 0.51 90 23:38 14.05.2022
2111 Clouds 15 1008 94 10000 3.09 140 22:45 14.05.2022
2112 Clouds 15 1008 94 10000 6.17 170 21:28 14.05.2022
2113 Clouds 15 1008 94 10000 6.17 170 20:51 14.05.2022
2114 Rain 14 1008 94 10000 5.14 190 19:37 14.05.2022
2115 Rain 14 1008 94 10000 5.14 190 19:19 14.05.2022
2116 Rain 14 1008 94 10000 4.12 180 18:41 14.05.2022
2117 Clouds 14 1008 90 10000 6.17 200 16:38 14.05.2022
2118 Clouds 15 1009 95 10000 1.54 50 15:23 14.05.2022
2119 Rain 16 1008 94 10000 2.06 40 14:33 14.05.2022
2120 Clouds 16 1010 95 10000 6.69 360 12:23 14.05.2022
2121 Clouds 16 1010 93 10000 10.29 360 10:54 14.05.2022
2122 Clouds 16 1010 91 10000 9.26 360 10:21 14.05.2022
2123 Clouds 16 1010 91 10000 8.75 360 09:53 14.05.2022
2124 Rain 16 1011 91 10000 9.26 360 08:49 14.05.2022
2125 Clouds 15 1012 90 10000 8.23 360 05:47 14.05.2022
2126 Clouds 17 1015 79 10000 9.26 360 02:32 14.05.2022
2127 Clouds 15 1016 72 10000 7.15 179 23:36 13.05.2022
2128 Clouds 15 1017 75 10000 6.69 360 22:58 13.05.2022
2129 Clouds 15 1016 74 10000 5.66 360 22:25 13.05.2022
2130 Clouds 15 1016 75 10000 5.36 179 21:52 13.05.2022
2131 Clouds 15 1016 74 10000 6.17 350 20:45 13.05.2022
2132 Clouds 15 1016 74 10000 7.72 350 20:27 13.05.2022
2133 Clouds 15 1016 76 10000 7.72 350 19:28 13.05.2022
2134 Clouds 14 1016 76 10000 8.23 10 17:50 13.05.2022
2135 Clouds 14 1017 76 10000 9.26 20 17:28 13.05.2022
2136 Clouds 14 1018 76 10000 10.29 10 16:20 13.05.2022
2137 Clouds 14 1019 76 10000 8.75 10 15:28 13.05.2022
2138 Clouds 15 1020 80 10000 9.26 350 13:41 13.05.2022
2139 Clouds 15 1021 80 10000 10.29 360 12:28 13.05.2022
2140 Clouds 15 1022 79 10000 11.83 20 11:22 13.05.2022
2141 Clouds 13 1022 83 10000 10.29 30 09:34 13.05.2022
2142 Clouds 13 1022 83 10000 8.75 20 08:44 13.05.2022
2143 Clouds 13 1023 84 10000 7.72 20 07:48 13.05.2022
2144 Clouds 13 1023 82 10000 8.23 20 06:33 13.05.2022
2145 Clouds 13 1023 82 10000 8.23 20 06:33 13.05.2022
2146 Clouds 14 1025 77 10000 7.2 10 03:29 13.05.2022
2147 Clouds 12 1028 85 10000 4.63 30 00:24 13.05.2022
2148 Clouds 10 1029 89 10000 2.57 30 22:45 12.05.2022
2149 Clouds 9 1028 90 10000 1.54 30 21:56 12.05.2022
2150 Clouds 9 1028 90 10000 1.54 10 20:29 12.05.2022
2151 Clouds 9 1029 89 10000 2.06 30 18:51 12.05.2022
2152 Clear 8 1029 89 10000 2.57 20 17:23 12.05.2022
2153 Clear 8 1029 87 10000 1.54 10 15:55 12.05.2022
2154 Clear 6 1028 89 10000 2.06 20 14:40 12.05.2022
2155 Clouds 6 1029 89 10000 2.06 30 13:41 12.05.2022
2156 Clouds 8 1031 83 10000 0.51 20 10:46 12.05.2022
2157 Clouds 9 1030 86 10000 2.06 120 09:28 12.05.2022
2158 Clouds 10 1029 84 10000 2.57 130 08:51 12.05.2022
2159 Clear 10 1029 81 10000 5.66 160 07:40 12.05.2022
2160 Clouds 12 1028 76 10000 4.12 180 06:19 12.05.2022
2161 Clouds 13 1029 75 10000 5.14 160 02:56 12.05.2022
2162 Clear 9 1030 91 10000 2.06 20 00:35 12.05.2022
2163 Clear 7 1031 87 10000 2.06 30 22:35 11.05.2022
2164 Clear 7 1031 87 10000 3.09 30 21:46 11.05.2022
2165 Clear 6 1031 87 10000 2.57 20 21:21 11.05.2022
2166 Clouds 7 1031 87 10000 2.57 30 18:34 11.05.2022
2167 Clouds 7 1031 87 10000 2.57 20 16:55 11.05.2022
2168 Clear 6 1028 88 10000 2.57 40 15:31 11.05.2022
2169 Clear 6 1028 88 10000 2.57 40 15:31 11.05.2022
2170 Clear 6 1028 88 10000 2.57 40 15:31 11.05.2022
2171 Clear 6 1028 88 10000 2.57 40 15:31 11.05.2022
2172 Clear 6 1028 88 10000 2.57 40 15:31 11.05.2022
2173 Clear 6 1028 88 10000 2.57 40 15:31 11.05.2022
2174 Clear 6 1029 86 10000 1.03 20 14:39 11.05.2022
2175 Clear 6 1028 86 10000 1.03 20 14:18 11.05.2022
2176 Clear 7 1030 82 10000 1.54 110 11:54 11.05.2022
2177 Clear 9 1030 78 10000 3.09 130 10:44 11.05.2022
2178 Clouds 10 1029 75 10000 4.12 170 08:40 11.05.2022
2179 Clouds 13 1029 66 10000 5.66 170 05:28 11.05.2022
2180 Clouds 12 1030 72 10000 6.17 160 00:43 11.05.2022
2181 Clouds 11 1029 74 10000 7.72 150 22:32 10.05.2022
2182 Clouds 11 1028 74 10000 8.23 160 21:57 10.05.2022
2183 Clouds 11 1027 72 10000 8.23 160 20:57 10.05.2022
2184 Clouds 10 1027 77 10000 8.75 170 19:37 10.05.2022
2185 Clouds 10 1026 80 10000 9.26 180 17:59 10.05.2022
2186 Clouds 10 1027 82 10000 9.26 180 17:29 10.05.2022
2187 Clouds 10 1027 88 10000 10.29 150 15:31 10.05.2022
2188 Clouds 11 1026 79 10000 8.75 160 12:45 10.05.2022
2189 Clouds 11 1026 74 10000 10.8 170 11:51 10.05.2022
2190 Clouds 11 1026 74 10000 11.83 170 11:21 10.05.2022
2191 Clouds 12 1026 70 10000 11.83 160 10:53 10.05.2022
2192 Clouds 12 1025 72 10000 12.86 170 09:26 10.05.2022
2193 Clouds 12 1023 83 10000 12.35 170 07:26 10.05.2022
2194 Clouds 14 1022 76 10000 11.32 170 04:32 10.05.2022
2195 Clouds 13 1021 84 10000 12.35 190 01:18 10.05.2022
2196 Clouds 13 1020 83 10000 13.89 170 22:57 09.05.2022
2197 Clouds 13 1019 90 10000 11.83 170 21:58 09.05.2022
2198 Rain 13 1017 92 5000 10.8 150 21:18 09.05.2022
2199 Clouds 13 1016 86 10000 9.77 160 19:37 09.05.2022
2200 Clouds 13 1015 89 10000 11.32 170 17:56 09.05.2022
2201 Rain 13 1015 94 10000 10.29 170 16:38 09.05.2022
2202 Rain 14 1014 94 10000 10.29 170 15:52 09.05.2022
2203 Rain 14 1014 94 10000 9.77 170 15:27 09.05.2022
2204 Rain 14 1014 95 10000 8.75 170 14:31 09.05.2022
2205 Rain 14 1014 93 10000 8.23 160 13:50 09.05.2022
2206 Clouds 14 1013 93 10000 6.17 180 12:26 09.05.2022
2207 Clouds 15 1013 91 10000 6.17 190 11:37 09.05.2022
2208 Clouds 15 1013 92 10000 5.14 180 10:43 09.05.2022
2209 Clouds 16 1012 92 10000 5.14 190 08:51 09.05.2022
2210 Clouds 16 1011 93 10000 7.2 210 07:54 09.05.2022
2211 Clouds 17 1010 93 5000 7.72 10 03:40 09.05.2022
2212 Rain 17 1013 93 10000 8.75 340 00:20 09.05.2022
2213 Clouds 17 1013 88 10000 10.29 350 22:56 08.05.2022
2214 Clouds 17 1013 88 10000 9.26 340 21:56 08.05.2022
2215 Rain 17 1014 86 10000 8.75 350 20:37 08.05.2022
2216 Rain 17 1014 87 10000 8.23 350 19:45 08.05.2022
2217 Rain 17 1014 87 10000 8.23 350 18:57 08.05.2022
2218 Clouds 17 1014 87 10000 9.26 350 18:19 08.05.2022
2219 Rain 17 1015 87 10000 8.23 350 16:56 08.05.2022
2220 Clouds 17 1016 86 10000 8.75 350 15:40 08.05.2022
2221 Clouds 17 1017 86 10000 8.23 340 14:57 08.05.2022
2222 Clouds 17 1017 86 10000 8.23 360 12:33 08.05.2022
2223 Clouds 17 1018 86 10000 8.75 20 10:32 08.05.2022
2224 Clouds 17 1018 86 10000 10.29 10 09:58 08.05.2022
2225 Clouds 17 1018 86 10000 10.29 10 09:58 08.05.2022
2226 Rain 17 1018 86 10000 9.26 10 09:31 08.05.2022
2227 Clouds 17 1018 84 10000 10.8 340 07:31 08.05.2022
2228 Clouds 18 1019 80 10000 11.83 360 03:55 08.05.2022
2229 Clouds 18 1020 79 10000 11.32 350 02:51 08.05.2022
2230 Clouds 17 1020 82 10000 11.83 360 00:28 08.05.2022
2231 Clouds 17 1021 83 10000 10.29 350 23:51 07.05.2022
2232 Clouds 17 1021 85 10000 9.26 350 22:48 07.05.2022
2233 Clouds 16 1021 86 10000 10.8 360 21:59 07.05.2022
2234 Clouds 16 1021 86 10000 9.77 10 21:34 07.05.2022
2235 Clouds 16 1021 84 10000 9.26 20 20:42 07.05.2022
2236 Clouds 16 1021 83 10000 9.77 360 19:57 07.05.2022
2237 Clouds 16 1022 84 10000 12.35 360 17:43 07.05.2022
2238 Clouds 16 1023 83 10000 10.29 340 15:51 07.05.2022
2239 Clouds 16 1024 86 10000 11.32 350 14:19 07.05.2022
2240 Clouds 17 1025 85 10000 11.83 350 10:56 07.05.2022
2241 Clouds 16 1024 89 10000 10.8 360 09:20 07.05.2022
2242 Clouds 16 1024 87 10000 9.26 10 07:52 07.05.2022
2243 Clouds 17 1024 85 10000 9.77 10 06:43 07.05.2022
2244 Clouds 17 1024 81 10000 9.77 10 04:59 07.05.2022
2245 Clouds 18 1026 81 10000 8.75 10 01:46 07.05.2022
2246 Clouds 16 1027 90 10000 6.17 20 23:38 06.05.2022
2247 Clouds 14 1027 93 10000 4.63 20 22:28 06.05.2022
2248 Clouds 14 1026 93 10000 5.14 30 21:43 06.05.2022
2249 Clouds 13 1026 93 10000 5.14 30 21:43 06.05.2022
2250 Clouds 14 1025 94 10000 4.63 30 20:34 06.05.2022
2251 Clouds 13 1025 94 10000 2.57 30 19:31 06.05.2022
2252 Clouds 13 1025 94 10000 4.12 10 18:59 06.05.2022
2253 Clouds 13 1026 94 10000 4.63 10 18:18 06.05.2022
2254 Clouds 13 1026 95 10000 5.14 360 16:44 06.05.2022
2255 Clouds 13 1026 94 10000 3.09 30 15:41 06.05.2022
2256 Clear 13 1027 94 10000 3.6 20 14:50 06.05.2022
2257 Clear 13 1027 94 10000 3.6 20 12:54 06.05.2022
2258 Clear 12 1027 93 10000 4.12 10 12:36 06.05.2022
2259 Clear 13 1027 93 10000 3.6 20 11:42 06.05.2022
2260 Clear 14 1027 92 10000 3.6 360 10:27 06.05.2022
2261 Clear 15 1027 91 10000 3.6 10 09:45 06.05.2022
2262 Clouds 15 1026 90 10000 4.12 360 08:27 06.05.2022
2263 Clouds 17 1026 83 10000 5.14 360 06:42 06.05.2022
2264 Clouds 19 1026 76 10000 5.14 360 04:51 06.05.2022
2265 Clouds 19 1026 76 10000 5.66 360 02:45 06.05.2022
2266 Clouds 18 1026 86 10000 5.66 20 23:45 05.05.2022
2267 Clouds 16 1025 91 10000 5.14 30 21:53 05.05.2022
2268 Clouds 16 1025 91 10000 4.63 30 21:19 05.05.2022
2269 Clouds 16 1025 90 10000 4.63 20 19:49 05.05.2022
2270 Clouds 16 1025 90 10000 5.14 20 18:26 05.05.2022
2271 Clouds 16 1025 89 10000 6.69 20 16:20 05.05.2022
2272 Clouds 17 1026 89 10000 5.66 10 14:43 05.05.2022
2273 Clouds 17 1026 90 10000 6.17 10 13:21 05.05.2022
2274 Clouds 17 1026 90 10000 7.2 360 12:24 05.05.2022
2275 Clouds 17 1026 88 10000 6.69 360 10:37 05.05.2022
2276 Clouds 17 1026 88 10000 5.66 10 09:39 05.05.2022
2277 Clouds 17 1025 88 10000 7.2 10 07:34 05.05.2022
2278 Clouds 18 1025 83 10000 8.75 10 04:28 05.05.2022
2279 Clouds 18 1026 84 10000 7.72 20 01:50 05.05.2022
2280 Clouds 17 1026 84 10000 7.2 20 01:22 05.05.2022
2281 Clouds 15 1027 90 10000 7.72 20 23:34 04.05.2022
2282 Clouds 14 1027 91 10000 5.66 30 22:27 04.05.2022
2283 Clear 13 1026 93 10000 4.12 20 21:49 04.05.2022
2284 Clear 13 1026 92 10000 4.12 30 21:26 04.05.2022
2285 Clear 14 1026 92 10000 5.66 10 20:22 04.05.2022
2286 Clear 14 1026 92 10000 4.63 20 19:51 04.05.2022
2287 Clouds 14 1026 92 10000 4.63 20 18:51 04.05.2022
2288 Clouds 14 1026 94 10000 3.09 20 18:22 04.05.2022
2289 Clouds 14 1026 95 10000 4.63 30 17:30 04.05.2022
2290 Clear 14 1027 95 10000 3.6 40 15:40 04.05.2022
2291 Clear 14 1027 95 10000 3.6 40 15:22 04.05.2022
2292 Clouds 13 1027 95 10000 3.09 10 14:20 04.05.2022
2293 Clouds 14 1027 95 10000 2.57 20 13:26 04.05.2022
2294 Clouds 12 1027 94 10000 3.6 10 12:29 04.05.2022
2295 Clouds 13 1027 93 10000 2.57 10 10:40 04.05.2022
2296 Clouds 13 1027 93 10000 2.57 10 10:40 04.05.2022
2297 Clouds 13 1027 92 10000 1.03 20 09:40 04.05.2022
2298 Clouds 15 1027 91 10000 2.06 180 08:40 04.05.2022
2299 Clear 17 1026 85 10000 3.6 230 06:31 04.05.2022
2300 Clear 19 1027 80 10000 1.03 40 02:53 04.05.2022
2301 Clouds 17 1028 88 10000 2.57 10 23:58 03.05.2022
2302 Clouds 15 1027 93 10000 4.12 30 22:34 03.05.2022
2303 Clouds 15 1027 93 10000 3.09 350 21:43 03.05.2022
2304 Clouds 15 1027 93 10000 3.09 350 20:53 03.05.2022
2305 Clouds 15 1026 94 10000 2.06 350 19:49 03.05.2022
2306 Clouds 15 1026 94 10000 2.57 350 18:52 03.05.2022
2307 Clouds 15 1026 93 10000 3.6 30 18:20 03.05.2022
2308 Clouds 15 1027 92 10000 4.12 20 16:37 03.05.2022
2309 Clouds 16 1027 92 10000 5.14 30 15:35 03.05.2022
2310 Clouds 17 1027 91 10000 5.14 40 12:47 03.05.2022
2311 Clouds 17 1027 91 10000 5.14 30 12:27 03.05.2022
2312 Clouds 17 1027 90 10000 5.66 30 10:57 03.05.2022
2313 Clouds 17 1027 90 10000 5.66 30 10:57 03.05.2022
2314 Clouds 17 1026 90 10000 5.14 20 09:29 03.05.2022
2315 Clouds 18 1025 87 10000 5.66 10 06:46 03.05.2022
2316 Clouds 18 1025 84 10000 6.17 10 05:58 03.05.2022
2317 Clouds 19 1026 85 10000 6.17 10 00:32 03.05.2022
2318 Clouds 17 1025 91 10000 4.63 20 22:38 02.05.2022
2319 Clouds 17 1025 92 10000 4.63 20 21:52 02.05.2022
2320 Clouds 17 1025 91 10000 5.14 20 20:51 02.05.2022
2321 Clouds 17 1024 91 10000 6.17 360 18:40 02.05.2022
2322 Clouds 17 1024 91 10000 6.17 360 18:21 02.05.2022
2323 Clouds 17 1024 91 10000 6.69 360 17:37 02.05.2022
2324 Clouds 17 1024 92 10000 7.2 360 16:22 02.05.2022
2325 Clouds 17 1024 92 10000 7.72 360 15:31 02.05.2022
2326 Clouds 17 1024 91 10000 7.2 360 13:51 02.05.2022
2327 Clouds 17 1024 90 10000 7.72 350 12:19 02.05.2022
2328 Clouds 17 1023 89 10000 7.72 350 10:47 02.05.2022
2329 Clouds 17 1023 88 10000 8.75 350 09:20 02.05.2022
2330 Clouds 17 1023 87 10000 8.23 350 07:51 02.05.2022
2331 Rain 18 1022 85 10000 9.77 360 03:53 02.05.2022
2332 Clouds 16 1024 87 10000 8.23 10 00:24 02.05.2022
2333 Clouds 16 1023 87 10000 8.23 10 23:48 01.05.2022
2334 Clouds 16 1023 88 10000 8.23 10 22:25 01.05.2022
2335 Clouds 16 1022 89 10000 8.75 20 21:22 01.05.2022
2336 Clouds 16 1022 89 10000 7.72 350 19:53 01.05.2022
2337 Clouds 17 1022 88 10000 10.29 360 18:58 01.05.2022
2338 Clouds 16 1022 88 10000 9.26 360 18:28 01.05.2022
2339 Clouds 17 1022 87 10000 8.75 360 17:29 01.05.2022
2340 Clouds 17 1022 87 10000 9.26 350 16:23 01.05.2022
2341 Clouds 17 1022 87 10000 8.23 360 15:36 01.05.2022
2342 Clouds 17 1022 87 10000 9.26 350 13:47 01.05.2022
2343 Clouds 17 1022 87 10000 8.75 350 11:23 01.05.2022
2344 Clouds 16 1022 86 10000 8.75 340 08:53 01.05.2022
2345 Clouds 17 1022 85 10000 8.23 340 08:34 01.05.2022
2346 Clouds 17 1023 83 10000 11.32 10 03:35 01.05.2022
2347 Clouds 15 1024 81 10000 9.77 20 00:18 01.05.2022
2348 Clouds 14 1024 84 10000 10.8 360 21:49 30.04.2022
2349 Clouds 14 1024 83 10000 10.8 360 20:59 30.04.2022
2350 Clouds 14 1024 79 10000 11.32 10 19:42 30.04.2022
2351 Clouds 14 1025 75 10000 8.75 20 18:21 30.04.2022
2352 Clouds 15 1026 80 10000 7.2 20 16:44 30.04.2022
2353 Clouds 14 1027 81 10000 6.17 30 15:47 30.04.2022
2354 Clouds 14 1027 83 10000 6.17 30 14:48 30.04.2022
2355 Clouds 15 1028 82 10000 4.12 20 12:55 30.04.2022
2356 Clouds 14 1028 85 10000 5.14 30 11:34 30.04.2022
2357 Clouds 14 1028 85 10000 5.14 30 10:45 30.04.2022
2358 Clear 14 1028 83 10000 5.14 20 09:41 30.04.2022
2359 Clouds 15 1028 79 10000 7.72 360 06:43 30.04.2022
2360 Clear 15 1030 74 10000 6.69 360 02:55 30.04.2022
2361 Clear 11 1033 93 10000 4.12 10 23:37 29.04.2022
2362 Clear 10 1034 87 10000 3.09 40 22:31 29.04.2022
2363 Clear 9 1034 87 10000 2.57 20 21:53 29.04.2022
2364 Clear 9 1034 93 10000 4.12 350 20:49 29.04.2022
2365 Clear 9 1034 87 10000 3.09 40 19:47 29.04.2022
2366 Clear 9 1034 87 10000 2.57 40 17:59 29.04.2022
2367 Clear 9 1035 87 10000 2.06 40 17:25 29.04.2022
2368 Clear 9 1035 87 10000 2.06 10 15:50 29.04.2022
2369 Clear 7 1032 88 10000 2.06 30 14:22 29.04.2022
2370 Clear 8 1033 86 10000 1.54 30 13:22 29.04.2022
2371 Clear 9 1034 85 10000 1.03 30 11:50 29.04.2022
2372 Clear 11 1033 78 10000 1.03 160 08:53 29.04.2022
2373 Clear 12 1033 79 10000 3.09 230 07:28 29.04.2022
2374 Clear 14 1033 73 10000 4.12 230 06:45 29.04.2022
2375 Clouds 16 1033 68 10000 3.09 190 04:53 29.04.2022
2376 Clear 14 1035 75 10000 1.54 110 00:45 29.04.2022
2377 Clear 12 1035 83 10000 1.54 10 23:34 28.04.2022
2378 Clear 10 1035 92 10000 1.54 360 22:44 28.04.2022
2379 Clouds 10 1034 86 10000 1.54 70 21:47 28.04.2022
2380 Clouds 9 1034 89 10000 1.54 140 21:21 28.04.2022
2381 Clouds 9 1033 89 10000 1.03 140 20:35 28.04.2022
2382 Clouds 10 1033 91 10000 1.03 80 19:45 28.04.2022
2383 Clouds 10 1033 90 10000 1.54 30 19:45 28.04.2022
2384 Clouds 10 1033 91 10000 1.54 30 19:22 28.04.2022
2385 Clouds 10 1033 91 10000 1.03 30 18:36 28.04.2022
2386 Clouds 10 1034 91 10000 1.54 30 17:26 28.04.2022
2387 Clouds 10 1034 92 10000 1.03 20 16:41 28.04.2022
2388 Clouds 10 1034 92 10000 1.03 20 16:19 28.04.2022
2389 Clouds 10 1034 91 10000 0.51 20 15:29 28.04.2022
2390 Clouds 10 1034 91 10000 1.03 30 14:20 28.04.2022
2391 Clouds 9 1034 90 10000 0.51 60 12:55 28.04.2022
2392 Clouds 9 1034 89 10000 1.54 100 11:59 28.04.2022
2393 Clouds 11 1033 82 8000 2.57 150 10:46 28.04.2022
2394 Clear 10 1033 87 10000 3.6 140 09:56 28.04.2022
2395 Clear 11 1033 83 10000 4.12 140 08:44 28.04.2022
2396 Clouds 13 1032 77 10000 5.14 170 07:36 28.04.2022
2397 Clouds 15 1032 67 10000 5.14 180 05:56 28.04.2022
2398 Clouds 16 1032 64 10000 4.63 180 05:38 28.04.2022
2399 Clouds 17 1032 65 10000 2.57 210 04:40 28.04.2022
2400 Clear 14 1032 76 10000 1.03 270 00:30 28.04.2022
2401 Clouds 11 1031 91 10000 2.57 40 22:40 27.04.2022
2402 Clouds 10 1031 92 10000 1.03 360 21:56 27.04.2022
2403 Clouds 10 1030 91 10000 1.03 50 21:26 27.04.2022
2404 Clouds 10 1030 92 10000 1.54 80 20:38 27.04.2022
2405 Clouds 9 1029 92 10000 1.54 50 19:38 27.04.2022
2406 Clouds 9 1029 91 10000 1.54 40 19:18 27.04.2022
2407 Clear 9 1028 90 10000 1.03 60 18:22 27.04.2022
2408 Clear 9 1028 90 10000 1.03 60 18:22 27.04.2022
2409 Clear 9 1029 90 10000 1.03 60 18:22 27.04.2022
2410 Clouds 10 1029 86 10000 1.54 10 17:24 27.04.2022
2411 Clouds 12 1029 81 10000 4.12 140 15:21 27.04.2022
2412 Clouds 13 1028 79 10000 5.66 140 12:25 27.04.2022
2413 Clouds 13 1028 78 10000 5.14 150 11:21 27.04.2022
2414 Clear 13 1027 79 10000 6.17 150 09:45 27.04.2022
2415 Clear 14 1025 75 10000 8.75 140 07:19 27.04.2022
2416 Clouds 15 1024 74 10000 7.72 150 05:37 27.04.2022
2417 Clouds 17 1023 75 10000 4.12 160 01:35 27.04.2022
2418 Clouds 16 1022 82 8000 2.57 180 00:38 27.04.2022
2419 Clouds 14 1022 87 8000 2.57 160 23:57 26.04.2022
2420 Clouds 13 1022 93 10000 0.51 150 23:23 26.04.2022
2421 Clouds 12 1021 98 10000 1.03 20 22:41 26.04.2022
2422 Clouds 12 1022 100 10000 0.51 40 21:48 26.04.2022
2423 Clouds 13 1021 88 10000 1.54 20 20:54 26.04.2022
2424 Haze 11 1017 90 5000 1.03 300 20:34 26.04.2022
2425 Haze 15 1019 88 5000 3.6 230 19:33 26.04.2022
2426 Clouds 12 1016 89 7000 4.63 220 18:51 26.04.2022
2427 Haze 12 1015 89 5000 3.6 220 18:18 26.04.2022
2428 Clouds 12 1016 92 6000 5.14 230 17:32 26.04.2022
2429 Clouds 12 1015 92 10000 0.51 100 14:46 26.04.2022
2430 Clouds 13 1014 87 7000 1.54 270 13:34 26.04.2022
2431 Clouds 13 1014 89 10000 4.12 30 12:22 26.04.2022
2432 Clouds 14 1013 85 10000 4.63 30 10:46 26.04.2022
2433 Clouds 15 1012 86 10000 5.66 10 09:36 26.04.2022
2434 Clouds 16 1012 80 10000 6.69 20 07:59 26.04.2022
2435 Clouds 17 1012 74 10000 8.23 360 04:33 26.04.2022
2436 Clouds 16 1013 75 10000 6.17 360 02:20 26.04.2022
2437 Clouds 16 1014 78 10000 2.06 360 00:26 26.04.2022
2438 Clouds 13 1014 86 10000 1.54 50 22:49 25.04.2022
2439 Clouds 12 1013 87 10000 1.03 150 21:44 25.04.2022
2440 Clouds 13 1013 85 10000 2.06 140 20:45 25.04.2022
2441 Clouds 13 1013 85 10000 2.06 140 20:45 25.04.2022
2442 Clouds 13 1013 83 10000 5.14 160 19:34 25.04.2022
2443 Clouds 13 1013 84 10000 7.72 170 18:23 25.04.2022
2444 Clouds 13 1013 88 6000 6.17 140 17:32 25.04.2022
2445 Clouds 12 1013 87 8000 2.57 340 15:30 25.04.2022
2446 Clouds 12 1013 89 10000 3.09 20 14:54 25.04.2022
2447 Clouds 14 1012 86 10000 6.17 30 13:41 25.04.2022
2448 Clouds 14 1011 86 10000 1.79 84 11:49 25.04.2022
2449 Clouds 15 1010 83 10000 6.17 30 10:27 25.04.2022
2450 Clouds 14 1010 84 10000 6.69 20 09:20 25.04.2022
2451 Clouds 15 1009 73 10000 5.66 360 06:49 25.04.2022
2452 Clouds 17 1010 70 10000 3.09 200 05:23 25.04.2022
2453 Clouds 15 1012 71 10000 3.6 150 00:58 25.04.2022
2454 Clouds 14 1012 76 10000 4.63 160 23:52 24.04.2022
2455 Clouds 14 1012 80 10000 5.66 160 22:52 24.04.2022
2456 Clouds 13 1011 82 10000 5.66 170 22:31 24.04.2022
2457 Clouds 12 1010 84 10000 6.69 160 21:42 24.04.2022
2458 Clouds 12 1010 85 10000 6.69 170 21:18 24.04.2022
2459 Clouds 12 1010 86 10000 5.66 160 20:37 24.04.2022
2460 Clouds 12 1010 87 10000 7.2 150 19:48 24.04.2022
2461 Clouds 13 1009 91 10000 7.72 150 18:20 24.04.2022
2462 Rain 12 1009 90 10000 8.23 170 17:37 24.04.2022
2463 Clouds 12 1009 90 10000 8.23 170 17:19 24.04.2022
2464 Clouds 13 1009 91 10000 6.17 150 16:35 24.04.2022
2465 Clouds 13 1009 91 10000 6.17 190 15:56 24.04.2022
2466 Clouds 13 1009 90 10000 6.69 170 15:31 24.04.2022
2467 Clouds 12 1009 89 10000 5.66 150 13:58 24.04.2022
2468 Clouds 13 1008 85 10000 6.17 160 13:25 24.04.2022
2469 Clouds 14 1008 85 10000 5.66 180 12:32 24.04.2022
2470 Clouds 14 1008 88 10000 5.14 170 11:32 24.04.2022
2471 Clouds 13 1007 90 10000 5.14 160 10:25 24.04.2022
2472 Clouds 13 1007 88 10000 4.12 170 09:26 24.04.2022
2473 Clouds 18 1005 61 10000 2.68 216 06:45 24.04.2022
2474 Clouds 20 1005 50 10000 4.12 360 03:55 24.04.2022
2475 Clouds 20 1006 57 10000 5.14 360 01:38 24.04.2022
2476 Clouds 17 1007 75 10000 3.09 360 00:24 24.04.2022
2477 Clouds 16 1008 71 10000 5.14 360 23:44 23.04.2022
2478 Clouds 16 1008 70 10000 5.14 360 23:21 23.04.2022
2479 Clouds 12 1008 84 10000 2.57 10 21:51 23.04.2022
2480 Clear 12 1008 80 10000 2.57 350 21:32 23.04.2022
2481 Clear 13 1009 82 10000 4.63 30 20:45 23.04.2022
2482 Clear 11 1008 86 10000 3.09 10 20:45 23.04.2022
2483 Clear 13 1010 76 10000 3.6 30 19:46 23.04.2022
2484 Clear 12 1008 81 10000 5.66 20 19:19 23.04.2022
2485 Clear 12 1008 81 10000 5.66 30 18:49 23.04.2022
2486 Clear 13 1011 76 10000 5.14 20 17:50 23.04.2022
2487 Clear 12 1010 81 10000 4.12 20 16:56 23.04.2022
2488 Clear 12 1010 82 10000 5.14 20 16:23 23.04.2022
2489 Clear 11 1011 87 10000 6.17 30 14:57 23.04.2022
2490 Clouds 12 1012 82 10000 6.17 30 12:35 23.04.2022
2491 Clouds 13 1013 79 10000 6.17 30 10:41 23.04.2022
2492 Clouds 14 1013 79 10000 5.66 10 08:55 23.04.2022
2493 Clouds 15 1014 75 10000 5.66 350 05:47 23.04.2022
2494 Clouds 16 1015 68 10000 4.63 350 03:54 23.04.2022
2495 Clouds 14 1017 74 10000 2.06 40 00:53 23.04.2022
2496 Clear 12 1017 89 10000 3.09 360 23:29 22.04.2022
2497 Clear 10 1018 87 10000 2.57 20 22:19 22.04.2022
2498 Clear 10 1017 87 10000 2.06 70 21:41 22.04.2022
2499 Clear 10 1017 87 10000 2.06 20 20:45 22.04.2022
2500 Clouds 13 1017 76 10000 2.57 270 20:25 22.04.2022
2501 Clouds 10 1013 81 10000 4.63 190 19:18 22.04.2022
2502 Clouds 10 1013 81 10000 5.14 190 18:35 22.04.2022
2503 Clouds 10 1013 83 10000 5.66 180 17:37 22.04.2022
2504 Clouds 11 1014 79 10000 6.69 180 16:32 22.04.2022
2505 Clouds 12 1014 75 10000 7.2 170 15:32 22.04.2022
2506 Clouds 11 1014 73 10000 9.26 160 14:43 22.04.2022
2507 Clouds 12 1014 74 10000 9.26 170 13:43 22.04.2022
2508 Clouds 12 1014 73 10000 8.23 160 12:57 22.04.2022
2509 Clouds 12 1014 73 10000 12.35 170 11:43 22.04.2022
2510 Clouds 12 1013 74 10000 12.35 170 11:20 22.04.2022
2511 Clouds 12 1013 74 10000 12.35 170 10:47 22.04.2022
2512 Clouds 12 1013 77 10000 12.35 170 10:27 22.04.2022
2513 Clouds 12 1013 84 10000 12.35 170 09:42 22.04.2022
2514 Clouds 12 1012 85 10000 11.32 180 08:49 22.04.2022
2515 Clouds 13 1010 79 10000 11.83 170 06:56 22.04.2022
2516 Clouds 19 1006 70 10000 5.66 330 01:53 22.04.2022
2517 Clouds 19 1005 81 10000 4.63 360 23:53 21.04.2022
2518 Clouds 18 1005 87 10000 7.72 360 22:59 21.04.2022
2519 Clouds 17 1005 91 10000 7.72 360 21:59 21.04.2022
2520 Clouds 17 1004 92 10000 10.8 360 20:34 21.04.2022
2521 Clouds 17 1004 91 10000 9.26 360 19:53 21.04.2022
2522 Clouds 18 1005 93 10000 9.26 360 18:35 21.04.2022
2523 Clouds 17 1005 93 10000 10.29 10 17:49 21.04.2022
2524 Clouds 17 1006 94 10000 7.2 350 16:28 21.04.2022
2525 Clouds 18 1007 94 10000 7.2 340 15:20 21.04.2022
2526 Clouds 18 1008 93 9000 10.8 340 14:38 21.04.2022
2527 Rain 18 1007 92 10000 11.83 350 13:23 21.04.2022
2528 Clouds 18 1008 92 10000 11.32 350 12:42 21.04.2022
2529 Clouds 19 1009 86 10000 11.32 350 10:45 21.04.2022
2530 Clouds 19 1010 87 10000 12.35 350 08:54 21.04.2022
2531 Clouds 20 1010 83 10000 12.35 350 06:55 21.04.2022
2532 Clouds 19 1010 82 10000 12.35 350 06:55 21.04.2022
2533 Clouds 19 1010 84 10000 11.32 360 04:36 21.04.2022
2534 Clouds 20 1011 82 10000 12.35 360 03:26 21.04.2022
2535 Clouds 20 1011 81 10000 11.83 360 02:46 21.04.2022
2536 Clouds 20 1011 81 10000 11.83 360 02:46 21.04.2022
2537 Rain 19 1013 84 10000 11.83 350 00:43 21.04.2022
2538 Rain 19 1013 85 10000 12.86 350 23:49 20.04.2022
2539 Rain 18 1013 87 10000 12.86 350 23:21 20.04.2022
2540 Clouds 18 1013 88 10000 11.83 350 22:45 20.04.2022
2541 Rain 18 1014 89 7000 11.32 350 22:26 20.04.2022
2542 Rain 18 1014 84 10000 9.77 360 21:27 20.04.2022
2543 Clouds 18 1014 82 10000 10.8 350 20:23 20.04.2022
2544 Clouds 18 1014 82 10000 11.32 350 19:51 20.04.2022
2545 Clouds 18 1014 82 10000 7.72 10 19:18 20.04.2022
2546 Clouds 19 1015 81 10000 7.2 10 17:55 20.04.2022
2547 Clouds 18 1016 81 10000 8.75 360 16:48 20.04.2022
2548 Clouds 18 1016 81 10000 8.75 360 16:30 20.04.2022
2549 Clouds 19 1018 83 10000 8.23 20 13:50 20.04.2022
2550 Rain 18 1019 86 10000 5.66 20 11:47 20.04.2022
2551 Rain 18 1019 87 10000 7.72 10 10:56 20.04.2022
2552 Rain 18 1019 85 10000 6.69 10 09:58 20.04.2022
2553 Clouds 18 1019 84 10000 6.17 20 09:24 20.04.2022
2554 Rain 18 1019 84 10000 5.14 10 08:22 20.04.2022
2555 Clouds 18 1019 82 10000 5.14 360 08:22 20.04.2022
2556 Rain 19 1019 78 10000 6.17 10 07:32 20.04.2022
2557 Clouds 21 1021 74 10000 7.2 350 03:34 20.04.2022
2558 Clouds 20 1022 84 10000 4.63 10 00:22 20.04.2022
2559 Clouds 19 1022 87 10000 4.63 10 23:37 19.04.2022
2560 Clouds 18 1022 87 10000 2.57 20 22:26 19.04.2022
2561 Clouds 18 1022 89 10000 3.09 360 21:56 19.04.2022
2562 Clouds 17 1021 90 10000 2.57 360 21:23 19.04.2022
2563 Clouds 17 1021 90 10000 2.57 360 20:41 19.04.2022
2564 Clouds 16 1021 90 10000 3.09 360 19:56 19.04.2022
2565 Clouds 16 1021 91 10000 3.6 360 18:47 19.04.2022
2566 Clouds 16 1021 94 10000 2.57 20 17:40 19.04.2022
2567 Clouds 16 1021 93 10000 4.12 20 16:43 19.04.2022
2568 Clouds 16 1022 93 10000 3.6 10 16:23 19.04.2022
2569 Clouds 17 1022 92 10000 4.12 360 14:50 19.04.2022
2570 Clouds 17 1022 92 10000 3.6 10 13:54 19.04.2022
2571 Clouds 17 1022 92 10000 3.09 360 12:50 19.04.2022
2572 Clouds 16 1022 92 10000 4.63 360 12:20 19.04.2022
2573 Clouds 17 1022 92 10000 4.12 10 10:46 19.04.2022
2574 Clouds 17 1021 92 10000 5.14 20 09:19 19.04.2022
2575 Rain 17 1020 86 10000 6.69 360 05:56 19.04.2022
2576 Clouds 18 1021 81 10000 7.2 10 03:26 19.04.2022
2577 Clouds 18 1021 79 10000 6.69 360 00:55 19.04.2022
2578 Clouds 17 1021 86 10000 5.66 20 23:31 18.04.2022
2579 Clear 14 1021 90 10000 5.14 20 21:30 18.04.2022
2580 Clear 13 1021 92 10000 4.12 30 20:56 18.04.2022
2581 Clear 13 1021 95 10000 2.57 20 20:32 18.04.2022
2582 Clear 11 1021 98 10000 2.57 30 19:51 18.04.2022
2583 Clear 11 1023 93 10000 2.57 30 18:57 18.04.2022
2584 Clear 12 1023 87 10000 0.51 10 17:58 18.04.2022
2585 Clear 12 1023 87 10000 1.54 40 17:34 18.04.2022
2586 Clear 12 1023 87 10000 2.06 40 16:59 18.04.2022
2587 Clear 12 1024 87 10000 2.57 60 16:32 18.04.2022
2588 Clear 12 1024 87 10000 2.06 40 14:59 18.04.2022
2589 Clear 10 1023 93 10000 1.54 30 13:39 18.04.2022
2590 Clear 11 1023 89 10000 2.06 10 12:32 18.04.2022
2591 Clear 11 1024 85 10000 1.54 10 11:35 18.04.2022
2592 Clear 12 1024 83 10000 2.06 30 10:32 18.04.2022
2593 Clear 12 1023 81 10000 1.54 20 09:31 18.04.2022
2594 Clouds 12 1023 81 10000 2.06 160 08:18 18.04.2022
2595 Clouds 17 1023 65 10000 5.14 210 05:45 18.04.2022
2596 Clouds 18 1025 63 10000 3.09 200 01:34 18.04.2022
2597 Clouds 10 1026 96 10000 0.51 220 22:43 17.04.2022
2598 Clouds 8 1027 87 10000 1.03 70 21:50 17.04.2022
2599 Clouds 8 1027 87 10000 0.51 60 21:27 17.04.2022
2600 Clouds 8 1027 81 10000 1.54 40 20:50 17.04.2022
2601 Clouds 7 1023 86 10000 1.54 50 19:52 17.04.2022
2602 Clouds 7 1024 80 10000 2.57 60 18:24 17.04.2022
2603 Clouds 8 1025 84 10000 1.03 30 16:32 17.04.2022
2604 Clouds 7 1026 88 10000 0.51 80 15:28 17.04.2022
2605 Clouds 8 1026 86 10000 1.03 70 14:27 17.04.2022
2606 Clear 9 1027 83 10000 1.03 30 13:20 17.04.2022
2607 Clear 9 1027 83 10000 0.51 60 12:28 17.04.2022
2608 Clear 11 1026 75 10000 1.03 30 10:47 17.04.2022
2609 Clear 12 1026 74 10000 1.03 30 10:29 17.04.2022
2610 Clear 12 1026 70 10000 1.54 70 09:49 17.04.2022
2611 Clear 13 1026 71 10000 3.6 100 08:54 17.04.2022
2612 Clear 14 1025 69 10000 3.6 100 08:26 17.04.2022
2613 Clouds 17 1024 59 10000 6.69 150 04:52 17.04.2022
2614 Clouds 17 1025 62 10000 5.66 160 01:39 17.04.2022
2615 Clouds 15 1025 71 10000 3.09 160 23:59 16.04.2022
2616 Clouds 14 1025 75 10000 4.12 140 22:50 16.04.2022
2617 Clouds 13 1024 78 10000 7.72 150 21:42 16.04.2022
2618 Clouds 13 1022 73 10000 6.69 140 20:45 16.04.2022
2619 Clouds 13 1022 75 10000 7.2 160 19:21 16.04.2022
2620 Clouds 13 1022 72 10000 8.75 140 18:33 16.04.2022
2621 Clouds 14 1022 76 10000 7.72 140 16:42 16.04.2022
2622 Clouds 13 1021 74 10000 6.17 150 15:46 16.04.2022
2623 Clouds 14 1020 79 10000 7.2 140 14:57 16.04.2022
2624 Clouds 14 1020 87 10000 7.2 140 14:29 16.04.2022
2625 Clouds 14 1020 92 6000 5.14 140 13:41 16.04.2022
2626 Clouds 13 1018 89 10000 1.54 340 12:35 16.04.2022
2627 Clouds 14 1017 86 10000 4.63 30 11:24 16.04.2022
2628 Clouds 16 1015 81 10000 6.69 30 09:59 16.04.2022
2629 Clouds 16 1014 81 10000 8.23 20 09:19 16.04.2022
2630 Clouds 16 1014 80 10000 9.26 360 08:41 16.04.2022
2631 Clouds 17 1012 75 10000 11.83 360 06:59 16.04.2022
2632 Clouds 19 1012 67 10000 10.8 360 04:36 16.04.2022
2633 Clouds 17 1014 77 10000 11.83 360 00:38 16.04.2022
2634 Clouds 17 1014 72 10000 10.8 350 23:35 15.04.2022
2635 Clouds 16 1013 81 10000 10.8 10 22:45 15.04.2022
2636 Clouds 16 1013 83 10000 10.8 10 22:27 15.04.2022
2637 Clouds 16 1013 83 10000 11.83 360 21:20 15.04.2022
2638 Clouds 16 1013 81 10000 12.35 360 20:31 15.04.2022
2639 Clouds 16 1014 87 10000 11.83 10 19:41 15.04.2022
2640 Clouds 16 1014 87 10000 11.32 10 18:55 15.04.2022
2641 Clouds 16 1014 86 10000 12.86 10 18:26 15.04.2022
2642 Clouds 15 1015 86 10000 11.32 10 17:49 15.04.2022
2643 Clouds 15 1016 85 10000 10.8 10 17:22 15.04.2022
2644 Clouds 15 1016 84 10000 9.77 10 16:24 15.04.2022
2645 Clouds 15 1017 85 10000 10.8 10 15:40 15.04.2022
2646 Clouds 15 1017 82 10000 7.2 20 13:55 15.04.2022
2647 Clouds 14 1018 82 10000 6.17 30 12:48 15.04.2022
2648 Clear 14 1018 86 10000 5.66 10 11:59 15.04.2022
2649 Clear 13 1018 87 10000 4.63 20 11:40 15.04.2022
2650 Clear 12 1018 87 10000 6.17 10 10:45 15.04.2022
2651 Clear 12 1018 87 10000 6.69 360 09:59 15.04.2022
2652 Clouds 12 1018 86 10000 5.14 10 09:22 15.04.2022
2653 Clouds 13 1018 81 10000 4.12 350 08:37 15.04.2022
2654 Clouds 15 1017 76 10000 2.06 200 06:47 15.04.2022
2655 Clouds 18 1019 69 10000 3.09 200 04:42 15.04.2022
2656 Clouds 16 1019 78 10000 5.14 20 00:32 15.04.2022
2657 Clouds 13 1019 89 10000 4.12 350 23:20 14.04.2022
2658 Clouds 11 1019 94 10000 4.63 360 22:44 14.04.2022
2659 Clouds 10 1019 95 10000 3.6 10 22:25 14.04.2022
2660 Clouds 10 1020 87 10000 3.6 20 21:39 14.04.2022
2661 Clouds 10 1020 93 10000 2.57 340 19:24 14.04.2022
2662 Clear 9 1019 87 10000 3.09 360 18:53 14.04.2022
2663 Clear 9 1020 81 10000 2.06 20 17:45 14.04.2022
2664 Clear 9 1020 87 10000 2.57 30 16:49 14.04.2022
2665 Clear 9 1020 87 10000 2.06 50 15:51 14.04.2022
2666 Clouds 8 1017 84 10000 3.09 30 13:53 14.04.2022
2667 Clouds 8 1017 83 10000 2.57 40 13:20 14.04.2022
2668 Clouds 9 1017 85 10000 3.09 30 12:32 14.04.2022
2669 Clouds 9 1017 83 10000 1.54 30 11:37 14.04.2022
2670 Clouds 10 1017 82 10000 1.03 20 10:58 14.04.2022
2671 Clouds 10 1017 80 10000 2.06 30 10:31 14.04.2022
2672 Clouds 11 1017 78 10000 1.54 290 09:30 14.04.2022
2673 Clear 10 1016 79 10000 2.06 230 08:23 14.04.2022
2674 Clear 15 1016 61 10000 3.6 190 05:52 14.04.2022
2675 Clear 15 1016 61 10000 7.2 170 00:29 14.04.2022
2676 Clouds 13 1016 72 10000 8.23 180 22:37 13.04.2022
2677 Clouds 12 1016 77 10000 8.23 180 21:42 13.04.2022
2678 Clouds 12 1016 75 10000 9.26 190 20:41 13.04.2022
2679 Clouds 12 1016 75 10000 9.26 180 19:49 13.04.2022
2680 Clouds 12 1015 77 10000 9.77 180 18:37 13.04.2022
2681 Clouds 12 1015 75 10000 9.26 180 17:25 13.04.2022
2682 Clouds 12 1015 74 10000 10.8 180 16:53 13.04.2022
2683 Clouds 13 1014 74 10000 10.29 170 15:47 13.04.2022
2684 Clouds 13 1014 73 10000 10.29 170 15:27 13.04.2022
2685 Clouds 13 1014 72 10000 11.32 170 14:40 13.04.2022
2686 Clouds 13 1014 72 10000 10.8 170 13:38 13.04.2022
2687 Clouds 13 1013 73 10000 11.32 170 12:51 13.04.2022
2688 Clouds 13 1013 71 10000 11.83 170 11:47 13.04.2022
2689 Clouds 14 1013 71 10000 11.83 170 10:31 13.04.2022
2690 Clouds 14 1012 77 10000 11.83 170 08:45 13.04.2022
2691 Clouds 13 1011 76 10000 12.35 170 07:57 13.04.2022
2692 Clouds 14 1011 76 7000 13.38 160 06:48 13.04.2022
2693 Clouds 14 1010 77 7000 13.38 160 06:24 13.04.2022
2694 Clouds 15 1010 77 10000 12.35 170 01:51 13.04.2022
2695 Rain 14 1010 83 10000 11.32 170 00:19 13.04.2022
2696 Rain 14 1009 88 10000 9.77 170 22:33 12.04.2022
2697 Clouds 14 1009 90 10000 9.77 170 21:54 12.04.2022
2698 Clouds 14 1008 93 10000 8.75 170 20:48 12.04.2022
2699 Clouds 14 1008 93 10000 8.75 160 20:20 12.04.2022
2700 Clouds 14 1009 94 8000 9.26 170 19:40 12.04.2022
2701 Rain 14 1008 95 9000 9.26 170 18:56 12.04.2022
2702 Rain 14 1008 95 7000 8.23 170 17:39 12.04.2022
2703 Clouds 13 1008 95 8000 7.72 170 16:46 12.04.2022
2704 Mist 14 1009 96 2500 7.72 180 15:34 12.04.2022
2705 Mist 14 1008 96 5000 7.72 160 14:53 12.04.2022
2706 Mist 14 1008 95 3300 7.2 170 13:50 12.04.2022
2707 Mist 14 1008 93 2000 6.17 180 13:25 12.04.2022
2708 Rain 17 1008 94 10000 2.68 217 12:18 12.04.2022
2709 Clouds 17 1008 93 10000 4.63 30 11:35 12.04.2022
2710 Clouds 17 1007 93 10000 3.6 360 09:47 12.04.2022
2711 Rain 17 1006 92 10000 7.2 360 08:49 12.04.2022
2712 Clouds 18 1007 88 10000 6.69 340 06:47 12.04.2022
2713 Rain 18 1007 85 10000 7.72 360 05:41 12.04.2022
2714 Clouds 17 1008 86 10000 8.75 340 02:37 12.04.2022
2715 Clouds 17 1009 85 10000 8.75 10 23:24 11.04.2022
2716 Clouds 17 1009 86 10000 8.75 350 22:32 11.04.2022
2717 Clouds 17 1009 88 10000 6.69 350 21:22 11.04.2022
2718 Clouds 17 1009 88 10000 6.17 350 20:35 11.04.2022
2719 Clouds 17 1010 88 10000 5.66 340 19:59 11.04.2022
2720 Clouds 16 1010 88 10000 6.69 340 19:26 11.04.2022
2721 Clouds 16 1010 87 10000 5.66 340 18:54 11.04.2022
2722 Clouds 16 1011 88 10000 5.14 340 17:58 11.04.2022
2723 Clouds 16 1011 88 10000 7.72 330 17:38 11.04.2022
2724 Clouds 17 1012 85 10000 8.23 350 16:33 11.04.2022
2725 Clear 17 1013 86 10000 8.75 330 14:49 11.04.2022
2726 Clouds 16 1013 81 10000 8.75 350 13:34 11.04.2022
2727 Clouds 16 1014 81 10000 10.8 350 12:39 11.04.2022
2728 Clouds 16 1014 81 10000 10.8 350 12:20 11.04.2022
2729 Clouds 16 1014 80 10000 9.77 340 10:37 11.04.2022
2730 Clouds 16 1015 80 10000 9.77 350 09:49 11.04.2022
2731 Clouds 16 1014 77 10000 9.26 350 07:58 11.04.2022
2732 Clouds 18 1015 71 10000 11.32 350 04:35 11.04.2022
2733 Clouds 17 1019 75 10000 12.35 360 23:30 10.04.2022
2734 Clouds 16 1020 74 10000 11.83 360 22:27 10.04.2022
2735 Clouds 16 1019 77 10000 11.32 360 21:49 10.04.2022
2736 Clouds 16 1019 78 10000 10.8 360 20:50 10.04.2022
2737 Clouds 15 1019 77 10000 10.8 10 19:56 10.04.2022
2738 Clouds 15 1020 78 10000 8.75 10 19:34 10.04.2022
2739 Clouds 15 1020 79 10000 8.23 20 18:48 10.04.2022
2740 Clouds 15 1020 79 10000 8.23 20 18:48 10.04.2022
2741 Clouds 15 1020 80 10000 7.2 20 18:24 10.04.2022
2742 Clouds 15 1021 81 10000 5.66 30 17:42 10.04.2022
2743 Clouds 15 1022 86 10000 6.17 30 16:51 10.04.2022
2744 Clouds 15 1023 83 10000 7.2 20 15:38 10.04.2022
2745 Clouds 15 1023 89 10000 4.63 30 14:40 10.04.2022
2746 Clear 15 1024 91 10000 5.14 40 12:58 10.04.2022
2747 Clear 15 1024 90 10000 4.12 30 12:26 10.04.2022
2748 Clouds 14 1024 90 10000 2.06 20 11:35 10.04.2022
2749 Clouds 14 1024 90 10000 1.54 30 10:58 10.04.2022
2750 Clouds 13 1024 90 10000 1.54 30 10:22 10.04.2022
2751 Clear 14 1024 88 10000 1.03 70 09:40 10.04.2022
2752 Clouds 16 1024 83 10000 1.54 160 08:25 10.04.2022
2753 Clouds 17 1023 79 10000 2.06 170 07:47 10.04.2022
2754 Clouds 19 1024 72 10000 3.6 180 06:43 10.04.2022
2755 Clouds 19 1025 72 10000 5.66 360 02:48 10.04.2022
2756 Clouds 18 1025 80 10000 6.69 10 00:51 10.04.2022
2757 Clouds 17 1024 80 10000 7.72 10 23:50 09.04.2022
2758 Clouds 16 1025 84 10000 6.69 20 22:50 09.04.2022
2759 Clouds 15 1023 86 10000 6.17 20 21:48 09.04.2022
2760 Clouds 14 1023 86 10000 6.17 20 20:57 09.04.2022
2761 Clouds 14 1023 87 10000 7.2 10 20:26 09.04.2022
2762 Clouds 14 1023 88 10000 7.72 10 19:42 09.04.2022
2763 Clouds 14 1023 89 10000 7.2 10 19:18 09.04.2022
2764 Clouds 14 1023 89 10000 7.2 10 19:18 09.04.2022
2765 Clouds 13 1023 90 10000 7.2 20 18:22 09.04.2022
2766 Clouds 13 1023 90 10000 6.69 20 17:40 09.04.2022
2767 Clouds 13 1023 90 10000 6.17 20 16:54 09.04.2022
2768 Clear 12 1024 90 10000 4.63 10 16:24 09.04.2022
2769 Clear 12 1025 89 10000 4.12 20 15:43 09.04.2022
2770 Clear 11 1027 87 10000 3.6 10 14:44 09.04.2022
2771 Clear 11 1027 87 10000 3.6 10 14:44 09.04.2022
2772 Clear 10 1025 95 10000 2.57 20 14:23 09.04.2022
2773 Clear 10 1025 86 10000 3.09 10 13:21 09.04.2022
2774 Clear 10 1025 85 10000 4.12 10 12:51 09.04.2022
2775 Clear 11 1026 82 10000 1.54 30 11:40 09.04.2022
2776 Clear 11 1025 81 10000 1.54 20 10:21 09.04.2022
2777 Clear 10 1025 85 10000 1.03 40 09:47 09.04.2022
2778 Haze 11 1025 83 4600 1.54 280 08:57 09.04.2022
2779 Clear 14 1025 74 10000 2.06 160 07:32 09.04.2022
2780 Clouds 16 1026 65 10000 4.12 170 02:58 09.04.2022
2781 Clouds 16 1026 69 10000 5.66 150 00:25 09.04.2022
2782 Clouds 14 1025 74 10000 6.69 150 22:58 08.04.2022
2783 Clouds 13 1024 75 10000 6.69 160 21:34 08.04.2022
2784 Clouds 13 1023 77 10000 7.2 160 20:41 08.04.2022
2785 Clouds 13 1022 78 10000 8.75 150 19:39 08.04.2022
2786 Clear 13 1022 79 10000 8.75 170 18:31 08.04.2022
2787 Clouds 13 1022 79 10000 8.75 170 17:55 08.04.2022
2788 Clouds 14 1021 81 10000 9.77 170 17:27 08.04.2022
2789 Clouds 13 1021 86 10000 9.26 160 16:51 08.04.2022
2790 Clouds 13 1021 93 10000 5.14 150 16:20 08.04.2022
2791 Clear 11 1023 93 10000 1.54 40 15:27 08.04.2022
2792 Clear 12 1022 87 10000 1.03 70 14:40 08.04.2022
2793 Clouds 11 1020 86 10000 1.54 40 13:55 08.04.2022
2794 Clouds 11 1019 85 10000 1.54 70 13:30 08.04.2022
2795 Clouds 11 1018 86 10000 2.06 30 12:42 08.04.2022
2796 Clouds 12 1018 87 10000 2.57 10 10:55 08.04.2022
2797 Clouds 14 1017 81 10000 3.6 20 09:41 08.04.2022
2798 Clouds 14 1017 77 10000 4.12 20 08:58 08.04.2022
2799 Clear 15 1016 72 10000 5.66 360 07:42 08.04.2022
2800 Clear 17 1016 67 10000 5.14 360 06:44 08.04.2022
2801 Clouds 18 1018 72 10000 5.66 10 02:29 08.04.2022
2802 Clouds 17 1018 78 10000 6.69 10 00:28 08.04.2022
2803 Clouds 16 1019 81 10000 6.69 20 23:41 07.04.2022
2804 Clouds 14 1018 81 10000 5.66 20 22:41 07.04.2022
2805 Clouds 14 1018 81 10000 5.66 20 22:22 07.04.2022
2806 Clouds 13 1018 81 10000 5.14 20 21:56 07.04.2022
2807 Clouds 12 1018 80 10000 5.66 20 21:23 07.04.2022
2808 Clouds 12 1018 80 10000 7.2 30 20:42 07.04.2022
2809 Clouds 12 1018 85 10000 5.14 30 19:25 07.04.2022
2810 Clouds 10 1019 84 10000 5.14 20 17:28 07.04.2022
2811 Clouds 10 1020 86 10000 4.63 20 16:51 07.04.2022
2812 Clouds 10 1020 85 10000 3.6 30 16:33 07.04.2022
2813 Clouds 9 1021 85 10000 3.09 30 15:39 07.04.2022
2814 Clouds 10 1021 85 10000 3.09 20 13:52 07.04.2022
2815 Clouds 10 1021 84 10000 2.57 10 13:23 07.04.2022
2816 Clouds 8 1022 85 10000 2.06 40 11:49 07.04.2022
2817 Clouds 10 1022 78 10000 4.12 140 10:40 07.04.2022
2818 Clouds 12 1020 71 10000 6.69 160 08:43 07.04.2022
2819 Clouds 13 1020 68 10000 8.75 160 06:59 07.04.2022
2820 Clouds 14 1019 71 8000 10.29 190 04:36 07.04.2022
2821 Clouds 14 1019 71 6000 12.35 190 02:32 07.04.2022
2822 Clouds 13 1018 75 8000 14.4 190 00:42 07.04.2022
2823 Haze 12 1017 82 5000 13.89 190 23:21 06.04.2022
2824 Haze 13 1016 74 5000 12.35 190 22:44 06.04.2022
2825 Clouds 12 1014 77 9000 15.43 190 21:47 06.04.2022
2826 Clouds 13 1013 81 10000 13.89 190 20:43 06.04.2022
2827 Clouds 13 1012 76 10000 11.83 180 19:59 06.04.2022
2828 Clouds 13 1012 76 10000 11.83 180 19:59 06.04.2022
2829 Clouds 13 1012 76 10000 9.77 180 19:20 06.04.2022
2830 Clouds 12 1011 80 10000 10.29 170 18:48 06.04.2022
2831 Clouds 13 1010 77 10000 9.26 190 17:36 06.04.2022
2832 Clouds 13 1009 76 10000 10.8 180 16:39 06.04.2022
2833 Clouds 13 1009 81 10000 10.8 180 16:19 06.04.2022
2834 Clouds 13 1008 81 10000 10.8 160 15:40 06.04.2022
2835 Clouds 14 1006 88 10000 11.83 160 13:34 06.04.2022
2836 Clouds 14 1006 88 10000 11.83 160 13:34 06.04.2022
2837 Clouds 15 1003 95 10000 7.72 210 12:29 06.04.2022
2838 Clouds 17 1000 95 8000 2.57 350 10:57 06.04.2022
2839 Clouds 17 1000 95 8000 3.09 350 10:33 06.04.2022
2840 Rain 18 998 94 10000 3.09 360 09:46 06.04.2022
2841 Haze 18 997 94 5000 5.66 330 08:51 06.04.2022
2842 Fog 18 997 95 1300 7.2 340 07:58 06.04.2022
2843 Clouds 19 998 87 10000 10.8 340 05:23 06.04.2022
2844 Rain 19 1001 86 10000 9.77 330 00:20 06.04.2022
2845 Clouds 19 1001 88 10000 10.8 330 23:47 05.04.2022
2846 Clouds 18 1002 93 10000 9.77 340 21:50 05.04.2022
2847 Drizzle 18 1001 94 10000 8.75 350 20:59 05.04.2022
2848 Rain 17 1001 95 4800 6.69 10 20:23 05.04.2022
2849 Clouds 18 1003 91 10000 10.8 350 18:31 05.04.2022
2850 Rain 18 1004 90 10000 8.75 360 17:21 05.04.2022
2851 Clouds 18 1006 88 10000 7.72 360 16:42 05.04.2022
2852 Clouds 18 1006 88 10000 6.69 360 15:51 05.04.2022
2853 Clouds 18 1006 88 10000 7.72 340 15:30 05.04.2022
2854 Clouds 18 1007 91 10000 7.72 340 13:46 05.04.2022
2855 Rain 18 1008 90 10000 6.17 340 12:29 05.04.2022
2856 Rain 18 1008 91 10000 9.26 350 11:43 05.04.2022
2857 Clouds 19 1008 91 10000 9.26 350 11:24 05.04.2022
2858 Rain 19 1008 89 10000 10.29 340 09:31 05.04.2022
2859 Rain 19 1008 91 10000 9.26 350 08:33 05.04.2022
2860 Clouds 18 1011 93 10000 7.72 350 03:50 05.04.2022
2861 Clouds 18 1013 88 10000 10.29 360 23:42 04.04.2022
2862 Clouds 18 1014 90 10000 10.29 10 22:37 04.04.2022
2863 Clouds 17 1014 90 10000 10.29 10 21:48 04.04.2022
2864 Clouds 17 1013 90 10000 10.8 360 21:19 04.04.2022
2865 Clouds 17 1013 90 10000 10.8 360 20:47 04.04.2022
2866 Clouds 17 1013 89 10000 9.77 360 19:28 04.04.2022
2867 Clouds 18 1014 89 10000 8.75 360 18:43 04.04.2022
2868 Clouds 18 1014 88 10000 8.75 360 17:21 04.04.2022
2869 Clouds 17 1015 88 10000 10.29 360 16:34 04.04.2022
2870 Clouds 17 1015 88 10000 9.26 20 15:34 04.04.2022
2871 Clouds 17 1015 87 10000 9.77 20 14:46 04.04.2022
2872 Clouds 17 1016 87 10000 8.23 20 14:28 04.04.2022
2873 Clouds 17 1016 87 10000 8.23 20 12:59 04.04.2022
2874 Clouds 17 1017 87 10000 9.77 350 11:29 04.04.2022
2875 Clouds 17 1017 87 10000 9.26 360 10:29 04.04.2022
2876 Clouds 18 1016 81 10000 8.75 10 06:58 04.04.2022
2877 Clouds 21 1017 70 10000 10.29 10 03:18 04.04.2022
2878 Clouds 19 1018 76 10000 7.2 30 23:47 03.04.2022
2879 Clouds 17 1018 87 10000 5.66 20 22:24 03.04.2022
2880 Clouds 15 1018 91 10000 5.66 20 21:32 03.04.2022
2881 Clouds 14 1018 92 10000 4.12 20 20:36 03.04.2022
2882 Clouds 14 1018 92 10000 4.63 20 19:29 03.04.2022
2883 Clouds 14 1018 93 10000 4.63 20 18:27 03.04.2022
2884 Clouds 14 1018 93 10000 4.63 20 17:41 03.04.2022
2885 Clouds 14 1018 93 10000 3.09 20 16:50 03.04.2022
2886 Clouds 14 1018 93 10000 4.12 10 15:59 03.04.2022
2887 Clouds 15 1018 93 10000 3.6 30 14:28 03.04.2022
2888 Clouds 15 1018 92 10000 4.63 20 13:44 03.04.2022
2889 Clouds 16 1018 92 10000 5.14 20 12:19 03.04.2022
2890 Clouds 17 1017 90 10000 5.14 20 10:32 03.04.2022
2891 Clouds 17 1017 89 10000 5.14 10 09:23 03.04.2022
2892 Clouds 19 1016 84 10000 7.2 360 07:24 03.04.2022
2893 Clouds 21 1015 70 10000 8.23 360 03:46 03.04.2022
2894 Clouds 20 1017 76 10000 4.63 30 00:36 03.04.2022
2895 Clouds 17 1017 89 10000 2.57 360 22:54 02.04.2022
2896 Clouds 16 1017 93 10000 1.54 10 21:57 02.04.2022
2897 Clouds 16 1017 93 10000 2.06 20 21:33 02.04.2022
2898 Clouds 15 1016 92 10000 2.57 360 20:51 02.04.2022
2899 Clouds 15 1017 93 10000 2.57 360 19:28 02.04.2022
2900 Clouds 16 1017 93 10000 2.57 360 18:21 02.04.2022
2901 Clouds 16 1017 93 10000 3.09 350 17:47 02.04.2022
2902 Clouds 16 1018 93 6000 1.03 350 16:22 02.04.2022
2903 Clouds 16 1017 93 10000 2.06 360 15:21 02.04.2022
2904 Clouds 16 1017 93 10000 2.57 10 14:47 02.04.2022
2905 Clouds 16 1017 92 10000 3.6 30 13:35 02.04.2022
2906 Clouds 16 1017 94 10000 3.6 20 12:37 02.04.2022
2907 Clouds 16 1017 91 10000 3.6 30 10:58 02.04.2022
2908 Clouds 16 1016 89 10000 4.12 360 08:49 02.04.2022
2909 Clouds 19 1015 78 10000 5.66 10 06:50 02.04.2022
2910 Clouds 21 1017 64 10000 7.2 10 03:45 02.04.2022
2911 Clouds 17 1017 89 10000 4.12 350 23:56 01.04.2022
2912 Clouds 16 1017 91 10000 3.6 20 23:18 01.04.2022
2913 Clouds 13 1017 92 10000 1.03 210 21:33 01.04.2022
2914 Clouds 12 1017 93 10000 2.06 230 20:51 01.04.2022
2915 Clouds 13 1017 94 10000 5.14 220 19:57 01.04.2022
2916 Clouds 13 1017 94 10000 5.66 230 19:31 01.04.2022
2917 Clouds 13 1018 93 10000 5.14 230 18:45 01.04.2022
2918 Clouds 14 1018 92 10000 4.63 210 17:46 01.04.2022
2919 Clouds 14 1019 91 10000 3.6 180 16:52 01.04.2022
2920 Clouds 14 1019 92 10000 4.63 200 15:39 01.04.2022
2921 Clouds 14 1020 94 10000 4.12 190 14:20 01.04.2022
2922 Clouds 14 1020 94 8000 4.63 180 13:34 01.04.2022
2923 Mist 14 1020 95 2500 6.69 150 12:32 01.04.2022
2924 Mist 14 1020 95 2500 6.69 150 12:32 01.04.2022
2925 Clouds 14 1020 93 10000 6.17 170 11:40 01.04.2022
2926 Clouds 14 1020 94 8000 6.17 180 10:19 01.04.2022
2927 Clouds 14 1020 93 7000 8.23 190 08:47 01.04.2022
2928 Clouds 14 1019 91 6000 10.29 190 06:54 01.04.2022
2929 Clouds 15 1019 92 8000 11.83 190 04:49 01.04.2022
2930 Clouds 15 1019 92 8000 12.86 190 04:30 01.04.2022
2931 Clouds 16 1018 95 6000 9.26 190 01:56 01.04.2022
2932 Clouds 16 1017 90 10000 8.75 180 22:58 31.03.2022
2933 Rain 16 1017 90 9000 9.77 180 21:51 31.03.2022
2934 Clouds 16 1016 90 10000 9.26 180 21:32 31.03.2022
2935 Clouds 16 1015 93 10000 5.66 190 20:29 31.03.2022
2936 Clouds 16 1015 93 10000 5.14 180 19:48 31.03.2022
2937 Drizzle 16 1015 93 3600 4.12 230 18:43 31.03.2022
2938 Clouds 16 1014 93 10000 3.6 260 17:49 31.03.2022
2939 Clouds 16 1013 92 10000 6.69 20 16:38 31.03.2022
2940 Clouds 16 1013 93 10000 6.17 20 15:43 31.03.2022
2941 Clouds 16 1013 93 10000 7.2 10 15:19 31.03.2022
2942 Clouds 16 1013 92 10000 5.66 20 14:35 31.03.2022
2943 Clouds 16 1012 90 10000 7.2 30 11:43 31.03.2022
2944 Clouds 16 1012 89 10000 6.69 20 10:55 31.03.2022
2945 Clouds 17 1012 85 10000 6.17 10 09:44 31.03.2022
2946 Clouds 18 1012 81 10000 5.14 360 07:55 31.03.2022
2947 Clouds 22 1012 74 10000 2.06 210 04:46 31.03.2022
2948 Fog 17 1015 94 450 1.03 60 23:43 30.03.2022
2949 Fog 15 1015 96 600 2.06 360 22:32 30.03.2022
2950 Fog 13 1015 96 250 1.54 80 21:38 30.03.2022
2951 Fog 12 1015 96 250 0.51 160 20:53 30.03.2022
2952 Fog 13 1015 96 300 1.54 40 19:59 30.03.2022
2953 Fog 12 1015 96 450 1.03 60 18:59 30.03.2022
2954 Fog 14 1015 93 500 1.03 40 18:18 30.03.2022
2955 Fog 13 1016 95 250 1.54 70 17:44 30.03.2022
2956 Fog 13 1016 96 750 1.03 10 16:54 30.03.2022
2957 Fog 12 1016 95 200 1.03 60 16:31 30.03.2022
2958 Fog 13 1017 95 200 1.03 340 14:56 30.03.2022
2959 Fog 14 1017 95 200 1.03 310 13:34 30.03.2022
2960 Fog 14 1017 95 150 1.54 180 12:42 30.03.2022
2961 Fog 14 1017 93 250 1.54 360 10:55 30.03.2022
2962 Clouds 16 1017 93 10000 3.09 240 09:58 30.03.2022
2963 Fog 17 1016 91 800 5.66 220 08:57 30.03.2022
2964 Clouds 18 1016 88 10000 7.72 200 07:31 30.03.2022
2965 Mist 20 1016 85 1500 6.17 200 05:40 30.03.2022
2966 Fog 20 1016 86 350 6.17 210 03:21 30.03.2022
2967 Fog 17 1018 97 600 5.66 220 23:42 29.03.2022
2968 Drizzle 16 1018 97 1000 4.63 210 22:19 29.03.2022
2969 Drizzle 16 1018 97 2300 4.12 220 21:41 29.03.2022
2970 Mist 15 1017 96 4100 3.6 220 20:44 29.03.2022
2971 Drizzle 15 1017 96 1800 5.66 200 19:45 29.03.2022
2972 Mist 15 1017 96 5000 5.14 190 18:54 29.03.2022
2973 Clouds 15 1017 96 8000 5.14 190 18:18 29.03.2022
2974 Mist 15 1017 96 3000 7.2 200 17:20 29.03.2022
2975 Mist 15 1017 96 1800 6.17 210 16:54 29.03.2022
2976 Drizzle 16 1017 96 2000 5.14 200 15:47 29.03.2022
2977 Drizzle 16 1018 96 1800 6.17 210 14:43 29.03.2022
2978 Drizzle 16 1018 96 1100 6.17 210 13:41 29.03.2022
2979 Mist 16 1018 96 1600 6.69 200 12:40 29.03.2022
2980 Mist 16 1018 95 1900 7.2 190 11:27 29.03.2022
2981 Mist 16 1018 95 1800 7.2 190 10:23 29.03.2022
2982 Fog 16 1017 94 1400 5.66 170 08:57 29.03.2022
2983 Mist 17 1016 90 1400 7.2 170 06:53 29.03.2022
2984 Clouds 19 1016 77 10000 7.72 220 02:55 29.03.2022
2985 Clear 17 1017 85 10000 3.6 200 23:40 28.03.2022
2986 Clear 15 1017 89 10000 2.06 200 22:58 28.03.2022
2987 Clear 15 1017 89 10000 2.06 200 22:58 28.03.2022
2988 Clear 14 1017 91 10000 1.54 210 22:35 28.03.2022
2989 Clear 12 1017 95 10000 4.12 230 21:47 28.03.2022
2990 Clear 11 1016 94 10000 2.06 200 20:37 28.03.2022
2991 Clouds 12 1016 94 10000 4.63 210 19:57 28.03.2022
2992 Clouds 12 1016 93 10000 6.69 220 19:38 28.03.2022
2993 Clouds 12 1016 94 10000 5.66 210 18:51 28.03.2022
2994 Clouds 13 1016 93 10000 6.17 170 17:41 28.03.2022
2995 Clouds 12 1016 93 10000 6.17 160 16:58 28.03.2022
2996 Clouds 12 1018 89 10000 3.6 160 15:35 28.03.2022
2997 Clouds 14 1018 88 10000 3.09 170 14:24 28.03.2022
2998 Clouds 13 1019 89 10000 3.09 140 13:19 28.03.2022
2999 Clouds 12 1019 89 10000 3.09 150 11:52 28.03.2022
3000 Clouds 13 1019 85 10000 4.63 140 10:35 28.03.2022
3001 Clouds 15 1019 83 10000 5.66 140 09:21 28.03.2022
3002 Clouds 15 1019 83 10000 7.72 150 08:40 28.03.2022
3003 Clouds 15 1019 83 10000 7.72 150 08:20 28.03.2022
3004 Clouds 16 1020 81 10000 8.23 160 06:55 28.03.2022
3005 Clouds 16 1022 80 10000 7.72 170 02:20 28.03.2022
3006 Clouds 14 1023 91 6000 8.23 170 22:38 27.03.2022
3007 Mist 13 1022 93 4800 8.75 160 21:48 27.03.2022
3008 Haze 13 1022 93 5000 9.77 170 21:28 27.03.2022
3009 Clouds 13 1021 93 10000 8.75 170 20:41 27.03.2022
3010 Clouds 13 1021 92 10000 8.23 180 19:37 27.03.2022
3011 Clouds 13 1021 92 10000 8.75 180 18:45 27.03.2022
3012 Clouds 13 1021 92 10000 8.75 180 18:23 27.03.2022
3013 Clouds 13 1021 92 10000 8.75 180 18:23 27.03.2022
3014 Clouds 13 1021 93 10000 8.75 180 17:36 27.03.2022
3015 Clouds 14 1022 90 7000 8.23 170 15:51 27.03.2022
3016 Clouds 14 1022 87 10000 7.72 160 13:59 27.03.2022
3017 Clouds 14 1022 89 10000 7.2 160 13:21 27.03.2022
3018 Clouds 14 1022 82 10000 8.75 150 11:35 27.03.2022
3019 Clouds 14 1022 86 10000 8.75 150 09:37 27.03.2022
3020 Clouds 15 1021 83 10000 10.29 150 07:31 27.03.2022
3021 Clouds 18 1020 74 10000 10.8 150 04:24 27.03.2022
3022 Clouds 16 1021 75 10000 11.83 160 00:26 27.03.2022
3023 Clouds 15 1020 79 10000 11.83 170 22:52 26.03.2022
3024 Clouds 15 1020 82 10000 11.32 170 21:57 26.03.2022
3025 Clouds 15 1020 84 10000 9.77 170 21:30 26.03.2022
3026 Clouds 15 1018 84 10000 10.29 170 19:38 26.03.2022
3027 Clouds 15 1018 86 10000 10.8 170 18:44 26.03.2022
3028 Clouds 15 1018 87 10000 11.32 180 17:36 26.03.2022
3029 Clouds 14 1018 89 10000 9.77 170 16:40 26.03.2022
3030 Clouds 14 1018 89 10000 9.77 170 15:42 26.03.2022
3031 Clouds 15 1018 87 10000 10.29 170 13:56 26.03.2022
3032 Clouds 15 1017 86 10000 10.29 170 13:36 26.03.2022
3033 Clouds 15 1017 86 10000 8.75 180 11:50 26.03.2022
3034 Clouds 15 1017 86 10000 9.26 170 10:48 26.03.2022
3035 Clouds 15 1016 86 10000 10.29 160 08:50 26.03.2022
3036 Clouds 16 1014 81 10000 8.75 160 06:39 26.03.2022
3037 Clear 17 1014 77 10000 10.8 170 05:31 26.03.2022
3038 Clouds 17 1013 78 10000 9.77 180 02:24 26.03.2022
3039 Clouds 15 1012 76 10000 11.32 180 22:30 25.03.2022
3040 Clouds 14 1010 79 10000 10.29 180 20:58 25.03.2022
3041 Clouds 14 1010 81 10000 10.29 170 20:26 25.03.2022
3042 Clouds 14 1009 82 10000 11.32 170 19:19 25.03.2022
3043 Clouds 14 1008 83 10000 11.83 180 18:35 25.03.2022
3044 Clear 14 1008 82 10000 12.35 180 17:30 25.03.2022
3045 Clouds 14 1008 79 10000 12.86 180 16:27 25.03.2022
3046 Clouds 14 1008 75 10000 11.83 180 15:34 25.03.2022
3047 Clouds 15 1008 74 8000 11.32 190 13:29 25.03.2022
3048 Clouds 15 1009 73 9000 12.86 190 11:21 25.03.2022
3049 Clouds 15 1009 73 8000 13.38 180 09:31 25.03.2022
3050 Clouds 15 1008 74 9000 12.86 180 08:50 25.03.2022
3051 Clouds 15 1008 72 10000 11.32 180 07:42 25.03.2022
3052 Clouds 15 1007 73 10000 12.35 190 06:59 25.03.2022
3053 Haze 15 1007 82 5000 16.46 190 02:37 25.03.2022
3054 Rain 14 1007 93 4800 18.01 200 22:59 24.03.2022
3055 Rain 13 1006 95 2800 16.98 200 22:19 24.03.2022
3056 Rain 14 1006 91 5000 18.01 200 20:52 24.03.2022
3057 Drizzle 14 1005 92 5000 17.49 200 19:49 24.03.2022
3058 Rain 14 1004 93 3700 19.03 200 18:44 24.03.2022
3059 Rain 14 1003 94 3300 18.01 200 17:35 24.03.2022
3060 Mist 14 1004 95 2600 18.52 200 16:28 24.03.2022
3061 Rain 14 1004 94 2100 18.01 200 14:51 24.03.2022
3062 Rain 14 1004 95 2500 18.01 190 14:22 24.03.2022
3063 Rain 14 1004 94 2400 18.01 200 13:33 24.03.2022
3064 Rain 15 1004 95 2900 13.38 190 12:24 24.03.2022
3065 Rain 17 1003 96 4600 8.75 180 10:48 24.03.2022
3066 Drizzle 17 1002 96 8000 7.72 180 09:24 24.03.2022
3067 Rain 17 1002 95 7000 6.69 170 08:32 24.03.2022
3068 Rain 18 1000 94 10000 4.63 160 04:52 24.03.2022
3069 Rain 18 1000 96 7000 6.69 200 23:41 23.03.2022
3070 Rain 17 1000 96 8000 7.2 200 22:18 23.03.2022
3071 Rain 17 1000 95 8000 5.66 200 21:21 23.03.2022
3072 Clouds 16 1000 95 10000 1.03 330 19:51 23.03.2022
3073 Clouds 16 1000 95 10000 1.03 140 19:25 23.03.2022
3074 Clouds 16 1000 95 10000 1.03 210 17:48 23.03.2022
3075 Clouds 16 1000 95 10000 0.51 250 17:18 23.03.2022
3076 Clouds 17 1001 94 10000 2.57 60 15:25 23.03.2022
3077 Rain 17 1001 93 10000 2.57 40 14:47 23.03.2022
3078 Rain 17 1002 95 10000 1.54 190 13:30 23.03.2022
3079 Rain 18 1004 93 10000 2.06 310 10:50 23.03.2022
3080 Rain 19 1004 92 10000 2.06 170 08:21 23.03.2022
3081 Rain 20 1004 84 10000 2.57 170 05:50 23.03.2022
3082 Rain 21 1004 85 10000 2.06 180 01:59 23.03.2022
3083 Rain 21 1005 89 10000 2.57 180 00:25 23.03.2022
3084 Rain 21 1005 89 10000 2.57 180 00:25 23.03.2022
3085 Rain 18 1005 96 10000 0.51 80 21:40 22.03.2022
3086 Clouds 16 1005 96 10000 2.06 190 20:59 22.03.2022
3087 Clouds 16 1006 95 10000 2.06 190 20:18 22.03.2022
3088 Clouds 16 1005 96 10000 1.03 70 19:26 22.03.2022
3089 Rain 15 1005 95 10000 1.54 10 18:46 22.03.2022
3090 Rain 15 1005 96 8000 1.03 70 17:43 22.03.2022
3091 Rain 16 1005 95 6000 1.03 20 16:37 22.03.2022
3092 Clouds 16 1005 94 10000 1.54 30 15:41 22.03.2022
3093 Clouds 16 1006 94 10000 1.54 30 15:19 22.03.2022
3094 Clouds 16 1006 95 10000 1.03 90 14:42 22.03.2022
3095 Clouds 17 1006 94 10000 1.54 60 13:42 22.03.2022
3096 Clouds 17 1006 93 10000 2.57 80 11:53 22.03.2022
3097 Clouds 18 1006 93 10000 1.54 40 10:54 22.03.2022
3098 Clouds 19 1007 93 10000 1.03 70 09:21 22.03.2022
3099 Clouds 18 1006 94 10000 3.09 220 07:30 22.03.2022
3100 Clouds 24 1006 73 10000 4.63 210 03:55 22.03.2022
3101 Clouds 24 1007 76 10000 4.12 180 00:46 22.03.2022
3102 Clouds 20 1007 88 10000 3.6 170 22:46 21.03.2022
3103 Clouds 18 1007 93 10000 1.54 20 21:30 21.03.2022
3104 Rain 16 1007 96 10000 1.54 40 20:43 21.03.2022
3105 Clouds 16 1007 96 10000 1.54 50 20:23 21.03.2022
3106 Clouds 15 1007 96 10000 1.54 30 19:35 21.03.2022
3107 Clouds 15 1007 96 10000 1.54 30 19:35 21.03.2022
3108 Clouds 16 1007 96 10000 1.54 30 18:47 21.03.2022
3109 Clouds 16 1006 95 10000 0.51 220 17:35 21.03.2022
3110 Clouds 16 1007 95 10000 1.54 160 16:59 21.03.2022
3111 Clouds 17 1007 95 10000 1.03 180 16:27 21.03.2022
3112 Clouds 17 1007 93 7000 1.54 30 15:43 21.03.2022
3113 Clouds 17 1007 93 10000 2.06 20 14:36 21.03.2022
3114 Rain 17 1007 91 10000 4.63 60 13:20 21.03.2022
3115 Rain 18 1008 89 10000 6.17 30 11:58 21.03.2022
3116 Rain 17 1008 89 10000 4.12 20 11:25 21.03.2022
3117 Clouds 17 1008 91 6000 4.63 20 09:49 21.03.2022
3118 Rain 16 1006 92 10000 1.79 75 07:33 21.03.2022
3119 Rain 17 1008 91 10000 3.09 210 05:56 21.03.2022
3120 Rain 18 1013 72 10000 2.06 210 01:39 21.03.2022
3121 Clouds 17 1011 84 10000 1.03 170 22:57 20.03.2022
3122 Rain 16 1011 88 9000 0.51 200 22:25 20.03.2022
3123 Rain 14 1011 91 10000 0.51 20 21:37 20.03.2022
3124 Rain 13 1011 92 10000 0.51 20 20:55 20.03.2022
3125 Rain 13 1011 92 10000 0.51 130 20:29 20.03.2022
3126 Rain 13 1010 89 10000 0.51 10 19:49 20.03.2022
3127 Rain 12 1009 88 6000 0.51 320 19:19 20.03.2022
3128 Rain 12 1009 87 10000 1.54 30 17:44 20.03.2022
3129 Rain 12 1011 87 10000 1.03 40 17:24 20.03.2022
3130 Rain 12 1012 85 10000 1.54 50 15:58 20.03.2022
3131 Clouds 13 1012 86 10000 1.03 220 14:42 20.03.2022
3132 Clouds 13 1012 86 10000 1.03 140 13:38 20.03.2022
3133 Clouds 13 1013 85 10000 1.54 360 12:19 20.03.2022
3134 Clouds 16 1012 80 10000 3.09 10 09:59 20.03.2022
3135 Clouds 17 1012 79 10000 0.51 290 08:20 20.03.2022
3136 Clouds 20 1012 63 10000 4.63 200 05:49 20.03.2022
3137 Rain 21 1013 60 10000 5.66 210 03:18 20.03.2022
3138 Clouds 21 1014 63 10000 4.63 190 00:53 20.03.2022
3139 Rain 21 1014 64 10000 3.09 180 00:28 20.03.2022
3140 Clouds 17 1014 80 10000 1.54 320 22:25 19.03.2022
3141 Clouds 13 1014 90 10000 1.03 10 21:26 19.03.2022
3142 Clouds 13 1014 90 10000 1.03 10 21:26 19.03.2022
3143 Rain 10 1013 90 10000 0.51 310 19:22 19.03.2022
3144 Clouds 11 1013 90 10000 1.54 150 18:38 19.03.2022
3145 Clouds 11 1013 89 10000 1.03 100 17:49 19.03.2022
3146 Clouds 11 1013 89 10000 1.54 30 16:46 19.03.2022
3147 Clouds 11 1012 89 10000 1.03 20 15:26 19.03.2022
3148 Clouds 11 1013 88 10000 1.03 360 13:49 19.03.2022
3149 Clouds 11 1013 89 10000 1.54 30 12:43 19.03.2022
3150 Clouds 11 1013 89 10000 1.54 30 12:20 19.03.2022
3151 Clouds 12 1013 89 10000 1.54 70 11:45 19.03.2022
3152 Clouds 12 1012 84 10000 1.03 50 09:22 19.03.2022
3153 Clouds 20 1010 60 10000 5.66 200 04:53 19.03.2022
3154 Clouds 19 1010 64 10000 5.14 200 02:33 19.03.2022
3155 Clouds 17 1010 67 10000 1.03 340 23:52 18.03.2022
3156 Clouds 16 1009 74 10000 2.57 340 22:58 18.03.2022
3157 Clouds 14 1009 83 10000 3.6 360 22:21 18.03.2022
3158 Clouds 10 1011 81 10000 3.09 40 20:26 18.03.2022
3159 Clear 9 1011 87 10000 3.09 30 19:25 18.03.2022
3160 Clear 9 1011 93 10000 3.09 20 18:58 18.03.2022
3161 Clear 9 1011 93 10000 2.57 40 16:56 18.03.2022
3162 Clear 7 1007 86 10000 2.06 40 16:24 18.03.2022
3163 Clear 9 1009 84 10000 1.54 20 14:27 18.03.2022
3164 Clear 9 1009 84 7000 0.51 320 13:40 18.03.2022
3165 Clear 9 1011 86 10000 1.54 60 11:37 18.03.2022
3166 Clear 10 1012 83 10000 1.54 160 10:27 18.03.2022
3167 Clear 12 1012 76 10000 4.12 140 08:46 18.03.2022
3168 Clear 14 1012 66 10000 5.14 170 06:59 18.03.2022
3169 Clouds 16 1012 59 10000 5.66 170 04:55 18.03.2022
3170 Clouds 16 1014 60 10000 6.17 200 01:38 18.03.2022
3171 Clouds 15 1015 59 10000 7.2 200 23:59 17.03.2022
3172 Clouds 14 1015 64 10000 6.17 180 22:45 17.03.2022
3173 Clouds 14 1015 65 10000 6.17 180 22:19 17.03.2022
3174 Clouds 13 1016 67 10000 5.66 170 21:30 17.03.2022
3175 Clouds 12 1015 74 10000 5.14 180 20:53 17.03.2022
3176 Clouds 12 1015 71 10000 3.6 140 20:19 17.03.2022
3177 Clouds 12 1015 69 10000 5.14 170 19:38 17.03.2022
3178 Clouds 12 1015 69 10000 6.17 160 18:52 17.03.2022
3179 Clouds 11 1016 73 10000 6.69 180 17:29 17.03.2022
3180 Clouds 12 1016 72 10000 6.69 170 16:20 17.03.2022
3181 Clouds 12 1017 71 10000 6.17 170 15:43 17.03.2022
3182 Clouds 12 1018 73 10000 5.66 160 14:59 17.03.2022
3183 Clouds 12 1018 71 10000 4.63 140 13:35 17.03.2022
3184 Clouds 12 1019 73 10000 6.17 160 12:46 17.03.2022
3185 Clouds 12 1019 72 10000 4.63 140 11:33 17.03.2022
3186 Clouds 14 1019 69 10000 5.66 140 10:43 17.03.2022
3187 Clouds 14 1020 70 10000 6.69 150 09:36 17.03.2022
3188 Clouds 14 1019 70 10000 7.2 150 08:19 17.03.2022
3189 Clouds 16 1020 66 10000 6.69 160 05:51 17.03.2022
3190 Clouds 16 1020 64 10000 7.72 150 04:30 17.03.2022
3191 Clouds 15 1023 64 10000 7.2 160 00:27 17.03.2022
3192 Clouds 15 1024 69 10000 8.23 160 22:56 16.03.2022
3193 Clouds 15 1024 71 10000 7.2 170 22:36 16.03.2022
3194 Clouds 14 1024 72 10000 8.23 160 21:56 16.03.2022
3195 Clouds 13 1024 74 10000 8.23 160 20:40 16.03.2022
3196 Clouds 13 1023 71 10000 7.72 160 19:23 16.03.2022
3197 Clouds 13 1023 74 10000 8.23 140 18:42 16.03.2022
3198 Clouds 13 1023 75 10000 7.2 140 17:49 16.03.2022
3199 Clouds 13 1023 74 10000 8.23 150 17:31 16.03.2022
3200 Clouds 13 1024 69 10000 8.23 170 16:21 16.03.2022
3201 Clouds 13 1024 71 10000 8.23 180 14:50 16.03.2022
3202 Clouds 13 1025 74 10000 7.72 170 13:36 16.03.2022
3203 Clouds 14 1025 71 10000 8.23 160 12:43 16.03.2022
3204 Clouds 14 1025 76 10000 8.75 160 11:23 16.03.2022
3205 Clouds 14 1025 79 10000 8.75 150 10:32 16.03.2022
3206 Clouds 14 1025 79 10000 8.75 150 09:56 16.03.2022
3207 Drizzle 15 1025 80 10000 7.2 150 07:43 16.03.2022
3208 Clouds 17 1025 76 10000 7.2 160 02:45 16.03.2022
3209 Clouds 16 1026 80 10000 8.75 170 22:55 15.03.2022
3210 Clouds 16 1026 83 10000 8.75 190 22:35 15.03.2022
3211 Clouds 15 1025 82 10000 8.75 170 20:59 15.03.2022
3212 Clouds 15 1025 78 10000 8.75 140 19:39 15.03.2022
3213 Clouds 13 1024 84 10000 9.77 170 17:46 15.03.2022
3214 Clouds 14 1025 84 10000 8.75 160 16:38 15.03.2022
3215 Clouds 14 1025 81 10000 7.72 160 15:38 15.03.2022
3216 Clouds 14 1025 83 10000 10.29 160 14:54 15.03.2022
3217 Clouds 14 1026 78 10000 9.77 150 13:56 15.03.2022
3218 Clouds 14 1026 77 10000 8.75 160 13:22 15.03.2022
3219 Clouds 15 1026 78 10000 9.26 140 11:33 15.03.2022
3220 Clouds 15 1025 74 10000 9.26 160 10:27 15.03.2022
3221 Clouds 15 1025 75 10000 9.26 160 09:20 15.03.2022
3222 Clouds 14 1025 76 10000 10.29 140 08:21 15.03.2022
3223 Clouds 15 1024 75 10000 10.29 170 07:36 15.03.2022
3224 Clouds 16 1024 70 10000 9.77 160 05:56 15.03.2022
3225 Clouds 18 1024 59 10000 9.26 150 00:31 15.03.2022
3226 Clouds 15 1023 70 10000 9.26 140 23:29 14.03.2022
3227 Clouds 15 1023 81 10000 8.23 160 22:49 14.03.2022
3228 Clouds 14 1023 82 10000 9.26 170 21:51 14.03.2022
3229 Clouds 14 1023 83 10000 8.75 180 20:55 14.03.2022
3230 Clouds 14 1022 80 10000 8.75 170 20:24 14.03.2022
3231 Clouds 15 1021 75 10000 8.75 170 19:24 14.03.2022
3232 Clouds 15 1021 76 10000 8.23 180 17:57 14.03.2022
3233 Clouds 15 1021 75 10000 6.69 180 17:39 14.03.2022
3234 Clouds 15 1021 71 10000 7.2 170 16:29 14.03.2022
3235 Clouds 15 1021 73 10000 6.69 170 14:47 14.03.2022
3236 Clouds 15 1021 71 10000 5.66 150 13:29 14.03.2022
3237 Clouds 15 1022 75 10000 6.69 150 11:26 14.03.2022
3238 Clouds 15 1021 76 10000 6.69 150 09:57 14.03.2022
3239 Clouds 15 1021 77 10000 6.69 150 09:34 14.03.2022
3240 Clouds 15 1021 76 10000 6.17 150 08:57 14.03.2022
3241 Clouds 15 1020 77 10000 7.2 150 08:26 14.03.2022
3242 Clouds 17 1020 73 10000 7.72 150 06:19 14.03.2022
3243 Clouds 18 1022 69 10000 8.23 150 02:58 14.03.2022
3244 Clouds 17 1023 71 10000 7.2 150 01:39 14.03.2022
3245 Clouds 17 1024 68 10000 6.69 150 23:41 13.03.2022
3246 Clouds 16 1024 76 10000 7.72 160 21:46 13.03.2022
3247 Clouds 15 1024 78 10000 6.69 160 21:21 13.03.2022
3248 Clouds 15 1025 77 10000 7.72 150 20:46 13.03.2022
3249 Clouds 15 1025 76 10000 7.72 150 20:21 13.03.2022
3250 Clouds 15 1025 76 10000 7.2 150 19:41 13.03.2022
3251 Clouds 15 1025 77 10000 7.2 150 19:22 13.03.2022
3252 Clouds 15 1025 77 10000 7.72 150 18:41 13.03.2022
3253 Clouds 15 1025 76 10000 7.72 150 18:22 13.03.2022
3254 Clouds 15 1025 73 10000 6.17 140 17:36 13.03.2022
3255 Clouds 15 1025 71 10000 5.14 150 16:45 13.03.2022
3256 Clouds 15 1025 71 10000 7.2 150 16:21 13.03.2022
3257 Clouds 15 1026 68 10000 7.72 150 15:39 13.03.2022
3258 Clouds 15 1026 72 10000 9.26 150 14:36 13.03.2022
3259 Clouds 15 1027 66 10000 8.23 140 13:27 13.03.2022
3260 Clouds 15 1027 67 10000 6.69 150 12:21 13.03.2022
3261 Clouds 15 1027 67 10000 10.8 160 11:38 13.03.2022
3262 Clouds 15 1027 70 10000 10.29 160 10:49 13.03.2022
3263 Clouds 15 1027 67 10000 9.26 160 10:25 13.03.2022
3264 Clouds 15 1027 66 10000 8.75 150 09:42 13.03.2022
3265 Clouds 15 1027 66 10000 9.26 140 08:49 13.03.2022
3266 Clouds 15 1027 66 10000 9.26 140 08:49 13.03.2022
3267 Clouds 15 1027 72 10000 10.8 170 08:23 13.03.2022
3268 Clouds 17 1027 68 10000 9.77 160 06:40 13.03.2022
3269 Clouds 17 1026 63 10000 9.77 160 04:51 13.03.2022
3270 Clouds 18 1027 62 10000 11.32 160 01:46 13.03.2022
3271 Clouds 16 1026 70 10000 9.77 180 22:51 12.03.2022
3272 Clouds 17 1026 70 10000 10.29 160 21:29 12.03.2022
3273 Clouds 15 1025 75 10000 10.29 160 20:18 12.03.2022
3274 Clouds 15 1024 78 10000 9.77 160 19:43 12.03.2022
3275 Clouds 15 1023 78 10000 10.29 170 18:37 12.03.2022
3276 Clouds 15 1023 79 10000 9.77 170 17:48 12.03.2022
3277 Clouds 16 1023 79 10000 9.77 170 16:28 12.03.2022
3278 Clouds 16 1023 79 10000 9.77 170 15:40 12.03.2022
3279 Clouds 16 1023 80 10000 9.77 170 15:18 12.03.2022
3280 Clouds 16 1022 79 10000 8.75 160 13:53 12.03.2022
3281 Clouds 16 1022 79 10000 8.75 160 12:27 12.03.2022
3282 Clouds 16 1022 79 10000 9.26 170 11:52 12.03.2022
3283 Clouds 16 1021 78 10000 8.75 160 11:20 12.03.2022
3284 Clouds 16 1021 80 10000 9.26 160 09:59 12.03.2022
3285 Clouds 16 1020 78 10000 9.77 170 09:40 12.03.2022
3286 Clouds 18 1018 74 10000 10.29 170 07:51 12.03.2022
3287 Clouds 21 1015 74 10000 8.75 200 05:44 12.03.2022
3288 Clouds 18 1011 89 9000 8.23 360 00:26 12.03.2022
3289 Clouds 18 1011 89 10000 8.75 360 23:37 11.03.2022
3290 Clouds 18 1011 89 10000 9.26 10 21:55 11.03.2022
3291 Clouds 18 1011 90 10000 8.75 20 20:59 11.03.2022
3292 Haze 18 1011 91 5000 9.26 10 20:40 11.03.2022
3293 Haze 18 1010 91 5000 9.26 10 20:19 11.03.2022
3294 Clouds 18 1010 85 10000 9.77 10 19:28 11.03.2022
3295 Clouds 19 1009 78 10000 10.8 10 17:50 11.03.2022
3296 Clouds 19 1009 79 10000 10.8 10 17:21 11.03.2022
3297 Clear 19 1010 74 10000 11.83 360 15:57 11.03.2022
3298 Clear 19 1010 72 10000 10.8 360 15:29 11.03.2022
3299 Clouds 20 1012 75 10000 10.8 360 13:28 11.03.2022
3300 Clouds 20 1012 74 10000 9.26 350 12:30 11.03.2022
3301 Clouds 20 1012 75 10000 9.26 350 11:57 11.03.2022
3302 Clouds 19 1012 73 10000 8.75 350 10:24 11.03.2022
3303 Clouds 19 1012 75 10000 8.23 340 09:32 11.03.2022
3304 Clear 19 1012 76 10000 7.2 340 08:27 11.03.2022
3305 Clouds 20 1012 74 10000 7.72 350 07:46 11.03.2022
3306 Clear 21 1012 62 10000 8.23 340 06:25 11.03.2022
3307 Clear 22 1012 63 10000 7.72 330 04:24 11.03.2022
3308 Clouds 22 1013 72 10000 9.77 360 00:39 11.03.2022
3309 Clouds 20 1014 85 10000 6.17 360 22:32 10.03.2022
3310 Clouds 19 1014 88 10000 5.66 10 21:52 10.03.2022
3311 Clouds 19 1014 88 10000 6.17 20 21:24 10.03.2022
3312 Clouds 18 1014 90 10000 5.14 20 19:54 10.03.2022
3313 Clouds 18 1014 90 10000 5.14 20 18:56 10.03.2022
3314 Clouds 17 1014 90 10000 5.66 10 17:37 10.03.2022
3315 Clouds 17 1014 91 10000 5.14 360 16:42 10.03.2022
3316 Clear 17 1015 92 10000 6.17 10 15:27 10.03.2022
3317 Clear 17 1015 92 10000 4.12 350 13:41 10.03.2022
3318 Clear 16 1017 90 10000 1.54 10 12:35 10.03.2022
3319 Clear 16 1017 88 10000 1.54 20 11:26 10.03.2022
3320 Clouds 17 1016 86 10000 2.57 360 09:28 10.03.2022
3321 Clear 19 1016 81 10000 1.03 230 07:46 10.03.2022
3322 Clear 21 1016 74 10000 3.09 200 05:30 10.03.2022
3323 Clouds 19 1020 77 10000 6.17 210 01:56 10.03.2022
3324 Clouds 19 1021 79 10000 6.17 200 23:30 09.03.2022
3325 Clouds 17 1022 82 10000 5.14 200 21:56 09.03.2022
3326 Clouds 17 1022 85 10000 3.6 200 21:36 09.03.2022
3327 Clouds 16 1021 88 10000 4.12 190 19:56 09.03.2022
3328 Clouds 16 1022 89 10000 4.63 170 18:35 09.03.2022
3329 Clouds 16 1021 88 10000 4.63 180 17:27 09.03.2022
3330 Clouds 16 1022 88 10000 4.63 180 16:35 09.03.2022
3331 Clouds 16 1023 88 10000 4.63 170 15:31 09.03.2022
3332 Clouds 16 1023 88 10000 5.14 180 13:54 09.03.2022
3333 Clouds 16 1023 88 10000 5.14 180 12:56 09.03.2022
3334 Clouds 16 1023 88 10000 5.14 180 12:18 09.03.2022
3335 Clouds 16 1023 90 10000 5.66 180 11:36 09.03.2022
3336 Clouds 16 1024 89 10000 6.17 180 10:38 09.03.2022
3337 Clouds 17 1024 90 10000 6.17 170 08:59 09.03.2022
3338 Mist 17 1023 89 1200 6.17 170 08:23 09.03.2022
3339 Clear 25 1024 53 10000 3.6 360 02:59 09.03.2022
3340 Clear 23 1025 64 10000 5.66 10 00:46 09.03.2022
3341 Clouds 22 1024 76 10000 6.69 10 22:48 08.03.2022
3342 Clouds 22 1024 77 10000 5.66 10 22:29 08.03.2022
3343 Clouds 20 1024 82 10000 5.66 30 21:23 08.03.2022
3344 Clouds 18 1024 85 10000 5.66 30 20:44 08.03.2022
3345 Clouds 18 1022 89 10000 5.66 20 19:42 08.03.2022
3346 Clouds 18 1021 90 10000 5.66 20 18:44 08.03.2022
3347 Clouds 18 1021 89 10000 5.66 20 17:37 08.03.2022
3348 Clouds 18 1021 89 10000 6.17 20 16:26 08.03.2022
3349 Clear 18 1021 90 10000 4.63 30 14:19 08.03.2022
3350 Clear 17 1020 86 10000 4.63 20 12:43 08.03.2022
3351 Clear 17 1022 82 10000 4.63 20 11:45 08.03.2022
3352 Clear 17 1022 81 10000 4.12 20 10:48 08.03.2022
3353 Clear 17 1021 81 10000 4.63 10 09:51 08.03.2022
3354 Clear 20 1021 67 10000 5.14 360 07:32 08.03.2022
3355 Clear 18 1022 88 10000 2.06 210 05:43 08.03.2022
3356 Clouds 18 1024 84 10000 4.12 190 23:51 07.03.2022
3357 Clouds 16 1024 93 10000 3.6 190 21:57 07.03.2022
3358 Clouds 16 1024 93 10000 3.6 180 21:32 07.03.2022
3359 Clouds 15 1024 95 10000 4.12 180 20:48 07.03.2022
3360 Clouds 15 1024 95 10000 4.63 170 20:20 07.03.2022
3361 Clouds 15 1024 95 10000 5.14 180 19:31 07.03.2022
3362 Clouds 15 1024 94 10000 6.17 190 18:42 07.03.2022
3363 Clouds 15 1024 94 10000 5.14 180 17:48 07.03.2022
3364 Clouds 15 1023 94 10000 6.17 180 16:55 07.03.2022
3365 Clouds 15 1023 94 10000 7.2 190 15:35 07.03.2022
3366 Clouds 15 1024 94 10000 6.17 190 13:51 07.03.2022
3367 Clouds 16 1025 93 10000 6.17 180 12:27 07.03.2022
3368 Clouds 16 1025 93 8000 6.69 180 10:38 07.03.2022
3369 Clouds 16 1025 91 10000 8.23 170 08:57 07.03.2022
3370 Clouds 17 1023 86 10000 8.75 180 03:49 07.03.2022
3371 Clouds 17 1023 83 10000 8.23 190 00:22 07.03.2022
3372 Clouds 18 1022 80 10000 6.17 190 23:35 06.03.2022
3373 Clouds 18 1022 80 10000 6.69 200 22:40 06.03.2022
3374 Clouds 19 1021 78 10000 3.13 214 21:47 06.03.2022
3375 Clouds 18 1021 86 10000 3.6 40 20:38 06.03.2022
3376 Clouds 17 1021 86 10000 3.6 40 20:20 06.03.2022
3377 Clouds 17 1019 89 10000 5.66 30 18:52 06.03.2022
3378 Clouds 17 1018 90 10000 6.17 30 18:23 06.03.2022
3379 Clouds 18 1018 89 10000 5.66 10 17:21 06.03.2022
3380 Clouds 18 1018 89 10000 6.69 10 16:41 06.03.2022
3381 Clouds 18 1018 86 10000 6.69 350 15:49 06.03.2022
3382 Clouds 18 1018 86 10000 6.69 350 15:49 06.03.2022
3383 Clouds 18 1018 88 10000 6.69 340 14:49 06.03.2022
3384 Clouds 18 1018 88 10000 7.72 340 14:30 06.03.2022
3385 Clouds 18 1018 85 10000 8.75 350 12:50 06.03.2022
3386 Clouds 18 1018 85 10000 8.23 340 12:31 06.03.2022
3387 Clouds 18 1018 83 10000 8.23 350 10:53 06.03.2022
3388 Clouds 18 1018 82 10000 9.26 340 09:54 06.03.2022
3389 Clouds 19 1017 80 10000 8.75 350 08:29 06.03.2022
3390 Clouds 19 1017 80 10000 8.75 350 08:29 06.03.2022
3391 Clouds 19 1017 77 10000 9.26 340 07:34 06.03.2022
3392 Clouds 21 1017 75 10000 9.26 350 04:46 06.03.2022
3393 Clouds 21 1020 73 10000 11.83 360 00:44 06.03.2022
3394 Clouds 21 1021 73 10000 12.35 360 00:25 06.03.2022
3395 Clouds 21 1019 75 10000 8.75 350 23:20 05.03.2022
3396 Clouds 20 1020 78 10000 7.72 10 22:43 05.03.2022
3397 Clouds 18 1021 82 10000 7.2 360 21:45 05.03.2022
3398 Clouds 18 1021 83 10000 7.72 10 21:20 05.03.2022
3399 Clouds 17 1020 90 10000 7.2 10 19:24 05.03.2022
3400 Clouds 17 1020 90 10000 7.2 10 18:51 05.03.2022
3401 Clouds 17 1020 89 10000 6.69 20 17:43 05.03.2022
3402 Clouds 17 1021 88 10000 5.66 20 16:26 05.03.2022
3403 Clouds 17 1021 89 10000 6.17 20 15:30 05.03.2022
3404 Clouds 17 1021 88 10000 6.17 20 14:44 05.03.2022
3405 Clouds 17 1021 88 10000 4.63 30 14:24 05.03.2022
3406 Clouds 17 1022 87 10000 5.66 30 13:20 05.03.2022
3407 Clouds 17 1023 80 10000 6.69 10 11:46 05.03.2022
3408 Clouds 17 1023 79 10000 6.17 10 11:18 05.03.2022
3409 Clouds 17 1023 74 10000 5.66 20 09:58 05.03.2022
3410 Clouds 18 1022 73 10000 6.17 10 08:57 05.03.2022
3411 Clouds 19 1022 72 10000 5.14 350 07:37 05.03.2022
3412 Clear 22 1023 56 10000 6.69 360 05:42 05.03.2022
3413 Clear 22 1023 56 10000 6.69 360 05:42 05.03.2022
3414 Clear 23 1025 46 10000 5.14 340 02:20 05.03.2022
3415 Clouds 20 1026 68 10000 5.66 360 23:36 04.03.2022
3416 Clouds 19 1025 73 10000 5.66 10 22:42 04.03.2022
3417 Clouds 18 1025 79 10000 3.6 10 21:47 04.03.2022
3418 Clouds 15 1025 88 10000 3.6 10 20:51 04.03.2022
3419 Clouds 14 1025 89 10000 4.12 20 20:21 04.03.2022
3420 Clouds 13 1023 92 10000 4.63 360 19:35 04.03.2022
3421 Clouds 14 1024 89 10000 4.12 360 18:37 04.03.2022
3422 Clouds 14 1024 89 10000 3.09 10 17:30 04.03.2022
3423 Clouds 15 1024 85 10000 3.6 20 16:43 04.03.2022
3424 Clouds 14 1023 90 10000 3.6 30 15:28 04.03.2022
3425 Clouds 14 1024 87 10000 1.03 30 14:19 04.03.2022
3426 Clouds 15 1024 87 10000 2.57 30 13:24 04.03.2022
3427 Clouds 15 1025 83 10000 3.09 350 11:40 04.03.2022
3428 Clouds 15 1025 82 10000 1.03 360 10:42 04.03.2022
3429 Clouds 15 1025 84 10000 1.54 160 09:40 04.03.2022
3430 Clouds 16 1024 79 10000 1.03 190 08:34 04.03.2022
3431 Clouds 18 1024 74 10000 2.57 210 07:23 04.03.2022
3432 Clouds 21 1024 65 10000 4.12 170 03:50 04.03.2022
3433 Clouds 19 1027 71 10000 2.57 180 00:24 04.03.2022
3434 Clouds 17 1026 77 10000 3.6 60 22:21 03.03.2022
3435 Clouds 16 1026 84 10000 2.06 20 21:40 03.03.2022
3436 Clouds 15 1026 85 10000 2.06 20 21:18 03.03.2022
3437 Clouds 12 1027 88 10000 0.51 50 19:48 03.03.2022
3438 Clouds 12 1026 88 10000 1.54 30 18:51 03.03.2022
3439 Clouds 11 1023 86 10000 2.57 40 18:22 03.03.2022
3440 Clouds 11 1024 86 10000 1.54 40 17:28 03.03.2022
3441 Clouds 11 1024 88 10000 1.54 30 16:22 03.03.2022
3442 Clouds 12 1024 85 10000 1.03 20 15:20 03.03.2022
3443 Clouds 12 1025 86 6000 1.03 10 14:42 03.03.2022
3444 Clouds 12 1026 85 10000 1.03 40 13:18 03.03.2022
3445 Clouds 12 1026 85 10000 1.03 40 13:18 03.03.2022
3446 Clouds 12 1027 85 10000 1.54 40 11:51 03.03.2022
3447 Clouds 13 1027 82 10000 1.54 60 10:41 03.03.2022
3448 Clouds 14 1026 77 10000 2.06 210 08:52 03.03.2022
3449 Clouds 16 1026 74 10000 2.57 230 07:45 03.03.2022
3450 Clouds 18 1025 65 10000 4.12 220 06:35 03.03.2022
3451 Clouds 18 1029 63 10000 5.66 210 01:52 03.03.2022
3452 Clear 17 1029 62 10000 4.12 210 23:29 02.03.2022
3453 Clear 16 1030 65 10000 3.6 200 22:52 02.03.2022
3454 Clear 13 1030 77 10000 0.51 170 21:32 02.03.2022
3455 Clear 11 1030 84 10000 1.03 30 20:46 02.03.2022
3456 Clouds 9 1030 88 10000 1.54 40 20:24 02.03.2022
3457 Clouds 9 1028 84 10000 1.03 80 19:35 02.03.2022
3458 Clear 9 1027 83 10000 1.03 80 18:46 02.03.2022
3459 Clear 8 1028 87 10000 1.54 160 17:59 02.03.2022
3460 Clear 9 1028 87 10000 1.54 160 17:28 02.03.2022
3461 Clear 9 1028 86 10000 2.06 160 16:51 02.03.2022
3462 Clouds 11 1028 80 10000 1.03 120 14:45 02.03.2022
3463 Clouds 13 1029 72 10000 2.57 130 13:25 02.03.2022
3464 Clouds 13 1030 70 10000 5.66 140 12:44 02.03.2022
3465 Clouds 14 1030 70 10000 6.17 150 11:51 02.03.2022
3466 Clouds 14 1031 70 10000 6.17 150 11:24 02.03.2022
3467 Clouds 14 1031 70 10000 6.17 150 11:24 02.03.2022
3468 Clouds 14 1030 71 10000 6.69 150 09:46 02.03.2022
3469 Clouds 14 1030 73 10000 7.2 150 09:23 02.03.2022
3470 Clouds 15 1029 71 10000 7.72 150 07:51 02.03.2022
3471 Clear 15 1029 70 10000 8.23 160 06:54 02.03.2022
3472 Clouds 17 1029 71 10000 8.23 180 02:54 02.03.2022
3473 Clouds 16 1028 73 10000 8.75 170 00:29 02.03.2022
3474 Clouds 15 1028 76 10000 8.75 180 22:48 01.03.2022
3475 Clouds 15 1028 80 10000 8.75 180 22:21 01.03.2022
3476 Clouds 14 1027 86 10000 8.75 180 21:25 01.03.2022
3477 Clouds 14 1026 90 10000 8.75 180 20:32 01.03.2022
3478 Clouds 15 1024 89 10000 8.23 170 19:45 01.03.2022
3479 Clouds 15 1024 86 10000 4.63 170 18:51 01.03.2022
3480 Clouds 15 1024 86 10000 5.66 170 18:21 01.03.2022
3481 Clouds 14 1024 84 10000 5.66 170 17:30 01.03.2022
3482 Clouds 14 1024 86 10000 4.63 180 16:35 01.03.2022
3483 Clouds 14 1023 85 10000 5.66 190 15:42 01.03.2022
3484 Clouds 14 1023 84 10000 5.14 190 14:41 01.03.2022
3485 Clouds 14 1023 83 10000 5.14 190 14:23 01.03.2022
3486 Clouds 15 1023 81 10000 6.69 160 13:25 01.03.2022
3487 Clouds 15 1023 80 10000 5.14 160 12:34 01.03.2022
3488 Clouds 15 1022 78 10000 4.63 200 10:37 01.03.2022
3489 Clouds 15 1022 78 10000 4.63 200 10:37 01.03.2022
3490 Clouds 15 1021 77 10000 5.66 210 09:18 01.03.2022
3491 Clouds 16 1021 76 10000 5.66 190 07:54 01.03.2022
3492 Clouds 18 1020 67 10000 5.66 180 06:26 01.03.2022
3493 Clear 19 1022 63 10000 6.17 170 02:44 01.03.2022
3494 Clouds 18 1023 59 10000 3.09 170 00:36 01.03.2022
3495 Clouds 17 1023 65 10000 2.06 200 23:33 28.02.2022
3496 Clouds 15 1023 77 10000 1.54 80 22:24 28.02.2022
3497 Clouds 14 1024 81 10000 2.06 50 21:41 28.02.2022
3498 Clouds 11 1024 89 10000 1.54 30 20:28 28.02.2022
3499 Clouds 11 1024 84 10000 1.03 80 19:41 28.02.2022
3500 Clouds 10 1023 88 10000 1.54 120 18:49 28.02.2022
3501 Clouds 11 1024 84 10000 2.06 120 17:33 28.02.2022
3502 Clouds 12 1024 84 10000 2.06 110 16:53 28.02.2022
3503 Clouds 13 1025 83 10000 4.63 150 15:31 28.02.2022
3504 Clouds 13 1025 80 10000 3.6 150 14:32 28.02.2022
3505 Clouds 14 1025 78 10000 4.12 150 13:48 28.02.2022
3506 Clouds 14 1026 77 10000 2.57 130 12:50 28.02.2022
3507 Clouds 14 1026 76 10000 3.6 170 11:58 28.02.2022
3508 Clouds 14 1026 76 10000 4.63 170 11:18 28.02.2022
3509 Clouds 14 1027 77 10000 5.14 160 10:22 28.02.2022
3510 Clouds 14 1026 76 10000 5.66 160 09:41 28.02.2022
3511 Clouds 14 1026 74 10000 6.17 160 08:48 28.02.2022
3512 Clouds 15 1026 70 10000 5.66 170 07:43 28.02.2022
3513 Clouds 16 1026 66 10000 7.72 160 05:52 28.02.2022
3514 Clouds 17 1028 63 10000 6.17 170 04:30 28.02.2022
3515 Clouds 17 1028 63 10000 6.17 170 04:30 28.02.2022
3516 Clouds 17 1028 63 10000 6.17 170 04:30 28.02.2022
3517 Clouds 16 1030 60 10000 4.02 269 00:34 28.02.2022
3518 Clouds 15 1028 68 10000 6.69 190 22:38 27.02.2022
3519 Clouds 14 1028 68 10000 6.17 180 21:55 27.02.2022
3520 Clouds 14 1029 66 10000 6.69 170 21:35 27.02.2022
3521 Clouds 14 1029 69 10000 6.69 150 20:41 27.02.2022
3522 Clouds 13 1029 69 10000 6.69 150 20:18 27.02.2022
3523 Clouds 13 1028 73 10000 7.2 170 19:28 27.02.2022
3524 Clouds 13 1028 70 10000 7.2 170 18:56 27.02.2022
3525 Clouds 13 1028 69 10000 7.2 180 17:57 27.02.2022
3526 Clouds 13 1029 69 10000 7.2 180 17:34 27.02.2022
3527 Clouds 13 1030 67 10000 8.23 170 16:22 27.02.2022
3528 Clouds 13 1030 69 10000 7.72 170 14:28 27.02.2022
3529 Clouds 13 1030 67 10000 7.72 160 12:35 27.02.2022
3530 Clouds 13 1030 69 10000 8.75 170 11:36 27.02.2022
3531 Clouds 13 1030 67 10000 8.75 150 10:36 27.02.2022
3532 Clouds 13 1029 68 10000 8.75 150 09:52 27.02.2022
3533 Clouds 13 1029 65 10000 9.77 150 09:21 27.02.2022
3534 Clouds 13 1029 69 10000 9.77 150 08:44 27.02.2022
3535 Clouds 14 1028 68 10000 8.75 150 05:43 27.02.2022
3536 Clouds 16 1027 62 10000 8.23 160 03:26 27.02.2022
3537 Clouds 15 1026 66 10000 8.23 160 23:51 26.02.2022
3538 Clouds 15 1027 69 10000 7.72 160 22:42 26.02.2022
3539 Clouds 14 1026 72 10000 8.23 170 21:26 26.02.2022
3540 Clouds 14 1026 71 10000 8.23 160 20:37 26.02.2022
3541 Clouds 14 1026 74 10000 8.75 170 19:55 26.02.2022
3542 Clouds 13 1026 74 10000 8.75 160 19:33 26.02.2022
3543 Clouds 13 1025 76 10000 9.26 170 18:31 26.02.2022
3544 Clouds 14 1025 73 10000 9.77 170 17:31 26.02.2022
3545 Clouds 14 1025 71 10000 10.8 170 16:38 26.02.2022
3546 Clouds 14 1025 76 10000 10.29 170 15:28 26.02.2022
3547 Clouds 14 1025 71 10000 9.77 170 14:59 26.02.2022
3548 Clouds 14 1025 71 10000 10.8 170 14:41 26.02.2022
3549 Clouds 14 1025 73 10000 9.26 160 13:46 26.02.2022
3550 Clouds 14 1025 73 10000 10.8 180 12:53 26.02.2022
3551 Clouds 14 1024 78 10000 11.83 180 11:45 26.02.2022
3552 Clouds 14 1024 83 8000 12.86 190 11:24 26.02.2022
3553 Clouds 16 1022 86 10000 9.77 180 09:31 26.02.2022
3554 Clouds 17 1021 82 10000 10.29 170 08:26 26.02.2022
3555 Clouds 20 1018 62 10000 7.72 220 04:22 26.02.2022
3556 Clear 21 1017 63 10000 5.14 360 23:50 25.02.2022
3557 Clear 19 1016 73 10000 4.12 10 22:31 25.02.2022
3558 Clear 16 1016 81 10000 4.12 360 21:30 25.02.2022
3559 Clear 14 1017 88 10000 2.57 20 20:34 25.02.2022
3560 Clear 12 1017 94 10000 2.06 30 19:56 25.02.2022
3561 Clear 11 1016 93 10000 2.06 20 17:54 25.02.2022
3562 Clear 12 1017 90 10000 0.51 30 16:48 25.02.2022
3563 Clear 12 1017 89 10000 1.54 360 15:50 25.02.2022
3564 Clear 12 1018 87 10000 0.51 60 15:23 25.02.2022
3565 Clear 12 1018 87 10000 1.54 30 14:55 25.02.2022
3566 Clear 13 1018 87 10000 0.51 230 14:19 25.02.2022
3567 Clear 13 1018 86 10000 1.03 20 13:30 25.02.2022
3568 Clear 13 1018 87 10000 1.03 320 11:56 25.02.2022
3569 Clear 13 1018 85 10000 1.03 50 11:21 25.02.2022
3570 Clear 14 1019 84 9000 0.51 300 10:23 25.02.2022
3571 Clear 15 1019 79 10000 2.06 120 09:45 25.02.2022
3572 Clear 17 1019 73 10000 5.66 150 07:53 25.02.2022
3573 Clear 19 1019 65 10000 1.34 216 06:56 25.02.2022
3574 Clear 19 1020 63 10000 7.72 150 05:41 25.02.2022
3575 Clouds 19 1022 67 10000 6.69 170 02:43 25.02.2022
3576 Clouds 17 1023 71 10000 4.63 180 22:37 24.02.2022
3577 Clouds 16 1022 75 10000 3.09 190 21:50 24.02.2022
3578 Clouds 15 1022 80 10000 2.57 190 21:30 24.02.2022
3579 Clouds 13 1024 80 10000 1.54 170 20:47 24.02.2022
3580 Clouds 10 1023 85 10000 1.54 190 19:32 24.02.2022
3581 Clouds 11 1023 81 10000 1.54 160 18:21 24.02.2022
3582 Clouds 11 1023 80 10000 2.06 160 17:58 24.02.2022
3583 Clouds 11 1023 82 10000 2.06 170 17:21 24.02.2022
3584 Clouds 11 1023 82 10000 2.57 150 16:28 24.02.2022
3585 Clouds 11 1024 83 10000 2.57 180 15:44 24.02.2022
3586 Clouds 11 1025 75 10000 1.54 160 14:48 24.02.2022
3587 Clouds 11 1025 80 10000 1.54 130 13:59 24.02.2022
3588 Clouds 10 1023 84 10000 2.06 120 13:38 24.02.2022
3589 Clouds 12 1026 75 10000 2.57 150 11:56 24.02.2022
3590 Clouds 13 1026 73 10000 3.6 140 10:34 24.02.2022
3591 Clouds 15 1026 67 10000 6.17 150 08:44 24.02.2022
3592 Clouds 16 1025 63 10000 7.72 150 07:26 24.02.2022
3593 Clouds 18 1026 58 10000 8.75 150 05:50 24.02.2022
3594 Clouds 17 1030 67 10000 7.72 180 00:32 24.02.2022
3595 Clouds 16 1029 71 10000 6.69 160 22:29 23.02.2022
3596 Clouds 15 1029 77 10000 6.69 160 20:52 23.02.2022
3597 Clouds 15 1028 78 10000 7.72 160 20:30 23.02.2022
3598 Clouds 14 1029 81 10000 8.23 170 19:36 23.02.2022
3599 Clouds 14 1029 83 10000 7.72 170 18:31 23.02.2022
3600 Clouds 14 1029 81 10000 7.72 170 16:43 23.02.2022
3601 Clouds 14 1030 79 10000 8.23 170 14:33 23.02.2022
3602 Clouds 14 1031 79 10000 7.72 170 12:37 23.02.2022
3603 Clouds 14 1031 79 10000 7.72 160 11:23 23.02.2022
3604 Clouds 14 1031 79 10000 8.23 160 10:30 23.02.2022
3605 Clouds 15 1030 85 10000 7.2 160 08:57 23.02.2022
3606 Clouds 15 1030 87 7000 7.72 170 07:57 23.02.2022
3607 Clouds 17 1030 75 10000 8.23 170 03:47 23.02.2022
3608 Clouds 16 1029 76 10000 10.29 180 00:19 23.02.2022
3609 Clouds 16 1029 74 10000 10.29 180 23:35 22.02.2022
3610 Clouds 16 1028 74 10000 10.8 180 22:31 22.02.2022
3611 Clouds 16 1028 75 10000 11.32 190 21:48 22.02.2022
3612 Clouds 16 1027 75 10000 11.32 190 21:25 22.02.2022
3613 Clouds 16 1028 75 10000 10.8 180 20:51 22.02.2022
3614 Clouds 16 1028 74 10000 9.77 190 20:29 22.02.2022
3615 Clouds 15 1027 78 10000 9.26 180 19:36 22.02.2022
3616 Clouds 15 1027 80 10000 0.89 202 19:18 22.02.2022
3617 Clouds 15 1025 86 10000 7.2 190 17:40 22.02.2022
3618 Clouds 16 1025 85 10000 7.2 190 17:19 22.02.2022
3619 Clouds 16 1025 86 10000 6.17 190 16:36 22.02.2022
3620 Clouds 16 1024 87 10000 3.09 200 15:38 22.02.2022
3621 Clouds 17 1023 87 10000 4.12 260 14:44 22.02.2022
3622 Clouds 18 1021 85 10000 6.17 20 12:21 22.02.2022
3623 Clouds 18 1021 83 10000 8.23 10 10:28 22.02.2022
3624 Clouds 19 1019 79 10000 10.8 360 07:52 22.02.2022
3625 Clouds 19 1019 79 10000 10.8 360 07:25 22.02.2022
3626 Clouds 21 1020 69 10000 13.89 360 02:52 22.02.2022
3627 Clouds 20 1020 71 10000 12.86 360 00:49 22.02.2022
3628 Clouds 20 1020 74 10000 12.35 360 22:41 21.02.2022
3629 Clear 20 1020 78 10000 12.35 360 21:30 21.02.2022
3630 Clear 18 1020 81 10000 9.77 360 20:34 21.02.2022
3631 Clear 18 1020 81 10000 9.77 360 20:34 21.02.2022
3632 Clear 17 1019 86 10000 10.29 360 18:42 21.02.2022
3633 Clouds 17 1019 88 10000 7.72 10 16:50 21.02.2022
3634 Clouds 17 1019 86 10000 7.2 20 14:52 21.02.2022
3635 Clouds 17 1019 86 10000 6.17 20 14:21 21.02.2022
3636 Clear 17 1019 83 10000 5.14 20 12:59 21.02.2022
3637 Clear 17 1019 81 10000 4.12 10 12:23 21.02.2022
3638 Clear 17 1020 84 10000 2.06 20 10:51 21.02.2022
3639 Clear 17 1019 81 10000 0.51 60 09:30 21.02.2022
3640 Clear 17 1019 81 10000 0.51 60 09:30 21.02.2022
3641 Clear 19 1021 77 10000 4.63 200 02:58 21.02.2022
3642 Clear 20 1020 69 10000 3.09 200 23:29 20.02.2022
3643 Clear 18 1020 75 10000 3.09 200 22:20 20.02.2022
3644 Clear 17 1022 75 10000 3.09 160 21:42 20.02.2022
3645 Clear 16 1022 80 10000 3.6 140 20:52 20.02.2022
3646 Clouds 15 1022 85 10000 3.6 140 20:23 20.02.2022
3647 Clouds 14 1021 92 10000 3.6 150 19:30 20.02.2022
3648 Clouds 14 1021 87 10000 2.57 150 18:49 20.02.2022
3649 Clouds 14 1021 87 10000 3.6 160 18:31 20.02.2022
3650 Clouds 14 1021 91 10000 3.6 160 17:34 20.02.2022
3651 Clouds 14 1021 94 10000 3.09 150 15:31 20.02.2022
3652 Clear 14 1021 94 10000 3.09 150 14:41 20.02.2022
3653 Clear 14 1021 92 10000 3.09 150 13:23 20.02.2022
3654 Clouds 14 1021 92 10000 3.6 160 12:22 20.02.2022
3655 Clouds 15 1020 88 10000 4.12 170 10:21 20.02.2022
3656 Clouds 15 1020 88 10000 4.63 170 09:53 20.02.2022
3657 Clouds 17 1018 82 10000 5.14 170 06:46 20.02.2022
3658 Clouds 15 1016 91 10000 5.66 190 00:54 20.02.2022
3659 Clouds 15 1016 90 9000 6.69 190 00:29 20.02.2022
3660 Clouds 14 1017 92 10000 8.23 190 22:25 19.02.2022
3661 Clouds 13 1017 94 10000 8.75 190 21:57 19.02.2022
3662 Clouds 13 1016 94 10000 9.77 190 20:48 19.02.2022
3663 Rain 13 1014 96 2200 10.29 200 19:41 19.02.2022
3664 Rain 13 1015 96 2200 1.79 202 19:20 19.02.2022
3665 Rain 13 1015 95 10000 8.23 190 18:29 19.02.2022
3666 Rain 13 1014 96 3400 10.29 200 17:33 19.02.2022
3667 Rain 13 1014 96 1700 10.8 200 16:21 19.02.2022
3668 Rain 14 1014 94 4100 8.75 190 14:56 19.02.2022
3669 Rain 15 1014 95 2600 8.75 190 14:37 19.02.2022
3670 Clouds 19 1013 85 10000 5.66 330 11:59 19.02.2022
3671 Clouds 19 1013 85 10000 5.14 320 11:36 19.02.2022
3672 Clouds 20 1012 84 10000 7.72 340 09:34 19.02.2022
3673 Rain 20 1012 78 10000 8.23 340 06:52 19.02.2022
3674 Rain 21 1013 72 10000 10.29 350 02:38 19.02.2022
3675 Clouds 21 1014 66 10000 9.77 360 23:28 18.02.2022
3676 Clouds 20 1014 78 10000 9.77 360 21:30 18.02.2022
3677 Clouds 19 1014 83 10000 9.26 360 20:33 18.02.2022
3678 Clouds 18 1014 85 10000 9.26 360 19:51 18.02.2022
3679 Clouds 18 1014 86 10000 9.26 350 18:49 18.02.2022
3680 Clouds 18 1014 84 10000 10.29 350 18:19 18.02.2022
3681 Clouds 18 1014 85 10000 10.29 350 17:21 18.02.2022
3682 Clouds 18 1015 83 10000 8.75 350 14:47 18.02.2022
3683 Clouds 18 1016 86 10000 8.75 360 13:54 18.02.2022
3684 Clouds 18 1016 86 10000 8.75 360 12:51 18.02.2022
3685 Clouds 18 1016 85 10000 8.75 360 11:58 18.02.2022
3686 Clouds 18 1017 84 10000 9.77 360 11:21 18.02.2022
3687 Clear 18 1016 80 10000 7.2 360 09:30 18.02.2022
3688 Clouds 21 1016 72 10000 8.75 360 06:50 18.02.2022
3689 Clouds 22 1017 64 10000 8.75 350 05:37 18.02.2022
3690 Clouds 21 1019 64 10000 9.26 360 22:46 17.02.2022
3691 Clouds 20 1018 70 10000 8.23 20 21:43 17.02.2022
3692 Clouds 18 1018 75 10000 8.23 30 20:52 17.02.2022
3693 Clouds 18 1018 78 10000 7.2 20 20:34 17.02.2022
3694 Clouds 17 1018 83 10000 6.17 20 19:43 17.02.2022
3695 Clouds 16 1017 81 10000 4.12 20 18:37 17.02.2022
3696 Clouds 16 1017 80 10000 3.6 20 17:47 17.02.2022
3697 Clouds 16 1017 81 10000 4.12 40 16:20 17.02.2022
3698 Clouds 16 1018 79 10000 5.14 40 14:57 17.02.2022
3699 Clouds 16 1018 77 10000 5.66 20 14:19 17.02.2022
3700 Clear 16 1018 71 10000 4.12 20 11:59 17.02.2022
3701 Clear 17 1018 67 10000 4.12 30 11:21 17.02.2022
3702 Clear 19 1017 62 10000 4.63 360 08:38 17.02.2022
3703 Clear 19 1021 72 10000 3.6 190 00:29 17.02.2022
3704 Clear 18 1021 76 10000 2.57 190 22:39 16.02.2022
3705 Clear 16 1020 85 10000 3.6 210 20:39 16.02.2022
3706 Clouds 14 1020 87 10000 3.6 220 19:42 16.02.2022
3707 Clouds 14 1019 89 10000 4.12 190 18:36 16.02.2022
3708 -273 0 0 0 0 0 17:34 16.02.2022
3709 Clouds 16 1019 88 10000 3.09 200 15:26 16.02.2022
3710 Clouds 16 1020 88 10000 2.57 190 14:46 16.02.2022
3711 Clouds 16 1020 89 10000 3.09 180 12:32 16.02.2022
3712 Clouds 16 1020 89 10000 3.6 180 11:52 16.02.2022
3713 Clouds 16 1020 87 10000 2.57 200 10:52 16.02.2022
3714 Clouds 16 1020 86 10000 3.09 180 10:29 16.02.2022
3715 Clouds 19 1019 72 10000 2.57 200 06:56 16.02.2022
3716 Clear 20 1018 67 10000 4.63 190 03:46 16.02.2022
3717 Clouds 20 1017 75 10000 8.75 10 22:35 15.02.2022
3718 Clouds 19 1016 79 10000 8.75 360 21:59 15.02.2022
3719 Clouds 19 1016 79 10000 8.75 360 21:59 15.02.2022
3720 Clouds 18 1016 79 10000 9.77 20 21:39 15.02.2022
3721 Clouds 18 1016 81 10000 9.77 20 21:21 15.02.2022
3722 Clouds 17 1016 82 10000 8.75 20 20:48 15.02.2022
3723 Clouds 17 1015 84 10000 7.2 10 19:48 15.02.2022
3724 Clouds 16 1016 83 10000 7.72 20 18:45 15.02.2022
3725 Clouds 16 1016 84 10000 7.72 10 18:19 15.02.2022
3726 Clouds 16 1016 85 10000 7.72 10 17:47 15.02.2022
3727 Clouds 16 1016 86 10000 8.75 20 16:30 15.02.2022
3728 Clouds 16 1019 84 10000 8.75 10 14:39 15.02.2022
3729 Clouds 16 1020 85 10000 7.2 20 13:26 15.02.2022
3730 Clouds 15 1021 86 10000 6.69 30 11:52 15.02.2022
3731 Clouds 15 1021 86 10000 6.17 20 10:57 15.02.2022
3732 Clouds 15 1021 85 10000 6.69 20 09:25 15.02.2022
3733 Clouds 18 1023 72 10000 6.17 360 06:48 15.02.2022
3734 Clouds 18 1027 63 10000 2.57 350 00:26 15.02.2022
3735 Clouds 15 1027 83 10000 2.57 360 21:59 14.02.2022
3736 Clouds 14 1027 88 10000 2.57 20 21:24 14.02.2022
3737 Clouds 12 1026 93 10000 1.54 70 20:23 14.02.2022
3738 Clouds 11 1026 92 10000 1.54 60 19:30 14.02.2022
3739 Clouds 12 1026 92 10000 1.03 50 18:27 14.02.2022
3740 Clouds 13 1026 88 10000 3.09 200 17:43 14.02.2022
3741 Clouds 13 1026 88 10000 3.09 200 17:43 14.02.2022
3742 Clouds 13 1026 89 10000 3.6 210 17:23 14.02.2022
3743 Clouds 13 1026 87 10000 4.12 190 15:58 14.02.2022
3744 Clouds 13 1028 85 10000 5.66 170 13:38 14.02.2022
3745 Clouds 13 1028 85 10000 5.66 170 13:18 14.02.2022
3746 Clouds 14 1028 84 10000 5.66 170 12:32 14.02.2022
3747 Clouds 14 1028 85 10000 6.17 180 11:43 14.02.2022
3748 Clouds 14 1028 84 10000 6.69 170 10:25 14.02.2022
3749 Clouds 14 1026 81 10000 8.23 160 08:34 14.02.2022
3750 Clouds 15 1026 80 10000 7.72 150 07:26 14.02.2022
3751 Clouds 14 1025 85 10000 10.8 190 23:37 13.02.2022
3752 Clouds 13 1024 89 10000 11.32 200 22:41 13.02.2022
3753 Clouds 13 1024 88 10000 11.32 200 22:23 13.02.2022
3754 Clouds 13 1023 90 7000 12.86 200 21:27 13.02.2022
3755 Clouds 13 1022 91 10000 11.32 190 20:30 13.02.2022
3756 Clouds 12 1021 94 10000 11.83 190 19:24 13.02.2022
3757 Haze 12 1020 94 5000 12.35 200 18:42 13.02.2022
3758 Clouds 12 1019 94 9000 12.35 200 17:52 13.02.2022
3759 Rain 11 1019 97 2500 12.35 190 15:54 13.02.2022
3760 Rain 11 1019 97 2500 12.35 190 15:54 13.02.2022
3761 Rain 12 1018 95 4700 9.77 190 14:57 13.02.2022
3762 Haze 12 1018 95 4800 9.77 190 13:59 13.02.2022
3763 Rain 12 1018 93 6000 10.8 190 12:49 13.02.2022
3764 Clouds 12 1016 93 10000 11.32 180 11:24 13.02.2022
3765 Clouds 13 1015 89 9000 10.8 190 10:28 13.02.2022
3766 Clouds 12 1014 88 10000 11.32 180 09:41 13.02.2022
3767 Drizzle 13 1011 91 5000 13.89 200 07:19 13.02.2022
3768 Rain 12 1000 96 1500 4.92 278 00:35 13.02.2022
3769 Rain 11 1000 98 1200 20.58 190 23:39 12.02.2022
3770 Rain 12 998 96 1100 21.61 190 22:33 12.02.2022
3771 Rain 12 996 97 1500 18.01 180 21:19 12.02.2022
3772 Rain 13 996 98 1400 18.52 180 20:32 12.02.2022
3773 Rain 15 995 98 3100 9.77 170 19:21 12.02.2022
3774 Rain 15 995 98 3400 10.29 160 18:52 12.02.2022
3775 Rain 15 995 98 3400 3.58 351 18:34 12.02.2022
3776 Rain 15 996 98 2600 10.8 160 16:56 12.02.2022
3777 Rain 15 996 98 3600 9.77 160 16:25 12.02.2022
3778 Rain 15 997 98 2500 8.75 170 15:50 12.02.2022
3779 Mist 15 998 98 3400 11.32 150 14:31 12.02.2022
3780 Rain 15 1000 98 1600 9.26 170 12:58 12.02.2022
3781 Rain 16 1000 98 2500 10.29 170 10:40 12.02.2022
3782 Rain 16 999 96 9000 5.14 180 09:39 12.02.2022
3783 Rain 16 999 96 9000 5.14 180 09:20 12.02.2022
3784 Rain 17 1000 97 3500 3.09 160 08:18 12.02.2022
3785 Rain 17 1000 97 3500 3.09 160 08:18 12.02.2022
3786 Mist 17 1003 97 5000 6.17 160 05:33 12.02.2022
3787 Rain 17 1003 97 3100 7.72 160 04:27 12.02.2022
3788 Rain 18 1004 95 4600 5.66 150 02:18 12.02.2022
3789 Rain 18 1005 98 10000 4.12 220 22:29 11.02.2022
3790 Rain 17 1005 98 9000 3.6 220 21:55 11.02.2022
3791 Rain 17 1005 98 10000 4.63 230 20:41 11.02.2022
3792 Clouds 17 1005 98 10000 5.14 220 19:46 11.02.2022
3793 Clouds 17 1005 98 10000 4.12 220 19:27 11.02.2022
3794 Fog 16 1006 97 900 6.69 220 17:59 11.02.2022
3795 Mist 16 1005 97 1300 6.69 190 17:26 11.02.2022
3796 Rain 16 1006 97 10000 5.66 200 16:23 11.02.2022
3797 Mist 16 1007 97 5000 5.14 220 14:43 11.02.2022
3798 Clouds 16 1007 97 10000 4.63 220 14:21 11.02.2022
3799 Clouds 17 1008 96 10000 5.14 220 13:59 11.02.2022
3800 Rain 17 1008 97 10000 4.63 220 13:39 11.02.2022
3801 Rain 16 1009 97 10000 5.66 220 11:47 11.02.2022
3802 Rain 16 1010 96 10000 5.66 220 09:59 11.02.2022
3803 Rain 17 1009 96 9000 3.09 220 08:49 11.02.2022
3804 Rain 16 1009 96 7000 3.09 210 08:27 11.02.2022
3805 Rain 17 1009 95 5000 4.63 210 07:18 11.02.2022
3806 Clouds 20 1010 88 9000 0.89 246 02:39 11.02.2022
3807 Rain 19 1011 90 9000 3.6 170 02:18 11.02.2022
3808 Clouds 21 1010 86 10000 4.63 360 22:53 10.02.2022
3809 Clouds 20 1010 89 10000 3.09 20 21:50 10.02.2022
3810 Clouds 20 1010 90 10000 4.12 40 21:18 10.02.2022
3811 Clouds 20 1009 90 10000 4.63 360 20:45 10.02.2022
3812 Clouds 20 1009 91 10000 5.14 20 19:26 10.02.2022
3813 Clouds 20 1009 91 10000 6.17 340 18:47 10.02.2022
3814 Clouds 20 1008 93 10000 9.26 340 17:27 10.02.2022
3815 Rain 20 1008 93 10000 8.75 330 16:55 10.02.2022
3816 Clouds 20 1008 93 10000 7.72 340 15:51 10.02.2022
3817 Clouds 20 1009 93 10000 7.72 330 15:31 10.02.2022
3818 Clouds 20 1009 92 10000 7.72 330 14:49 10.02.2022
3819 Clouds 20 1009 92 10000 6.69 330 14:26 10.02.2022
3820 Clouds 20 1009 92 10000 10.29 320 13:30 10.02.2022
3821 Clouds 20 1010 90 10000 9.26 320 12:51 10.02.2022
3822 Clouds 21 1010 86 10000 7.2 330 11:34 10.02.2022
3823 Clouds 21 1011 84 10000 7.2 320 10:56 10.02.2022
3824 Clouds 21 1010 83 10000 7.2 330 10:18 10.02.2022
3825 Clouds 21 1010 82 10000 7.72 340 09:25 10.02.2022
3826 Clouds 22 1010 82 10000 5.66 340 07:36 10.02.2022
3827 Clouds 22 1010 85 10000 7.72 340 04:58 10.02.2022
3828 Clouds 23 1010 85 10000 9.77 350 01:52 10.02.2022
3829 Clouds 23 1010 85 10000 10.29 360 00:50 10.02.2022
3830 Clouds 23 1010 85 10000 8.23 360 00:28 10.02.2022
3831 Clouds 23 1011 84 10000 10.29 360 23:24 09.02.2022
3832 Clouds 23 1010 85 10000 11.32 360 22:36 09.02.2022
3833 Clouds 23 1010 88 10000 9.77 360 21:52 09.02.2022
3834 Clouds 22 1011 92 10000 8.75 10 21:29 09.02.2022
3835 Clouds 21 1011 92 10000 9.77 360 20:48 09.02.2022
3836 Rain 21 1012 92 10000 9.77 360 20:29 09.02.2022
3837 Rain 21 1012 92 10000 7.2 350 19:54 09.02.2022
3838 Rain 21 1012 93 10000 6.17 350 19:31 09.02.2022
3839 Clouds 21 1011 94 10000 5.66 20 17:37 09.02.2022
3840 Rain 21 1011 95 10000 5.14 30 16:48 09.02.2022
3841 Mist 20 1012 97 4500 1.54 340 15:50 09.02.2022
3842 Clouds 20 1012 96 6000 2.06 350 14:35 09.02.2022
3843 Clouds 19 1013 95 7000 2.06 40 12:28 09.02.2022
3844 Mist 18 1014 94 3100 1.54 190 10:54 09.02.2022
3845 Mist 19 1014 92 4300 2.57 200 10:26 09.02.2022
3846 Mist 19 1014 90 4000 2.57 190 09:40 09.02.2022
3847 Mist 19 1014 90 4000 2.57 190 09:40 09.02.2022
3848 Mist 18 1014 90 4000 2.57 190 09:19 09.02.2022
3849 Haze 20 1014 84 2900 2.57 200 07:55 09.02.2022
3850 Clouds 25 1014 69 7000 4.12 200 05:30 09.02.2022
3851 Clouds 25 1014 69 7000 4.12 200 05:30 09.02.2022
3852 Clouds 25 1013 72 6000 4.63 200 03:50 09.02.2022
3853 Clouds 22 1015 81 6000 3.6 190 00:44 09.02.2022
3854 Clouds 21 1015 84 10000 3.09 200 23:32 08.02.2022
3855 Clouds 21 1015 84 10000 3.09 200 23:32 08.02.2022
3856 Clouds 21 1015 84 10000 3.09 200 23:32 08.02.2022
3857 Clouds 21 1015 84 10000 3.09 200 23:32 08.02.2022
3858 Clouds 21 1015 85 10000 2.57 200 22:46 08.02.2022
3859 Clouds 19 1016 87 10000 1.54 190 22:21 08.02.2022
3860 Mist 19 1015 92 2800 2.57 180 21:39 08.02.2022
3861 Mist 18 1015 93 2800 2.57 180 21:20 08.02.2022
3862 Mist 17 1016 96 4500 1.54 180 20:43 08.02.2022
3863 Mist 16 1016 95 4800 1.54 160 19:46 08.02.2022
3864 Mist 16 1016 95 4900 3.6 210 18:38 08.02.2022
3865 Mist 16 1016 93 5000 4.63 210 17:40 08.02.2022
3866 Clouds 16 1016 93 8000 5.14 220 16:30 08.02.2022
3867 Clouds 16 1017 93 9000 4.63 230 15:29 08.02.2022
3868 Clouds 16 1017 92 10000 1.54 300 14:32 08.02.2022
3869 Clouds 16 1017 91 8000 1.54 160 13:20 08.02.2022
3870 Haze 17 1018 89 5000 2.06 180 11:33 08.02.2022
3871 Haze 17 1017 89 5000 2.06 180 10:23 08.02.2022
3872 Haze 17 1017 89 5000 2.06 180 10:23 08.02.2022
3873 Clouds 18 1017 86 9000 1.03 160 09:44 08.02.2022
3874 Clouds 21 1016 79 10000 3.6 180 07:51 08.02.2022
3875 Clouds 21 1015 78 10000 9.26 150 05:40 08.02.2022
3876 Clouds 20 1016 79 10000 8.75 160 04:39 08.02.2022
3877 Clouds 20 1016 79 10000 8.75 160 04:21 08.02.2022
3878 Clouds 21 1016 77 10000 8.23 160 03:36 08.02.2022
3879 Clouds 21 1016 77 10000 8.23 160 03:18 08.02.2022
3880 Clouds 22 1016 76 10000 8.75 150 02:58 08.02.2022
3881 Clouds 21 1016 75 10000 9.77 150 02:36 08.02.2022
3882 Clouds 21 1016 77 10000 9.77 150 02:18 08.02.2022
3883 Clouds 19 1019 82 10000 9.77 150 01:43 08.02.2022
3884 Clouds 19 1019 82 10000 9.77 150 01:43 08.02.2022
3885 Clouds 21 1017 77 10000 9.77 150 01:24 08.02.2022
3886 Clouds 21 1017 79 10000 9.26 150 00:53 08.02.2022
3887 Clouds 20 1017 80 10000 10.29 150 23:54 07.02.2022
3888 Clouds 20 1017 80 10000 10.29 150 23:36 07.02.2022
3889 Clouds 20 1017 79 10000 9.77 150 23:18 07.02.2022
3890 Clouds 20 1017 81 10000 8.23 150 22:19 07.02.2022
3891 Clouds 21 1017 84 10000 7.72 150 21:53 07.02.2022
3892 Clouds 19 1017 82 10000 6.69 160 21:29 07.02.2022
3893 Clouds 19 1017 85 10000 5.66 160 20:56 07.02.2022
3894 Clouds 19 1017 87 10000 4.12 180 20:38 07.02.2022
3895 Clouds 17 1017 91 10000 4.63 220 19:49 07.02.2022
3896 Clouds 17 1016 92 10000 4.12 200 19:31 07.02.2022
3897 Clouds 16 1016 91 10000 2.57 170 17:52 07.02.2022
3898 Clouds 16 1016 90 10000 3.09 170 16:52 07.02.2022
3899 Clouds 16 1016 89 10000 3.09 160 15:49 07.02.2022
3900 Clouds 16 1016 89 10000 3.6 160 14:48 07.02.2022
3901 Clouds 16 1017 89 10000 3.09 150 13:28 07.02.2022
3902 Clouds 16 1018 89 10000 3.09 160 12:38 07.02.2022
3903 Clouds 16 1017 89 10000 0.45 124 11:57 07.02.2022
3904 Clouds 16 1017 88 10000 0.45 104 11:34 07.02.2022
3905 Clouds 16 1017 88 10000 5.14 150 10:49 07.02.2022
3906 Clouds 16 1017 88 10000 6.17 150 10:29 07.02.2022
3907 Clouds 16 1017 88 10000 0.45 230 09:53 07.02.2022
3908 Clouds 16 1016 87 10000 0.45 126 09:18 07.02.2022
3909 Clouds 16 1016 85 10000 0.89 207 08:24 07.02.2022
3910 Clouds 17 1016 82 10000 1.79 104 06:54 07.02.2022
3911 Clouds 17 1016 81 10000 1.79 177 06:33 07.02.2022
3912 Clouds 18 1018 79 10000 2.24 239 02:58 07.02.2022
3913 Clouds 17 1019 74 10000 1.79 209 00:44 07.02.2022
3914 Clouds 17 1019 74 10000 1.79 137 23:42 06.02.2022
3915 Clouds 16 1019 73 10000 1.79 130 22:47 06.02.2022
3916 Clouds 16 1019 75 10000 1.79 253 21:54 06.02.2022
3917 Clouds 16 1019 76 10000 2.24 136 21:35 06.02.2022
3918 Clouds 16 1019 75 10000 1.34 174 20:54 06.02.2022
3919 Clouds 15 1019 74 10000 2.24 332 20:31 06.02.2022
3920 Clouds 15 1020 73 10000 3.13 173 19:37 06.02.2022
3921 Clouds 15 1020 76 10000 2.68 334 18:40 06.02.2022
3922 Clouds 15 1020 75 10000 2.68 91 17:55 06.02.2022
3923 Clouds 15 1020 75 10000 2.24 121 17:18 06.02.2022
3924 Clouds 15 1020 75 10000 3.13 136 16:38 06.02.2022
3925 Clouds 14 1020 75 10000 3.13 92 15:48 06.02.2022
3926 Rain 15 1020 74 10000 2.68 147 15:26 06.02.2022
3927 Clouds 14 1021 74 10000 2.24 143 14:36 06.02.2022
3928 Clouds 14 1022 76 10000 2.24 109 13:25 06.02.2022
3929 Clouds 15 1022 76 10000 2.68 171 12:51 06.02.2022
3930 Clouds 14 1022 79 10000 3.13 180 11:27 06.02.2022
3931 Rain 14 1022 81 10000 2.24 183 10:30 06.02.2022
3932 Rain 14 1021 82 10000 1.34 104 08:53 06.02.2022
3933 Rain 13 1020 85 10000 2.24 161 07:51 06.02.2022
3934 Clouds 13 1019 94 10000 3.13 26 05:30 06.02.2022
3935 Clouds 13 1019 94 10000 3.13 26 05:30 06.02.2022
3936 Clouds 13 1019 94 10000 3.13 26 05:30 06.02.2022
3937 Rain 13 1018 96 7000 3.13 127 02:26 06.02.2022
3938 Rain 13 1017 95 8000 2.68 134 01:47 06.02.2022
3939 Rain 13 1017 97 8000 1.79 146 00:26 06.02.2022
3940 Rain 13 1015 97 8000 3.13 218 22:22 05.02.2022
3941 Clouds 14 1014 97 7000 3.13 162 21:18 05.02.2022
3942 Clouds 14 1013 96 10000 2.24 151 20:24 05.02.2022
3943 Rain 14 1012 96 4200 2.24 206 19:46 05.02.2022
3944 Rain 14 1012 96 8000 1.79 223 18:52 05.02.2022
3945 Clouds 13 1011 96 6000 2.24 224 17:39 05.02.2022
3946 Rain 13 1011 96 8000 0.89 275 16:48 05.02.2022
3947 Rain 13 1012 96 5000 0.89 197 15:34 05.02.2022
3948 Rain 13 1012 96 3800 0.89 130 14:53 05.02.2022
3949 Rain 13 1011 96 6000 0.89 183 12:47 05.02.2022
3950 Rain 13 1012 94 5000 0.89 251 12:22 05.02.2022
3951 Rain 14 1012 94 7000 0.45 207 10:48 05.02.2022
3952 Rain 14 1011 94 8000 0.45 140 09:53 05.02.2022
3953 Rain 14 1012 94 10000 0.45 121 09:30 05.02.2022
3954 Rain 14 1011 94 10000 0.89 225 07:38 05.02.2022
3955 Rain 14 1011 92 10000 0.45 166 06:56 05.02.2022
3956 Rain 14 1011 93 9000 0.89 132 04:29 05.02.2022
3957 Rain 15 1011 96 9000 1.79 173 01:19 05.02.2022
3958 Rain 15 1011 96 10000 2.24 145 00:52 05.02.2022
3959 Rain 15 1011 95 10000 2.24 186 23:39 04.02.2022
3960 Rain 15 1011 95 10000 2.68 147 23:21 04.02.2022
3961 Rain 14 1011 96 10000 1.34 202 21:54 04.02.2022
3962 Rain 14 1011 96 10000 1.79 247 21:36 04.02.2022
3963 Clouds 14 1011 96 10000 2.24 228 21:18 04.02.2022
3964 Clouds 14 1009 99 6000 1.34 240 19:36 04.02.2022
3965 Rain 14 1007 98 3900 0.45 113 17:40 04.02.2022
3966 Rain 19 1005 95 3000 0.45 245 15:39 04.02.2022
3967 Rain 20 1005 96 2000 0.45 287 14:52 04.02.2022
3968 Rain 20 1004 94 3000 0.89 147 13:24 04.02.2022
3969 Rain 19 1005 93 3000 0.89 99 12:42 04.02.2022
3970 Rain 20 1004 92 5000 1.34 205 11:41 04.02.2022
3971 Rain 20 1004 83 10000 0.45 216 10:34 04.02.2022
3972 Clouds 22 1004 78 10000 0.45 292 08:34 04.02.2022
3973 Rain 23 1002 71 10000 0.89 244 05:23 04.02.2022
3974 Clouds 25 1006 53 10000 9.77 360 02:42 04.02.2022
3975 Clouds 26 1007 53 10000 10.8 360 01:22 04.02.2022
3976 Clouds 24 1008 60 10000 9.26 350 23:29 03.02.2022
3977 Clouds 23 1007 68 10000 0.89 194 22:31 03.02.2022
3978 Clouds 22 1009 70 10000 0.89 50 21:48 03.02.2022
3979 Clouds 20 1008 77 10000 1.34 48 20:36 03.02.2022
3980 Clouds 20 1008 77 10000 1.34 79 20:18 03.02.2022
3981 Rain 20 1009 78 10000 0.45 254 19:26 03.02.2022
3982 Clouds 20 1008 80 10000 0.89 48 18:28 03.02.2022
3983 Clouds 20 1008 81 10000 1.34 105 17:32 03.02.2022
3984 Clouds 20 1009 82 10000 1.34 160 15:53 03.02.2022
3985 Clouds 21 1010 80 10000 1.34 351 14:28 03.02.2022
3986 Clouds 21 1010 80 10000 1.79 346 12:40 03.02.2022
3987 Clouds 21 1010 78 10000 0.89 112 10:36 03.02.2022
3988 Clouds 21 1010 77 10000 0.89 347 08:23 03.02.2022
3989 Clouds 24 1011 64 10000 10.29 350 03:28 03.02.2022
3990 Clouds 23 1012 67 10000 12.35 350 00:30 03.02.2022
3991 Clouds 22 1012 69 10000 12.35 10 22:55 02.02.2022
3992 Clouds 21 1011 76 10000 1.34 52 21:53 02.02.2022
3993 Clouds 21 1011 78 10000 1.34 91 21:30 02.02.2022
3994 Clouds 20 1011 84 10000 1.34 14 20:33 02.02.2022
3995 Clouds 20 1011 83 10000 1.79 313 19:51 02.02.2022
3996 Clouds 20 1011 82 10000 1.34 47 19:20 02.02.2022
3997 Clouds 20 1010 80 10000 2.68 305 18:27 02.02.2022
3998 Rain 20 1010 86 10000 1.79 270 17:37 02.02.2022
3999 Clouds 19 1011 87 10000 1.34 170 17:18 02.02.2022
4000 Clouds 19 1011 87 10000 1.34 170 17:18 02.02.2022
4001 Clouds 19 1011 88 6000 2.24 40 16:30 02.02.2022
4002 Rain 21 1012 73 10000 1.34 27 12:54 02.02.2022
4003 Rain 22 1012 72 10000 2.24 183 11:51 02.02.2022
4004 Rain 22 1012 71 10000 1.79 128 11:31 02.02.2022
4005 Rain 22 1012 69 10000 1.34 56 09:46 02.02.2022
4006 Clouds 23 1011 65 10000 1.34 114 06:18 02.02.2022
4007 Rain 22 1014 66 10000 0.89 247 22:44 01.02.2022
4008 Clouds 21 1016 64 10000 9.26 360 21:30 01.02.2022
4009 Rain 20 1015 68 10000 0.45 64 19:57 01.02.2022
4010 Clouds 20 1016 74 10000 0.45 15 17:38 01.02.2022
4011 Clouds 19 1016 80 10000 0.89 24 16:33 01.02.2022
4012 Clouds 21 1017 70 10000 0.45 65 13:28 01.02.2022
4013 Clouds 21 1017 67 10000 0.45 265 12:28 01.02.2022
4014 Clouds 21 1017 66 10000 0.89 90 10:44 01.02.2022
4015 Clouds 23 1020 59 10000 0.45 55 02:30 01.02.2022
4016 Clouds 23 1020 65 10000 0.89 207 23:40 31.01.2022
4017 Clouds 23 1020 69 10000 0.45 161 22:48 31.01.2022
4018 Clouds 21 1020 76 10000 0.45 140 21:38 31.01.2022
4019 Clouds 18 1020 86 10000 3.09 350 20:45 31.01.2022
4020 Clouds 17 1020 90 10000 3.09 360 20:26 31.01.2022
4021 Clouds 15 1020 90 10000 2.57 30 18:54 31.01.2022
4022 Clouds 15 1020 92 10000 1.54 20 18:20 31.01.2022
4023 Clouds 15 1020 91 10000 1.54 20 17:25 31.01.2022
4024 Clouds 15 1020 91 10000 1.03 80 16:25 31.01.2022
4025 Clouds 15 1020 90 10000 2.06 150 14:54 31.01.2022
4026 Clouds 16 1020 87 10000 1.03 100 13:43 31.01.2022
4027 Clouds 16 1021 86 10000 1.54 60 12:38 31.01.2022
4028 Clouds 16 1020 85 10000 1.54 230 11:42 31.01.2022
4029 Clouds 17 1020 84 10000 0.51 220 10:49 31.01.2022
4030 Clouds 18 1020 81 10000 2.06 160 09:45 31.01.2022
4031 Clouds 19 1020 76 10000 2.06 180 08:58 31.01.2022
4032 Clouds 20 1020 75 10000 4.12 200 08:38 31.01.2022
4033 Clear 21 1019 72 10000 4.12 200 08:19 31.01.2022
4034 Clouds 19 1021 75 10000 5.66 210 06:18 31.01.2022
4035 Clear 22 1023 59 10000 1.34 249 00:44 31.01.2022
4036 Clear 20 1023 70 10000 0.45 29 22:38 30.01.2022
4037 Clear 20 1023 71 10000 0.45 221 22:20 30.01.2022
4038 Clear 19 1023 74 10000 0.45 100 21:38 30.01.2022
4039 Clouds 19 1022 80 10000 0.45 17 21:18 30.01.2022
4040 Clouds 16 1023 84 10000 0.51 190 20:45 30.01.2022
4041 Clouds 15 1022 87 10000 0.51 280 20:26 30.01.2022
4042 Clouds 13 1022 88 10000 1.54 90 19:24 30.01.2022
4043 Clouds 12 1021 91 10000 1.54 160 18:35 30.01.2022
4044 Clouds 12 1021 90 10000 0.51 150 17:54 30.01.2022
4045 Clouds 14 1022 89 10000 1.03 230 17:21 30.01.2022
4046 Clouds 14 1022 88 10000 1.03 230 16:39 30.01.2022
4047 Clouds 14 1022 88 10000 1.03 230 16:21 30.01.2022
4048 Clouds 14 1023 86 10000 2.06 160 15:49 30.01.2022
4049 Clouds 14 1023 86 10000 1.54 170 15:31 30.01.2022
4050 Clouds 14 1023 87 10000 2.06 180 14:46 30.01.2022
4051 Clouds 15 1023 84 10000 0.51 250 12:47 30.01.2022
4052 Clouds 16 1023 82 10000 1.03 110 11:53 30.01.2022
4053 Clouds 17 1023 79 10000 3.6 150 10:29 30.01.2022
4054 Clouds 17 1023 79 10000 5.14 160 09:50 30.01.2022
4055 Clear 17 1022 83 10000 1.34 139 08:54 30.01.2022
4056 Clouds 19 1022 80 10000 1.79 3 07:28 30.01.2022
4057 Clear 23 1024 54 10000 6.17 210 01:56 30.01.2022
4058 Clear 23 1024 54 10000 6.17 210 01:56 30.01.2022
4059 Clear 23 1024 55 10000 6.17 210 01:56 30.01.2022
4060 Clouds 23 1024 56 10000 4.63 340 00:22 30.01.2022
4061 Clouds 23 1024 60 10000 7.2 360 23:18 29.01.2022
4062 Clouds 21 1022 69 10000 0.89 87 21:49 29.01.2022
4063 Clouds 20 1022 71 10000 0.45 320 21:24 29.01.2022
4064 Clouds 19 1021 77 10000 0.89 341 20:28 29.01.2022
4065 Clouds 17 1020 82 10000 0.89 303 19:34 29.01.2022
4066 Clouds 17 1020 83 10000 1.34 270 18:52 29.01.2022
4067 Clouds 17 1020 83 10000 1.34 212 18:23 29.01.2022
4068 Clouds 17 1020 83 10000 1.34 97 17:29 29.01.2022
4069 Clouds 18 1021 83 10000 0.89 147 15:57 29.01.2022
4070 Clouds 18 1022 80 10000 1.34 6 14:23 29.01.2022
4071 Clouds 18 1022 80 10000 0.45 108 13:42 29.01.2022
4072 Clouds 18 1022 80 10000 0.45 273 13:23 29.01.2022
4073 Clouds 18 1022 81 10000 0.45 101 11:47 29.01.2022
4074 Clouds 18 1022 81 10000 0.89 123 11:24 29.01.2022
4075 Clouds 18 1023 80 10000 0.89 84 08:43 29.01.2022
4076 Clear 21 1023 59 10000 1.34 107 06:55 29.01.2022
4077 Clouds 22 1027 44 10000 8.23 10 00:35 29.01.2022
4078 Clouds 23 1027 43 10000 7.72 10 23:51 28.01.2022
4079 Clouds 21 1028 52 10000 6.69 30 22:50 28.01.2022
4080 Clouds 20 1026 67 10000 1.34 66 22:21 28.01.2022
4081 Clouds 19 1027 75 10000 0.89 136 21:35 28.01.2022
4082 Clouds 15 1028 79 10000 4.63 30 20:29 28.01.2022
4083 Clouds 12 1027 94 10000 3.09 30 19:28 28.01.2022
4084 Clouds 13 1027 82 10000 2.57 40 18:42 28.01.2022
4085 Clouds 13 1028 82 10000 2.57 40 16:46 28.01.2022
4086 Clouds 12 1027 82 10000 1.54 30 15:18 28.01.2022
4087 Clouds 13 1028 79 10000 1.54 20 13:37 28.01.2022
4088 Clouds 13 1028 77 10000 1.03 350 12:27 28.01.2022
4089 Clear 14 1028 77 10000 2.06 240 10:49 28.01.2022
4090 Clear 15 1027 74 10000 2.57 250 09:49 28.01.2022
4091 Clear 19 1025 59 10000 5.14 170 07:43 28.01.2022
4092 Clouds 18 1027 56 10000 0.45 109 06:39 28.01.2022
4093 Clouds 19 1028 52 10000 0.89 216 03:53 28.01.2022
4094 Clouds 19 1029 56 10000 1.34 172 02:30 28.01.2022
4095 Clouds 19 1029 56 10000 1.34 231 01:57 28.01.2022
4096 Clouds 18 1029 57 10000 0.89 165 01:30 28.01.2022
4097 Clouds 17 1028 55 10000 1.34 152 22:40 27.01.2022
4098 Clouds 16 1027 59 10000 0.45 226 21:45 27.01.2022
4099 Clouds 16 1027 63 10000 0.89 130 21:26 27.01.2022
4100 Clouds 15 1027 66 10000 0.45 128 20:23 27.01.2022
4101 Clouds 14 1024 69 10000 0.89 202 18:23 27.01.2022
4102 Clouds 14 1024 71 10000 0.89 205 17:18 27.01.2022
4103 Clouds 14 1024 69 10000 1.34 244 14:25 27.01.2022
4104 Clouds 14 1024 70 10000 1.34 156 13:19 27.01.2022
4105 Clouds 14 1024 68 10000 1.34 117 12:20 27.01.2022
4106 Clouds 14 1022 70 10000 1.79 174 09:56 27.01.2022
4107 Clear 15 1020 68 10000 2.24 97 08:41 27.01.2022
4108 Clear 15 1020 67 10000 3.13 235 08:18 27.01.2022
4109 Clear 18 1017 57 10000 2.24 125 03:37 27.01.2022
4110 Clouds 17 1014 65 10000 2.24 101 00:25 27.01.2022
4111 Clouds 15 1012 72 10000 2.68 227 22:31 26.01.2022
4112 Clouds 14 1010 82 10000 1.34 222 21:44 26.01.2022
4113 Rain 13 1010 82 10000 1.79 245 20:59 26.01.2022
4114 Clouds 13 1010 85 9000 0.89 163 20:35 26.01.2022
4115 Clouds 13 1009 86 8000 2.24 223 19:52 26.01.2022
4116 Clouds 13 1008 84 10000 0.45 142 18:52 26.01.2022
4117 Clouds 13 1007 83 10000 0.45 120 18:24 26.01.2022
4118 Clouds 13 1007 83 10000 1.34 173 17:39 26.01.2022
4119 Clouds 14 1006 84 10000 1.34 75 17:19 26.01.2022
4120 Clouds 14 1005 83 10000 2.24 107 16:25 26.01.2022
4121 Clouds 15 1004 81 10000 3.13 245 15:23 26.01.2022
4122 Clouds 18 999 87 10000 0.45 113 12:44 26.01.2022
4123 Clouds 19 998 88 10000 0.89 216 10:56 26.01.2022
4124 Clouds 19 998 89 10000 0.89 238 09:58 26.01.2022
4125 Clouds 19 998 89 10000 0.89 241 09:39 26.01.2022
4126 Clouds 20 998 85 10000 0.89 45 07:28 26.01.2022
4127 Clouds 20 1001 88 10000 0.45 44 00:26 26.01.2022
4128 Clouds 20 1001 87 10000 0.45 86 23:43 25.01.2022
4129 Clouds 21 1001 85 10000 0.45 34 22:49 25.01.2022
4130 Clouds 21 1001 86 10000 0.45 338 22:19 25.01.2022
4131 Clouds 20 1002 85 10000 0.45 356 21:34 25.01.2022
4132 Rain 20 1002 87 10000 0.45 109 20:45 25.01.2022
4133 Rain 18 1002 90 10000 0.45 212 19:58 25.01.2022
4134 Rain 18 1002 90 10000 0.45 212 19:58 25.01.2022
4135 Clouds 18 1002 91 10000 0.45 53 19:32 25.01.2022
4136 Rain 17 1002 93 10000 4.12 20 17:56 25.01.2022
4137 Clouds 17 1002 93 10000 3.6 10 17:37 25.01.2022
4138 Clouds 18 1003 90 10000 3.09 20 16:35 25.01.2022
4139 Clouds 18 1004 92 10000 3.6 360 15:39 25.01.2022
4140 Clouds 18 1004 92 10000 3.6 360 15:20 25.01.2022
4141 Clouds 18 1004 90 10000 3.6 20 14:56 25.01.2022
4142 Clouds 18 1005 87 10000 3.6 10 12:23 25.01.2022
4143 Rain 17 1006 91 9000 6.69 10 09:39 25.01.2022
4144 Rain 19 1006 80 10000 0.45 45 08:21 25.01.2022
4145 Rain 20 1006 77 10000 0.45 207 07:27 25.01.2022
4146 Clouds 21 1006 77 10000 0.45 168 05:54 25.01.2022
4147 Rain 21 1009 74 10000 0.89 47 00:57 25.01.2022
4148 Clouds 21 1010 70 10000 0.45 100 23:36 24.01.2022
4149 Clouds 21 1010 70 10000 0.89 94 23:18 24.01.2022
4150 Rain 21 1010 72 10000 0.89 114 22:53 24.01.2022
4151 Rain 20 1010 75 10000 0.45 248 22:35 24.01.2022
4152 Clouds 21 1010 72 10000 0.45 46 21:42 24.01.2022
4153 Clouds 20 1010 75 10000 0.45 157 21:24 24.01.2022
4154 Clouds 19 1011 81 10000 1.34 323 20:28 24.01.2022
4155 Clouds 18 1011 86 10000 0.45 51 19:38 24.01.2022
4156 Clouds 18 1011 86 10000 4.12 360 18:50 24.01.2022
4157 Clouds 18 1011 86 10000 0.45 121 17:42 24.01.2022
4158 Clouds 18 1010 85 10000 0.45 8 17:22 24.01.2022
4159 Clouds 18 1010 85 10000 0.45 8 17:22 24.01.2022
4160 Clouds 18 1010 85 10000 5.14 350 16:31 24.01.2022
4161 Clouds 18 1011 84 10000 0.45 213 15:51 24.01.2022
4162 Clouds 19 1011 84 10000 0.45 208 14:19 24.01.2022
4163 Clouds 18 1011 83 10000 3.09 360 12:35 24.01.2022
4164 Clouds 19 1011 81 10000 3.6 350 11:42 24.01.2022
4165 Clouds 19 1012 76 10000 4.63 350 10:23 24.01.2022
4166 Clouds 19 1011 75 10000 4.12 350 09:46 24.01.2022
4167 Clouds 21 1010 67 10000 5.14 10 08:18 24.01.2022
4168 Clouds 24 1012 63 10000 0.45 59 02:26 24.01.2022
4169 Rain 21 1014 64 10000 5.14 210 01:26 24.01.2022
4170 Clouds 22 1012 67 10000 0.45 45 00:32 24.01.2022
4171 Clouds 19 1014 77 10000 3.6 200 23:46 23.01.2022
4172 Clouds 20 1013 73 10000 0.45 239 22:21 23.01.2022
4173 Clouds 19 1013 77 10000 0.45 308 21:41 23.01.2022
4174 Clouds 19 1013 79 10000 2.57 190 21:23 23.01.2022
4175 Clouds 16 1014 85 10000 1.03 130 20:23 23.01.2022
4176 Clouds 14 1013 91 10000 0.51 130 18:56 23.01.2022
4177 Clouds 14 1014 87 10000 1.03 30 18:24 23.01.2022
4178 Haze 14 1013 91 2000 0.51 220 17:25 23.01.2022
4179 Haze 15 1014 87 3500 0.51 260 16:18 23.01.2022
4180 Haze 16 1014 88 5000 0.51 190 14:52 23.01.2022
4181 Haze 16 1014 88 3300 1.03 180 14:19 23.01.2022
4182 Clouds 16 1014 88 10000 1.54 20 12:46 23.01.2022
4183 Clouds 16 1014 87 10000 1.54 30 12:21 23.01.2022
4184 Rain 16 1014 87 10000 0.51 120 11:27 23.01.2022
4185 Rain 16 1014 87 8000 1.54 220 10:59 23.01.2022
4186 Clouds 16 1014 86 7000 2.57 230 10:25 23.01.2022
4187 Clouds 17 1014 85 10000 0.45 280 09:33 23.01.2022
4188 Clouds 17 1014 82 10000 0.45 225 08:50 23.01.2022
4189 Clouds 22 1013 67 10000 0.45 247 04:41 23.01.2022
4190 Clouds 20 1016 71 10000 0.45 211 01:43 23.01.2022
4191 Clouds 19 1016 73 10000 3.09 200 00:56 23.01.2022
4192 Clouds 19 1017 76 10000 3.6 190 00:22 23.01.2022
4193 Clouds 21 1016 64 10000 2.06 350 23:18 22.01.2022
4194 Clouds 21 1016 64 10000 5.66 360 22:33 22.01.2022
4195 Clouds 19 1015 75 10000 0.45 341 21:18 22.01.2022
4196 Clouds 18 1015 81 10000 0.45 265 19:46 22.01.2022
4197 Clouds 17 1014 84 10000 0.45 47 18:43 22.01.2022
4198 Clouds 17 1013 87 10000 0.45 157 17:56 22.01.2022
4199 Clear 17 1013 87 10000 0.45 216 17:35 22.01.2022
4200 Clear 17 1013 86 10000 0.45 126 16:55 22.01.2022
4201 Clear 17 1013 84 10000 0.45 67 15:49 22.01.2022
4202 Clear 17 1014 81 10000 0.45 142 14:57 22.01.2022
4203 Clear 17 1014 80 10000 0.45 339 13:36 22.01.2022
4204 Clear 18 1015 75 10000 0.45 78 12:47 22.01.2022
4205 Clear 18 1015 74 10000 0.45 127 12:24 22.01.2022
4206 Clear 18 1016 73 10000 0.45 61 10:55 22.01.2022
4207 Clear 18 1016 74 10000 0.45 124 10:28 22.01.2022
4208 Clear 18 1016 73 10000 0.45 67 09:46 22.01.2022
4209 Clear 19 1015 69 10000 0.45 187 08:51 22.01.2022
4210 Clear 21 1015 62 10000 0.89 127 07:29 22.01.2022
4211 Clear 25 1017 41 10000 8.23 350 04:52 22.01.2022
4212 Clear 25 1019 41 10000 7.72 360 01:32 22.01.2022
4213 Clear 23 1019 46 10000 6.17 10 23:30 21.01.2022
4214 Clear 21 1018 64 10000 1.34 43 22:20 21.01.2022
4215 Clear 15 1019 79 10000 0.45 142 19:56 21.01.2022
4216 Clear 13 1019 80 10000 3.09 30 18:23 21.01.2022
4217 Clear 12 1019 82 10000 2.57 30 17:25 21.01.2022
4218 Clear 13 1019 86 10000 2.06 30 15:28 21.01.2022
4219 Clear 14 1019 82 10000 1.54 210 13:18 21.01.2022
4220 Clear 14 1020 80 10000 3.6 190 12:28 21.01.2022
4221 Clear 15 1020 79 10000 4.63 190 11:27 21.01.2022
4222 Clear 16 1019 77 10000 4.63 190 10:18 21.01.2022
4223 Clouds 17 1018 70 10000 0.89 216 08:23 21.01.2022
4224 Clouds 20 1017 59 10000 1.79 133 04:49 21.01.2022
4225 Clouds 20 1013 66 10000 0.45 137 23:27 20.01.2022
4226 Clouds 20 1014 68 10000 1.34 239 22:21 20.01.2022
4227 Clouds 18 1014 72 10000 0.45 38 21:42 20.01.2022
4228 Clouds 15 1013 83 10000 0.45 57 20:40 20.01.2022
4229 Clouds 13 1014 88 10000 1.54 360 19:19 20.01.2022
4230 Clouds 12 1013 87 10000 1.03 350 18:23 20.01.2022
4231 Clouds 12 1012 87 7000 1.03 360 16:53 20.01.2022
4232 Clouds 12 1012 86 10000 3.6 30 15:40 20.01.2022
4233 Clouds 12 1012 85 10000 1.54 360 14:41 20.01.2022
4234 Clouds 12 1013 82 10000 1.54 30 13:33 20.01.2022
4235 Haze 13 1012 81 5000 1.54 300 12:32 20.01.2022
4236 Clouds 13 1012 78 10000 1.03 80 11:50 20.01.2022
4237 Clouds 14 1012 74 10000 3.09 150 10:39 20.01.2022
4238 Clouds 15 1011 74 10000 4.12 150 09:36 20.01.2022
4239 Clouds 17 1009 67 10000 0.45 296 07:50 20.01.2022
4240 Clouds 16 1009 74 10000 1.34 60 00:46 20.01.2022
4241 Clouds 15 1008 92 8000 0.89 167 22:59 19.01.2022
4242 Clouds 15 1008 92 9000 1.79 126 22:21 19.01.2022
4243 Clouds 15 1007 89 10000 0.45 114 21:23 19.01.2022
4244 Clouds 15 1006 92 10000 0.89 134 20:46 19.01.2022
4245 Clouds 15 1005 93 10000 0.89 239 19:42 19.01.2022
4246 Clouds 15 1005 94 9000 0.45 121 18:29 19.01.2022
4247 Mist 15 1005 98 1700 8.23 210 17:45 19.01.2022
4248 Clouds 18 1002 92 10000 1.34 320 16:47 19.01.2022
4249 Rain 19 1003 87 10000 2.68 66 14:42 19.01.2022
4250 Rain 19 1004 87 10000 1.34 194 12:42 19.01.2022
4251 Clouds 19 1005 86 10000 0.89 311 11:39 19.01.2022
4252 Clouds 19 1005 85 10000 0.89 202 10:23 19.01.2022
4253 Clouds 20 1005 84 10000 0.89 21 09:34 19.01.2022
4254 Clouds 21 1004 75 10000 1.79 210 06:45 19.01.2022
4255 Clouds 22 1007 73 10000 1.34 65 02:38 19.01.2022
4256 Clouds 22 1008 72 10000 0.89 31 23:19 18.01.2022
4257 Clouds 21 1009 74 10000 2.24 43 22:19 18.01.2022
4258 Clouds 19 1008 82 10000 0.89 355 20:58 18.01.2022
4259 Clouds 18 1008 87 10000 0.45 162 19:54 18.01.2022
4260 Clouds 19 1008 84 10000 0.89 62 19:36 18.01.2022
4261 Clouds 18 1008 84 10000 0.89 72 18:51 18.01.2022
4262 Clouds 18 1008 84 10000 0.45 11 17:58 18.01.2022
4263 Clouds 18 1008 84 10000 0.89 325 16:50 18.01.2022
4264 Clouds 18 1009 81 10000 0.45 175 15:47 18.01.2022
4265 Clouds 18 1008 83 10000 0.45 319 15:21 18.01.2022
4266 Clear 17 1010 79 10000 0.45 97 12:47 18.01.2022
4267 Clear 17 1010 80 10000 6.69 10 10:47 18.01.2022
4268 Clear 18 1011 74 10000 1.54 200 08:59 18.01.2022
4269 Clear 18 1011 72 10000 3.6 200 07:55 18.01.2022
4270 Clear 23 1010 59 10000 0.45 48 02:34 18.01.2022
4271 Clouds 20 1012 68 10000 0.89 84 23:39 17.01.2022
4272 Clouds 19 1013 73 10000 0.89 137 22:26 17.01.2022
4273 Clouds 18 1013 77 10000 1.34 152 21:34 17.01.2022
4274 Clouds 17 1012 88 10000 0.89 213 20:24 17.01.2022
4275 Clouds 15 1012 91 10000 1.54 180 18:30 17.01.2022
4276 Clouds 15 1012 91 10000 2.57 210 17:44 17.01.2022
4277 Clouds 15 1012 91 10000 3.09 210 16:40 17.01.2022
4278 Clouds 15 1012 89 10000 3.6 200 15:19 17.01.2022
4279 Clouds 15 1013 88 10000 0.45 235 14:55 17.01.2022
4280 Clouds 16 1012 85 10000 0.89 215 13:22 17.01.2022
4281 Clouds 16 1013 85 10000 6.69 160 12:55 17.01.2022
4282 Clouds 16 1012 78 10000 0.45 126 11:49 17.01.2022
4283 Clear 18 1012 74 10000 0.45 208 10:21 17.01.2022
4284 Clear 18 1011 72 10000 0.45 224 09:34 17.01.2022
4285 Clear 21 1010 63 10000 1.34 226 07:24 17.01.2022
4286 Clear 20 1012 68 10000 6.17 200 02:59 17.01.2022
4287 Clear 20 1013 57 10000 5.66 210 00:55 17.01.2022
4288 Clear 20 1013 68 10000 0.45 116 22:22 16.01.2022
4289 Clear 17 1014 71 10000 3.09 10 20:36 16.01.2022
4290 Clear 13 1014 83 10000 2.06 30 18:51 16.01.2022
4291 Clear 12 1013 85 10000 1.54 40 17:59 16.01.2022
4292 Clear 13 1014 85 10000 1.03 40 16:59 16.01.2022
4293 Clear 13 1014 85 10000 0.51 30 16:33 16.01.2022
4294 Clear 14 1014 82 10000 1.03 40 14:31 16.01.2022
4295 Clear 15 1015 80 10000 1.54 30 13:46 16.01.2022
4296 Clear 16 1015 77 10000 3.6 350 12:46 16.01.2022
4297 Clear 17 1015 76 10000 4.12 360 11:41 16.01.2022
4298 Clear 17 1015 71 10000 3.09 350 10:54 16.01.2022
4299 Clear 18 1016 71 10000 2.06 10 10:19 16.01.2022
4300 Clear 18 1016 70 10000 1.54 180 09:40 16.01.2022
4301 Clouds 18 1016 68 10000 1.54 180 09:22 16.01.2022
4302 Clouds 22 1015 59 10000 2.57 180 07:30 16.01.2022
4303 Clouds 20 1019 57 10000 4.12 210 00:38 16.01.2022
4304 Clouds 21 1019 54 10000 0.89 117 23:40 15.01.2022
4305 Clear 17 1018 73 10000 0.45 212 21:23 15.01.2022
4306 Clear 15 1019 78 10000 0.45 116 20:56 15.01.2022
4307 Clear 16 1020 78 10000 1.03 110 20:38 15.01.2022
4308 Clouds 12 1019 88 10000 1.54 10 19:28 15.01.2022
4309 Clouds 11 1019 88 10000 1.03 50 18:31 15.01.2022
4310 Clouds 11 1018 86 10000 0.51 110 16:57 15.01.2022
4311 Clear 12 1019 85 10000 0.51 70 15:39 15.01.2022
4312 Clear 13 1020 81 10000 2.06 10 13:39 15.01.2022
4313 Clouds 14 1020 79 6000 1.54 330 11:46 15.01.2022
4314 Clouds 15 1019 76 7000 1.03 340 10:24 15.01.2022
4315 Clouds 19 1019 63 10000 0.89 233 06:40 15.01.2022
4316 Clear 19 1021 59 10000 2.24 128 23:49 14.01.2022
4317 Clear 17 1022 68 10000 0.89 115 21:37 14.01.2022
4318 Clear 15 1022 73 10000 0.45 128 20:37 14.01.2022
4319 Clear 14 1022 79 10000 0.45 184 19:57 14.01.2022
4320 Clear 11 1020 86 10000 4.63 160 18:44 14.01.2022
4321 Clear 12 1020 83 10000 4.63 170 17:54 14.01.2022
4322 Clear 13 1021 81 10000 3.09 150 16:47 14.01.2022
4323 Clear 13 1020 81 10000 2.57 160 15:33 14.01.2022
4324 Clear 13 1022 78 10000 0.45 131 14:29 14.01.2022
4325 Clouds 14 1022 75 10000 0.89 116 13:27 14.01.2022
4326 Clouds 14 1022 75 10000 0.45 145 12:20 14.01.2022
4327 Clouds 15 1022 75 10000 0.89 111 10:46 14.01.2022
4328 Clear 16 1021 68 10000 0.89 235 08:54 14.01.2022
4329 Clear 18 1021 62 10000 1.34 223 07:46 14.01.2022
4330 Clear 19 1020 58 10000 1.79 53 03:19 14.01.2022
4331 Clouds 18 1022 60 10000 2.24 214 00:44 14.01.2022
4332 Clouds 17 1022 63 10000 1.79 130 21:57 13.01.2022
4333 Clouds 17 1021 63 10000 0.89 113 21:30 13.01.2022
4334 Clouds 15 1022 66 10000 1.34 144 20:33 13.01.2022
4335 Clouds 14 1021 69 10000 1.34 113 19:32 13.01.2022
4336 Clouds 14 1021 72 10000 0.45 116 18:50 13.01.2022
4337 Clouds 14 1021 72 10000 0.89 198 17:23 13.01.2022
4338 Clouds 14 1022 74 10000 5.14 170 15:49 13.01.2022
4339 Clouds 14 1022 73 10000 0.89 246 15:26 13.01.2022
4340 Clouds 14 1022 75 10000 0.45 221 13:42 13.01.2022
4341 Clouds 14 1023 68 10000 5.14 150 11:43 13.01.2022
4342 Clouds 15 1022 65 10000 0.89 121 09:37 13.01.2022
4343 Clouds 15 1022 65 10000 0.89 333 08:52 13.01.2022
4344 Clouds 15 1021 64 10000 1.34 17 08:18 13.01.2022
4345 Clouds 17 1020 59 10000 1.34 221 07:20 13.01.2022
4346 Clouds 18 1020 55 10000 1.34 247 05:21 13.01.2022
4347 Clouds 18 1020 55 10000 1.34 247 05:21 13.01.2022
4348 Clouds 18 1020 54 10000 2.24 96 04:55 13.01.2022
4349 Clouds 18 1021 58 10000 1.79 135 01:46 13.01.2022
4350 Clouds 15 1021 65 10000 2.68 109 23:54 12.01.2022
4351 Clouds 15 1021 67 10000 3.13 211 23:34 12.01.2022
4352 Clouds 15 1021 68 10000 1.79 246 22:49 12.01.2022
4353 Clouds 15 1020 70 10000 2.68 73 21:54 12.01.2022
4354 Clouds 15 1020 72 10000 1.79 238 21:21 12.01.2022
4355 Clouds 14 1020 71 10000 2.24 199 20:53 12.01.2022
4356 Clouds 14 1020 72 10000 2.24 136 19:24 12.01.2022
4357 Clouds 14 1019 75 10000 2.24 209 18:27 12.01.2022
4358 Clouds 14 1019 73 10000 2.24 238 16:59 12.01.2022
4359 Clouds 14 1018 79 10000 3.13 114 15:53 12.01.2022
4360 Clouds 14 1018 87 7000 2.24 138 14:46 12.01.2022
4361 Clouds 15 1016 85 10000 1.34 106 12:58 12.01.2022
4362 Clouds 17 1013 83 10000 0.89 76 09:58 12.01.2022
4363 Clouds 19 1012 70 10000 5.14 10 08:33 12.01.2022
4364 Clouds 22 1012 56 10000 6.17 360 07:33 12.01.2022
4365 Clouds 22 1012 60 10000 8.23 10 05:30 12.01.2022
4366 Clouds 21 1014 64 10000 8.75 10 23:29 11.01.2022
4367 Clouds 19 1015 72 10000 7.72 10 22:41 11.01.2022
4368 Clouds 19 1015 73 10000 7.72 10 22:20 11.01.2022
4369 Clouds 19 1013 78 10000 0.45 323 20:49 11.01.2022
4370 Clouds 18 1013 84 10000 0.89 94 19:42 11.01.2022
4371 Clouds 17 1013 89 10000 3.6 10 18:25 11.01.2022
4372 Clouds 18 1012 89 10000 3.6 350 17:18 11.01.2022
4373 Clouds 18 1012 89 10000 0.45 9 16:36 11.01.2022
4374 Clouds 18 1013 88 10000 0.45 91 14:57 11.01.2022
4375 Clouds 18 1013 88 10000 0.45 147 14:39 11.01.2022
4376 Clouds 19 1014 86 10000 0.45 101 13:53 11.01.2022
4377 Clouds 19 1014 85 10000 0.45 78 13:31 11.01.2022
4378 Clouds 19 1014 85 10000 0.89 138 12:37 11.01.2022
4379 Clouds 19 1015 83 10000 0.45 190 10:52 11.01.2022
4380 Clouds 19 1014 82 10000 0.89 288 08:53 11.01.2022
4381 Clouds 21 1013 79 10000 1.79 159 06:22 11.01.2022
4382 Clouds 23 1015 75 10000 0.89 105 00:29 11.01.2022
4383 Clouds 22 1017 74 10000 0.89 106 23:40 10.01.2022
4384 Clouds 22 1017 79 10000 0.89 64 22:43 10.01.2022
4385 Clouds 21 1018 79 10000 0.89 250 22:18 10.01.2022
4386 Clouds 21 1017 84 10000 0.45 165 21:42 10.01.2022
4387 Clouds 20 1017 88 10000 0.89 188 21:18 10.01.2022
4388 Clouds 19 1017 90 10000 0.45 73 20:55 10.01.2022
4389 Clouds 19 1017 92 10000 0.89 204 20:24 10.01.2022
4390 Clouds 18 1017 94 10000 0.89 16 19:41 10.01.2022
4391 Clouds 18 1017 94 10000 0.89 300 19:19 10.01.2022
4392 Clouds 18 1017 94 10000 0.45 234 18:48 10.01.2022
4393 Mist 18 1017 95 4600 0.45 81 17:24 10.01.2022
4394 Clouds 18 1017 95 10000 0.45 28 16:41 10.01.2022
4395 Clouds 18 1017 94 10000 0.45 22 15:20 10.01.2022
4396 Clouds 18 1018 90 10000 0.89 254 13:39 10.01.2022
4397 Clouds 19 1019 86 10000 0.45 360 11:57 10.01.2022
4398 Clouds 19 1019 85 10000 0.89 189 11:24 10.01.2022
4399 Clouds 19 1019 84 10000 0.45 225 09:46 10.01.2022
4400 Clouds 21 1017 77 10000 0.45 344 06:22 10.01.2022
4401 Clouds 21 1016 76 10000 0.89 344 05:49 10.01.2022
4402 Clouds 23 1018 64 10000 7.2 10 01:26 10.01.2022
4403 Clouds 22 1017 73 10000 0.45 88 00:24 10.01.2022
4404 Clouds 20 1016 76 10000 0.89 26 23:29 09.01.2022
4405 Clouds 20 1016 75 10000 0.89 95 22:37 09.01.2022
4406 Clouds 19 1018 80 10000 0.45 134 21:46 09.01.2022
4407 Clouds 20 1018 77 10000 0.45 127 21:23 09.01.2022
4408 Clouds 18 1018 81 10000 0.45 115 20:50 09.01.2022
4409 Clouds 18 1018 81 10000 0.45 19 20:32 09.01.2022
4410 Clouds 17 1018 83 10000 5.14 20 19:44 09.01.2022
4411 Clouds 17 1017 84 10000 0.89 63 19:23 09.01.2022
4412 Clouds 17 1017 84 10000 0.45 135 18:51 09.01.2022
4413 Clouds 17 1017 84 10000 0.45 81 18:33 09.01.2022
4414 Clouds 17 1016 85 10000 0.45 165 17:30 09.01.2022
4415 Clouds 17 1016 84 10000 0.89 263 16:51 09.01.2022
4416 Clouds 17 1016 85 10000 0.45 112 15:57 09.01.2022
4417 Clouds 17 1017 87 10000 0.89 244 15:34 09.01.2022
4418 Clouds 18 1017 82 10000 0.89 343 14:40 09.01.2022
4419 Clouds 18 1016 82 10000 0.45 358 13:50 09.01.2022
4420 Clouds 18 1016 82 10000 0.89 62 12:48 09.01.2022
4421 Clouds 18 1016 81 10000 1.34 264 11:48 09.01.2022
4422 Clouds 18 1016 81 10000 0.89 184 10:52 09.01.2022
4423 Clouds 18 1016 81 10000 0.89 50 09:42 09.01.2022
4424 Clouds 19 1015 79 10000 0.89 131 08:34 09.01.2022
4425 Clouds 22 1014 70 10000 1.79 357 03:55 09.01.2022
4426 Clouds 20 1015 73 10000 1.34 148 01:23 09.01.2022
4427 Clouds 20 1016 74 10000 1.34 138 23:39 08.01.2022
4428 Clouds 19 1015 80 10000 0.89 55 22:59 08.01.2022
4429 Clouds 18 1016 80 10000 0.89 119 22:19 08.01.2022
4430 Clouds 18 1017 81 10000 0.89 130 21:25 08.01.2022
4431 Clouds 18 1016 80 10000 0.89 150 20:41 08.01.2022
4432 Clouds 19 1017 80 10000 1.34 79 20:19 08.01.2022
4433 Clouds 17 1016 84 10000 1.34 174 18:34 08.01.2022
4434 Clouds 17 1016 83 10000 0.89 282 17:22 08.01.2022
4435 Clouds 17 1015 83 10000 0.89 20 15:52 08.01.2022
4436 Clouds 17 1016 80 10000 0.89 59 14:44 08.01.2022
4437 Clouds 17 1016 82 10000 0.89 114 13:25 08.01.2022
4438 Clouds 17 1018 78 10000 0.45 26 11:25 08.01.2022
4439 Clouds 17 1018 78 10000 0.45 233 10:25 08.01.2022
4440 Clouds 17 1018 76 10000 1.34 48 09:47 08.01.2022
4441 Clouds 20 1018 61 10000 0.45 204 07:21 08.01.2022
4442 Clouds 21 1021 59 10000 6.69 10 02:50 08.01.2022
4443 Clouds 21 1021 53 10000 0.45 191 00:41 08.01.2022
4444 Clouds 19 1022 58 10000 0.45 178 22:47 07.01.2022
4445 Clouds 15 1021 74 10000 2.06 20 20:58 07.01.2022
4446 Clouds 14 1022 77 10000 2.57 10 20:19 07.01.2022
4447 Clouds 11 1019 86 10000 2.06 30 19:18 07.01.2022
4448 Clouds 10 1021 93 10000 1.54 360 18:44 07.01.2022
4449 Clouds 10 1019 85 10000 2.06 10 17:26 07.01.2022
4450 Clouds 11 1019 85 10000 2.06 40 16:30 07.01.2022
4451 Clouds 12 1021 84 10000 2.06 180 13:56 07.01.2022
4452 Clouds 12 1021 83 10000 3.6 180 13:38 07.01.2022
4453 Clear 12 1021 82 9000 4.63 200 12:49 07.01.2022
4454 Clouds 14 1021 75 10000 5.66 150 09:37 07.01.2022
4455 Clouds 17 1022 67 10000 2.24 150 02:56 07.01.2022
4456 Clouds 16 1021 68 10000 2.68 226 01:54 07.01.2022
4457 Clouds 15 1022 71 10000 2.24 228 01:28 07.01.2022
4458 Clouds 16 1021 73 10000 2.68 135 00:58 07.01.2022
4459 Haze 15 1021 80 5000 1.79 136 23:53 06.01.2022
4460 Clouds 13 1020 83 10000 0.89 165 21:28 06.01.2022
4461 Clouds 13 1020 78 10000 2.68 145 20:22 06.01.2022
4462 Clouds 12 1020 83 8000 1.79 239 19:45 06.01.2022
4463 Clouds 12 1019 81 10000 1.79 241 18:34 06.01.2022
4464 Clouds 13 1019 80 10000 1.79 203 17:41 06.01.2022
4465 Clouds 13 1019 74 10000 1.34 213 16:52 06.01.2022
4466 Clouds 13 1019 74 10000 1.79 75 15:48 06.01.2022
4467 Clouds 13 1019 73 10000 1.34 148 15:26 06.01.2022
4468 Clouds 14 1019 72 10000 2.24 185 14:51 06.01.2022
4469 Clouds 13 1019 71 10000 2.24 275 14:18 06.01.2022
4470 Clouds 14 1019 74 10000 1.79 154 12:50 06.01.2022
4471 Clouds 14 1019 76 10000 2.24 129 11:43 06.01.2022
4472 Clouds 14 1019 76 10000 1.79 64 11:22 06.01.2022
4473 Clouds 14 1017 69 10000 2.24 84 08:59 06.01.2022
4474 Clouds 17 1014 78 10000 2.24 234 01:37 06.01.2022
4475 Clouds 15 1014 92 6000 2.24 157 23:38 05.01.2022
4476 Clouds 15 1014 94 6000 1.79 140 22:59 05.01.2022
4477 Clouds 15 1013 91 10000 2.68 240 22:33 05.01.2022
4478 Clouds 17 1012 89 10000 1.34 250 21:52 05.01.2022
4479 Clouds 16 1013 92 10000 0.89 92 21:21 05.01.2022
4480 Clouds 16 1012 91 10000 1.34 152 20:19 05.01.2022
4481 Rain 16 1012 88 10000 1.34 176 18:54 05.01.2022
4482 Clouds 16 1011 90 10000 0.89 215 17:45 05.01.2022
4483 Clouds 17 1011 87 10000 1.79 216 16:51 05.01.2022
4484 Clouds 17 1011 89 10000 0.89 178 15:43 05.01.2022
4485 Clouds 17 1011 87 10000 1.34 218 14:24 05.01.2022
4486 Clouds 17 1011 86 10000 0.89 123 13:32 05.01.2022
4487 Clouds 17 1010 90 10000 0.89 132 11:45 05.01.2022
4488 Clouds 18 1010 82 10000 0.89 121 08:20 05.01.2022
4489 Clouds 20 1010 79 10000 1.79 92 06:25 05.01.2022
4490 Clouds 20 1011 74 10000 1.79 135 00:59 05.01.2022
4491 Clouds 20 1011 76 10000 0.89 175 23:29 04.01.2022
4492 Clouds 20 1011 76 10000 0.89 122 22:58 04.01.2022
4493 Clouds 19 1012 82 10000 1.79 126 21:31 04.01.2022
4494 Clouds 17 1011 89 10000 0.45 209 19:22 04.01.2022
4495 Clouds 17 1011 89 10000 0.45 128 18:19 04.01.2022
4496 Clouds 17 1010 89 10000 0.89 166 16:53 04.01.2022
4497 Clouds 17 1010 88 10000 5.14 220 16:30 04.01.2022
4498 Clouds 17 1010 87 10000 4.12 220 14:54 04.01.2022
4499 Clouds 17 1011 87 10000 4.63 210 14:36 04.01.2022
4500 Clouds 18 1011 86 10000 3.6 230 13:40 04.01.2022
4501 Clouds 18 1011 83 10000 4.12 230 10:52 04.01.2022
4502 Clouds 18 1011 81 10000 5.66 220 09:47 04.01.2022
4503 Clouds 19 1011 79 10000 0.45 257 08:35 04.01.2022
4504 Clouds 23 1011 59 10000 4.12 200 03:39 04.01.2022
4505 Clouds 22 1013 69 10000 4.12 180 00:42 04.01.2022
4506 Clouds 21 1013 71 10000 3.6 180 23:41 03.01.2022
4507 Clouds 22 1013 72 10000 0.45 223 22:21 03.01.2022
4508 Clouds 21 1013 74 10000 1.03 290 21:35 03.01.2022
4509 Clouds 19 1013 80 10000 1.03 360 20:28 03.01.2022
4510 Clouds 16 1013 89 10000 1.03 40 18:54 03.01.2022
4511 Clouds 16 1013 89 10000 1.03 240 18:28 03.01.2022
4512 Clouds 16 1013 89 10000 2.57 170 17:18 03.01.2022
4513 Clouds 17 1013 87 10000 1.03 110 15:50 03.01.2022
4514 Clouds 18 1014 84 10000 0.45 295 14:31 03.01.2022
4515 Clouds 18 1015 80 10000 3.09 360 12:49 03.01.2022
4516 Clouds 19 1015 77 10000 2.57 350 11:50 03.01.2022
4517 Clouds 20 1015 76 10000 0.45 258 10:37 03.01.2022
4518 Clouds 21 1014 67 10000 0.45 269 08:54 03.01.2022
4519 Clouds 23 1014 64 10000 8.23 360 07:51 03.01.2022
4520 Clouds 25 1017 61 10000 8.75 360 01:55 03.01.2022
4521 Clouds 23 1018 60 10000 8.75 10 23:22 02.01.2022
4522 Clouds 22 1018 67 10000 0.89 143 22:55 02.01.2022
4523 Clouds 22 1018 71 10000 0.45 38 21:52 02.01.2022
4524 Clouds 21 1018 73 10000 0.45 185 20:45 02.01.2022
4525 Clouds 21 1018 78 10000 1.34 86 20:24 02.01.2022
4526 Clouds 20 1018 79 10000 0.45 186 19:31 02.01.2022
4527 Clouds 19 1018 83 10000 0.45 173 18:51 02.01.2022
4528 Clouds 18 1018 87 10000 0.45 155 17:56 02.01.2022
4529 Clouds 18 1018 84 10000 0.45 152 17:37 02.01.2022
4530 Clouds 18 1018 84 10000 0.45 228 17:18 02.01.2022
4531 Clouds 18 1019 80 10000 6.69 10 16:27 02.01.2022
4532 Clouds 19 1019 75 10000 6.17 20 14:38 02.01.2022
4533 Clouds 19 1020 72 10000 5.14 20 12:57 02.01.2022
4534 Clouds 19 1020 72 10000 3.6 10 12:25 02.01.2022
4535 Clouds 20 1020 70 10000 5.14 20 11:33 02.01.2022
4536 Clouds 20 1021 69 10000 4.63 20 10:50 02.01.2022
4537 Clouds 21 1020 66 10000 5.14 30 09:52 02.01.2022
4538 Rain 24 1020 60 10000 5.14 10 07:26 02.01.2022
4539 Clouds 28 1021 30 10000 5.66 350 02:19 02.01.2022
4540 Clouds 21 1021 68 10000 2.06 200 23:40 01.01.2022
4541 Clouds 21 1022 64 10000 1.54 200 22:58 01.01.2022
4542 Clouds 22 1021 69 10000 0.89 356 22:23 01.01.2022
4543 Clouds 21 1021 76 10000 1.03 310 21:44 01.01.2022
4544 Clouds 20 1021 73 10000 2.57 360 20:56 01.01.2022
4545 Clouds 17 1021 82 10000 2.57 20 19:59 01.01.2022
4546 Clouds 16 1020 85 10000 2.57 30 19:30 01.01.2022
4547 Clouds 14 1021 87 10000 2.06 10 18:20 01.01.2022
4548 Clouds 15 1020 87 10000 1.54 320 16:43 01.01.2022
4549 Clear 14 1020 89 10000 1.54 320 16:20 01.01.2022
4550 Clouds 14 1020 88 10000 1.54 150 15:27 01.01.2022
4551 Clear 15 1020 89 10000 0.51 280 14:21 01.01.2022
4552 Clear 15 1020 87 10000 0 0 12:50 01.01.2022
4553 Clear 16 1020 84 10000 2.06 170 11:58 01.01.2022
4554 Clear 17 1019 81 10000 1.03 100 11:23 01.01.2022
4555 Clear 17 1019 78 10000 1.03 230 10:42 01.01.2022
4556 Clear 18 1018 75 10000 3.09 210 09:47 01.01.2022
4557 Clear 19 1018 70 10000 0.45 199 08:26 01.01.2022
4558 Clear 21 1018 60 10000 6.69 210 07:55 01.01.2022
4559 Clear 21 1018 56 10000 5.66 200 07:34 01.01.2022
4560 Clear 22 1018 50 10000 6.17 220 06:41 01.01.2022
4561 Clear 22 1017 53 10000 5.14 220 04:38 01.01.2022
4562 Clear 22 1017 59 10000 3.6 170 02:54 01.01.2022
4563 Clear 23 1016 55 10000 4.63 360 23:52 31.12.2021
4564 Clear 21 1014 67 10000 1.34 317 21:54 31.12.2021
4565 Clear 19 1014 73 10000 0.45 28 20:41 31.12.2021
4566 Clear 17 1013 79 10000 4.63 360 19:31 31.12.2021
4567 Clouds 16 1013 77 10000 4.12 360 18:44 31.12.2021
4568 Clouds 16 1011 79 10000 5.14 20 17:45 31.12.2021
4569 Clouds 16 1011 79 10000 5.14 10 17:19 31.12.2021
4570 Clouds 16 1011 80 10000 0.45 272 16:44 31.12.2021
4571 Clouds 16 1011 79 10000 0.45 148 15:58 31.12.2021
4572 Clouds 16 1011 78 10000 0.45 231 15:40 31.12.2021
4573 Clouds 16 1011 77 10000 0.45 70 15:19 31.12.2021
4574 Clouds 16 1011 79 10000 0.45 219 14:33 31.12.2021
4575 Clouds 17 1011 78 10000 0.45 322 13:44 31.12.2021
4576 Rain 17 1011 77 10000 0.45 348 12:49 31.12.2021
4577 Clouds 17 1012 77 10000 0.45 154 12:19 31.12.2021
4578 Clouds 17 1012 78 10000 0.89 119 11:33 31.12.2021
4579 Clouds 17 1012 77 10000 0.45 217 10:41 31.12.2021
4580 Clouds 17 1012 75 10000 0.89 194 10:23 31.12.2021
4581 Clouds 18 1012 74 10000 0.45 55 09:33 31.12.2021
4582 Clouds 18 1011 70 10000 0.45 343 08:49 31.12.2021
4583 Clouds 19 1011 70 10000 0.45 202 07:49 31.12.2021
4584 Rain 22 1012 56 10000 5.66 330 01:38 31.12.2021
4585 Clouds 19 1012 76 10000 0.89 202 22:54 30.12.2021
4586 Clouds 19 1012 77 10000 0.89 166 22:27 30.12.2021
4587 Clouds 17 1012 81 10000 0.51 330 21:38 30.12.2021
4588 Clouds 18 1012 82 10000 0.45 211 20:58 30.12.2021
4589 Clouds 17 1011 83 10000 2.57 20 20:35 30.12.2021
4590 Clouds 15 1010 88 10000 3.09 40 19:50 30.12.2021
4591 Clouds 15 1010 90 10000 2.06 70 19:24 30.12.2021
4592 Clouds 15 1010 87 10000 2.57 200 18:26 30.12.2021
4593 Clouds 15 1009 85 10000 2.57 170 16:39 30.12.2021
4594 Clouds 15 1009 85 10000 1.54 250 15:53 30.12.2021
4595 Clouds 15 1009 85 10000 1.54 250 15:53 30.12.2021
4596 Clouds 15 1008 83 10000 3.09 340 14:54 30.12.2021
4597 Clouds 15 1008 85 10000 2.57 10 14:35 30.12.2021
4598 Clouds 16 1008 82 10000 4.12 350 13:24 30.12.2021
4599 Clouds 16 1007 79 10000 0.45 255 11:53 30.12.2021
4600 Clouds 17 1006 78 10000 5.66 10 10:28 30.12.2021
4601 Clouds 17 1005 74 10000 0.45 107 09:44 30.12.2021
4602 Clouds 19 1004 65 10000 0.45 292 06:56 30.12.2021
4603 Clear 21 1004 60 10000 8.23 350 05:20 30.12.2021
4604 Clear 21 1005 56 10000 7.72 350 03:40 30.12.2021
4605 Clouds 21 1005 55 10000 9.26 350 02:27 30.12.2021
4606 Clouds 20 1004 62 10000 7.72 350 23:37 29.12.2021
4607 Clouds 20 1003 70 10000 0.89 68 22:35 29.12.2021
4608 Clouds 19 1003 74 10000 0.45 47 21:55 29.12.2021
4609 Clouds 18 1004 77 10000 0.89 19 20:57 29.12.2021
4610 Clouds 17 1004 78 10000 0.89 36 20:29 29.12.2021
4611 Clouds 15 1004 84 10000 1.34 59 19:31 29.12.2021
4612 Clouds 14 1004 90 10000 3.09 30 18:42 29.12.2021
4613 Clouds 14 1003 89 10000 3.09 20 17:49 29.12.2021
4614 Clear 13 1003 89 10000 3.09 10 17:26 29.12.2021
4615 Clouds 13 1004 87 10000 2.06 10 16:21 29.12.2021
4616 Clouds 13 1004 87 10000 0.51 10 15:21 29.12.2021
4617 Clouds 14 1005 83 10000 3.6 30 13:31 29.12.2021
4618 Clouds 15 1005 80 10000 4.12 350 12:35 29.12.2021
4619 Clouds 15 1005 78 10000 3.6 350 11:23 29.12.2021
4620 Clouds 15 1004 76 10000 2.06 60 09:35 29.12.2021
4621 Clouds 19 1002 69 10000 0.45 199 07:45 29.12.2021
4622 Clouds 17 1002 66 10000 1.34 220 06:34 29.12.2021
4623 Clouds 18 1002 63 10000 1.34 220 05:56 29.12.2021
4624 Clouds 18 1002 60 10000 0.89 287 05:27 29.12.2021
4625 Clouds 17 1003 71 10000 1.79 196 00:45 29.12.2021
4626 Clouds 18 1003 73 10000 1.34 149 23:59 28.12.2021
4627 Clouds 17 1002 78 10000 2.24 103 22:57 28.12.2021
4628 Clouds 17 1002 78 10000 2.24 103 22:57 28.12.2021
4629 Clouds 16 1002 82 10000 1.79 176 22:25 28.12.2021
4630 Clouds 16 1003 81 10000 1.34 100 21:54 28.12.2021
4631 Clouds 17 1003 80 10000 1.79 136 21:35 28.12.2021
4632 Clouds 15 1003 86 10000 1.34 254 20:32 28.12.2021
4633 Clouds 14 1002 93 10000 0.89 196 18:54 28.12.2021
4634 Clouds 14 1001 95 10000 0.89 86 18:28 28.12.2021
4635 Clouds 14 1001 95 10000 2.24 280 17:42 28.12.2021
4636 Clouds 14 1001 95 10000 0.45 214 16:25 28.12.2021
4637 Clouds 14 1001 95 10000 0.45 175 15:41 28.12.2021
4638 Clouds 15 1001 96 9000 0.45 221 14:57 28.12.2021
4639 Clouds 15 1001 96 10000 0.45 209 14:38 28.12.2021
4640 Clouds 15 1001 96 10000 0.45 126 14:20 28.12.2021
4641 Clouds 15 1002 96 10000 4.12 180 13:38 28.12.2021
4642 Clouds 15 1002 96 10000 1.34 254 12:56 28.12.2021
4643 Clouds 15 1002 96 10000 0.89 139 12:29 28.12.2021
4644 Rain 16 1002 94 3500 5.14 170 10:51 28.12.2021
4645 Rain 17 1000 91 10000 0.45 246 07:39 28.12.2021
4646 Rain 18 1000 90 10000 0.45 329 06:40 28.12.2021
4647 Clouds 19 1005 86 10000 0.45 72 23:42 27.12.2021
4648 Clouds 20 1004 86 10000 0.89 282 22:31 27.12.2021
4649 Clouds 20 1004 86 10000 0.89 282 21:32 27.12.2021
4650 Clouds 20 1004 87 10000 0.45 175 20:40 27.12.2021
4651 Clouds 19 1005 88 10000 0.89 301 19:56 27.12.2021
4652 Clouds 19 1005 88 10000 0.45 167 19:38 27.12.2021
4653 Clouds 18 1005 89 10000 0.45 112 17:55 27.12.2021
4654 Clouds 18 1005 88 10000 0.89 19 17:29 27.12.2021
4655 Clouds 19 1005 86 10000 0.89 145 16:32 27.12.2021
4656 Clouds 19 1006 85 10000 0.45 89 15:50 27.12.2021
4657 Clouds 19 1007 84 10000 0.45 239 14:29 27.12.2021
4658 Clouds 19 1007 85 10000 0.89 79 13:32 27.12.2021
4659 Clouds 19 1008 83 10000 0.45 53 11:41 27.12.2021
4660 Clouds 19 1009 81 10000 0.45 64 10:28 27.12.2021
4661 Clouds 19 1008 80 10000 0.45 69 09:38 27.12.2021
4662 Clouds 21 1008 72 10000 1.34 10 07:35 27.12.2021
4663 Clouds 21 1008 72 10000 0.89 227 06:30 27.12.2021
4664 Clouds 21 1010 76 10000 0.89 139 01:59 27.12.2021
4665 Clouds 21 1010 77 10000 0.89 39 23:52 26.12.2021
4666 Clouds 21 1010 77 10000 1.79 167 23:34 26.12.2021
4667 Clouds 20 1011 81 10000 0.45 131 21:48 26.12.2021
4668 Clouds 19 1011 85 10000 1.34 159 20:31 26.12.2021
4669 Clouds 19 1010 87 10000 0.45 326 19:31 26.12.2021
4670 Clouds 18 1010 89 10000 0.45 131 18:23 26.12.2021
4671 Clouds 18 1010 89 10000 1.34 79 15:56 26.12.2021
4672 Clouds 18 1011 88 10000 1.34 128 13:52 26.12.2021
4673 Clouds 18 1011 88 10000 0.45 55 13:32 26.12.2021
4674 Clouds 18 1012 86 10000 0.89 164 12:39 26.12.2021
4675 Clouds 18 1012 87 10000 0.45 73 11:58 26.12.2021
4676 Clouds 18 1013 84 10000 1.79 100 09:52 26.12.2021
4677 Clouds 18 1012 85 10000 0.89 99 09:18 26.12.2021
4678 Clouds 18 1012 81 10000 0.45 358 08:39 26.12.2021
4679 Clouds 20 1013 71 10000 0.45 93 06:47 26.12.2021
4680 Clear 21 1015 64 10000 10.8 360 00:59 26.12.2021
4681 Clear 21 1015 62 10000 0.89 94 23:51 25.12.2021
4682 Clear 21 1015 62 10000 0.45 232 23:26 25.12.2021
4683 Clear 20 1015 68 10000 0.89 347 22:23 25.12.2021
4684 Clear 18 1015 75 10000 0.89 15 20:48 25.12.2021
4685 Clear 15 1015 80 10000 0.45 138 19:22 25.12.2021
4686 Clear 15 1014 83 10000 0.45 244 18:54 25.12.2021
4687 Clear 12 1014 85 10000 4.12 30 17:29 25.12.2021
4688 Clear 13 1015 85 10000 4.12 10 16:35 25.12.2021
4689 Clear 12 1016 87 10000 2.06 360 14:38 25.12.2021
4690 Clouds 13 1017 85 10000 1.54 10 12:49 25.12.2021
4691 Clouds 15 1017 79 10000 0.51 20 11:45 25.12.2021
4692 Clouds 15 1018 78 10000 3.09 180 09:50 25.12.2021
4693 Clouds 16 1018 74 10000 3.09 170 08:38 25.12.2021
4694 Clouds 17 1021 70 10000 2.24 213 02:59 25.12.2021
4695 Clouds 17 1022 71 10000 2.68 140 00:33 25.12.2021
4696 Clouds 18 1020 72 10000 2.68 171 23:39 24.12.2021
4697 Rain 15 1021 80 10000 1.79 94 19:40 24.12.2021
4698 Rain 15 1021 80 10000 2.24 124 19:22 24.12.2021
4699 Clouds 15 1019 83 10000 3.13 89 16:53 24.12.2021
4700 Clouds 15 1019 86 10000 2.68 152 16:21 24.12.2021
4701 Clouds 15 1019 85 10000 2.24 150 15:48 24.12.2021
4702 Clouds 16 1019 85 10000 2.24 50 14:47 24.12.2021
4703 Clouds 16 1019 82 10000 2.24 149 14:24 24.12.2021
4704 Clouds 16 1019 83 10000 1.34 156 13:39 24.12.2021
4705 Clouds 16 1018 81 10000 2.24 143 12:48 24.12.2021
4706 Clouds 16 1018 83 10000 1.79 157 11:58 24.12.2021
4707 Clouds 16 1017 83 10000 1.34 90 11:27 24.12.2021
4708 Clouds 16 1017 85 10000 1.34 107 10:53 24.12.2021
4709 Clouds 17 1017 86 10000 1.34 155 10:22 24.12.2021
4710 Clouds 17 1015 80 10000 1.34 161 08:26 24.12.2021
4711 Clouds 17 1015 81 10000 0.89 252 07:50 24.12.2021
4712 Clouds 21 1013 65 10000 3.6 190 03:21 24.12.2021
4713 Clouds 20 1012 68 10000 0.45 138 00:19 24.12.2021
4714 Clouds 20 1013 67 10000 0.45 214 23:23 23.12.2021
4715 Clouds 20 1012 68 10000 0.89 312 22:40 23.12.2021
4716 Clouds 19 1012 70 10000 0.89 235 22:20 23.12.2021
4717 Clouds 18 1012 72 10000 0.45 26 21:34 23.12.2021
4718 Clouds 17 1012 76 10000 2.57 40 20:21 23.12.2021
4719 Clouds 16 1011 82 10000 2.06 30 18:53 23.12.2021
4720 Clouds 15 1010 83 10000 0.45 227 17:57 23.12.2021
4721 Clouds 16 1009 82 10000 0.45 78 16:57 23.12.2021
4722 Clouds 16 1009 81 10000 4.63 30 16:25 23.12.2021
4723 Clouds 16 1009 81 10000 0.45 293 15:32 23.12.2021
4724 Clouds 17 1009 82 10000 0.45 131 14:55 23.12.2021
4725 Clouds 17 1009 81 10000 0.45 43 14:37 23.12.2021
4726 Clouds 17 1010 81 10000 0.45 21 13:22 23.12.2021
4727 Clouds 18 1010 79 10000 0.45 299 10:54 23.12.2021
4728 Clouds 18 1010 79 10000 0.45 299 10:54 23.12.2021
4729 Clouds 18 1009 78 10000 0.45 134 09:49 23.12.2021
4730 Clouds 18 1009 79 10000 0.89 318 09:26 23.12.2021
4731 Clouds 19 1008 76 10000 0.89 22 08:25 23.12.2021
4732 Clouds 21 1008 70 10000 0.45 172 04:36 23.12.2021
4733 Clouds 21 1008 70 10000 10.29 360 23:33 22.12.2021
4734 Clouds 21 1007 73 10000 0.45 337 22:49 22.12.2021
4735 Clouds 21 1007 75 10000 0.45 134 21:57 22.12.2021
4736 Clouds 21 1007 77 10000 0.89 296 21:29 22.12.2021
4737 Clouds 20 1007 79 10000 0.45 284 20:51 22.12.2021
4738 Clouds 19 1006 82 10000 0.45 78 20:33 22.12.2021
4739 Clouds 18 1006 86 10000 0.45 131 19:35 22.12.2021
4740 Clouds 18 1005 89 10000 0.45 24 18:18 22.12.2021
4741 Clouds 18 1005 89 10000 0.45 198 17:35 22.12.2021
4742 Clouds 18 1005 86 10000 0.45 43 15:46 22.12.2021
4743 Clouds 18 1006 85 10000 0.89 29 13:44 22.12.2021
4744 Clear 18 1006 85 10000 1.34 283 12:44 22.12.2021
4745 Clear 18 1006 82 10000 0.89 171 10:48 22.12.2021
4746 Clear 18 1006 79 10000 0.45 48 09:40 22.12.2021
4747 Clear 20 1005 76 10000 0.89 258 07:48 22.12.2021
4748 Clear 22 1005 64 10000 0.89 332 05:51 22.12.2021
4749 Clear 22 1006 58 10000 11.32 20 05:28 22.12.2021
4750 Clear 22 1005 58 10000 1.79 53 04:54 22.12.2021
4751 Clear 22 1006 57 10000 12.35 10 04:30 22.12.2021
4752 Clear 22 1005 59 10000 14.4 360 03:34 22.12.2021
4753 Clear 22 1006 61 10000 1.79 181 01:37 22.12.2021
4754 Clouds 21 1007 69 10000 0.89 188 23:33 21.12.2021
4755 Clear 21 1006 73 10000 0.89 325 22:29 21.12.2021
4756 Clouds 20 1006 74 10000 0.89 258 21:51 21.12.2021
4757 Clear 20 1006 75 10000 1.34 152 21:24 21.12.2021
4758 Clear 18 1006 78 10000 0.89 131 20:23 21.12.2021
4759 Clear 18 1005 80 10000 0.89 350 19:46 21.12.2021
4760 Clouds 17 1005 80 10000 0.89 287 19:19 21.12.2021
4761 Clear 16 1005 85 10000 0.89 188 18:22 21.12.2021
4762 Clear 16 1005 83 10000 0.45 37 17:47 21.12.2021
4763 Clouds 16 1005 82 10000 0.89 77 16:39 21.12.2021
4764 Clear 16 1005 82 10000 1.79 61 15:29 21.12.2021
4765 Clear 16 1006 80 10000 1.79 131 13:51 21.12.2021
4766 Clear 16 1006 80 10000 1.34 211 13:31 21.12.2021
4767 Clear 16 1006 80 10000 1.79 349 11:57 21.12.2021
4768 Clear 17 1006 79 10000 1.79 43 10:25 21.12.2021
4769 Clear 17 1005 78 10000 1.34 185 09:33 21.12.2021
4770 Clear 18 1004 74 10000 1.34 206 08:28 21.12.2021
4771 Clear 19 1004 72 10000 1.34 216 07:32 21.12.2021
4772 Clear 19 1004 69 10000 1.34 310 06:50 21.12.2021
4773 Clouds 20 1004 72 10000 1.79 293 03:20 21.12.2021
4774 Clouds 20 1004 67 10000 2.24 45 00:46 21.12.2021
4775 Clouds 20 1005 69 10000 1.79 236 23:34 20.12.2021
4776 Clouds 20 1004 78 10000 1.79 317 22:33 20.12.2021
4777 Clouds 18 1004 85 10000 1.79 95 21:48 20.12.2021
4778 Clouds 18 1004 87 10000 2.24 153 21:24 20.12.2021
4779 Clouds 18 1004 90 10000 2.68 118 20:48 20.12.2021
4780 Clouds 17 1005 90 10000 2.68 142 19:54 20.12.2021
4781 Clouds 17 1005 91 10000 2.68 103 19:31 20.12.2021
4782 Clouds 17 1005 90 10000 2.68 322 18:54 20.12.2021
4783 Clouds 17 1005 86 10000 2.68 158 17:55 20.12.2021
4784 Clouds 17 1006 86 10000 3.13 260 17:25 20.12.2021
4785 Clouds 17 1006 85 10000 2.68 85 16:42 20.12.2021
4786 Clouds 18 1006 82 10000 3.13 250 15:51 20.12.2021
4787 Clouds 18 1007 82 10000 2.68 52 14:53 20.12.2021
4788 Clouds 18 1007 82 10000 3.13 72 13:18 20.12.2021
4789 Clouds 18 1009 80 10000 1.79 124 11:23 20.12.2021
4790 Clouds 18 1009 79 10000 2.68 53 09:51 20.12.2021
4791 Clouds 18 1009 79 10000 2.24 52 09:31 20.12.2021
4792 Clouds 18 1008 78 10000 2.24 356 08:42 20.12.2021
4793 Clouds 18 1008 77 10000 3.13 275 07:55 20.12.2021
4794 Clouds 18 1009 76 10000 2.24 105 07:30 20.12.2021
4795 Clouds 18 1009 78 10000 1.79 156 04:36 20.12.2021
4796 Clouds 20 1013 71 10000 2.24 185 00:18 20.12.2021
4797 Clouds 20 1013 72 10000 1.34 150 22:53 19.12.2021
4798 Clouds 18 1014 76 10000 1.34 17 21:55 19.12.2021
4799 Clouds 18 1014 77 10000 1.34 55 21:30 19.12.2021
4800 Clouds 18 1014 79 10000 0.89 236 20:34 19.12.2021
4801 Clouds 17 1014 81 10000 1.79 131 19:52 19.12.2021
4802 Clouds 17 1015 82 10000 1.34 71 19:27 19.12.2021
4803 Clouds 17 1015 84 10000 1.34 112 18:30 19.12.2021
4804 Clouds 16 1015 85 10000 0.89 142 17:53 19.12.2021
4805 Clouds 16 1015 85 10000 0.89 119 17:20 19.12.2021
4806 Clouds 17 1015 84 10000 1.79 33 16:26 19.12.2021
4807 Clouds 17 1015 84 10000 0.89 140 15:43 19.12.2021
4808 Clouds 16 1015 84 10000 1.34 46 15:20 19.12.2021
4809 Clouds 17 1016 83 10000 1.79 42 14:42 19.12.2021
4810 Clouds 17 1016 82 10000 1.34 78 13:22 19.12.2021
4811 Clouds 17 1016 81 10000 1.34 229 12:42 19.12.2021
4812 Clouds 17 1016 81 10000 1.34 157 12:18 19.12.2021
4813 Clouds 17 1016 82 10000 1.34 132 11:21 19.12.2021
4814 Clouds 17 1016 80 10000 1.34 201 10:26 19.12.2021
4815 Clouds 17 1015 80 10000 1.34 30 09:42 19.12.2021
4816 Clouds 17 1016 77 10000 0.89 256 08:35 19.12.2021
4817 Clear 21 1016 60 10000 11.83 10 04:45 19.12.2021
4818 Clouds 20 1016 61 10000 13.38 10 01:22 19.12.2021
4819 Clouds 20 1016 61 10000 12.86 360 00:52 19.12.2021
4820 Clouds 20 1016 60 10000 1.34 10 22:37 18.12.2021
4821 Clouds 20 1015 68 10000 0.89 288 21:57 18.12.2021
4822 Clouds 20 1014 70 10000 0.89 121 21:35 18.12.2021
4823 Clouds 18 1014 76 10000 0.89 145 20:44 18.12.2021
4824 Clouds 18 1014 78 10000 1.34 263 20:18 18.12.2021
4825 Clouds 16 1015 81 10000 0.45 218 19:20 18.12.2021
4826 Clouds 16 1015 83 10000 0.45 108 18:21 18.12.2021
4827 Clouds 15 1014 79 10000 0.45 100 17:48 18.12.2021
4828 Clouds 15 1014 75 10000 0.45 17 16:26 18.12.2021
4829 Clouds 15 1014 75 10000 0.45 17 16:26 18.12.2021
4830 Clear 15 1014 83 10000 0.45 56 15:27 18.12.2021
4831 Clear 15 1014 81 10000 0.45 49 14:38 18.12.2021
4832 Clear 15 1014 81 10000 0.89 202 13:21 18.12.2021
4833 Clouds 16 1013 79 10000 0.45 54 11:22 18.12.2021
4834 Clouds 17 1012 73 10000 0.45 54 09:40 18.12.2021
4835 Clouds 17 1011 71 10000 0.45 73 08:47 18.12.2021
4836 Clouds 18 1011 65 10000 0.45 331 08:23 18.12.2021
4837 Clear 21 1010 46 10000 8.75 360 03:42 18.12.2021
4838 Clouds 18 1009 59 10000 3.09 190 00:29 18.12.2021
4839 Clouds 18 1009 63 10000 0.45 36 23:44 17.12.2021
4840 Clouds 16 1007 75 10000 0.45 166 21:57 17.12.2021
4841 Clouds 16 1007 73 10000 0.45 169 21:19 17.12.2021
4842 Clouds 15 1006 75 10000 0.45 93 20:40 17.12.2021
4843 Clouds 13 1004 78 10000 1.34 199 19:24 17.12.2021
4844 Clouds 12 1004 85 10000 1.54 30 18:38 17.12.2021
4845 Clear 11 1002 86 10000 2.06 30 17:31 17.12.2021
4846 Clear 12 1002 86 10000 1.03 70 16:46 17.12.2021
4847 Clear 12 1002 85 10000 1.03 40 16:22 17.12.2021
4848 Clear 13 1002 79 10000 1.03 210 15:25 17.12.2021
4849 Clear 13 1001 82 10000 1.79 185 14:40 17.12.2021
4850 Clouds 13 1000 88 10000 1.54 10 12:47 17.12.2021
4851 Clouds 13 999 87 10000 2.06 350 11:46 17.12.2021
4852 Clouds 13 999 86 10000 0.51 270 10:37 17.12.2021
4853 Clouds 14 999 85 10000 1.54 240 09:33 17.12.2021
4854 Clouds 15 998 81 10000 3.09 180 08:30 17.12.2021
4855 Clouds 15 997 85 10000 0.89 230 06:22 17.12.2021
4856 Clouds 21 995 68 10000 0.89 202 02:53 17.12.2021
4857 Clouds 20 995 74 10000 1.79 207 23:25 16.12.2021
4858 Clouds 20 993 77 10000 1.34 249 22:24 16.12.2021
4859 Clouds 19 994 80 10000 0.45 356 21:50 16.12.2021
4860 Clouds 18 994 83 10000 0.45 47 21:25 16.12.2021
4861 Clouds 17 993 88 10000 0.45 166 20:30 16.12.2021
4862 Clouds 17 993 89 10000 0.89 321 19:42 16.12.2021
4863 Clouds 16 993 91 10000 0.89 28 18:38 16.12.2021
4864 Rain 16 993 93 10000 0.89 213 17:56 16.12.2021
4865 Rain 15 993 94 10000 0.45 75 17:30 16.12.2021
4866 Clouds 15 994 93 10000 2.57 10 16:21 16.12.2021
4867 Clouds 14 994 91 10000 2.57 30 14:50 16.12.2021
4868 Clouds 15 995 88 10000 1.54 310 13:25 16.12.2021
4869 Clouds 15 995 89 10000 1.03 260 11:20 16.12.2021
4870 Clouds 15 995 87 8000 2.06 190 10:58 16.12.2021
4871 Clouds 15 995 86 10000 2.06 210 10:20 16.12.2021
4872 Clouds 16 993 82 10000 3.6 170 07:48 16.12.2021
4873 Clouds 17 991 79 10000 0.45 235 06:21 16.12.2021
4874 Clouds 15 990 87 10000 0.45 137 00:54 16.12.2021
4875 Clouds 16 991 86 10000 0.45 204 23:25 15.12.2021
4876 Rain 15 991 87 10000 3.6 140 22:41 15.12.2021
4877 Clouds 15 991 88 10000 3.09 140 21:55 15.12.2021
4878 Rain 15 991 89 10000 0.45 129 21:26 15.12.2021
4879 Rain 15 991 91 8000 2.57 170 20:18 15.12.2021
4880 Rain 15 990 91 10000 2.57 160 19:45 15.12.2021
4881 Clouds 14 991 92 7000 4.63 170 18:37 15.12.2021
4882 Clouds 14 991 94 6000 5.14 160 17:53 15.12.2021
4883 Rain 14 991 94 5000 1.03 210 17:34 15.12.2021
4884 Rain 14 991 93 10000 0.51 90 16:28 15.12.2021
4885 Clouds 13 991 93 10000 1.03 90 15:46 15.12.2021
4886 Clouds 13 992 91 10000 1.03 90 15:27 15.12.2021
4887 Clouds 14 992 90 10000 1.03 70 14:18 15.12.2021
4888 Clouds 15 994 86 10000 3.09 170 12:37 15.12.2021
4889 Clouds 16 994 87 10000 0.45 139 10:27 15.12.2021
4890 Clouds 17 993 87 9000 4.12 230 08:55 15.12.2021
4891 Clouds 18 993 88 9000 0.89 234 07:25 15.12.2021
4892 Clouds 26 994 65 10000 5.14 40 01:20 15.12.2021
4893 Clouds 22 997 73 10000 5.14 40 23:42 14.12.2021
4894 Clouds 21 994 89 10000 0.45 107 22:49 14.12.2021
4895 Clouds 20 994 87 10000 0.89 175 22:19 14.12.2021
4896 Clouds 18 997 93 10000 1.34 121 20:29 14.12.2021
4897 Clouds 17 999 93 10000 1.34 171 19:43 14.12.2021
4898 Clouds 16 999 96 8000 0.89 135 18:53 14.12.2021
4899 Clouds 16 999 98 4600 0.89 138 18:25 14.12.2021
4900 Rain 16 1001 98 4700 1.34 136 17:30 14.12.2021
4901 Rain 16 1002 98 3200 1.79 239 16:39 14.12.2021
4902 Rain 15 1003 98 1000 1.34 119 15:35 14.12.2021
4903 Rain 14 1005 98 3900 1.34 178 13:31 14.12.2021
4904 Rain 14 1008 98 3100 0.89 121 11:59 14.12.2021
4905 Rain 14 1008 98 4200 1.79 128 11:24 14.12.2021
4906 Rain 14 1008 98 2800 1.34 204 09:57 14.12.2021
4907 Mist 14 1008 98 3100 1.34 85 09:35 14.12.2021
4908 Rain 14 1008 97 2700 1.79 154 08:27 14.12.2021
4909 Rain 14 1008 97 6000 2.24 96 07:43 14.12.2021
4910 Rain 15 1009 97 6000 0.89 166 02:37 14.12.2021
4911 Rain 15 1010 97 5000 1.34 264 22:56 13.12.2021
4912 Rain 15 1010 97 2600 0.45 141 21:53 13.12.2021
4913 Rain 15 1010 97 7000 5.66 170 21:32 13.12.2021
4914 Rain 15 1010 97 5000 0.89 152 20:42 13.12.2021
4915 Rain 15 1009 97 7000 1.34 55 19:52 13.12.2021
4916 Rain 15 1009 96 10000 0.45 220 18:33 13.12.2021
4917 Rain 15 1009 95 10000 0.45 51 17:26 13.12.2021
4918 Rain 15 1009 91 10000 6.17 190 15:54 13.12.2021
4919 Clouds 15 1010 90 10000 5.66 190 15:32 13.12.2021
4920 Clouds 16 1011 88 10000 0.45 209 13:45 13.12.2021
4921 Clouds 16 1011 89 10000 4.63 200 12:49 13.12.2021
4922 Rain 16 1012 89 10000 4.63 200 11:59 13.12.2021
4923 Rain 16 1012 88 10000 4.12 210 11:35 13.12.2021
4924 Rain 16 1012 90 10000 3.6 220 10:47 13.12.2021
4925 Clouds 17 1011 88 10000 5.14 200 09:32 13.12.2021
4926 Clouds 20 1012 84 10000 1.03 340 07:53 13.12.2021
4927 Clouds 19 1012 80 10000 0.45 127 05:36 13.12.2021
4928 Clouds 21 1012 78 10000 0.45 254 03:30 13.12.2021
4929 Clouds 17 1017 82 10000 0.45 227 23:26 12.12.2021
4930 Clouds 15 1018 86 10000 1.54 230 21:41 12.12.2021
4931 Clouds 14 1018 89 10000 2.57 210 20:18 12.12.2021
4932 Clouds 13 1018 91 10000 2.57 240 18:43 12.12.2021
4933 Clouds 13 1018 91 10000 2.57 230 17:45 12.12.2021
4934 Clouds 13 1019 91 10000 1.54 240 16:28 12.12.2021
4935 Clouds 13 1019 91 10000 1.03 220 15:50 12.12.2021
4936 Clouds 13 1019 90 10000 1.03 220 15:25 12.12.2021
4937 Clouds 13 1020 89 10000 2.06 250 14:36 12.12.2021
4938 Clouds 13 1020 90 10000 0.51 100 13:26 12.12.2021
4939 Clouds 12 1019 90 10000 1.03 140 12:32 12.12.2021
4940 Clouds 13 1021 88 10000 1.03 330 11:44 12.12.2021
4941 Clouds 12 1019 87 10000 1.54 120 11:24 12.12.2021
4942 Clouds 13 1020 83 10000 0.45 126 10:28 12.12.2021
4943 Clouds 14 1020 80 10000 0.89 339 09:38 12.12.2021
4944 Clouds 14 1019 79 10000 0.45 185 08:34 12.12.2021
4945 Clouds 15 1018 76 10000 0.89 149 06:20 12.12.2021
4946 Clouds 15 1019 78 10000 1.34 97 04:56 12.12.2021
4947 Clouds 14 1019 77 10000 1.79 120 03:57 12.12.2021
4948 Rain 12 1019 88 10000 1.34 157 23:48 11.12.2021
4949 Rain 12 1019 94 6000 0.89 95 22:24 11.12.2021
4950 Rain 12 1019 93 9000 2.68 256 21:52 11.12.2021
4951 Rain 12 1019 95 7000 1.79 141 21:18 11.12.2021
4952 Rain 12 1018 93 5000 1.79 158 19:31 11.12.2021
4953 Rain 12 1018 95 4500 2.24 167 18:53 11.12.2021
4954 Haze 13 1017 95 5000 0.89 126 18:26 11.12.2021
4955 Rain 12 1016 96 6000 1.79 216 17:24 11.12.2021
4956 Rain 13 1015 97 7000 2.24 187 15:55 11.12.2021
4957 Rain 13 1015 97 4900 0.89 145 15:30 11.12.2021
4958 Rain 14 1014 96 3700 1.79 231 13:21 11.12.2021
4959 Rain 15 1014 96 1900 0.89 149 11:46 11.12.2021
4960 Clouds 18 1011 91 10000 0.89 182 09:47 11.12.2021
4961 Rain 18 1011 91 10000 0.89 21 09:18 11.12.2021
4962 Clouds 21 1011 72 10000 1.34 116 02:40 11.12.2021
4963 Clouds 22 1011 77 10000 2.24 43 00:42 11.12.2021
4964 Rain 20 1010 84 10000 0.89 50 23:24 10.12.2021
4965 Rain 20 1011 82 10000 1.34 46 21:57 10.12.2021
4966 Rain 20 1011 87 10000 1.79 101 21:37 10.12.2021
4967 Rain 19 1012 87 10000 1.34 39 19:22 10.12.2021
4968 Rain 18 1012 89 10000 1.34 54 18:57 10.12.2021
4969 Clouds 18 1012 85 10000 0.89 317 17:21 10.12.2021
4970 Clouds 18 1012 85 10000 0.89 74 16:30 10.12.2021
4971 Clouds 18 1013 87 10000 0.89 9 15:42 10.12.2021
4972 Clouds 18 1013 88 10000 0.89 85 15:22 10.12.2021
4973 Clouds 18 1013 88 10000 1.34 354 13:52 10.12.2021
4974 Clouds 18 1013 88 10000 1.34 140 13:27 10.12.2021
4975 Clouds 18 1013 89 10000 0.45 194 12:47 10.12.2021
4976 Clouds 18 1014 89 10000 0.45 137 11:34 10.12.2021
4977 Clouds 18 1014 89 10000 0.89 251 10:50 10.12.2021
4978 Clouds 18 1014 87 10000 0.89 241 09:30 10.12.2021
4979 Clouds 19 1013 80 10000 0.45 137 07:21 10.12.2021
4980 Clouds 19 1015 85 10000 5.14 20 02:51 10.12.2021
4981 Rain 18 1015 92 10000 0.45 28 01:32 10.12.2021
4982 Clouds 17 1015 92 10000 1.54 150 23:38 09.12.2021
4983 Clouds 16 1016 92 6000 2.57 170 22:41 09.12.2021
4984 Clouds 16 1015 93 6000 2.57 170 22:20 09.12.2021
4985 Mist 16 1016 95 4400 4.12 180 21:20 09.12.2021
4986 Clouds 16 1015 94 7000 0.45 343 20:34 09.12.2021
4987 Clouds 18 1013 92 10000 4.12 20 19:22 09.12.2021
4988 Clouds 18 1013 92 10000 0.45 152 18:53 09.12.2021
4989 Clouds 17 1013 93 10000 0.45 166 17:57 09.12.2021
4990 Clouds 17 1013 93 10000 0.45 144 17:28 09.12.2021
4991 Clouds 17 1013 93 10000 0.45 144 16:57 09.12.2021
4992 Clouds 18 1013 92 9000 0.89 217 16:20 09.12.2021
4993 Clouds 18 1013 91 10000 0.45 43 14:58 09.12.2021
4994 Clouds 18 1013 91 10000 0.89 193 13:51 09.12.2021
4995 Clouds 18 1013 91 10000 0.45 236 12:47 09.12.2021
4996 Clouds 18 1013 92 10000 0.89 101 11:25 09.12.2021
4997 Clouds 18 1013 90 10000 0.45 141 10:19 09.12.2021
4998 Clouds 19 1013 87 10000 1.34 43 06:53 09.12.2021
4999 Clouds 19 1014 87 10000 0.89 278 03:50 09.12.2021
5000 Clouds 19 1015 89 10000 0.89 165 00:24 09.12.2021
5001 Clouds 18 1014 92 7000 0.89 83 23:32 08.12.2021
5002 Clouds 18 1015 93 8000 0.45 158 22:56 08.12.2021
5003 Clouds 18 1015 90 10000 0.89 133 21:50 08.12.2021
5004 Clouds 19 1015 91 10000 0.89 40 21:31 08.12.2021
5005 Clouds 18 1015 91 10000 0.89 100 20:30 08.12.2021
5006 Clouds 18 1015 92 10000 0.89 149 19:48 08.12.2021
5007 Clouds 17 1015 94 10000 0.89 140 18:57 08.12.2021
5008 Clouds 17 1014 94 10000 0.89 261 18:22 08.12.2021
5009 Clouds 17 1014 92 10000 0.89 274 16:44 08.12.2021
5010 Clouds 17 1015 91 10000 0.45 36 15:40 08.12.2021
5011 Clouds 17 1015 91 10000 0.45 78 15:21 08.12.2021
5012 Rain 17 1016 91 10000 0.89 88 13:21 08.12.2021
5013 Rain 17 1016 86 10000 0.45 191 10:42 08.12.2021
5014 Clouds 17 1016 84 10000 0.45 168 09:32 08.12.2021
5015 Clouds 18 1016 79 10000 0.89 209 07:50 08.12.2021
5016 Clear 20 1014 74 10000 0.89 109 05:22 08.12.2021
5017 Clouds 19 1018 73 10000 1.34 247 00:27 08.12.2021
5018 Clouds 19 1019 76 10000 0.89 220 22:52 07.12.2021
5019 Clouds 17 1019 84 10000 0.45 209 21:25 07.12.2021
5020 Clouds 17 1019 84 10000 0.45 209 21:25 07.12.2021
5021 Clouds 16 1019 93 10000 0.45 190 20:25 07.12.2021
5022 Clouds 15 1020 97 10000 1.54 200 18:59 07.12.2021
5023 Clouds 14 1019 97 10000 1.54 170 18:21 07.12.2021
5024 Clouds 15 1019 97 7000 2.06 170 17:24 07.12.2021
5025 Mist 15 1018 97 5000 2.57 190 16:42 07.12.2021
5026 Clouds 15 1019 97 10000 2.06 190 15:59 07.12.2021
5027 Clouds 15 1019 96 10000 0.45 214 14:37 07.12.2021
5028 Clouds 17 1019 95 10000 0.45 278 13:38 07.12.2021
5029 Clouds 16 1019 95 7000 0.45 229 12:22 07.12.2021
5030 Clouds 16 1019 95 10000 0.45 17 10:56 07.12.2021
5031 Clouds 17 1018 95 10000 0.45 296 09:20 07.12.2021
5032 Clouds 16 1018 96 10000 0.45 60 06:50 07.12.2021
5033 Clouds 15 1019 97 10000 2.06 230 05:51 07.12.2021
5034 Clouds 14 1020 99 10000 2.06 200 03:25 07.12.2021
5035 Rain 13 1021 98 2400 6.69 200 23:23 06.12.2021
5036 Drizzle 13 1021 97 2500 0.45 147 22:40 06.12.2021
5037 Rain 13 1021 98 3400 7.72 200 21:59 06.12.2021
5038 Rain 13 1021 98 3000 0.45 128 21:31 06.12.2021
5039 Rain 13 1021 98 5000 7.72 200 20:32 06.12.2021
5040 Rain 13 1021 98 5000 7.72 200 20:32 06.12.2021
5041 Mist 13 1021 98 2100 8.75 200 19:24 06.12.2021
5042 Drizzle 13 1021 98 3700 8.23 200 18:40 06.12.2021
5043 Mist 13 1021 98 1600 8.75 200 17:54 06.12.2021
5044 Mist 13 1021 98 3500 9.26 200 17:33 06.12.2021
5045 Rain 13 1022 98 3100 8.23 200 15:51 06.12.2021
5046 Rain 13 1022 98 5000 7.2 180 14:38 06.12.2021
5047 Rain 13 1022 98 5000 7.2 170 13:23 06.12.2021
5048 Rain 13 1023 96 6000 7.2 180 12:37 06.12.2021
5049 Rain 13 1022 98 3600 0.89 119 09:56 06.12.2021
5050 Rain 12 1021 96 3200 1.79 166 07:38 06.12.2021
5051 Rain 12 1022 95 3700 1.34 173 02:26 06.12.2021
5052 Rain 12 1021 97 2500 1.79 183 22:25 05.12.2021
5053 Rain 12 1020 97 5000 1.79 281 21:25 05.12.2021
5054 Rain 12 1020 95 6000 1.79 187 20:43 05.12.2021
5055 Rain 12 1020 97 2300 1.79 138 20:18 05.12.2021
5056 Rain 13 1019 96 4000 1.79 199 19:23 05.12.2021
5057 Rain 13 1019 96 2100 0.89 213 18:28 05.12.2021
5058 Rain 13 1018 96 2800 0.45 101 17:49 05.12.2021
5059 Rain 14 1017 95 1600 0.89 191 17:18 05.12.2021
5060 Clouds 18 1015 93 10000 0.89 67 16:28 05.12.2021
5061 Clouds 19 1015 92 10000 1.34 64 15:59 05.12.2021
5062 Clouds 19 1015 90 10000 1.34 226 14:48 05.12.2021
5063 Clouds 19 1015 90 10000 1.79 301 14:29 05.12.2021
5064 Clouds 19 1015 89 10000 2.68 26 13:32 05.12.2021
5065 Clouds 19 1015 90 10000 2.24 280 12:42 05.12.2021
5066 Rain 19 1015 90 10000 2.24 348 12:23 05.12.2021
5067 Clouds 19 1015 88 10000 2.24 11 11:43 05.12.2021
5068 Clouds 19 1015 88 10000 3.13 355 10:24 05.12.2021
5069 Clouds 19 1014 87 10000 1.79 317 09:35 05.12.2021
5070 Clouds 20 1014 77 10000 1.34 15 04:57 05.12.2021
5071 Clouds 21 1014 79 10000 0.45 109 01:24 05.12.2021
5072 Clouds 21 1014 79 10000 0.45 109 01:24 05.12.2021
5073 Clouds 20 1017 75 10000 1.79 179 22:44 04.12.2021
5074 Clouds 20 1017 78 10000 1.34 257 21:37 04.12.2021
5075 Clouds 19 1016 83 10000 1.79 90 20:47 04.12.2021
5076 Rain 18 1016 84 10000 1.34 43 19:54 04.12.2021
5077 Rain 18 1017 84 10000 1.34 26 19:24 04.12.2021
5078 Clouds 18 1016 84 10000 1.34 50 17:52 04.12.2021
5079 Clouds 18 1016 84 10000 1.34 22 17:32 04.12.2021
5080 Rain 18 1016 83 10000 1.79 40 16:47 04.12.2021
5081 Rain 18 1016 82 10000 0.89 67 16:28 04.12.2021
5082 Clouds 18 1017 85 10000 0.45 293 13:30 04.12.2021
5083 Rain 19 1017 83 10000 0.89 28 11:41 04.12.2021
5084 Clouds 18 1018 83 10000 0.45 300 11:18 04.12.2021
5085 Clouds 18 1018 85 10000 0.45 215 09:57 04.12.2021
5086 Rain 18 1018 83 10000 0.89 19 08:38 04.12.2021
5087 Rain 18 1018 85 10000 0.89 41 05:18 04.12.2021
5088 Rain 18 1018 84 10000 0.89 43 04:39 04.12.2021
5089 Rain 18 1020 86 10000 0.45 230 23:48 03.12.2021
5090 Rain 18 1020 87 10000 0.45 59 22:54 03.12.2021
5091 Clouds 18 1020 88 10000 0.45 138 21:58 03.12.2021
5092 Clouds 17 1020 90 10000 0.45 237 21:24 03.12.2021
5093 Clouds 17 1020 89 10000 0.45 259 20:43 03.12.2021
5094 Rain 17 1019 90 10000 0.45 110 19:29 03.12.2021
5095 Clouds 17 1019 92 10000 0.89 133 18:25 03.12.2021
5096 Rain 17 1019 91 10000 6.69 360 17:33 03.12.2021
5097 Clouds 17 1020 89 10000 0.45 40 13:48 03.12.2021
5098 Clouds 17 1021 87 10000 0.45 57 12:51 03.12.2021
5099 Rain 17 1021 87 10000 0.45 338 11:24 03.12.2021
5100 Rain 17 1021 86 10000 0.45 163 09:44 03.12.2021
5101 Clouds 18 1021 87 10000 0.45 180 08:23 03.12.2021
5102 Rain 18 1021 86 10000 0.45 52 07:29 03.12.2021
5103 Rain 19 1023 83 10000 7.72 360 01:51 03.12.2021
5104 Clouds 20 1023 78 10000 7.72 10 00:43 03.12.2021
5105 Rain 19 1023 81 10000 7.2 360 23:42 02.12.2021
5106 Rain 19 1023 84 10000 7.2 10 21:42 02.12.2021
5107 Rain 18 1023 85 10000 0.45 97 20:56 02.12.2021
5108 Rain 18 1023 88 10000 4.12 20 20:35 02.12.2021
5109 Rain 18 1023 88 10000 4.12 20 20:35 02.12.2021
5110 Clouds 17 1023 87 10000 0.45 50 19:25 02.12.2021
5111 Clouds 16 1022 90 10000 3.6 20 17:36 02.12.2021
5112 Rain 17 1023 91 7000 3.6 350 15:42 02.12.2021
5113 Rain 17 1023 86 10000 3.09 340 14:58 02.12.2021
5114 Clouds 17 1023 84 10000 1.54 20 13:56 02.12.2021
5115 Clouds 18 1023 76 10000 3.09 30 12:52 02.12.2021
5116 Clouds 17 1023 80 10000 1.54 350 11:56 02.12.2021
5117 Clouds 18 1023 77 10000 0.51 230 09:34 02.12.2021
5118 Clouds 18 1023 75 10000 1.54 180 08:49 02.12.2021
5119 Clouds 20 1023 67 10000 4.63 210 04:54 02.12.2021
5120 Clouds 18 1025 67 10000 4.63 200 00:52 02.12.2021
5121 Clouds 19 1025 67 10000 4.63 190 23:19 01.12.2021
5122 Clouds 19 1025 69 10000 3.6 180 22:23 01.12.2021
5123 Clouds 17 1025 75 10000 0.45 205 20:36 01.12.2021
5124 Clouds 15 1025 83 10000 1.54 30 19:54 01.12.2021
5125 Clouds 13 1024 89 10000 2.06 360 19:28 01.12.2021
5126 Clouds 11 1024 91 10000 1.54 80 17:45 01.12.2021
5127 Clouds 11 1024 91 10000 1.03 40 16:42 01.12.2021
5128 Clouds 12 1025 86 10000 1.54 260 14:52 01.12.2021
5129 Clear 12 1025 86 10000 2.06 120 13:44 01.12.2021
5130 Clear 12 1025 86 10000 1.03 60 12:37 01.12.2021
5131 Clear 14 1025 76 10000 1.54 120 10:42 01.12.2021
5132 Clear 15 1024 71 10000 0.45 90 09:19 01.12.2021
5133 Clear 17 1023 72 10000 5.66 150 08:26 01.12.2021
5134 Clear 18 1022 72 10000 0.89 139 07:33 01.12.2021
5135 Clouds 18 1021 71 10000 1.34 140 06:34 01.12.2021
5136 Clouds 18 1024 68 10000 2.68 107 03:44 01.12.2021
5137 Clouds 17 1024 72 10000 2.24 168 00:56 01.12.2021
5138 Clouds 17 1024 72 10000 2.68 254 23:53 30.11.2021
5139 Clouds 17 1024 68 10000 2.24 178 23:23 30.11.2021
5140 Clouds 16 1023 77 10000 2.24 261 21:30 30.11.2021
5141 Clouds 14 1023 84 10000 1.79 34 20:44 30.11.2021
5142 Clouds 14 1022 87 10000 0.89 138 19:53 30.11.2021
5143 Clouds 14 1022 91 10000 1.34 230 19:30 30.11.2021
5144 Clouds 13 1021 94 10000 1.34 152 18:36 30.11.2021
5145 Mist 14 1020 98 4000 1.34 175 16:49 30.11.2021
5146 Mist 14 1019 98 2000 1.34 235 15:18 30.11.2021
5147 Drizzle 14 1019 98 2700 0.89 222 14:20 30.11.2021
5148 Mist 14 1019 97 4700 2.68 209 13:26 30.11.2021
5149 Clouds 14 1019 97 9000 1.79 256 12:45 30.11.2021
5150 Clouds 14 1019 95 10000 1.79 223 11:49 30.11.2021
5151 Clouds 15 1019 97 10000 1.34 147 11:19 30.11.2021
5152 Mist 15 1019 96 5000 0.89 167 10:32 30.11.2021
5153 Clouds 15 1018 94 10000 8.75 190 08:52 30.11.2021
5154 Clouds 15 1018 94 10000 8.23 180 08:22 30.11.2021
5155 Clouds 15 1017 94 10000 0.45 169 07:47 30.11.2021
5156 Clouds 18 1015 93 10000 0.45 192 02:41 30.11.2021
5157 Rain 17 1015 94 10000 0.45 52 01:41 30.11.2021
5158 Mist 17 1015 94 5000 0.45 115 00:20 30.11.2021
5159 Rain 17 1015 94 10000 0.89 246 23:24 29.11.2021
5160 Mist 17 1015 96 3900 1.34 71 22:55 29.11.2021
5161 Mist 17 1015 96 3600 0.45 81 22:33 29.11.2021
5162 Rain 17 1015 95 10000 0.45 169 21:29 29.11.2021
5163 Mist 17 1015 95 5000 0.89 64 20:59 29.11.2021
5164 Mist 16 1015 95 3100 0.89 322 20:32 29.11.2021
5165 Mist 16 1015 95 3100 0.89 322 20:32 29.11.2021
5166 Mist 16 1015 95 2400 0.45 12 19:56 29.11.2021
5167 Mist 16 1015 95 3700 0.89 208 19:36 29.11.2021
5168 Clouds 16 1015 95 10000 0.45 137 18:51 29.11.2021
5169 Clouds 16 1016 98 2972 5.84 344 17:49 29.11.2021
5170 Clouds 16 1015 99 3208 5.93 346 17:18 29.11.2021
5171 Clouds 16 1016 99 560 6.31 347 16:29 29.11.2021
5172 Clouds 16 1016 99 560 6.31 347 15:50 29.11.2021
5173 Rain 16 1016 98 641 6.4 350 14:43 29.11.2021
5174 Clouds 16 1016 98 1143 6.27 356 13:33 29.11.2021
5175 Clouds 16 1017 98 3903 6.97 357 12:28 29.11.2021
5176 Clouds 16 1017 98 3903 6.97 357 11:36 29.11.2021
5177 Clouds 16 1017 98 3896 7.03 358 10:51 29.11.2021
5178 Mist 17 1018 100 2900 6.17 20 09:34 29.11.2021
5179 Clouds 19 1018 82 10000 8.75 10 06:20 29.11.2021
5180 Clouds 21 1019 78 10000 10.29 360 01:43 29.11.2021
5181 Clouds 22 1019 68 10000 9.26 360 00:40 29.11.2021
5182 Clouds 21 1019 73 10000 8.75 350 23:44 28.11.2021
5183 Clouds 20 1019 77 10000 8.75 350 23:23 28.11.2021
5184 Clouds 19 1020 82 10000 7.2 340 21:49 28.11.2021
5185 Clouds 19 1020 82 10000 7.2 340 21:23 28.11.2021
5186 Clouds 19 1019 82 10000 6.17 360 20:33 28.11.2021
5187 Clouds 18 1019 88 10000 6.17 360 18:53 28.11.2021
5188 Clouds 17 1019 94 10000 6.17 10 18:32 28.11.2021
5189 Clouds 17 1019 94 10000 6.69 360 17:54 28.11.2021
5190 Clouds 17 1019 94 10000 5.14 360 17:31 28.11.2021
5191 Clouds 17 1019 94 10000 4.12 350 16:37 28.11.2021
5192 Clouds 17 1019 94 10000 4.12 350 16:18 28.11.2021
5193 Clouds 17 1020 94 10000 4.12 350 15:31 28.11.2021
5194 Clouds 17 1020 94 10000 3.09 340 14:44 28.11.2021
5195 Clouds 17 1021 94 10000 4.63 320 12:58 28.11.2021
5196 Clouds 17 1021 94 10000 4.12 330 12:37 28.11.2021
5197 Clouds 17 1021 94 10000 4.63 350 10:58 28.11.2021
5198 Clouds 17 1021 88 10000 4.12 340 10:21 28.11.2021
5199 Clouds 17 1021 88 10000 4.12 350 09:37 28.11.2021
5200 Clouds 17 1020 88 10000 6.17 350 07:32 28.11.2021
5201 Clouds 18 1022 77 10000 4.63 350 23:56 27.11.2021
5202 Clouds 15 1023 88 10000 1.03 350 20:51 27.11.2021
5203 Clouds 15 1022 88 10000 0.51 300 19:18 27.11.2021
5204 Clouds 15 1022 88 10000 0.51 300 19:18 27.11.2021
5205 Clouds 14 1023 94 10000 4.63 150 16:56 27.11.2021
5206 Rain 14 1023 94 10000 5.14 140 15:56 27.11.2021
5207 Rain 14 1024 94 10000 6.69 150 13:48 27.11.2021
5208 Clouds 14 1024 94 10000 6.17 160 12:55 27.11.2021
5209 Clouds 14 1024 94 10000 6.17 150 10:48 27.11.2021
5210 Clouds 14 1024 100 6000 4.63 170 09:53 27.11.2021
5211 Mist 14 1024 100 4700 5.14 190 08:43 27.11.2021
5212 Rain 15 1022 94 10000 8.75 200 06:34 27.11.2021
5213 Clouds 20 1020 68 10000 7.2 330 01:57 27.11.2021
5214 Clouds 20 1020 64 10000 9.26 320 23:36 26.11.2021
5215 Clouds 20 1019 64 10000 9.77 320 22:25 26.11.2021
5216 Clouds 19 1019 68 10000 8.23 340 21:38 26.11.2021
5217 Clouds 19 1019 68 10000 8.75 360 20:59 26.11.2021
5218 Clouds 18 1018 77 10000 7.72 350 20:19 26.11.2021
5219 Clouds 18 1018 72 10000 8.75 340 19:47 26.11.2021
5220 Clouds 18 1017 68 10000 7.2 360 18:41 26.11.2021
5221 Clouds 17 1017 77 10000 8.75 350 17:23 26.11.2021
5222 Clouds 17 1017 77 10000 8.75 350 15:59 26.11.2021
5223 Clouds 16 1017 78 10000 0.89 359 13:36 26.11.2021
5224 Clouds 16 1017 82 10000 0.45 5 12:51 26.11.2021
5225 Clouds 16 1017 80 10000 0.89 32 10:39 26.11.2021
5226 Clouds 16 1016 79 10000 0.45 33 08:59 26.11.2021
5227 Clouds 16 1016 79 10000 0.89 7 08:39 26.11.2021
5228 Clouds 17 1016 78 10000 1.34 24 08:19 26.11.2021
5229 Clouds 18 1015 70 10000 1.34 7 06:29 26.11.2021
5230 Clouds 18 1016 62 10000 0.89 1 04:52 26.11.2021
5231 Clouds 19 1016 61 10000 1.34 341 03:28 26.11.2021
5232 Clouds 18 1018 63 10000 0.89 1 23:28 25.11.2021
5233 Clouds 17 1018 65 10000 0.89 354 21:58 25.11.2021
5234 Clouds 16 1018 69 10000 1.34 347 20:41 25.11.2021
5235 Clouds 15 1017 73 10000 0.89 315 18:50 25.11.2021
5236 Clouds 15 1017 72 10000 0.89 357 18:00 25.11.2021
5237 Clouds 15 1017 74 10000 1.34 7 17:26 25.11.2021
5238 Clouds 15 1017 76 10000 1.34 325 16:41 25.11.2021
5239 Clouds 15 1017 76 10000 1.34 325 16:41 25.11.2021
5240 Clouds 15 1017 77 10000 0.89 340 15:58 25.11.2021
5241 Clouds 15 1018 80 10000 0.89 9 14:24 25.11.2021
5242 Clouds 15 1018 81 10000 0.89 356 12:55 25.11.2021
5243 Clouds 15 1018 82 10000 0.89 344 11:55 25.11.2021
5244 Clouds 15 1018 81 10000 0.89 16 10:31 25.11.2021
5245 Clouds 18 1018 65 10000 0.45 23 06:36 25.11.2021
5246 Clouds 20 1020 54 10000 0.45 329 02:56 25.11.2021
5247 Clouds 19 1022 59 10000 0.45 9 23:40 24.11.2021
5248 Clouds 18 1022 67 10000 0.45 350 22:29 24.11.2021
5249 Clouds 18 1021 74 10000 0.45 35 21:48 24.11.2021
5250 Clouds 17 1021 73 10000 0.45 3 21:19 24.11.2021
5251 Clouds 15 1021 82 10000 0.89 38 20:26 24.11.2021
5252 Clouds 13 1022 85 10000 4.12 10 19:20 24.11.2021
5253 Clouds 10 1020 85 10000 4.12 10 18:18 24.11.2021
5254 Clear 10 1020 85 10000 2.57 20 16:20 24.11.2021
5255 Clear 11 1021 83 10000 2.57 360 14:57 24.11.2021
5256 Clear 11 1021 82 10000 2.06 30 14:21 24.11.2021
5257 Clouds 12 1021 80 10000 2.06 20 12:51 24.11.2021
5258 Clouds 13 1022 75 10000 1.03 10 11:24 24.11.2021
5259 Clouds 14 1022 75 10000 1.03 210 10:55 24.11.2021
5260 Clear 14 1022 74 10000 2.06 210 10:35 24.11.2021
5261 Clear 15 1021 72 10000 4.12 210 09:29 24.11.2021
5262 Clear 16 1021 68 10000 6.17 170 07:39 24.11.2021
5263 Clear 17 1021 60 10000 0.45 170 05:38 24.11.2021
5264 Clear 18 1022 56 10000 0.89 219 03:32 24.11.2021
5265 Clear 17 1023 57 10000 0.45 146 23:33 23.11.2021
5266 Clear 17 1022 56 10000 3.09 170 22:39 23.11.2021
5267 Clear 16 1022 62 10000 0.45 188 21:45 23.11.2021
5268 Clear 14 1022 71 10000 0.45 215 20:22 23.11.2021
5269 Clouds 12 1022 84 10000 3.6 150 19:33 23.11.2021
5270 Clouds 10 1021 87 10000 2.57 150 18:34 23.11.2021
5271 Clouds 9 1020 89 10000 1.54 80 17:31 23.11.2021
5272 Clear 10 1021 89 10000 1.03 80 16:37 23.11.2021
5273 Clear 10 1021 87 10000 1.03 30 15:27 23.11.2021
5274 Clear 11 1021 85 10000 1.03 30 14:54 23.11.2021
5275 Clear 12 1021 82 10000 1.54 150 13:20 23.11.2021
5276 Clear 13 1021 78 10000 5.66 140 10:28 23.11.2021
5277 Clear 13 1020 78 10000 6.17 140 09:47 23.11.2021
5278 Clear 14 1020 77 10000 0.45 223 07:58 23.11.2021
5279 Clouds 16 1020 72 10000 1.34 217 04:53 23.11.2021
5280 Clouds 17 1020 64 10000 1.79 113 03:35 23.11.2021
5281 Clouds 16 1020 67 10000 1.34 152 23:41 22.11.2021
5282 Clouds 16 1020 67 10000 1.34 201 23:20 22.11.2021
5283 Clouds 16 1019 69 10000 0.89 230 22:30 22.11.2021
5284 Clouds 16 1019 68 10000 0.45 133 21:45 22.11.2021
5285 Clouds 16 1018 67 10000 1.34 205 21:19 22.11.2021
5286 Clouds 15 1019 72 10000 0.89 225 20:42 22.11.2021
5287 Clouds 14 1018 77 10000 0.89 130 19:21 22.11.2021
5288 Clouds 13 1018 81 10000 0.45 155 18:41 22.11.2021
5289 Clouds 12 1018 82 10000 0.89 144 18:21 22.11.2021
5290 Clouds 12 1018 84 10000 5.14 140 16:41 22.11.2021
5291 Clouds 13 1018 84 10000 0.45 169 15:29 22.11.2021
5292 Clouds 14 1018 84 10000 0.45 184 12:51 22.11.2021
5293 Clouds 14 1018 84 10000 6.17 180 11:39 22.11.2021
5294 Clouds 14 1018 83 10000 0.45 148 10:27 22.11.2021
5295 Clouds 14 1017 82 10000 1.34 136 08:44 22.11.2021
5296 Clouds 15 1017 82 10000 0.89 134 08:24 22.11.2021
5297 Clouds 18 1017 70 10000 0.45 130 01:40 22.11.2021
5298 Clouds 17 1017 71 10000 0.89 201 23:21 21.11.2021
5299 Clouds 18 1016 71 10000 0.45 204 22:45 21.11.2021
5300 Clouds 18 1014 78 10000 0.45 33 21:22 21.11.2021
5301 Clouds 16 1014 85 10000 0.45 169 20:36 21.11.2021
5302 Clouds 15 1013 88 10000 3.09 10 19:35 21.11.2021
5303 Clouds 15 1012 89 10000 6.17 30 17:57 21.11.2021
5304 Clouds 15 1012 88 10000 0.45 9 17:36 21.11.2021
5305 Clouds 15 1011 88 10000 6.69 350 14:56 21.11.2021
5306 Clouds 15 1010 87 10000 0.45 30 14:38 21.11.2021
5307 Clouds 15 1010 88 10000 0.89 131 13:23 21.11.2021
5308 Clouds 15 1010 89 10000 0.45 140 12:27 21.11.2021
5309 Clouds 16 1010 90 10000 0.89 15 11:38 21.11.2021
5310 Clouds 16 1010 92 10000 1.34 35 10:19 21.11.2021
5311 Clouds 16 1010 92 10000 0.89 335 09:47 21.11.2021
5312 Rain 16 1010 92 9000 1.34 351 08:33 21.11.2021
5313 Rain 16 1010 91 7000 0.89 27 07:53 21.11.2021
5314 Rain 16 1010 92 5000 0.89 352 07:33 21.11.2021
5315 Rain 16 1010 91 10000 0.89 273 05:43 21.11.2021
5316 Rain 17 1011 87 10000 1.34 24 04:35 21.11.2021
5317 Rain 17 1013 85 10000 0.89 7 02:57 21.11.2021
5318 Rain 17 1013 82 10000 0.89 105 02:33 21.11.2021
5319 Drizzle 16 1014 76 10000 0.45 12 00:51 21.11.2021
5320 Rain 16 1016 71 10000 0.89 344 22:55 20.11.2021
5321 Rain 15 1016 75 10000 0.89 8 21:34 20.11.2021
5322 Rain 15 1016 77 10000 0.89 30 20:33 20.11.2021
5323 Clouds 14 1015 82 10000 0.89 61 18:46 20.11.2021
5324 Clouds 14 1015 82 10000 0.89 61 18:46 20.11.2021
5325 Clouds 14 1016 82 10000 0.45 24 18:24 20.11.2021
5326 Clouds 14 1016 82 10000 0.89 338 17:22 20.11.2021
5327 Clouds 14 1017 81 10000 0.89 28 15:54 20.11.2021
5328 Clouds 14 1017 78 10000 0.89 97 14:39 20.11.2021
5329 Clouds 14 1017 78 10000 1.34 28 14:21 20.11.2021
5330 Clouds 14 1018 76 10000 1.34 3 11:56 20.11.2021
5331 Clouds 15 1018 75 10000 0.89 8 10:28 20.11.2021
5332 Clouds 15 1017 72 10000 0.89 13 08:55 20.11.2021
5333 Clouds 16 1017 64 10000 0.89 358 07:19 20.11.2021
5334 Clouds 18 1017 59 10000 0.89 25 05:25 20.11.2021
5335 Clouds 17 1018 60 10000 0.89 340 04:50 20.11.2021
5336 Clouds 17 1019 60 10000 1.79 5 01:34 20.11.2021
5337 Clouds 17 1019 63 10000 1.79 338 00:37 20.11.2021
5338 Clouds 17 1018 65 10000 1.79 349 22:55 19.11.2021
5339 Clouds 17 1018 66 10000 1.34 341 21:57 19.11.2021
5340 Clouds 16 1018 65 10000 1.34 344 20:54 19.11.2021
5341 Clouds 16 1018 63 10000 1.34 20 20:36 19.11.2021
5342 Clouds 15 1017 72 10000 3.58 179 19:49 19.11.2021
5343 Clouds 14 1017 75 10000 4.92 179 18:51 19.11.2021
5344 Clouds 14 1017 75 10000 2.68 179 18:19 19.11.2021
5345 Clouds 14 1017 76 10000 4.47 179 16:47 19.11.2021
5346 Clouds 14 1017 77 10000 2.68 348 15:31 19.11.2021
5347 Clouds 14 1018 78 10000 4.47 32 13:24 19.11.2021
5348 Clear 14 1019 80 10000 0.89 284 10:27 19.11.2021
5349 Clear 15 1018 79 10000 0.89 19 08:47 19.11.2021
5350 Clear 16 1017 73 10000 0.89 10 07:34 19.11.2021
5351 Clouds 18 1019 70 10000 1.34 344 04:28 19.11.2021
5352 Clouds 18 1021 61 10000 0.45 43 01:32 19.11.2021
5353 Clouds 18 1021 60 10000 0.45 39 23:51 18.11.2021
5354 Clouds 16 1021 71 10000 0.45 345 21:50 18.11.2021
5355 Clouds 15 1021 79 10000 0.89 103 20:48 18.11.2021
5356 Clouds 14 1021 82 10000 0.45 354 20:30 18.11.2021
5357 Clouds 12 1022 86 10000 4.12 360 19:44 18.11.2021
5358 Clear 10 1020 88 10000 2.57 20 18:55 18.11.2021
5359 Clear 10 1020 88 10000 3.09 20 18:27 18.11.2021
5360 Clear 10 1019 88 10000 3.09 30 17:49 18.11.2021
5361 Clear 10 1019 87 10000 3.09 10 16:44 18.11.2021
5362 Clouds 11 1019 87 10000 2.06 10 15:25 18.11.2021
5363 Clear 11 1020 88 10000 1.03 10 13:31 18.11.2021
5364 Clouds 12 1020 86 10000 1.54 10 12:33 18.11.2021
5365 Clouds 13 1020 84 10000 1.54 220 11:42 18.11.2021
5366 Clouds 13 1020 84 10000 1.54 220 11:24 18.11.2021
5367 Clouds 14 1019 82 10000 3.6 180 09:34 18.11.2021
5368 Clouds 16 1018 67 10000 4.12 160 07:34 18.11.2021
5369 Clear 17 1019 68 10000 4.63 170 05:48 18.11.2021
5370 Clouds 17 1019 68 10000 3.6 190 04:54 18.11.2021
5371 Clouds 17 1019 70 10000 4.12 200 01:22 18.11.2021
5372 Clouds 17 1018 69 10000 5.14 210 22:49 17.11.2021
5373 Clouds 16 1018 74 10000 5.66 210 22:20 17.11.2021
5374 Clouds 15 1018 78 10000 3.6 200 21:38 17.11.2021
5375 Clouds 15 1017 77 10000 1.54 200 20:56 17.11.2021
5376 Clouds 11 1017 90 10000 1.54 20 18:27 17.11.2021
5377 Clouds 12 1016 87 10000 2.57 20 17:27 17.11.2021
5378 Clouds 12 1015 84 10000 4.12 30 14:51 17.11.2021
5379 Clear 14 1014 80 10000 4.63 30 12:41 17.11.2021
5380 Clear 14 1013 79 10000 0.45 283 11:49 17.11.2021
5381 Clouds 14 1012 77 10000 0.45 226 10:29 17.11.2021
5382 Clear 15 1011 76 10000 0.45 347 09:24 17.11.2021
5383 Clear 16 1010 64 10000 1.34 58 07:44 17.11.2021
5384 Clear 18 1009 55 10000 1.34 23 03:51 17.11.2021
5385 Clear 18 1009 55 10000 1.34 23 03:51 17.11.2021
5386 Clear 18 1009 55 10000 1.34 311 01:45 17.11.2021
5387 Clear 16 1008 59 10000 1.34 40 23:26 16.11.2021
5388 Clear 16 1007 64 10000 1.34 48 21:27 16.11.2021
5389 Clear 14 1006 72 10000 1.34 25 20:18 16.11.2021
5390 Clouds 13 1005 78 10000 0.89 21 18:54 16.11.2021
5391 Clouds 13 1005 79 10000 0.45 18 18:35 16.11.2021
5392 Clouds 12 1004 80 10000 0.89 27 17:43 16.11.2021
5393 Clouds 12 1004 82 10000 0.45 228 16:49 16.11.2021
5394 Rain 12 1005 84 9000 5.14 320 15:56 16.11.2021
5395 Rain 13 1005 81 10000 0.89 358 15:29 16.11.2021
5396 Clouds 13 1005 82 10000 0.45 100 12:29 16.11.2021
5397 Clear 15 1006 78 10000 0.89 304 09:49 16.11.2021
5398 Clouds 15 1005 75 10000 1.34 117 08:46 16.11.2021
5399 Clear 16 1004 74 10000 0.45 37 07:34 16.11.2021
5400 Clear 18 1004 60 10000 0.89 53 02:47 16.11.2021
5401 Clouds 17 1003 76 10000 0.89 350 23:23 15.11.2021
5402 Clouds 17 1002 77 10000 1.79 4 22:38 15.11.2021
5403 Clouds 18 1001 75 10000 1.79 4 21:54 15.11.2021
5404 Clouds 17 1001 76 10000 0.89 86 21:29 15.11.2021
5405 Clouds 16 1001 80 10000 1.34 32 19:58 15.11.2021
5406 Clouds 16 1000 79 10000 2.24 40 18:48 15.11.2021
5407 Clouds 16 999 85 10000 1.34 128 16:55 15.11.2021
5408 Rain 16 999 84 10000 1.79 17 15:42 15.11.2021
5409 Clouds 16 1000 85 10000 1.34 95 15:24 15.11.2021
5410 Clouds 16 1000 85 10000 1.34 7 13:32 15.11.2021
5411 Clouds 16 1000 85 10000 1.79 16 11:54 15.11.2021
5412 Clouds 16 999 87 10000 1.79 7 09:29 15.11.2021
5413 Clouds 16 998 85 10000 0.89 323 07:57 15.11.2021
5414 Clouds 17 999 77 10000 1.34 346 05:24 15.11.2021
5415 Clear 17 1000 68 10000 1.34 73 00:18 15.11.2021
5416 Clouds 17 1000 69 10000 0.89 352 22:38 14.11.2021
5417 Clear 16 997 79 10000 0.89 48 20:32 14.11.2021
5418 Clouds 15 996 83 10000 0.45 253 19:18 14.11.2021
5419 Clouds 15 995 84 10000 0.45 19 18:54 14.11.2021
5420 Clouds 15 996 85 10000 0.89 10 18:36 14.11.2021
5421 Clouds 15 995 85 10000 0.89 133 18:18 14.11.2021
5422 Clouds 15 995 86 10000 1.34 13 17:57 14.11.2021
5423 Clouds 15 995 86 10000 0.45 11 17:39 14.11.2021
5424 Clouds 15 995 86 10000 0.89 28 17:21 14.11.2021
5425 Clouds 15 994 88 10000 0.45 3 16:49 14.11.2021
5426 Clouds 15 994 88 10000 0.89 13 16:21 14.11.2021
5427 Clouds 15 994 87 10000 0.89 8 15:46 14.11.2021
5428 Clouds 15 994 85 10000 0.45 48 15:18 14.11.2021
5429 Clouds 15 993 86 10000 1.79 11 14:32 14.11.2021
5430 Clouds 16 994 85 10000 0.89 344 13:59 14.11.2021
5431 Clouds 16 994 85 10000 0.89 27 13:40 14.11.2021
5432 Clouds 16 994 87 10000 1.34 355 12:29 14.11.2021
5433 Clouds 16 994 87 10000 1.34 32 11:58 14.11.2021
5434 Clouds 16 994 87 10000 0.89 45 10:45 14.11.2021
5435 Clouds 16 994 87 10000 0.89 26 10:26 14.11.2021
5436 Clear 16 993 83 10000 1.34 354 08:56 14.11.2021
5437 Clouds 17 992 76 10000 0.45 28 07:28 14.11.2021
5438 Clouds 18 992 87 10000 0.45 277 01:24 14.11.2021
5439 Clouds 17 993 89 10000 0.45 38 22:27 13.11.2021
5440 Clouds 17 993 89 10000 0.45 38 22:27 13.11.2021
5441 Clouds 17 993 90 10000 0.45 342 21:57 13.11.2021
5442 Clouds 17 993 90 10000 0.45 78 21:27 13.11.2021
5443 Clouds 16 993 89 10000 0.89 15 19:50 13.11.2021
5444 Clouds 16 993 90 10000 0.45 348 18:48 13.11.2021
5445 Clouds 16 993 89 10000 0.45 68 18:26 13.11.2021
5446 Clouds 16 993 88 10000 0.45 15 16:40 13.11.2021
5447 Clouds 15 993 89 10000 1.79 22 15:37 13.11.2021
5448 Clouds 15 994 90 10000 1.79 354 14:33 13.11.2021
5449 Clouds 16 994 91 10000 1.34 61 13:45 13.11.2021
5450 Clouds 16 994 89 10000 1.34 28 12:33 13.11.2021
5451 Clouds 16 994 91 10000 0.89 15 11:38 13.11.2021
5452 Clouds 16 994 92 10000 0.45 334 10:45 13.11.2021
5453 Clouds 16 994 92 9000 0.45 327 10:23 13.11.2021
5454 Clouds 17 993 92 10000 0.89 96 09:38 13.11.2021
5455 Clouds 17 993 92 10000 2.24 52 08:56 13.11.2021
5456 Clouds 17 992 93 10000 2.24 24 08:31 13.11.2021
5457 Clouds 17 991 94 10000 0.89 327 06:27 13.11.2021
5458 Clouds 18 991 92 10000 0.45 322 04:32 13.11.2021
5459 Haze 18 992 95 2700 1.79 48 01:54 13.11.2021
5460 Mist 17 995 96 2800 0.89 350 22:59 12.11.2021
5461 Mist 17 996 96 3400 0.45 67 21:50 12.11.2021
5462 Clouds 17 997 96 10000 8.75 10 20:18 12.11.2021
5463 Clouds 17 998 95 10000 0.45 2 19:28 12.11.2021
5464 Drizzle 16 999 98 6000 0.45 61 18:46 12.11.2021
5465 Rain 16 999 95 7000 0.89 359 16:39 12.11.2021
5466 Rain 16 999 95 2900 1.34 305 15:33 12.11.2021
5467 Clouds 17 1000 93 10000 0.89 6 12:54 12.11.2021
5468 Clouds 17 1000 93 10000 0.89 6 12:54 12.11.2021
5469 Clouds 17 1001 92 7000 2.24 316 10:51 12.11.2021
5470 Rain 17 1000 92 10000 2.24 354 09:45 12.11.2021
5471 Rain 17 1001 91 10000 1.79 359 08:39 12.11.2021
5472 Rain 18 1003 85 10000 0.89 32 03:27 12.11.2021
5473 Rain 18 1005 84 10000 1.79 9 23:42 11.11.2021
5474 Clouds 18 1006 84 10000 1.79 350 22:39 11.11.2021
5475 Clouds 17 1007 86 10000 1.79 39 21:28 11.11.2021
5476 Clouds 16 1007 88 10000 1.79 87 20:42 11.11.2021
5477 Clouds 16 1008 90 10000 1.34 39 19:24 11.11.2021
5478 Rain 16 1007 87 10000 0.45 24 17:58 11.11.2021
5479 Clouds 16 1007 85 10000 1.79 295 17:36 11.11.2021
5480 Rain 16 1008 88 10000 0.89 22 15:18 11.11.2021
5481 Clouds 16 1009 87 10000 0.45 246 14:30 11.11.2021
5482 Clouds 16 1009 88 10000 0.89 300 13:40 11.11.2021
5483 Clouds 16 1010 88 10000 0.89 349 12:51 11.11.2021
5484 Clouds 16 1011 90 10000 0.89 360 10:58 11.11.2021
5485 Clouds 16 1012 90 10000 0.45 358 09:39 11.11.2021
5486 Clouds 16 1011 92 10000 0.45 348 08:19 11.11.2021
5487 Clouds 17 1012 84 10000 0.45 284 05:55 11.11.2021
5488 Clouds 19 1015 66 10000 0.45 327 00:34 11.11.2021
5489 Clouds 18 1015 75 10000 0.45 351 22:32 10.11.2021
5490 Clouds 18 1014 79 10000 0.45 8 21:33 10.11.2021
5491 Clouds 18 1014 80 10000 0.89 357 20:47 10.11.2021
5492 Clouds 16 1014 85 10000 0.89 23 19:47 10.11.2021
5493 Clouds 15 1014 86 10000 0.89 13 19:28 10.11.2021
5494 Clouds 15 1014 87 10000 0.45 300 16:38 10.11.2021
5495 Clouds 15 1013 86 10000 0.89 356 15:46 10.11.2021
5496 Clouds 15 1013 85 10000 0.45 13 14:22 10.11.2021
5497 Clouds 15 1013 85 10000 0.89 354 13:26 10.11.2021
5498 Clear 15 1014 85 10000 0.45 352 11:38 10.11.2021
5499 Clear 15 1013 75 10000 0.89 8 08:59 10.11.2021
5500 Clear 16 1013 71 10000 8.23 10 08:39 10.11.2021
5501 Clouds 18 1013 59 10000 8.23 360 06:41 10.11.2021
5502 Clouds 19 1012 64 10000 0.45 2 05:52 10.11.2021
5503 Clouds 19 1015 65 10000 1.79 19 01:31 10.11.2021
5504 Clouds 17 1015 78 10000 1.34 357 21:58 09.11.2021
5505 Clouds 15 1015 84 10000 0.89 24 20:32 09.11.2021
5506 Clouds 14 1014 86 10000 0.45 346 19:26 09.11.2021
5507 Clouds 14 1014 88 10000 0.89 21 18:44 09.11.2021
5508 Clouds 14 1014 86 10000 0.45 11 16:27 09.11.2021
5509 Clouds 14 1015 88 10000 0.45 15 14:58 09.11.2021
5510 Clouds 14 1016 86 10000 0.89 12 13:21 09.11.2021
5511 Clouds 14 1016 87 10000 1.34 334 12:22 09.11.2021
5512 Clouds 14 1016 86 10000 0.89 24 10:46 09.11.2021
5513 Clouds 15 1016 84 10000 0.89 7 09:42 09.11.2021
5514 Clouds 15 1016 81 10000 1.34 351 08:42 09.11.2021
5515 Clouds 18 1015 72 10000 0.45 46 06:51 09.11.2021
5516 Clouds 19 1017 69 10000 1.79 179 02:30 09.11.2021
5517 Clouds 18 1017 70 10000 1.34 8 01:50 09.11.2021
5518 Clouds 18 1018 71 10000 1.34 22 00:19 09.11.2021
5519 Clouds 17 1018 76 10000 5.81 179 23:28 08.11.2021
5520 Clouds 17 1017 77 10000 5.36 179 22:34 08.11.2021
5521 Clouds 18 1018 74 10000 1.34 33 21:21 08.11.2021
5522 Clouds 16 1017 82 10000 3.13 179 20:31 08.11.2021
5523 Clouds 14 1016 86 10000 2.24 179 18:57 08.11.2021
5524 Clouds 14 1016 89 10000 6.26 179 17:34 08.11.2021
5525 Clouds 14 1016 88 10000 3.58 179 15:38 08.11.2021
5526 Clouds 14 1016 86 10000 4.47 179 14:55 08.11.2021
5527 Clear 14 1016 88 10000 3.58 179 13:59 08.11.2021
5528 Clear 14 1016 87 10000 3.13 179 12:44 08.11.2021
5529 Clear 14 1016 87 10000 5.36 194 11:28 08.11.2021
5530 Clear 15 1016 85 10000 4.63 350 10:18 08.11.2021
5531 Clear 15 1015 82 10000 5.36 179 08:56 08.11.2021
5532 Clear 17 1015 72 10000 7.2 360 07:47 08.11.2021
5533 Clear 18 1014 74 10000 4.47 179 06:54 08.11.2021
5534 Clear 19 1014 69 10000 4.47 179 03:35 08.11.2021
5535 Clouds 18 1016 75 10000 4.02 179 23:51 07.11.2021
5536 Clouds 16 1015 83 10000 5.36 179 22:30 07.11.2021
5537 Clear 15 1015 86 10000 6.26 179 21:22 07.11.2021
5538 Clear 14 1015 92 10000 3.13 179 19:55 07.11.2021
5539 Clouds 11 1014 92 10000 2.06 30 18:26 07.11.2021
5540 Clouds 12 1014 92 10000 2.06 30 17:38 07.11.2021
5541 Clear 11 1014 91 10000 1.03 40 16:20 07.11.2021
5542 Clear 11 1015 90 10000 0.51 30 14:42 07.11.2021
5543 Clear 12 1015 90 10000 1.03 100 13:57 07.11.2021
5544 Clear 13 1015 87 10000 1.54 170 11:55 07.11.2021
5545 Clear 14 1015 85 10000 1.03 10 10:23 07.11.2021
5546 Clear 15 1015 80 10000 3.09 190 08:58 07.11.2021
5547 Clouds 17 1017 76 10000 5.14 200 02:49 07.11.2021
5548 Clouds 19 1016 76 10000 0.89 188 00:18 07.11.2021
5549 Clouds 16 1017 89 10000 0.45 217 22:54 06.11.2021
5550 Clouds 15 1017 93 10000 4.12 190 21:43 06.11.2021
5551 Clouds 14 1018 95 10000 2.57 210 20:54 06.11.2021
5552 Clouds 13 1018 97 10000 4.12 170 19:40 06.11.2021
5553 Mist 12 1017 97 2400 4.63 150 17:30 06.11.2021
5554 Clouds 13 1017 97 10000 4.12 170 15:46 06.11.2021
5555 Clouds 13 1018 96 10000 3.6 190 13:39 06.11.2021
5556 Clouds 13 1018 96 10000 3.6 190 13:39 06.11.2021
5557 Clouds 13 1018 97 10000 3.09 180 12:52 06.11.2021
5558 Mist 13 1019 95 2100 1.34 190 09:55 06.11.2021
5559 Mist 12 1019 96 5000 0.89 127 08:33 06.11.2021
5560 Mist 13 1020 92 5000 1.79 242 03:22 06.11.2021
5561 Clouds 12 1021 92 10000 2.24 97 23:40 05.11.2021
5562 Clouds 12 1021 94 10000 1.34 115 22:53 05.11.2021
5563 Clouds 12 1021 94 10000 1.34 130 22:32 05.11.2021
5564 Rain 11 1021 96 5000 2.24 114 20:25 05.11.2021
5565 Rain 11 1020 96 10000 2.24 201 19:50 05.11.2021
5566 Rain 11 1020 95 10000 1.34 198 18:42 05.11.2021
5567 Mist 11 1020 96 4400 1.34 169 17:42 05.11.2021
5568 Clouds 12 1020 94 8000 0.89 208 16:35 05.11.2021
5569 Rain 12 1021 95 10000 0.89 224 14:18 05.11.2021
5570 Rain 12 1022 96 8000 1.79 119 11:45 05.11.2021
5571 Clouds 12 1022 95 10000 2.24 234 09:22 05.11.2021
5572 Rain 12 1021 94 10000 1.34 205 07:46 05.11.2021
5573 Clouds 13 1021 89 10000 2.24 211 05:33 05.11.2021
5574 Rain 14 1023 85 10000 1.79 192 02:27 05.11.2021
5575 Clouds 14 1023 90 10000 1.79 215 00:54 05.11.2021
5576 Rain 13 1024 91 10000 0.89 203 23:26 04.11.2021
5577 Drizzle 13 1024 90 8000 0.89 179 22:21 04.11.2021
5578 Drizzle 13 1023 87 10000 0.45 201 21:52 04.11.2021
5579 Clouds 13 1023 85 10000 0.45 165 21:19 04.11.2021
5580 Clouds 13 1024 85 10000 0.45 178 20:25 04.11.2021
5581 Clouds 12 1024 87 10000 0.45 211 19:48 04.11.2021
5582 Clouds 12 1024 87 10000 1.34 126 19:20 04.11.2021
5583 Clouds 12 1024 87 10000 1.34 127 18:21 04.11.2021
5584 Clouds 12 1024 85 10000 0.89 209 17:26 04.11.2021
5585 Clouds 12 1024 85 10000 0.89 209 17:26 04.11.2021
5586 Drizzle 11 1025 86 10000 0.45 159 15:35 04.11.2021
5587 Clouds 12 1026 82 10000 0.45 207 13:45 04.11.2021
5588 Clouds 12 1029 82 10000 0.45 60 09:50 04.11.2021
5589 Clouds 12 1029 76 10000 0.89 184 08:31 04.11.2021
5590 Clouds 12 1029 79 10000 1.34 190 07:35 04.11.2021
5591 Clouds 12 1028 76 10000 1.79 218 06:38 04.11.2021
5592 Clouds 12 1031 70 10000 1.34 125 22:54 03.11.2021
5593 Clouds 12 1031 70 10000 0.45 120 21:57 03.11.2021
5594 Clouds 12 1031 66 10000 2.24 156 21:35 03.11.2021
5595 Rain 12 1031 66 10000 2.68 137 20:39 03.11.2021
5596 Clouds 11 1030 68 10000 1.79 105 20:19 03.11.2021
5597 Clouds 11 1030 72 10000 2.68 184 19:19 03.11.2021
5598 Clouds 11 1029 72 10000 2.24 174 18:26 03.11.2021
5599 Clouds 11 1029 71 10000 2.24 114 17:41 03.11.2021
5600 Clouds 11 1029 71 10000 2.24 198 16:31 03.11.2021
5601 Clouds 11 1029 69 10000 1.79 114 15:47 03.11.2021
5602 Clouds 11 1029 67 10000 1.79 128 15:29 03.11.2021
5603 Clouds 11 1030 68 10000 2.24 259 12:42 03.11.2021
5604 Clouds 11 1030 70 10000 1.34 114 11:28 03.11.2021
5605 Clouds 11 1030 69 10000 1.79 140 10:49 03.11.2021
5606 Clouds 11 1030 68 10000 1.79 146 09:34 03.11.2021
5607 Clouds 11 1030 71 10000 2.68 259 08:41 03.11.2021
5608 Rain 10 1030 76 10000 2.24 141 07:40 03.11.2021
5609 Clouds 11 1029 75 8000 1.79 91 05:45 03.11.2021
5610 Clouds 11 1030 67 10000 3.13 252 04:21 03.11.2021
5611 Clouds 12 1030 60 10000 3.13 298 00:54 03.11.2021
5612 Clouds 11 1030 70 10000 3.13 168 22:52 02.11.2021
5613 Clouds 12 1030 62 10000 1.79 211 21:47 02.11.2021
5614 Clouds 10 1030 69 10000 2.24 99 20:34 02.11.2021
5615 Clouds 11 1029 64 10000 1.34 174 19:55 02.11.2021
5616 Clouds 10 1029 67 10000 2.24 199 19:20 02.11.2021
5617 Clouds 10 1028 67 10000 3.13 209 18:27 02.11.2021
5618 Clouds 10 1028 69 10000 1.34 116 17:43 02.11.2021
5619 Clouds 11 1028 67 10000 1.34 207 16:33 02.11.2021
5620 Clouds 11 1027 67 10000 2.24 33 15:48 02.11.2021
5621 Clouds 11 1027 67 10000 1.79 225 14:50 02.11.2021
5622 Clouds 12 1026 72 10000 1.79 234 13:29 02.11.2021
5623 Clouds 12 1026 70 10000 2.24 92 12:46 02.11.2021
5624 Clouds 12 1026 69 10000 1.79 165 11:38 02.11.2021
5625 Clouds 12 1026 71 10000 2.68 213 10:54 02.11.2021
5626 Clouds 12 1026 73 10000 2.68 134 10:32 02.11.2021
5627 Clouds 13 1025 70 10000 2.24 225 09:23 02.11.2021
5628 Clouds 13 1023 69 10000 1.34 215 07:45 02.11.2021
5629 Clouds 14 1022 69 10000 2.68 126 04:39 02.11.2021
5630 Clouds 14 1020 71 10000 2.24 84 02:49 02.11.2021
5631 Clouds 15 1019 73 10000 0.89 188 23:39 01.11.2021
5632 Clear 16 1016 76 10000 0.45 184 21:28 01.11.2021
5633 Clear 15 1016 80 10000 0.45 357 20:42 01.11.2021
5634 Clouds 14 1015 83 10000 4.63 20 19:58 01.11.2021
5635 Clouds 14 1015 83 10000 4.63 20 19:58 01.11.2021
5636 Clouds 13 1015 85 10000 5.14 20 19:38 01.11.2021
5637 Clouds 12 1014 85 10000 0.45 13 18:23 01.11.2021
5638 Clouds 13 1014 85 10000 0.45 22 17:35 01.11.2021
5639 Clouds 13 1013 84 10000 1.34 63 16:51 01.11.2021
5640 Clouds 13 1013 84 10000 1.34 347 15:57 01.11.2021
5641 Clouds 13 1013 84 10000 1.79 17 15:27 01.11.2021
5642 Clouds 13 1013 83 10000 1.34 24 14:44 01.11.2021
5643 Clouds 13 1013 83 10000 1.34 3 14:23 01.11.2021
5644 Clear 13 1013 83 10000 1.79 15 13:50 01.11.2021
5645 Clouds 14 1014 82 10000 1.79 34 12:34 01.11.2021
5646 Clouds 14 1014 81 10000 0.89 14 11:26 01.11.2021
5647 Clouds 14 1014 80 10000 0.89 354 09:43 01.11.2021
5648 Clear 14 1013 75 10000 0.45 5 07:50 01.11.2021
5649 Clear 15 1013 74 10000 0.45 28 07:30 01.11.2021
5650 Clouds 17 1013 64 10000 0.89 338 03:45 01.11.2021
5651 Clouds 15 1015 70 10000 4.63 170 00:41 01.11.2021
5652 Clouds 14 1013 76 10000 0.45 184 22:32 31.10.2021
5653 Clouds 13 1012 80 10000 0.45 132 20:50 31.10.2021
5654 Clouds 12 1011 84 10000 5.14 160 19:20 31.10.2021
5655 Clouds 12 1010 86 10000 0.45 190 18:38 31.10.2021
5656 Clouds 12 1009 88 10000 0.45 123 17:32 31.10.2021
5657 Clouds 12 1007 88 10000 5.66 170 15:50 31.10.2021
5658 Clouds 13 1006 86 10000 0.45 284 13:58 31.10.2021
5659 Clouds 13 1006 84 10000 0.45 11 12:49 31.10.2021
5660 Clouds 13 1004 80 10000 0.89 359 11:40 31.10.2021
5661 Clouds 14 1004 76 10000 1.34 21 10:42 31.10.2021
5662 Clear 14 1003 74 10000 1.34 343 09:21 31.10.2021
5663 Clear 14 1003 74 10000 1.34 343 09:21 31.10.2021
5664 Clear 14 1002 72 10000 2.24 359 08:19 31.10.2021
5665 Clear 17 1000 55 10000 2.24 357 00:58 31.10.2021
5666 Clear 17 1000 70 10000 1.79 23 22:45 30.10.2021
5667 Clouds 15 999 89 10000 2.24 357 21:35 30.10.2021
5668 Clouds 15 999 91 10000 2.24 13 20:33 30.10.2021
5669 Clouds 15 998 94 10000 1.79 70 18:43 30.10.2021
5670 Clouds 16 998 95 10000 2.24 353 17:25 30.10.2021
5671 Clouds 16 999 96 10000 0.89 27 14:50 30.10.2021
5672 Rain 15 1001 93 9000 0.45 13 13:39 30.10.2021
5673 Clouds 15 1001 93 9000 1.34 3 13:21 30.10.2021
5674 Rain 16 1002 88 10000 1.79 21 11:58 30.10.2021
5675 Clouds 16 1002 87 10000 2.24 19 11:39 30.10.2021
5676 Clouds 15 1002 90 10000 1.34 350 10:32 30.10.2021
5677 Clouds 16 1003 85 10000 1.79 332 08:52 30.10.2021
5678 Clouds 16 1005 78 10000 1.34 23 06:26 30.10.2021
5679 Clouds 17 1005 75 10000 2.68 283 05:39 30.10.2021
5680 Clouds 19 1009 76 10000 0.45 13 00:43 30.10.2021
5681 Clouds 15 1008 93 6000 0.45 16 22:37 29.10.2021
5682 Clouds 15 1010 90 10000 0.45 286 21:52 29.10.2021
5683 Clouds 14 1009 93 10000 1.54 20 20:45 29.10.2021
5684 Clouds 13 1009 93 8000 0.51 340 19:50 29.10.2021
5685 Clouds 13 1008 92 10000 1.54 10 18:32 29.10.2021
5686 Clouds 13 1008 92 10000 1.54 350 16:51 29.10.2021
5687 Clouds 14 1008 89 10000 2.57 30 14:33 29.10.2021
5688 Clouds 14 1007 87 10000 3.6 30 11:43 29.10.2021
5689 Rain 15 1008 88 10000 0.45 360 10:35 29.10.2021
5690 Clouds 16 1007 77 10000 0.89 83 08:19 29.10.2021
5691 Clouds 16 1008 88 10000 0.45 11 00:36 29.10.2021
5692 Drizzle 16 1009 90 10000 4.63 360 22:59 28.10.2021
5693 Clouds 15 1010 91 10000 2.57 40 21:55 28.10.2021
5694 Clouds 15 1009 92 10000 3.09 50 20:29 28.10.2021
5695 Clouds 14 1009 94 10000 0.89 6 19:48 28.10.2021
5696 Clouds 15 1008 93 10000 3.6 10 18:20 28.10.2021
5697 Clouds 14 1010 94 10000 2.06 340 16:58 28.10.2021
5698 Clouds 14 1010 95 10000 2.06 60 15:20 28.10.2021
5699 Drizzle 14 1012 95 9000 1.54 170 13:45 28.10.2021
5700 Rain 14 1012 95 10000 2.06 180 13:21 28.10.2021
5701 Rain 14 1012 95 8000 2.06 200 12:39 28.10.2021
5702 Rain 15 1012 91 7000 2.06 190 10:57 28.10.2021
5703 Rain 15 1012 89 9000 1.03 10 09:38 28.10.2021
5704 Rain 16 1012 85 10000 1.54 20 08:58 28.10.2021
5705 Rain 16 1012 85 10000 0.51 20 08:34 28.10.2021
5706 Rain 16 1014 88 10000 5.66 160 04:48 28.10.2021
5707 Rain 18 1016 73 10000 0.45 28 23:50 27.10.2021
5708 Rain 16 1016 77 10000 4.12 360 22:31 27.10.2021
5709 Rain 14 1016 80 10000 4.63 350 21:33 27.10.2021
5710 Rain 14 1016 80 10000 4.63 20 20:53 27.10.2021
5711 Rain 13 1016 81 10000 1.34 5 19:57 27.10.2021
5712 Rain 13 1016 81 10000 1.34 21 19:38 27.10.2021
5713 Rain 13 1015 81 10000 0.89 5 18:39 27.10.2021
5714 Rain 14 1016 83 10000 1.79 354 16:27 27.10.2021
5715 Rain 14 1017 85 10000 0.89 26 15:32 27.10.2021
5716 Clouds 14 1017 85 10000 0.89 19 14:40 27.10.2021
5717 Clouds 14 1017 81 10000 0.89 3 12:32 27.10.2021
5718 Rain 14 1018 80 10000 1.34 337 10:58 27.10.2021
5719 Clouds 15 1017 81 10000 1.79 17 09:51 27.10.2021
5720 Clouds 15 1016 78 10000 0.89 359 08:22 27.10.2021
5721 Clouds 16 1016 81 10000 1.34 360 07:22 27.10.2021
5722 Clouds 15 1018 91 6000 1.34 53 02:24 27.10.2021
5723 Clouds 15 1018 86 10000 1.79 360 00:56 27.10.2021
5724 Clouds 15 1018 87 10000 1.79 10 00:28 27.10.2021
5725 Clouds 15 1019 89 10000 1.79 342 23:41 26.10.2021
5726 Clouds 15 1018 90 10000 1.79 19 22:38 26.10.2021
5727 Clouds 14 1019 90 10000 0.89 334 21:59 26.10.2021
5728 Clouds 14 1018 93 10000 0.45 321 20:36 26.10.2021
5729 Clouds 15 1017 93 10000 1.79 309 19:26 26.10.2021
5730 Clouds 16 1017 91 10000 1.34 269 18:40 26.10.2021
5731 Rain 16 1017 88 10000 1.34 60 16:22 26.10.2021
5732 Clouds 16 1019 87 10000 0.89 19 14:30 26.10.2021
5733 Clouds 16 1018 87 10000 4.63 30 11:34 26.10.2021
5734 Clouds 16 1018 86 10000 0.89 350 10:20 26.10.2021
5735 Clouds 18 1017 81 10000 0.89 280 07:25 26.10.2021
5736 Clouds 19 1018 70 10000 1.79 41 03:39 26.10.2021
5737 Clouds 19 1020 70 10000 0.89 130 23:50 25.10.2021
5738 Rain 18 1019 76 10000 0.89 23 22:53 25.10.2021
5739 Clouds 17 1019 80 10000 1.34 347 22:18 25.10.2021
5740 Clouds 16 1018 85 10000 0.45 16 21:38 25.10.2021
5741 Rain 15 1017 88 10000 1.34 354 19:50 25.10.2021
5742 Rain 15 1017 89 10000 0.89 84 19:25 25.10.2021
5743 Rain 14 1017 89 10000 1.34 13 18:53 25.10.2021
5744 Clouds 15 1017 89 10000 0.89 348 17:59 25.10.2021
5745 Clouds 15 1017 88 10000 0.89 253 15:45 25.10.2021
5746 Clouds 15 1016 93 10000 0.89 12 14:20 25.10.2021
5747 Clouds 15 1016 90 10000 0.45 36 12:24 25.10.2021
5748 Clouds 15 1015 88 10000 0.89 26 10:20 25.10.2021
5749 Clouds 17 1014 83 10000 0.45 340 08:28 25.10.2021
5750 Clouds 18 1014 85 10000 0.45 262 05:59 25.10.2021
5751 Drizzle 16 1014 94 5000 0.89 11 00:54 25.10.2021
5752 Rain 15 1014 94 9000 0.89 95 00:35 25.10.2021
5753 Rain 15 1014 94 10000 0.45 329 23:46 24.10.2021
5754 Clouds 15 1014 93 10000 1.79 353 22:43 24.10.2021
5755 Rain 15 1014 93 10000 1.34 3 22:21 24.10.2021
5756 Clouds 15 1014 95 9000 1.34 29 21:38 24.10.2021
5757 Clouds 14 1013 95 6000 0.45 358 20:42 24.10.2021
5758 Rain 15 1013 94 5000 0.45 48 19:54 24.10.2021
5759 Mist 14 1013 95 4500 0.89 275 18:49 24.10.2021
5760 Clouds 14 1013 94 6000 1.34 74 17:54 24.10.2021
5761 Mist 15 1012 94 3900 1.34 359 16:40 24.10.2021
5762 Mist 15 1013 96 3900 0.45 80 15:25 24.10.2021
5763 Clouds 15 1013 95 10000 0.45 72 13:44 24.10.2021
5764 Mist 15 1013 95 3600 0.89 6 12:40 24.10.2021
5765 Drizzle 15 1013 94 2600 0.89 352 11:37 24.10.2021
5766 Clouds 15 1013 93 10000 5.66 10 10:43 24.10.2021
5767 Haze 15 1012 92 5000 0.89 9 08:51 24.10.2021
5768 Clouds 16 1016 77 10000 1.79 8 03:30 24.10.2021
5769 Clouds 14 1018 81 10000 0.89 359 23:56 23.10.2021
5770 Clouds 14 1017 83 10000 0.89 357 22:55 23.10.2021
5771 Clouds 14 1017 84 10000 0.45 344 21:21 23.10.2021
5772 Clouds 13 1017 83 10000 0.45 11 19:37 23.10.2021
5773 Clouds 13 1016 82 10000 0.45 56 18:45 23.10.2021
5774 Clouds 13 1017 80 10000 0.89 50 17:46 23.10.2021
5775 Clouds 13 1017 80 10000 1.34 15 17:18 23.10.2021
5776 Clouds 12 1017 84 10000 2.06 30 15:57 23.10.2021
5777 Clouds 13 1019 82 10000 3.09 360 13:47 23.10.2021
5778 Clouds 15 1026 68 10000 6.17 200 02:20 23.10.2021
5779 Clouds 14 1026 69 10000 1.54 230 23:41 22.10.2021
5780 Clouds 10 1028 82 10000 2.57 20 21:37 22.10.2021
5781 Clouds 7 1027 84 10000 2.06 30 19:33 22.10.2021
5782 Clouds 7 1027 84 10000 2.57 40 18:27 22.10.2021
5783 Clouds 8 1028 80 10000 1.54 40 16:44 22.10.2021
5784 Clouds 8 1029 81 10000 1.54 40 14:45 22.10.2021
5785 Clouds 9 1030 75 10000 1.03 70 12:41 22.10.2021
5786 Clouds 11 1031 71 10000 1.54 50 10:57 22.10.2021
5787 Clouds 12 1031 70 10000 2.06 70 10:33 22.10.2021
5788 Clouds 13 1031 63 10000 4.12 90 09:34 22.10.2021
5789 Clouds 16 1030 55 10000 1.34 79 07:40 22.10.2021
5790 Clouds 16 1030 54 10000 0.89 107 07:21 22.10.2021
5791 Clouds 16 1030 54 10000 0.89 107 07:21 22.10.2021
5792 Rain 15 1035 50 10000 1.79 56 00:54 22.10.2021
5793 Clouds 15 1034 54 10000 1.34 115 23:50 21.10.2021
5794 Rain 13 1033 64 10000 0.89 21 22:43 21.10.2021
5795 Rain 11 1033 72 10000 0.45 148 21:28 21.10.2021
5796 Clouds 9 1033 78 10000 2.57 140 20:23 21.10.2021
5797 Clouds 8 1033 78 10000 3.09 140 19:51 21.10.2021
5798 Clouds 8 1033 78 10000 0.45 203 19:24 21.10.2021
5799 Rain 8 1033 79 10000 3.09 140 18:33 21.10.2021
5800 Rain 8 1033 80 10000 0.45 130 17:51 21.10.2021
5801 Clouds 8 1033 80 10000 3.6 140 16:47 21.10.2021
5802 Clouds 9 1033 79 10000 4.12 140 15:29 21.10.2021
5803 Rain 9 1033 79 10000 3.6 130 14:56 21.10.2021
5804 Clouds 9 1033 80 10000 2.06 150 14:37 21.10.2021
5805 Clouds 11 1032 75 10000 2.24 271 11:56 21.10.2021
5806 Clouds 13 1030 76 10000 0.89 259 09:39 21.10.2021
5807 Clouds 14 1029 73 10000 3.13 323 07:48 21.10.2021
5808 Clouds 15 1028 68 10000 3.58 179 06:45 21.10.2021
5809 Clouds 15 1028 69 10000 1.34 262 00:39 21.10.2021
5810 Clouds 11 1028 81 10000 0.45 263 22:29 20.10.2021
5811 Clouds 10 1029 85 10000 1.03 20 21:48 20.10.2021
5812 Clouds 8 1028 87 10000 1.03 360 20:59 20.10.2021
5813 Clouds 8 1028 89 10000 1.54 60 20:39 20.10.2021
5814 Rain 8 1028 89 10000 1.54 60 20:19 20.10.2021
5815 Clouds 7 1028 87 10000 1.03 70 19:23 20.10.2021
5816 Clouds 7 1027 87 10000 1.54 60 18:45 20.10.2021
5817 Clouds 8 1028 84 10000 0.51 330 17:33 20.10.2021
5818 Clouds 9 1029 80 10000 0.45 281 14:33 20.10.2021
5819 Clouds 11 1030 74 10000 0.89 79 09:54 20.10.2021
5820 Clouds 13 1028 73 10000 0.89 121 06:57 20.10.2021
5821 Clouds 14 1030 66 10000 1.34 188 02:37 20.10.2021
5822 Clouds 13 1029 65 10000 0.89 207 00:33 20.10.2021
5823 Clouds 11 1028 70 10000 1.79 207 22:53 19.10.2021
5824 Clouds 11 1028 74 10000 2.24 192 21:37 19.10.2021
5825 Clouds 10 1027 77 10000 0.89 157 20:27 19.10.2021
5826 Clouds 10 1026 77 10000 0.45 167 19:59 19.10.2021
5827 Clouds 9 1026 78 10000 0.89 204 19:36 19.10.2021
5828 Clouds 9 1025 78 10000 1.34 138 18:45 19.10.2021
5829 Clouds 9 1025 82 10000 0.45 118 17:52 19.10.2021
5830 Clouds 11 1024 81 10000 1.79 204 15:30 19.10.2021
5831 Clouds 12 1023 82 10000 1.79 184 14:40 19.10.2021
5832 Clouds 11 1024 84 10000 1.34 184 13:55 19.10.2021
5833 Clouds 13 1022 85 10000 1.34 238 12:24 19.10.2021
5834 Clouds 13 1021 84 10000 0.45 250 11:28 19.10.2021
5835 Clouds 13 1019 81 10000 0.89 354 09:55 19.10.2021
5836 Clouds 13 1018 80 10000 1.79 14 08:57 19.10.2021
5837 Clouds 16 1018 64 10000 2.24 85 02:25 19.10.2021
5838 Clouds 16 1018 67 10000 1.79 86 23:59 18.10.2021
5839 Clouds 16 1017 69 10000 2.68 5 23:40 18.10.2021
5840 Clouds 15 1016 73 10000 2.68 45 22:57 18.10.2021
5841 Clouds 15 1016 74 10000 1.79 15 22:30 18.10.2021
5842 Clear 14 1014 83 10000 2.24 359 20:53 18.10.2021
5843 Clouds 13 1014 85 10000 1.34 21 20:30 18.10.2021
5844 Clouds 13 1014 87 10000 2.24 3 19:41 18.10.2021
5845 Rain 13 1014 87 10000 1.34 19 19:20 18.10.2021
5846 Clouds 14 1013 87 10000 0.89 55 16:59 18.10.2021
5847 Clouds 13 1013 87 10000 0.45 15 14:57 18.10.2021
5848 Clouds 14 1013 87 10000 2.24 12 12:28 18.10.2021
5849 Clouds 14 1012 88 10000 1.34 8 10:26 18.10.2021
5850 Clouds 14 1011 86 10000 2.68 48 09:25 18.10.2021
5851 Clouds 14 1011 86 10000 2.68 48 09:25 18.10.2021
5852 Clouds 16 1008 80 10000 2.24 15 01:23 18.10.2021
5853 Clouds 16 1008 82 10000 4.47 40 23:20 17.10.2021
5854 Clouds 15 1008 86 10000 2.68 348 21:45 17.10.2021
5855 Rain 15 1007 87 10000 2.68 27 20:59 17.10.2021
5856 Rain 15 1007 88 10000 2.68 11 20:29 17.10.2021
5857 Rain 15 1007 89 10000 1.34 341 19:38 17.10.2021
5858 Clouds 15 1006 92 10000 1.34 4 18:44 17.10.2021
5859 Rain 15 1006 89 10000 1.79 6 17:27 17.10.2021
5860 Clouds 15 1007 93 9000 1.79 21 14:47 17.10.2021
5861 Clouds 15 1007 94 10000 0.89 359 14:24 17.10.2021
5862 Clouds 15 1007 91 10000 1.79 9 13:34 17.10.2021
5863 Clouds 15 1007 92 10000 2.24 51 11:54 17.10.2021
5864 Clouds 14 1007 92 10000 2.24 348 10:20 17.10.2021
5865 Clouds 14 1007 92 6000 2.68 23 09:23 17.10.2021
5866 Rain 15 1006 84 10000 2.68 34 06:56 17.10.2021
5867 Clouds 15 1010 80 10000 2.24 19 00:50 17.10.2021
5868 Clouds 15 1010 74 10000 4.02 27 00:21 17.10.2021
5869 Clouds 14 1011 70 10000 2.68 1 21:30 16.10.2021
5870 Clouds 13 1011 69 10000 1.34 359 20:31 16.10.2021
5871 Clouds 13 1012 72 10000 1.79 360 19:44 16.10.2021
5872 Clouds 13 1011 72 10000 0.45 5 19:21 16.10.2021
5873 Clouds 13 1012 73 10000 1.34 360 18:51 16.10.2021
5874 Rain 12 1012 73 10000 1.34 40 18:29 16.10.2021
5875 Clouds 12 1013 77 10000 0.89 5 17:53 16.10.2021
5876 Clouds 12 1013 81 10000 1.79 74 17:22 16.10.2021
5877 Clouds 12 1015 80 10000 1.34 344 14:48 16.10.2021
5878 Clouds 12 1016 77 10000 1.34 6 11:31 16.10.2021
5879 Clouds 12 1016 76 10000 1.34 7 10:25 16.10.2021
5880 Clouds 14 1015 67 10000 1.79 35 06:51 16.10.2021
5881 Clouds 15 1018 62 10000 2.24 15 01:25 16.10.2021
5882 Clouds 15 1015 67 10000 2.24 6 23:50 15.10.2021
5883 Clouds 13 1016 70 10000 2.24 344 22:24 15.10.2021
5884 Clouds 13 1016 73 10000 3.13 352 21:56 15.10.2021
5885 Clouds 12 1015 76 10000 2.68 29 21:25 15.10.2021
5886 Clouds 12 1015 79 10000 1.79 19 20:45 15.10.2021
5887 Clouds 12 1014 79 10000 1.34 2 19:26 15.10.2021
5888 Clouds 12 1014 81 10000 2.68 5 18:40 15.10.2021
5889 Clouds 12 1014 83 10000 4.47 32 16:28 15.10.2021
5890 Clouds 12 1014 82 10000 3.13 179 15:28 15.10.2021
5891 Clouds 12 1015 83 10000 5.36 37 12:41 15.10.2021
5892 Clouds 12 1014 83 10000 4.92 179 11:26 15.10.2021
5893 Clouds 12 1014 81 10000 5.81 179 10:43 15.10.2021
5894 Clouds 13 1014 79 10000 5.81 179 08:59 15.10.2021
5895 Clear 14 1014 72 10000 5.36 179 05:31 15.10.2021
5896 Clouds 14 1016 72 10000 5.81 179 00:48 15.10.2021
5897 Clouds 13 1016 74 10000 5.36 179 00:21 15.10.2021
5898 Clouds 13 1016 73 10000 2.68 179 22:50 14.10.2021
5899 Clouds 9 1017 84 10000 2.68 179 21:43 14.10.2021
5900 Clouds 8 1017 84 10000 1.79 179 20:38 14.10.2021
5901 Clouds 7 1016 85 10000 1.34 179 20:18 14.10.2021
5902 Clouds 7 1015 86 10000 2.57 20 19:32 14.10.2021
5903 Clouds 9 1015 86 10000 3.6 30 17:26 14.10.2021
5904 Clouds 9 1015 88 10000 3.09 30 16:48 14.10.2021
5905 Clouds 9 1015 85 10000 1.54 20 15:35 14.10.2021
5906 Clouds 9 1016 83 10000 1.03 230 14:41 14.10.2021
5907 Clouds 9 1018 79 10000 3.09 200 13:37 14.10.2021
5908 Clouds 9 1018 78 10000 3.6 160 11:44 14.10.2021
5909 Clouds 10 1017 72 10000 3.6 140 09:55 14.10.2021
5910 Clouds 12 1016 72 10000 1.34 107 06:54 14.10.2021
5911 Clouds 11 1015 75 10000 1.34 184 00:58 14.10.2021
5912 Clouds 11 1015 78 10000 2.24 193 00:22 14.10.2021
5913 Haze 8 1014 91 5000 1.79 193 21:53 13.10.2021
5914 Clouds 8 1014 89 6000 0.89 211 21:32 13.10.2021
5915 Haze 8 1013 89 5000 1.34 210 19:58 13.10.2021
5916 Haze 8 1012 88 5000 2.24 212 18:49 13.10.2021
5917 Haze 8 1012 90 4600 2.24 205 17:55 13.10.2021
5918 Rain 8 1012 83 8000 2.68 82 15:32 13.10.2021
5919 Clouds 8 1012 81 8000 2.24 179 14:45 13.10.2021
5920 Haze 8 1011 85 5000 3.13 174 12:58 13.10.2021
5921 Clouds 9 1011 78 6000 3.13 189 11:59 13.10.2021
5922 Clouds 9 1010 80 6000 5.81 212 10:47 13.10.2021
5923 Clouds 9 1007 82 4300 3.58 221 08:29 13.10.2021
5924 Haze 9 1006 78 4600 5.36 207 06:41 13.10.2021
5925 Haze 9 1004 81 4200 5.36 239 02:26 13.10.2021
5926 Haze 8 1003 83 5000 3.13 254 00:18 13.10.2021
5927 Haze 7 1002 87 4000 3.09 250 23:29 12.10.2021
5928 Haze 8 1002 86 5000 0.45 228 22:44 12.10.2021
5929 Clouds 8 1001 87 10000 0.89 245 21:30 12.10.2021
5930 Clouds 7 1000 93 10000 3.09 40 20:34 12.10.2021
5931 Clouds 7 999 91 10000 3.09 60 19:57 12.10.2021
5932 Clouds 6 999 91 10000 2.57 40 18:28 12.10.2021
5933 Clouds 6 999 91 10000 2.57 50 17:44 12.10.2021
5934 Clouds 6 999 89 10000 3.09 20 16:39 12.10.2021
5935 Clouds 7 998 87 10000 1.03 50 15:46 12.10.2021
5936 Clouds 7 997 87 10000 2.57 90 14:39 12.10.2021
5937 Clouds 7 997 86 9000 4.12 320 13:43 12.10.2021
5938 Clouds 8 997 86 8000 0.89 205 11:37 12.10.2021
5939 Clouds 9 996 82 10000 7.72 190 09:42 12.10.2021
5940 Clouds 10 995 78 9000 7.72 190 08:43 12.10.2021
5941 Clouds 10 995 78 9000 7.72 190 08:43 12.10.2021
5942 Clouds 11 995 72 10000 0.45 197 06:56 12.10.2021
5943 Clouds 11 995 72 10000 0.45 208 05:29 12.10.2021
5944 Clouds 11 995 79 10000 0.45 139 04:32 12.10.2021
5945 Clear 14 992 50 10000 1.34 348 00:28 12.10.2021
5946 Clear 14 991 53 10000 1.34 300 23:40 11.10.2021
5947 Clear 14 991 53 10000 1.34 357 22:57 11.10.2021
5948 Clear 12 991 59 10000 0.89 263 21:45 11.10.2021
5949 Clouds 12 989 67 10000 0.89 315 20:35 11.10.2021
5950 Clouds 12 988 79 10000 0.45 250 19:38 11.10.2021
5951 Clouds 13 988 89 10000 0.45 21 18:37 11.10.2021
5952 Clouds 13 987 92 10000 1.79 22 16:51 11.10.2021
5953 Clouds 13 987 93 6000 1.79 336 16:31 11.10.2021
5954 Clouds 13 987 93 6000 1.79 336 16:31 11.10.2021
5955 Mist 13 988 94 2100 2.68 10 15:47 11.10.2021
5956 Haze 13 989 93 2600 2.68 84 14:54 11.10.2021
5957 Clouds 13 990 91 6000 3.58 11 14:22 11.10.2021
5958 Clouds 13 991 88 10000 2.68 69 13:36 11.10.2021
5959 Clouds 14 994 83 10000 1.79 334 11:38 11.10.2021
5960 Clouds 14 997 81 10000 3.13 24 10:31 11.10.2021
5961 Clouds 14 999 82 10000 2.24 76 09:19 11.10.2021
5962 Clouds 14 1003 72 10000 1.79 90 04:55 11.10.2021
5963 Clouds 14 1006 69 10000 2.24 318 01:37 11.10.2021
5964 Clouds 15 1007 72 10000 2.68 345 00:45 11.10.2021
5965 Clouds 15 1006 75 10000 3.13 4 23:57 10.10.2021
5966 Clouds 13 1007 82 10000 1.34 358 21:51 10.10.2021
5967 Clouds 13 1007 84 10000 1.79 342 21:29 10.10.2021
5968 Clouds 12 1006 88 10000 3.13 80 20:42 10.10.2021
5969 Clouds 12 1006 88 10000 1.79 26 20:21 10.10.2021
5970 Clouds 12 1006 88 10000 2.68 339 19:58 10.10.2021
5971 Clouds 11 1006 87 10000 3.13 346 19:35 10.10.2021
5972 Clouds 11 1006 87 10000 1.79 45 18:33 10.10.2021
5973 Clouds 10 1007 87 10000 4.12 360 16:45 10.10.2021
5974 Clouds 10 1009 84 10000 4.12 30 15:42 10.10.2021
5975 Clouds 9 1010 82 10000 3.6 10 13:43 10.10.2021
5976 Clouds 9 1010 81 10000 3.09 10 12:51 10.10.2021
5977 Clouds 9 1010 81 10000 3.09 20 12:33 10.10.2021
5978 Clouds 10 1011 79 10000 2.06 40 10:43 10.10.2021
5979 Clear 11 1011 76 10000 2.06 170 09:29 10.10.2021
5980 Clear 12 1011 74 10000 2.06 180 08:53 10.10.2021
5981 Clear 14 1011 70 10000 0.45 102 07:27 10.10.2021
5982 Clouds 14 1013 71 10000 0.45 201 02:38 10.10.2021
5983 Clouds 14 1013 73 10000 1.79 188 00:55 10.10.2021
5984 Clouds 14 1013 74 10000 1.34 202 23:52 09.10.2021
5985 Clouds 13 1013 77 10000 1.79 152 22:45 09.10.2021
5986 Clouds 12 1013 78 10000 0.45 210 21:38 09.10.2021
5987 Clouds 12 1013 79 10000 0.45 235 21:19 09.10.2021
5988 Clouds 11 1013 80 10000 8.75 190 19:44 09.10.2021
5989 Clouds 11 1013 82 10000 0.45 192 18:57 09.10.2021
5990 Clouds 11 1013 82 10000 0.45 185 18:32 09.10.2021
5991 Clouds 11 1013 83 10000 0.89 211 16:29 09.10.2021
5992 Clouds 11 1013 83 10000 0.89 211 16:29 09.10.2021
5993 Clouds 11 1013 83 10000 0.89 211 16:29 09.10.2021
5994 Clouds 11 1013 84 10000 1.34 230 15:28 09.10.2021
5995 Rain 12 1014 83 10000 0.89 206 13:43 09.10.2021
5996 Clouds 12 1014 85 10000 0.89 153 12:38 09.10.2021
5997 Clouds 13 1014 84 10000 0.89 184 11:43 09.10.2021
5998 Clouds 13 1013 86 10000 5.14 160 10:41 09.10.2021
5999 Clouds 13 1013 86 10000 5.14 160 10:41 09.10.2021
6000 Clouds 13 1013 83 10000 0.89 196 09:36 09.10.2021
6001 Clouds 14 1012 78 10000 0.89 205 08:28 09.10.2021
6002 Clouds 14 1012 75 10000 4.63 190 07:37 09.10.2021
6003 Clouds 16 1010 64 10000 0.89 208 05:28 09.10.2021
6004 Clouds 17 1012 59 10000 4.63 10 02:49 09.10.2021
6005 Clouds 17 1012 55 10000 4.12 10 02:21 09.10.2021
6006 Clouds 16 1011 68 10000 1.34 344 23:36 08.10.2021
6007 Clouds 15 1011 74 10000 1.34 23 22:53 08.10.2021
6008 Clouds 13 1010 82 10000 1.34 2 21:50 08.10.2021
6009 Clouds 12 1009 80 10000 0.45 344 20:36 08.10.2021
6010 Clouds 13 1009 76 10000 0.89 1 18:51 08.10.2021
6011 Clouds 13 1008 79 10000 0.89 13 17:28 08.10.2021
6012 Clouds 13 1008 83 10000 0.89 334 16:50 08.10.2021
6013 Clouds 13 1008 81 10000 1.34 26 16:22 08.10.2021
6014 Clouds 14 1009 89 10000 2.68 204 13:56 08.10.2021
6015 Clouds 14 1009 88 10000 2.24 319 12:48 08.10.2021
6016 Clouds 13 1009 85 10000 1.79 348 11:31 08.10.2021
6017 Clouds 13 1009 85 10000 1.79 51 10:35 08.10.2021
6018 Clouds 15 1008 79 10000 1.34 27 07:34 08.10.2021
6019 Clouds 14 1009 89 10000 0.89 351 23:33 07.10.2021
6020 Clouds 14 1009 89 10000 1.34 348 22:58 07.10.2021
6021 Clouds 14 1009 92 10000 0.45 26 21:34 07.10.2021
6022 Rain 14 1008 92 10000 0.89 7 20:56 07.10.2021
6023 Clouds 14 1008 93 10000 0.89 36 19:45 07.10.2021
6024 Clouds 14 1008 93 10000 0.89 15 19:27 07.10.2021
6025 Rain 14 1008 90 10000 0.45 17 17:48 07.10.2021
6026 Clouds 14 1009 87 10000 4.63 360 16:43 07.10.2021
6027 Clouds 14 1009 86 10000 4.63 340 15:23 07.10.2021
6028 Clouds 14 1010 89 10000 4.12 30 13:45 07.10.2021
6029 Clouds 14 1010 89 10000 4.63 350 13:21 07.10.2021
6030 Clouds 14 1010 88 10000 0.45 4 12:36 07.10.2021
6031 Clouds 15 1010 85 10000 0.45 338 10:48 07.10.2021
6032 Clouds 15 1010 84 10000 1.34 354 10:19 07.10.2021
6033 Clouds 15 1010 87 10000 0.45 353 08:56 07.10.2021
6034 Clouds 15 1010 87 10000 0.89 1 08:25 07.10.2021
6035 Clouds 15 1010 85 10000 0.45 12 07:41 07.10.2021
6036 Clouds 15 1010 84 10000 0.89 359 06:54 07.10.2021
6037 Clouds 16 1011 85 10000 0.45 24 02:22 07.10.2021
6038 Drizzle 14 1012 91 9000 0.45 360 23:39 06.10.2021
6039 Drizzle 14 1012 91 10000 1.79 357 22:45 06.10.2021
6040 Drizzle 14 1011 87 10000 0.89 54 21:46 06.10.2021
6041 Clouds 16 1011 77 10000 1.34 106 20:34 06.10.2021
6042 Clouds 16 1011 78 10000 0.89 37 19:46 06.10.2021
6043 Clouds 16 1011 78 10000 1.79 17 18:34 06.10.2021
6044 Rain 16 1011 80 10000 0.45 5 16:54 06.10.2021
6045 Clouds 16 1011 81 10000 0.89 29 15:26 06.10.2021
6046 Clouds 16 1012 76 10000 0.45 53 13:51 06.10.2021
6047 Rain 16 1011 72 10000 0.45 272 12:57 06.10.2021
6048 Clouds 16 1012 73 10000 3.6 20 12:39 06.10.2021
6049 Clouds 16 1012 73 10000 0.45 97 12:20 06.10.2021
6050 Clouds 16 1011 77 10000 0.45 32 09:58 06.10.2021
6051 Clouds 16 1011 77 10000 0.45 35 09:38 06.10.2021
6052 Clouds 17 1011 75 10000 0.45 17 08:42 06.10.2021
6053 Clouds 17 1011 70 10000 0.89 85 07:20 06.10.2021
6054 Clouds 18 1013 64 10000 7.2 360 05:26 06.10.2021
6055 Clouds 17 1013 78 10000 1.34 7 00:26 06.10.2021
6056 Clouds 17 1013 83 10000 0.45 312 23:57 05.10.2021
6057 Clouds 16 1013 85 10000 0.45 339 23:38 05.10.2021
6058 Clouds 16 1013 87 10000 0.45 26 23:19 05.10.2021
6059 Clouds 14 1013 92 10000 0.45 70 22:27 05.10.2021
6060 Clouds 13 1013 93 10000 3.09 20 21:44 05.10.2021
6061 Drizzle 13 1012 95 3500 3.09 20 20:41 05.10.2021
6062 Drizzle 13 1012 95 3500 0.45 65 20:22 05.10.2021
6063 Clouds 13 1012 93 10000 4.63 10 19:33 05.10.2021
6064 Clouds 13 1012 93 9000 0.45 5 18:49 05.10.2021
6065 Clouds 13 1012 93 10000 0.45 16 16:36 05.10.2021
6066 Clouds 13 1011 93 10000 3.6 20 14:34 05.10.2021
6067 Clouds 13 1010 92 10000 3.6 10 13:33 05.10.2021
6068 Clouds 12 1011 92 10000 0.45 6 12:38 05.10.2021
6069 Clouds 12 1011 91 10000 2.06 40 11:59 05.10.2021
6070 Clouds 12 1010 90 10000 1.03 130 10:44 05.10.2021
6071 Mist 13 1009 89 3600 1.03 270 08:56 05.10.2021
6072 Clouds 16 1010 79 9000 3.6 210 03:57 05.10.2021
6073 Clouds 14 1010 91 10000 1.03 40 23:53 04.10.2021
6074 Rain 12 1009 95 10000 2.57 50 22:35 04.10.2021
6075 Clouds 11 1008 94 10000 1.54 50 19:38 04.10.2021
6076 Clouds 12 1008 94 9000 1.03 220 18:26 04.10.2021
6077 Clouds 12 1008 96 10000 1.54 10 16:24 04.10.2021
6078 Rain 12 1008 94 8000 1.03 80 15:31 04.10.2021
6079 Mist 11 1009 96 3900 0.51 260 14:42 04.10.2021
6080 Clouds 12 1009 96 10000 0.51 40 13:50 04.10.2021
6081 Clouds 12 1009 96 6000 2.06 10 13:24 04.10.2021
6082 Mist 12 1009 96 3800 2.06 230 11:35 04.10.2021
6083 Mist 12 1008 96 3700 3.09 230 10:48 04.10.2021
6084 Mist 12 1008 95 4300 2.06 220 09:59 04.10.2021
6085 Mist 12 1007 94 5000 7.72 200 08:40 04.10.2021
6086 Drizzle 12 1006 93 6000 0.45 195 07:19 04.10.2021
6087 Mist 13 1006 94 3000 1.54 210 00:29 04.10.2021
6088 Clouds 12 1006 93 7000 1.54 30 22:34 03.10.2021
6089 Mist 12 1006 93 2900 0.51 10 21:39 03.10.2021
6090 Drizzle 12 1006 94 2600 0.51 260 20:59 03.10.2021
6091 Clouds 12 1006 90 3300 0.51 340 19:58 03.10.2021
6092 Clouds 12 1005 89 10000 1.03 80 18:56 03.10.2021
6093 Clouds 12 1006 89 10000 1.54 50 18:27 03.10.2021
6094 Drizzle 11 1009 86 10000 1.03 360 16:34 03.10.2021
6095 Haze 11 1011 84 3400 1.54 330 14:46 03.10.2021
6096 Haze 11 1011 84 3400 1.54 330 14:46 03.10.2021
6097 Clouds 11 1011 83 10000 3.6 360 13:58 03.10.2021
6098 Clouds 11 1013 82 10000 3.09 360 13:22 03.10.2021
6099 Clouds 11 1013 83 10000 2.57 330 12:29 03.10.2021
6100 Clouds 11 1014 80 10000 4.12 20 10:37 03.10.2021
6101 Clouds 12 1014 78 10000 0.45 13 08:42 03.10.2021
6102 Clouds 14 1019 68 10000 1.79 317 01:44 03.10.2021
6103 Clouds 13 1018 75 10000 2.24 324 22:40 02.10.2021
6104 Rain 12 1018 80 10000 1.79 317 20:56 02.10.2021
6105 Clouds 12 1018 80 10000 1.79 311 19:42 02.10.2021
6106 Rain 12 1018 80 10000 1.79 13 18:52 02.10.2021
6107 Clouds 12 1018 80 10000 1.34 17 17:54 02.10.2021
6108 Rain 12 1018 80 10000 1.79 24 17:21 02.10.2021
6109 Rain 12 1018 82 10000 2.68 3 14:58 02.10.2021
6110 Clouds 6 1021 86 10000 3.09 20 16:34 30.09.2021
6111 Clouds 6 1021 83 10000 1.54 10 14:57 30.09.2021
6112 Clouds 7 1020 83 10000 1.54 40 12:56 30.09.2021
6113 Clouds 8 1020 77 10000 0 0 11:35 30.09.2021
6114 Clouds 9 1019 74 10000 1.54 140 10:41 30.09.2021
6115 Clouds 9 1019 72 10000 3.6 150 09:31 30.09.2021
6116 Clouds 10 1018 70 10000 4.63 160 08:28 30.09.2021
6117 Clouds 10 1016 68 10000 0.45 86 06:59 30.09.2021
6118 Clouds 10 1017 68 10000 1.34 197 04:42 30.09.2021
6119 Haze 9 1017 92 4200 0.45 146 00:46 30.09.2021
6120 Clouds 12 1014 78 10000 0.89 212 23:30 29.09.2021
6121 Clouds 12 1012 83 10000 5.14 180 21:55 29.09.2021
6122 Clouds 12 1011 87 10000 4.63 180 20:57 29.09.2021
6123 Clouds 13 1011 84 10000 0.45 36 20:24 29.09.2021
6124 Clouds 13 1011 83 10000 1.34 280 19:43 29.09.2021
6125 Clouds 13 1010 80 10000 0.89 327 18:25 29.09.2021
6126 Rain 13 1010 82 10000 0.89 7 17:26 29.09.2021
6127 Rain 13 1010 80 10000 0.89 29 16:43 29.09.2021
6128 Clouds 13 1010 79 10000 1.79 98 15:45 29.09.2021
6129 Rain 12 1011 80 10000 0.89 1 14:38 29.09.2021
6130 Clear 12 1011 76 10000 2.24 344 13:40 29.09.2021
6131 Rain 13 1011 73 10000 2.24 19 12:46 29.09.2021
6132 Clear 13 1012 75 10000 1.34 352 11:26 29.09.2021
6133 Clear 13 1012 72 10000 1.79 248 10:38 29.09.2021
6134 Clouds 13 1011 71 10000 1.79 3 09:47 29.09.2021
6135 Clouds 14 1011 67 10000 1.79 360 08:44 29.09.2021
6136 Clear 15 1011 68 10000 1.34 347 06:55 29.09.2021
6137 Clear 15 1015 53 10000 0.89 1 02:40 29.09.2021
6138 Clouds 12 1015 70 10000 0.89 7 23:21 28.09.2021
6139 Rain 10 1015 81 10000 0.89 14 22:22 28.09.2021
6140 Clouds 7 1015 84 10000 1.34 48 21:25 28.09.2021
6141 Clouds 7 1016 81 10000 3.09 20 20:27 28.09.2021
6142 Clear 6 1014 84 10000 4.63 20 19:42 28.09.2021
6143 Clear 6 1014 85 10000 3.6 30 18:44 28.09.2021
6144 Clear 6 1015 83 10000 4.63 30 17:53 28.09.2021
6145 Clear 5 1015 83 10000 3.09 30 15:21 28.09.2021
6146 Clear 5 1015 85 10000 3.09 40 13:30 28.09.2021
6147 Clear 6 1015 82 10000 1.54 60 12:30 28.09.2021
6148 Clear 6 1015 81 10000 1.03 20 11:57 28.09.2021
6149 Clear 7 1015 81 10000 2.06 270 11:39 28.09.2021
6150 Clear 6 1015 80 10000 1.35 184 10:47 28.09.2021
6151 Clear 8 1015 74 10000 4.12 180 09:45 28.09.2021
6152 Clear 8 1015 73 10000 5.14 180 08:49 28.09.2021
6153 Clouds 9 1015 71 10000 0.45 215 08:28 28.09.2021
6154 Clouds 11 1014 64 10000 0.89 205 06:47 28.09.2021
6155 Clouds 12 1014 61 10000 0.89 184 05:22 28.09.2021
6156 Clouds 12 1017 61 10000 2.24 109 01:22 28.09.2021
6157 Clouds 10 1016 67 10000 1.34 219 00:20 28.09.2021
6158 Clouds 10 1016 70 10000 1.79 218 23:31 27.09.2021
6159 Clouds 10 1016 71 10000 0.89 196 22:46 27.09.2021
6160 Clouds 9 1016 72 10000 1.34 179 21:41 27.09.2021
6161 Clouds 9 1015 73 10000 1.34 190 20:38 27.09.2021
6162 Clouds 9 1015 73 10000 0.89 205 19:49 27.09.2021
6163 Clouds 9 1014 72 10000 1.34 223 19:23 27.09.2021
6164 Clouds 9 1014 74 10000 1.34 190 18:31 27.09.2021
6165 Clouds 9 1015 74 10000 0.89 221 17:28 27.09.2021
6166 Clouds 9 1015 72 10000 0.89 128 16:41 27.09.2021
6167 Clouds 9 1016 72 10000 0.89 156 15:43 27.09.2021
6168 Clouds 9 1016 73 10000 1.34 193 14:43 27.09.2021
6169 Clouds 9 1016 76 10000 0.45 109 13:31 27.09.2021
6170 Clouds 9 1017 74 10000 1.34 264 11:23 27.09.2021
6171 Clouds 8 1017 85 10000 0.89 196 09:54 27.09.2021
6172 Clouds 9 1017 75 10000 2.24 167 08:40 27.09.2021
6173 Clouds 10 1017 76 10000 1.79 200 05:21 27.09.2021
6174 Clouds 9 1018 82 10000 4.47 179 02:59 27.09.2021
6175 Rain 8 1017 89 10000 4.47 270 22:32 26.09.2021
6176 Clouds 7 1017 92 10000 2.68 265 21:50 26.09.2021
6177 Clouds 7 1017 90 8000 3.58 289 20:58 26.09.2021
6178 Clouds 7 1016 90 9000 4.02 276 20:21 26.09.2021
6179 Clouds 7 1016 93 8000 4.92 280 19:42 26.09.2021
6180 Clouds 7 1015 93 8000 5.81 179 18:45 26.09.2021
6181 Clouds 7 1015 90 9000 4.92 284 17:54 26.09.2021
6182 Clouds 7 1014 92 10000 3.13 179 17:22 26.09.2021
6183 Clouds 7 1014 93 7000 3.13 273 16:37 26.09.2021
6184 Clouds 7 1014 92 10000 4.47 294 15:58 26.09.2021
6185 Clouds 8 1014 92 10000 2.24 179 14:54 26.09.2021
6186 Clouds 8 1014 92 10000 3.13 315 13:55 26.09.2021
6187 Clouds 8 1014 93 10000 0.45 198 12:59 26.09.2021
6188 Clouds 8 1013 93 8000 0.45 140 12:24 26.09.2021
6189 Clouds 8 1013 89 10000 0.45 164 11:37 26.09.2021
6190 Clouds 8 1013 90 10000 4.63 160 10:25 26.09.2021
6191 Clouds 9 1011 92 10000 3.58 293 08:58 26.09.2021
6192 Clouds 11 1010 74 10000 2.68 317 06:36 26.09.2021
6193 Clear 15 1005 68 10000 2.24 15 00:23 26.09.2021
6194 Clouds 15 1005 66 10000 4.02 179 23:26 25.09.2021
6195 Clear 14 1005 72 10000 2.68 179 22:38 25.09.2021
6196 Clear 13 1004 75 10000 3.58 179 21:55 25.09.2021
6197 Clear 13 1004 76 10000 6.26 179 21:32 25.09.2021
6198 Clear 13 1003 75 10000 4.47 179 20:48 25.09.2021
6199 Clouds 13 1002 78 10000 0.45 287 19:31 25.09.2021
6200 Clouds 13 1002 79 10000 0.89 106 18:25 25.09.2021
6201 Rain 13 1001 85 10000 0.89 48 15:56 25.09.2021
6202 Clouds 14 1001 88 10000 1.79 334 13:58 25.09.2021
6203 Clouds 14 1002 90 10000 1.79 13 13:32 25.09.2021
6204 Clouds 14 1002 87 10000 2.24 98 12:28 25.09.2021
6205 Clouds 14 1003 86 10000 1.79 327 10:35 25.09.2021
6206 Clouds 14 1003 85 10000 1.79 61 09:45 25.09.2021
6207 Clouds 14 1003 84 10000 2.68 6 08:29 25.09.2021
6208 Clouds 14 1003 83 10000 2.68 88 07:20 25.09.2021
6209 Clouds 14 1007 80 10000 1.79 34 00:49 25.09.2021
6210 Clouds 13 1009 83 10000 2.24 348 21:54 24.09.2021
6211 Clouds 13 1009 86 10000 2.24 107 20:49 24.09.2021
6212 Clouds 13 1008 86 10000 1.79 323 19:58 24.09.2021
6213 Clear 13 1008 84 10000 1.79 6 18:35 24.09.2021
6214 Clear 12 1009 86 10000 0.89 22 17:56 24.09.2021
6215 Clear 12 1009 85 10000 0.89 352 17:37 24.09.2021
6216 Clear 12 1009 85 10000 1.79 90 17:18 24.09.2021
6217 Clear 13 1008 84 10000 0.89 1 14:34 24.09.2021
6218 Clouds 13 1009 83 10000 0.45 311 13:19 24.09.2021
6219 Clouds 13 1009 83 10000 1.79 16 12:41 24.09.2021
6220 Clouds 13 1009 83 10000 1.79 9 12:23 24.09.2021
6221 Clear 13 1008 86 10000 1.34 353 10:27 24.09.2021
6222 Clear 14 1007 78 10000 0.89 12 08:55 24.09.2021
6223 Clear 15 1006 70 10000 1.79 21 07:39 24.09.2021
6224 Clear 16 1007 67 10000 1.79 57 06:50 24.09.2021
6225 Clear 18 1006 59 10000 2.68 345 05:21 24.09.2021
6226 Clear 16 1004 70 10000 0.89 24 00:44 24.09.2021
6227 Clouds 14 1000 84 10000 1.34 16 22:35 23.09.2021
6228 Clouds 13 999 88 10000 1.34 17 21:56 23.09.2021
6229 Clouds 13 997 91 10000 3.58 354 20:36 23.09.2021
6230 Clouds 13 997 91 10000 2.68 344 20:18 23.09.2021
6231 Clouds 12 995 95 10000 1.79 4 18:22 23.09.2021
6232 Clouds 12 996 87 10000 1.79 36 15:37 23.09.2021
6233 Clouds 12 996 87 10000 1.79 309 15:18 23.09.2021
6234 Clouds 12 996 87 10000 0.89 15 13:48 23.09.2021
6235 Clouds 12 996 87 10000 2.24 26 13:22 23.09.2021
6236 Clouds 12 996 88 10000 1.34 260 12:53 23.09.2021
6237 Clouds 12 996 88 10000 0.89 11 12:22 23.09.2021
6238 Clouds 12 996 89 10000 1.34 359 11:47 23.09.2021
6239 Clouds 12 996 91 10000 0.45 342 10:27 23.09.2021
6240 Clouds 12 996 93 10000 0.89 17 09:53 23.09.2021
6241 Clouds 14 994 91 10000 1.34 359 08:31 23.09.2021
6242 Clouds 15 997 89 10000 0.89 13 04:41 23.09.2021
6243 Drizzle 14 1001 91 10000 2.24 70 23:35 22.09.2021
6244 Clouds 13 1001 96 10000 0.45 12 22:37 22.09.2021
6245 Rain 13 1001 96 10000 1.54 210 21:56 22.09.2021
6246 Clouds 12 1001 96 10000 1.03 20 21:34 22.09.2021
6247 Clouds 12 1001 96 10000 1.03 20 21:34 22.09.2021
6248 Clouds 12 1001 94 10000 1.03 70 20:57 22.09.2021
6249 Clouds 12 1002 96 10000 1.03 80 19:33 22.09.2021
6250 Drizzle 12 1003 96 10000 2.57 180 18:40 22.09.2021
6251 Clouds 12 1004 96 10000 1.03 250 17:48 22.09.2021
6252 Clouds 12 1004 94 10000 5.05 41 16:40 22.09.2021
6253 Clouds 12 1006 95 10000 1.03 110 15:29 22.09.2021
6254 Clouds 12 1007 93 10000 2.06 210 14:25 22.09.2021
6255 Clouds 13 1008 95 10000 2.57 170 12:19 22.09.2021
6256 Clouds 13 1009 94 10000 3.09 20 10:57 22.09.2021
6257 Clouds 13 1008 95 10000 3.09 10 09:28 22.09.2021
6258 Drizzle 13 1009 95 10000 0.45 83 08:30 22.09.2021
6259 Clouds 12 1008 96 6000 1.03 10 07:25 22.09.2021
6260 Clouds 12 1008 96 10000 0.45 103 06:18 22.09.2021
6261 Clouds 12 1008 96 10000 4.63 150 05:36 22.09.2021
6262 Clouds 13 1008 94 9000 3.6 180 03:52 22.09.2021
6263 Clouds 12 1008 94 3700 0.45 212 00:37 22.09.2021
6264 Clouds 13 1007 93 8000 1.34 3 23:24 21.09.2021
6265 Clouds 13 1006 90 10000 2.68 20 21:37 21.09.2021
6266 Clouds 12 1005 91 10000 1.79 51 20:27 21.09.2021
6267 Clouds 13 1006 86 10000 0.45 28 19:23 21.09.2021
6268 Clouds 13 1005 88 10000 1.34 360 17:49 21.09.2021
6269 Clouds 13 1006 87 10000 0.89 24 16:38 21.09.2021
6270 Clouds 13 1006 86 10000 1.79 89 15:52 21.09.2021
6271 Clouds 13 1006 86 10000 2.24 297 14:58 21.09.2021
6272 Clouds 13 1007 86 10000 2.24 339 13:57 21.09.2021
6273 Clouds 13 1006 86 10000 2.24 25 13:39 21.09.2021
6274 Clouds 13 1006 86 10000 4.92 280 12:40 21.09.2021
6275 Clouds 14 1008 82 10000 9.26 350 10:33 21.09.2021
6276 Clouds 14 1008 77 10000 12.35 340 08:40 21.09.2021
6277 Clouds 14 1008 77 10000 10.29 350 07:20 21.09.2021
6278 Clouds 15 1010 63 10000 10.8 330 00:48 21.09.2021
6279 Clouds 13 1011 76 10000 9.26 350 22:37 20.09.2021
6280 Clouds 13 1010 76 10000 10.29 350 21:41 20.09.2021
6281 Clouds 13 1010 76 10000 10.29 10 20:58 20.09.2021
6282 Clear 12 1009 82 10000 2.24 16 19:40 20.09.2021
6283 Clear 12 1009 81 10000 1.34 7 17:52 20.09.2021
6284 Clear 12 1009 78 10000 1.34 11 16:50 20.09.2021
6285 Clear 12 1009 80 10000 1.34 24 15:57 20.09.2021
6286 Clear 12 1010 80 10000 1.34 2 15:33 20.09.2021
6287 Clear 11 1009 81 10000 2.24 360 14:25 20.09.2021
6288 Clear 12 1010 81 10000 0.89 3 12:44 20.09.2021
6289 Clear 12 1010 82 10000 0.45 10 12:21 20.09.2021
6290 Clear 13 1009 78 10000 1.79 19 10:36 20.09.2021
6291 Clear 13 1009 79 10000 2.68 12 09:44 20.09.2021
6292 Clear 13 1009 79 10000 1.79 9 09:25 20.09.2021
6293 Clear 13 1009 77 10000 1.34 19 08:31 20.09.2021
6294 Clouds 16 1009 61 10000 0.89 23 02:29 20.09.2021
6295 Clouds 13 1009 81 10000 1.54 220 22:47 19.09.2021
6296 Clouds 11 1008 89 10000 1.54 160 21:47 19.09.2021
6297 Clouds 11 1006 90 10000 0.45 308 20:59 19.09.2021
6298 Clouds 11 1005 90 10000 0.89 308 19:54 19.09.2021
6299 Clouds 12 1004 91 10000 0.89 357 18:42 19.09.2021
6300 Clouds 11 1005 90 10000 1.34 14 17:33 19.09.2021
6301 Clouds 11 1005 92 6000 2.24 357 16:32 19.09.2021
6302 Clouds 11 1006 92 10000 1.79 29 15:31 19.09.2021
6303 Haze 11 1007 91 5000 3.13 25 14:48 19.09.2021
6304 Clouds 12 1008 87 10000 3.13 17 13:49 19.09.2021
6305 Clouds 12 1009 84 10000 1.79 11 12:52 19.09.2021
6306 Clouds 12 1010 83 10000 1.79 71 11:42 19.09.2021
6307 Rain 12 1010 83 10000 2.68 87 11:21 19.09.2021
6308 Clouds 12 1011 78 10000 2.24 20 09:51 19.09.2021
6309 Clouds 12 1011 78 10000 1.34 206 09:21 19.09.2021
6310 Clouds 12 1012 78 10000 2.24 311 06:48 19.09.2021
6311 Clouds 12 1017 83 10000 1.79 342 00:40 19.09.2021
6312 Clouds 9 1018 83 10000 1.34 5 22:54 18.09.2021
6313 Clouds 9 1018 81 10000 0.89 112 21:40 18.09.2021
6314 Clouds 9 1018 80 10000 0.45 32 20:46 18.09.2021
6315 Clouds 8 1018 81 10000 0.89 11 19:42 18.09.2021
6316 Clouds 8 1018 81 10000 0.45 12 19:21 18.09.2021
6317 Clouds 8 1018 82 10000 0.45 323 18:38 18.09.2021
6318 Clouds 8 1018 84 10000 0.89 18 17:59 18.09.2021
6319 Clouds 7 1019 84 10000 1.34 19 16:34 18.09.2021
6320 Clear 7 1022 83 10000 0.45 350 13:51 18.09.2021
6321 Clear 7 1022 83 10000 0.45 11 13:31 18.09.2021
6322 Clear 7 1022 84 10000 4.63 20 12:51 18.09.2021
6323 Clear 6 1021 82 10000 2.57 30 11:42 18.09.2021
6324 Clear 6 1021 79 10000 2.57 10 10:37 18.09.2021
6325 Clear 7 1021 78 10000 1.54 350 09:55 18.09.2021
6326 Clear 8 1021 75 10000 1.03 10 09:22 18.09.2021
6327 Clouds 10 1021 70 10000 2.57 210 08:24 18.09.2021
6328 Clouds 12 1021 64 10000 0.45 188 00:42 18.09.2021
6329 Clouds 11 1021 70 10000 1.79 198 23:53 17.09.2021
6330 Clouds 8 1021 85 10000 0.45 97 22:43 17.09.2021
6331 Clouds 7 1021 87 10000 0.45 124 22:21 17.09.2021
6332 Clouds 6 1021 86 10000 2.06 90 21:27 17.09.2021
6333 Clouds 6 1019 85 10000 1.79 296 19:30 17.09.2021
6334 Clouds 7 1018 81 10000 3.58 281 17:57 17.09.2021
6335 Clouds 7 1018 79 10000 3.13 179 16:33 17.09.2021
6336 Clouds 7 1018 76 10000 0.45 205 14:32 17.09.2021
6337 Clouds 7 1018 78 10000 0.45 107 11:30 17.09.2021
6338 Clouds 7 1017 81 10000 1.79 246 09:40 17.09.2021
6339 Clouds 8 1016 75 10000 1.79 208 07:36 17.09.2021
6340 Clouds 9 1014 68 10000 2.24 140 04:25 17.09.2021
6341 Clouds 8 1013 82 10000 1.34 206 23:41 16.09.2021
6342 Clouds 7 1012 80 10000 2.68 198 22:41 16.09.2021
6343 Clouds 8 1012 77 10000 1.34 217 22:23 16.09.2021
6344 Clouds 8 1011 74 10000 2.24 198 21:27 16.09.2021
6345 Clouds 8 1010 74 10000 2.24 146 20:28 16.09.2021
6346 Clouds 8 1009 77 10000 1.79 174 18:28 16.09.2021
6347 Clouds 8 1009 78 10000 1.79 115 17:58 16.09.2021
6348 Clouds 9 1008 82 10000 3.58 225 15:31 16.09.2021
6349 Haze 9 1008 85 5000 3.13 204 14:35 16.09.2021
6350 Clouds 9 1008 81 10000 3.58 134 12:59 16.09.2021
6351 Clouds 9 1007 83 10000 1.79 133 12:36 16.09.2021
6352 Clouds 9 1007 86 10000 3.58 198 11:46 16.09.2021
6353 Clouds 9 1008 85 7000 2.24 221 10:40 16.09.2021
6354 Clouds 9 1007 82 7000 2.24 184 10:18 16.09.2021
6355 Drizzle 9 1007 77 10000 3.58 105 08:43 16.09.2021
6356 Clouds 9 1007 73 10000 3.58 223 07:46 16.09.2021
6357 Clouds 9 1007 71 10000 4.02 231 06:55 16.09.2021
6358 Clouds 9 1007 72 10000 2.68 184 06:31 16.09.2021
6359 Clouds 9 1009 72 10000 2.24 194 02:57 16.09.2021
6360 Clouds 9 1011 77 10000 1.79 143 00:46 16.09.2021
6361 Haze 9 1011 87 4500 1.79 221 22:52 15.09.2021
6362 Haze 9 1010 88 4600 1.79 114 21:56 15.09.2021
6363 Clouds 9 1010 86 7000 2.68 108 21:30 15.09.2021
6364 Clouds 9 1010 86 7000 2.68 108 21:30 15.09.2021
6365 Clouds 9 1010 86 6000 1.34 136 20:24 15.09.2021
6366 Clouds 10 1010 83 10000 1.34 193 19:29 15.09.2021
6367 Clouds 10 1010 85 10000 1.34 169 18:25 15.09.2021
6368 Clouds 9 1010 84 10000 0.45 228 17:27 15.09.2021
6369 Clouds 9 1011 83 10000 0.89 209 16:27 15.09.2021
6370 Clouds 8 1012 83 10000 6.69 180 14:46 15.09.2021
6371 Clouds 8 1012 83 10000 4.12 210 14:24 15.09.2021
6372 Clouds 8 1013 83 10000 0.51 110 13:40 15.09.2021
6373 Clouds 8 1013 83 10000 0.51 110 13:21 15.09.2021
6374 Clouds 8 1014 85 10000 1.03 80 12:21 15.09.2021
6375 Clouds 8 1014 82 10000 1.54 10 11:47 15.09.2021
6376 Clouds 8 1014 79 10000 1.03 320 10:56 15.09.2021
6377 Clouds 10 1015 74 10000 1.54 60 09:31 15.09.2021
6378 Clouds 11 1014 70 10000 2.06 70 08:41 15.09.2021
6379 Clouds 13 1014 61 10000 0.45 178 05:55 15.09.2021
6380 Clear 11 1019 68 10000 0.89 41 23:56 14.09.2021
6381 Clear 7 1020 82 10000 2.57 140 21:59 14.09.2021
6382 Clear 6 1020 84 10000 5.1 145 20:56 14.09.2021
6383 Clouds 7 1019 82 10000 3.09 150 19:54 14.09.2021
6384 Drizzle 8 1020 81 10000 0.45 131 18:24 14.09.2021
6385 Clouds 8 1020 76 10000 0.45 158 17:29 14.09.2021
6386 Clouds 8 1020 76 10000 0.89 184 15:58 14.09.2021
6387 Clouds 8 1021 74 10000 0.89 166 14:32 14.09.2021
6388 Clouds 8 1021 74 10000 0.45 155 13:26 14.09.2021
6389 Clouds 8 1021 72 10000 1.34 162 10:57 14.09.2021
6390 Clouds 8 1020 68 10000 1.79 157 09:51 14.09.2021
6391 Clouds 8 1020 69 10000 1.34 123 09:18 14.09.2021
6392 Clouds 10 1018 70 10000 1.79 205 07:28 14.09.2021
6393 Clouds 10 1016 82 10000 2.24 213 00:56 14.09.2021
6394 Clouds 9 1014 84 10000 2.24 213 22:58 13.09.2021
6395 Clouds 8 1013 86 10000 0.45 200 22:27 13.09.2021
6396 Clouds 8 1013 88 6000 2.24 227 21:54 13.09.2021
6397 Clouds 9 1012 85 10000 3.13 163 21:19 13.09.2021
6398 Clouds 10 1009 86 10000 6.17 150 19:34 13.09.2021
6399 Clouds 10 1008 85 10000 6.17 140 18:43 13.09.2021
6400 Clouds 9 1006 91 10000 0.45 166 17:18 13.09.2021
6401 Clouds 10 1005 93 10000 5.14 150 15:50 13.09.2021
6402 Clouds 11 1006 90 10000 0.45 227 14:19 13.09.2021
6403 Clouds 13 1004 87 10000 0.89 321 11:21 13.09.2021
6404 Clouds 13 1003 90 10000 0.45 354 09:54 13.09.2021
6405 Clouds 13 1002 91 10000 1.79 28 07:31 13.09.2021
6406 Clouds 13 1005 88 8000 3.58 356 23:50 12.09.2021
6407 Clouds 13 1005 88 10000 2.68 46 22:26 12.09.2021
6408 Clouds 13 1005 87 10000 2.24 20 21:51 12.09.2021
6409 Clouds 13 1005 85 10000 2.68 54 20:41 12.09.2021
6410 Clouds 13 1006 85 10000 1.34 13 19:54 12.09.2021
6411 Clouds 13 1006 85 10000 3.13 7 19:28 12.09.2021
6412 Clouds 13 1005 85 10000 3.13 360 18:32 12.09.2021
6413 Clouds 13 1006 84 10000 1.79 74 16:42 12.09.2021
6414 Clouds 13 1008 88 7000 1.79 11 15:29 12.09.2021
6415 Clouds 13 1009 82 10000 2.24 357 13:55 12.09.2021
6416 Clouds 13 1010 81 10000 2.68 7 11:47 12.09.2021
6417 Clouds 13 1011 80 10000 1.79 353 10:18 12.09.2021
6418 Clouds 13 1011 79 10000 1.79 311 08:38 12.09.2021
6419 Clouds 14 1011 65 10000 3.13 299 02:56 12.09.2021
6420 Clouds 14 1013 64 10000 1.79 19 00:44 12.09.2021
6421 Clouds 11 1013 67 10000 2.68 323 22:25 11.09.2021
6422 Clouds 10 1013 72 10000 0.89 21 21:37 11.09.2021
6423 Clear 10 1012 76 10000 1.34 13 19:33 11.09.2021
6424 Clear 8 1013 85 10000 2.68 179 17:53 11.09.2021
6425 Clear 8 1013 86 10000 3.09 360 16:21 11.09.2021
6426 Clouds 10 1012 78 10000 4.12 340 14:22 11.09.2021
6427 Clouds 9 1011 85 10000 2.57 10 13:20 11.09.2021
6428 Clouds 9 1010 81 10000 3.09 40 11:34 11.09.2021
6429 Clouds 10 1009 76 10000 0.45 86 09:41 11.09.2021
6430 Clouds 10 1009 76 10000 0.45 86 09:41 11.09.2021
6431 Clear 12 1009 67 10000 1.34 33 07:53 11.09.2021
6432 Clear 13 1009 62 10000 0.89 20 07:34 11.09.2021
6433 Clear 13 1006 60 10000 0.89 34 01:20 11.09.2021
6434 Clear 10 1004 78 10000 3.6 200 22:26 10.09.2021
6435 Clouds 9 1003 82 10000 4.12 180 21:55 10.09.2021
6436 Clouds 8 1001 80 10000 8.23 180 20:31 10.09.2021
6437 Clouds 8 999 84 10000 1.34 231 18:28 10.09.2021
6438 Clouds 10 997 66 10000 2.57 70 17:27 10.09.2021
6439 Clouds 11 994 61 10000 1.79 248 15:36 10.09.2021
6440 Clouds 12 993 80 10000 0.89 268 13:18 10.09.2021
6441 Clouds 13 993 72 10000 0.45 68 09:50 10.09.2021
6442 Haze 13 994 89 5000 0.89 1 07:51 10.09.2021
6443 Clouds 15 995 79 8000 3.13 47 03:43 10.09.2021
6444 Clouds 14 997 81 10000 2.68 352 22:33 09.09.2021
6445 Clouds 14 998 82 10000 2.68 64 21:46 09.09.2021
6446 Clouds 13 998 82 10000 3.13 16 20:47 09.09.2021
6447 Clouds 13 998 82 10000 3.58 6 20:21 09.09.2021
6448 Clouds 13 999 82 10000 2.68 11 18:34 09.09.2021
6449 Clouds 13 1000 81 10000 1.79 322 16:41 09.09.2021
6450 Clouds 13 1000 80 10000 1.79 32 16:21 09.09.2021
6451 Clouds 13 1002 71 10000 2.24 352 13:22 09.09.2021
6452 Clouds 13 1002 72 10000 2.68 28 11:49 09.09.2021
6453 Clouds 13 1002 71 10000 1.34 271 10:25 09.09.2021
6454 Clouds 13 1003 71 10000 1.79 344 08:55 09.09.2021
6455 Clear 14 1003 70 10000 1.79 356 06:39 09.09.2021
6456 Clear 15 1005 63 10000 1.79 80 02:57 09.09.2021
6457 Clear 12 1006 65 10000 1.34 294 22:53 08.09.2021
6458 Clear 9 1006 76 10000 0.45 16 21:36 08.09.2021
6459 Clouds 9 1004 75 10000 1.79 10 20:19 08.09.2021
6460 Clouds 8 1004 77 10000 1.34 357 19:23 08.09.2021
6461 Clouds 8 1004 77 10000 0.45 297 18:29 08.09.2021
6462 Clouds 8 1004 78 10000 0.89 19 17:56 08.09.2021
6463 Clouds 7 1005 81 10000 0.45 21 16:34 08.09.2021
6464 Clouds 5 1007 85 10000 3.09 40 14:30 08.09.2021
6465 Clouds 6 1007 85 10000 3.09 40 14:30 08.09.2021
6466 Clouds 6 1007 85 10000 3.09 40 14:30 08.09.2021
6467 Clouds 6 1007 85 10000 3.09 40 14:30 08.09.2021
6468 Clouds 5 1007 85 10000 3.09 40 14:30 08.09.2021
6469 Clouds 6 1005 82 10000 2.57 40 12:54 08.09.2021
6470 Clouds 6 1004 85 10000 2.66 201 12:27 08.09.2021
6471 Clouds 6 1004 81 10000 2.66 201 11:38 08.09.2021
6472 Clouds 7 1003 75 10000 5.66 180 10:43 08.09.2021
6473 Clouds 7 1003 73 10000 6.69 170 10:24 08.09.2021
6474 Clouds 7 1001 72 10000 0.45 215 08:54 08.09.2021
6475 Clouds 8 1000 78 10000 1.34 213 07:38 08.09.2021
6476 Clouds 7 998 84 10000 2.68 212 05:35 08.09.2021
6477 Clouds 12 990 80 10000 0.45 332 22:50 07.09.2021
6478 Clouds 11 990 80 10000 0.89 336 22:18 07.09.2021
6479 Clouds 11 990 80 10000 0.89 353 20:23 07.09.2021
6480 Clouds 11 990 77 10000 1.34 288 18:45 07.09.2021
6481 Clouds 11 991 75 10000 1.79 325 18:18 07.09.2021
6482 Clouds 11 991 75 10000 1.79 325 18:18 07.09.2021
6483 Clear 11 992 70 10000 1.34 325 16:42 07.09.2021
6484 Clear 11 992 68 10000 0.89 325 15:37 07.09.2021
6485 Clear 11 993 72 10000 0.89 7 14:44 07.09.2021
6486 Clouds 12 993 80 10000 2.24 286 12:43 07.09.2021
6487 Clouds 12 993 80 10000 2.24 32 11:45 07.09.2021
6488 Clouds 12 993 83 10000 2.24 78 10:41 07.09.2021
6489 Clouds 13 995 85 10000 3.58 292 08:39 07.09.2021
6490 Clouds 14 994 84 10000 2.68 296 07:44 07.09.2021
6491 Clouds 14 997 86 10000 2.24 6 05:41 07.09.2021
6492 Clouds 13 1001 88 10000 2.68 325 02:36 07.09.2021
6493 Clouds 12 1003 88 6000 2.68 17 00:52 07.09.2021
6494 Clouds 13 1004 81 10000 2.24 19 23:35 06.09.2021
6495 Clouds 13 1004 77 10000 1.79 10 22:54 06.09.2021
6496 Clouds 14 1004 76 10000 1.79 5 22:35 06.09.2021
6497 Clouds 13 1004 77 10000 2.24 4 21:25 06.09.2021
6498 Clouds 12 1006 78 10000 1.79 88 19:31 06.09.2021
6499 Clouds 13 1006 75 10000 1.34 17 18:50 06.09.2021
6500 Clouds 13 1007 76 10000 2.24 30 18:24 06.09.2021
6501 Clouds 13 1008 77 10000 1.79 9 17:36 06.09.2021
6502 Clouds 13 1010 77 10000 1.34 6 15:52 06.09.2021
6503 Clouds 13 1012 78 10000 2.24 3 13:48 06.09.2021
6504 Clouds 13 1013 77 10000 2.68 87 12:48 06.09.2021
6505 Clouds 13 1015 76 10000 0.89 5 10:48 06.09.2021
6506 Clouds 13 1016 72 10000 2.24 341 08:35 06.09.2021
6507 Clouds 13 1017 64 10000 1.79 355 06:47 06.09.2021
6508 Clouds 13 1023 71 10000 1.79 356 23:37 05.09.2021
6509 Clouds 13 1023 74 10000 1.79 310 22:50 05.09.2021
6510 Clouds 12 1023 71 10000 1.34 16 22:28 05.09.2021
6511 Clouds 12 1023 69 10000 1.79 356 21:49 05.09.2021
6512 Clouds 12 1023 78 10000 1.79 335 20:33 05.09.2021
6513 Clouds 12 1023 79 10000 0.89 24 18:46 05.09.2021
6514 Clouds 12 1023 80 10000 1.34 325 17:34 05.09.2021
6515 Clouds 12 1025 81 10000 1.79 322 15:28 05.09.2021
6516 Clouds 13 1026 80 10000 0.89 334 14:19 05.09.2021
6517 Clouds 12 1027 83 10000 1.34 352 12:29 05.09.2021
6518 Clouds 12 1027 84 10000 1.34 353 10:53 05.09.2021
6519 Clouds 12 1027 85 10000 1.34 337 10:23 05.09.2021
6520 Clouds 12 1026 82 10000 6.69 340 09:22 05.09.2021
6521 Clouds 13 1026 77 10000 0.89 3 07:51 05.09.2021
6522 Clouds 14 1029 70 10000 2.24 67 01:22 05.09.2021
6523 Clouds 14 1029 70 10000 1.34 307 00:27 05.09.2021
6524 Clouds 14 1028 71 10000 2.68 358 23:39 04.09.2021
6525 Clouds 13 1028 75 10000 2.24 25 22:36 04.09.2021
6526 Clouds 12 1028 75 10000 1.79 5 21:56 04.09.2021
6527 Clouds 12 1027 77 10000 2.24 100 19:42 04.09.2021
6528 Clouds 12 1027 77 10000 2.24 255 18:43 04.09.2021
6529 Clouds 12 1028 75 10000 2.68 13 16:23 04.09.2021
6530 Clouds 12 1029 79 10000 2.24 30 13:22 04.09.2021
6531 Clouds 12 1029 77 10000 1.79 333 11:19 04.09.2021
6532 Clear 12 1029 75 10000 1.79 343 09:19 04.09.2021
6533 Clear 14 1030 65 10000 1.79 352 05:53 04.09.2021
6534 Clouds 13 1034 63 10000 3.13 253 00:27 04.09.2021
6535 Clouds 14 1033 65 10000 2.24 352 23:32 03.09.2021
6536 Clouds 12 1033 71 10000 2.68 16 22:35 03.09.2021
6537 Clouds 12 1033 78 10000 2.68 327 21:35 03.09.2021
6538 Clouds 12 1033 78 10000 2.68 327 21:35 03.09.2021
6539 Clouds 11 1033 83 10000 1.34 339 20:42 03.09.2021
6540 Clouds 11 1032 85 10000 1.79 27 19:50 03.09.2021
6541 Clouds 11 1033 85 10000 2.68 7 18:59 03.09.2021
6542 Clouds 11 1033 85 10000 1.34 20 17:47 03.09.2021
6543 Clouds 10 1033 87 10000 1.79 5 16:34 03.09.2021
6544 Clouds 10 1034 85 10000 0.89 35 14:53 03.09.2021
6545 Clear 10 1035 81 10000 0.89 344 11:59 03.09.2021
6546 Clear 11 1035 78 10000 0.89 11 10:27 03.09.2021
6547 Clear 11 1034 73 10000 0.89 21 08:44 03.09.2021
6548 Clear 12 1033 73 10000 0.89 359 07:39 03.09.2021
6549 Clear 14 1038 68 10000 0.89 350 01:39 03.09.2021
6550 Clear 9 1038 82 10000 4.63 360 22:55 02.09.2021
6551 Clear 5 1038 91 10000 2.57 40 21:25 02.09.2021
6552 Clear 5 1038 92 10000 2.06 40 19:55 02.09.2021
6553 Clear 5 1035 90 10000 2.06 40 17:31 02.09.2021
6554 Clear 5 1035 90 10000 2.06 40 17:31 02.09.2021
6555 Clear 5 1035 90 10000 2.06 40 17:30 02.09.2021
6556 Clear 6 1036 89 10000 1.54 30 15:49 02.09.2021
6557 Clouds 8 1036 86 10000 4.63 170 13:56 02.09.2021
6558 Clouds 9 1036 86 10000 5.66 150 12:36 02.09.2021
6559 Clouds 10 1036 84 10000 7.72 160 11:33 02.09.2021
6560 Clouds 11 1035 79 10000 4.02 311 09:38 02.09.2021
6561 Clouds 11 1034 83 10000 4.92 278 07:45 02.09.2021
6562 Clouds 11 1034 82 10000 5.81 309 06:57 02.09.2021
6563 Clouds 12 1034 75 10000 1.34 329 02:51 02.09.2021
6564 Clouds 13 1033 70 10000 0.45 179 01:54 02.09.2021
6565 Clouds 13 1033 70 10000 0.45 179 01:19 02.09.2021
6566 Clouds 11 1032 81 10000 2.68 179 23:35 01.09.2021
6567 Clouds 9 1031 85 10000 2.68 179 22:34 01.09.2021
6568 Clouds 8 1031 88 10000 4.92 179 21:34 01.09.2021
6569 Clear 8 1029 89 10000 4.02 179 19:59 01.09.2021
6570 Clear 8 1031 85 10000 1.34 26 17:58 01.09.2021
6571 Clear 8 1031 87 10000 0.89 179 17:35 01.09.2021
6572 Clear 7 1031 87 10000 1.79 179 16:46 01.09.2021
6573 Clear 7 1032 85 10000 2.68 34 15:24 01.09.2021
6574 Clear 7 1030 83 10000 1.03 20 11:49 01.09.2021
6575 Clear 7 1030 80 10000 1.03 50 10:55 01.09.2021
6576 Clear 9 1029 74 10000 3.09 220 08:46 01.09.2021
6577 Clear 11 1029 75 10000 3.6 210 07:50 01.09.2021
6578 Clear 11 1031 70 10000 0.89 265 00:50 01.09.2021
6579 Clear 5 1032 93 10000 1.03 10 22:30 31.08.2021
6580 Clear 4 1031 88 10000 1.54 40 20:57 31.08.2021
6581 Clear 4 1030 91 10000 0.51 50 19:44 31.08.2021
6582 Clear 4 1028 90 10000 0.45 252 18:23 31.08.2021
6583 Clear 4 1028 88 10000 0.45 238 17:34 31.08.2021
6584 Clear 5 1028 85 10000 1.03 360 16:49 31.08.2021
6585 Clear 6 1028 83 10000 0.89 267 15:59 31.08.2021
6586 Clouds 7 1030 78 10000 0.45 116 12:55 31.08.2021
6587 Clouds 7 1030 75 10000 1.54 120 11:26 31.08.2021
6588 Clouds 8 1030 74 10000 2.06 120 10:49 31.08.2021
6589 Clouds 8 1029 71 10000 0.89 165 09:43 31.08.2021
6590 Clouds 9 1028 70 10000 1.34 133 08:36 31.08.2021
6591 Clouds 11 1027 61 10000 0.89 121 05:58 31.08.2021
6592 Clouds 10 1028 64 10000 0.89 155 00:23 31.08.2021
6593 Clouds 9 1028 69 10000 0.89 154 23:25 30.08.2021
6594 Clouds 7 1027 73 10000 0.89 217 21:43 30.08.2021
6595 Clouds 6 1026 73 10000 0.89 159 20:42 30.08.2021
6596 Clouds 6 1025 76 10000 0.89 123 19:58 30.08.2021
6597 Clouds 6 1025 78 10000 0.45 127 19:29 30.08.2021
6598 Clouds 7 1024 77 10000 1.79 169 18:23 30.08.2021
6599 Clouds 6 1024 79 10000 0.45 120 16:49 30.08.2021
6600 Clouds 6 1024 80 10000 0.89 213 15:56 30.08.2021
6601 Clouds 6 1024 76 10000 0.45 137 14:39 30.08.2021
6602 Clouds 7 1024 77 10000 0.89 117 13:27 30.08.2021
6603 Clouds 7 1024 74 10000 0.89 190 11:56 30.08.2021
6604 Clouds 8 1022 77 10000 1.34 130 08:27 30.08.2021
6605 Clouds 9 1017 85 10000 2.68 179 22:20 29.08.2021
6606 Clouds 9 1016 85 10000 1.79 117 21:31 29.08.2021
6607 Clouds 9 1014 84 10000 1.34 179 19:33 29.08.2021
6608 Clouds 8 1013 87 10000 2.24 220 18:30 29.08.2021
6609 Clouds 9 1012 88 10000 1.79 184 16:33 29.08.2021
6610 Clouds 10 1011 89 10000 1.34 143 15:25 29.08.2021
6611 Clouds 10 1010 94 10000 0.89 132 13:57 29.08.2021
6612 Clouds 10 1009 93 10000 0.45 179 12:58 29.08.2021
6613 Clouds 11 1009 93 10000 0.45 130 12:21 29.08.2021
6614 Clouds 10 1008 91 10000 0.45 128 11:41 29.08.2021
6615 Clouds 10 1008 91 10000 6.69 180 10:49 29.08.2021
6616 Clouds 10 1008 91 10000 6.17 190 10:30 29.08.2021
6617 Clouds 10 1007 90 10000 0.45 210 09:44 29.08.2021
6618 Clouds 13 1005 83 10000 0.45 188 04:39 29.08.2021
6619 Clouds 11 1007 94 10000 2.06 220 22:58 28.08.2021
6620 Clouds 10 1009 97 10000 0.51 360 20:34 28.08.2021
6621 Clouds 10 1009 97 6000 1.54 60 19:36 28.08.2021
6622 Clouds 10 1008 96 10000 1.03 60 18:27 28.08.2021
6623 Clouds 10 1008 96 10000 1.03 10 17:47 28.08.2021
6624 Clouds 10 1008 96 10000 2.06 60 16:56 28.08.2021
6625 Clouds 10 1009 94 10000 0.51 50 15:20 28.08.2021
6626 Clouds 10 1010 95 10000 0.51 60 13:59 28.08.2021
6627 Clouds 10 1010 95 10000 1.03 120 13:40 28.08.2021
6628 Clouds 10 1011 95 10000 1.03 90 12:35 28.08.2021
6629 Clouds 10 1011 94 10000 1.03 170 11:34 28.08.2021
6630 Clouds 10 1011 92 10000 2.06 160 09:48 28.08.2021
6631 Clouds 10 1011 92 10000 3.6 180 07:57 28.08.2021
6632 Drizzle 10 1012 83 8000 0.89 211 00:59 28.08.2021
6633 Clouds 12 1010 73 10000 0.45 3 21:29 27.08.2021
6634 Clouds 12 1010 78 10000 0.89 8 20:52 27.08.2021
6635 Clouds 12 1010 77 10000 1.34 360 19:34 27.08.2021
6636 Clouds 11 1010 77 10000 0.45 34 18:39 27.08.2021
6637 Clouds 12 1011 77 10000 1.34 13 17:54 27.08.